# Wetter Temperatur Luftdruck Luftfeuchtigkeit Sichtweite Windgeschwindigkeit Windrichtung Zeit
1 Clouds -1 1022 79 10000 1.5 170 22:25 24.01.2020
2 Clouds -1 1022 92 10000 2.1 160 21:57 24.01.2020
3 Clouds -1 1022 79 10000 2.1 180 21:38 24.01.2020
4 Clouds -1 1022 79 10000 2.1 180 21:18 24.01.2020
5 Clouds -1 1022 79 10000 2.1 180 21:18 24.01.2020
6 Clouds -1 1022 100 9000 1.5 160 20:42 24.01.2020
7 Clouds -1 1022 100 9000 1.5 160 20:21 24.01.2020
8 Clouds 0 1022 79 4800 2.1 160 19:58 24.01.2020
9 Clouds 0 1022 79 4800 2.1 160 19:39 24.01.2020
10 Clouds 0 1022 79 10000 1 170 19:21 24.01.2020
11 Clouds 0 1022 79 10000 2.1 160 18:44 24.01.2020
12 Clouds 1 1022 93 10000 1.5 140 18:25 24.01.2020
13 Clouds 1 1022 86 10000 0.7 210 17:59 24.01.2020
14 Clouds 1 1021 80 10000 0.5 140 17:41 24.01.2020
15 Clouds 3 1021 86 10000 1 0 17:20 24.01.2020
16 Clouds 4 1021 70 10000 1 0 16:40 24.01.2020
17 Clouds 5 1022 61 10000 2.1 260 16:21 24.01.2020
18 Clouds 5 1022 61 10000 2.1 240 15:56 24.01.2020
19 Clouds 5 1022 67 10000 1.5 170 15:38 24.01.2020
20 Clouds 6 1022 57 10000 2.1 220 15:19 24.01.2020
21 Clouds 6 1022 61 10000 2.1 210 14:41 24.01.2020
22 Clouds 6 1022 67 10000 2.6 220 14:41 24.01.2020
23 Clear 6 1022 45 10000 2.6 220 14:23 24.01.2020
24 Clear 6 1022 45 10000 2.6 220 14:23 24.01.2020
25 Clear 5 1023 61 10000 1.5 210 13:57 24.01.2020
26 Clouds 5 1024 74 8000 0.5 280 13:39 24.01.2020
27 Clear 4 1023 45 10000 1.5 230 13:19 24.01.2020
28 Clear 3 1023 69 10000 2.1 200 12:41 24.01.2020
29 Clear 2 1024 74 10000 1.5 230 12:18 24.01.2020
30 Clear 1 1024 45 10000 1.5 150 11:43 24.01.2020
31 Clear 0 1024 49 10000 1 0 11:19 24.01.2020
32 Clear -1 1024 86 9000 1.5 160 10:43 24.01.2020
33 Clear -2 1024 92 10000 1 0 10:22 24.01.2020
34 Clear -2 1024 92 10000 1 210 09:57 24.01.2020
35 Clear -3 1024 92 10000 1 170 09:39 24.01.2020
36 Clear -3 1024 92 10000 1 170 09:20 24.01.2020
37 Clear -3 1024 92 8000 1.5 160 08:40 24.01.2020
38 Clear -4 1024 92 8000 1.5 160 08:20 24.01.2020
39 Clear -3 1024 100 9000 1 0 07:51 24.01.2020
40 Clear -3 1023 92 9000 1.5 170 07:32 24.01.2020
41 Clear -3 1023 92 8000 2.1 160 06:48 24.01.2020
42 Clear -3 1023 92 3700 1.5 190 06:29 24.01.2020
43 Clear -3 1023 100 4900 2.1 200 05:58 24.01.2020
44 Clear -3 1024 100 6000 3.1 220 04:57 24.01.2020
45 Clear -2 1024 92 4700 3.1 220 02:53 24.01.2020
46 Clear -2 1025 100 3500 3.1 210 02:26 24.01.2020
47 Clear -2 1025 100 3400 3.6 210 01:46 24.01.2020
48 Clear -2 1025 100 4400 3.6 210 01:28 24.01.2020
49 Clear -2 1025 92 4400 2.1 200 00:26 24.01.2020
50 Clear -2 1025 92 4500 2.1 170 23:51 23.01.2020
51 Clear -2 1025 92 5000 1.5 180 23:31 23.01.2020
52 Clear -2 1025 92 6000 1.5 150 22:59 23.01.2020
53 Clear -2 1025 92 6000 1.5 150 22:39 23.01.2020
54 Clear -2 1025 92 6000 1 330 22:19 23.01.2020
55 Clear -2 1025 92 6000 0.36 268 21:58 23.01.2020
56 Clouds -2 1025 92 6000 2.1 160 21:39 23.01.2020
57 Clear -2 1025 92 6000 1 0 21:21 23.01.2020
58 Clear -2 1025 100 6000 1.5 200 20:59 23.01.2020
59 Clear -2 1025 100 6000 1.5 200 20:39 23.01.2020
60 Clouds -1 1025 92 6000 1.5 180 20:20 23.01.2020
61 Clouds -2 1025 92 6000 2.1 130 19:56 23.01.2020
62 Clouds -2 1025 92 6000 2.6 120 19:38 23.01.2020
63 Clouds -1 1025 92 6000 2.6 120 19:20 23.01.2020
64 Mist -1 1025 92 5000 3.1 100 18:56 23.01.2020
65 Clouds -1 1025 92 6000 2.6 60 18:37 23.01.2020
66 Mist -1 1025 92 5000 2.1 110 18:19 23.01.2020
67 Mist -1 1025 92 5000 2.6 70 17:43 23.01.2020
68 Clouds -1 1026 92 6000 2.6 110 17:20 23.01.2020
69 Clouds -1 1026 92 6000 2.6 60 16:58 23.01.2020
70 Mist -1 1026 92 4500 3.1 60 16:38 23.01.2020
71 Clouds 0 1026 100 6000 2.6 80 16:19 23.01.2020
72 Clouds 0 1026 100 7000 3.1 60 15:57 23.01.2020
73 Mist -1 1026 92 4500 4.1 50 15:38 23.01.2020
74 Clouds -1 1027 100 7000 2.6 60 15:19 23.01.2020
75 Clouds -1 1027 100 7000 2.1 90 14:57 23.01.2020
76 Mist -1 1027 100 5000 3.1 60 14:39 23.01.2020
77 Mist -1 1027 100 5000 3.1 60 14:21 23.01.2020
78 Mist -1 1028 100 5000 3.6 70 13:46 23.01.2020
79 Mist -1 1029 100 4000 3.1 70 13:21 23.01.2020
80 Mist -1 1029 100 3500 2.6 90 12:57 23.01.2020
81 Mist -1 1029 100 3500 2.6 90 12:39 23.01.2020
82 Mist -1 1029 92 3000 4.1 60 12:21 23.01.2020
83 Mist -1 1030 92 2000 3.1 80 11:54 23.01.2020
84 Mist -2 1030 100 2000 3.1 80 11:36 23.01.2020
85 Mist -2 1030 100 2000 3.1 80 11:18 23.01.2020
86 Mist -3 1032 86 4000 2.6 120 10:41 23.01.2020
87 Mist -3 1030 100 1500 3.1 60 10:19 23.01.2020
88 Mist -3 1030 100 1500 3.1 60 10:19 23.01.2020
89 Mist -3 1030 92 2000 3.6 60 09:41 23.01.2020
90 Mist -3 1031 100 1300 3.6 60 09:23 23.01.2020
91 Mist -3 1031 100 1500 3.1 60 08:57 23.01.2020
92 Mist -3 1031 92 2000 3.6 100 08:38 23.01.2020
93 Mist -3 1031 92 2000 3.6 100 08:20 23.01.2020
94 Mist -3 1031 92 2500 3.1 80 07:42 23.01.2020
95 Mist -3 1031 92 2500 2.1 80 07:24 23.01.2020
96 Clear -3 1031 92 3800 3.1 100 06:46 23.01.2020
97 Clear -3 1031 92 4300 2.6 50 06:19 23.01.2020
98 Clear -3 1032 100 4900 0.5 0 04:58 23.01.2020
99 Clear -3 1032 100 5000 2.1 50 04:22 23.01.2020
100 Clear -3 1033 92 4400 1.5 90 02:31 23.01.2020
101 Clear -3 1033 92 5000 2.6 80 00:58 23.01.2020
102 Clear -3 1033 92 4000 3.1 40 00:27 23.01.2020
103 Clear -3 1033 100 2600 2.6 50 23:47 22.01.2020
104 Clear -3 1033 100 1100 3.1 30 23:29 22.01.2020
105 Clouds -3 1033 100 750 3.6 20 22:58 22.01.2020
106 Clouds -3 1033 92 800 1.5 360 22:39 22.01.2020
107 Clouds -3 1033 92 800 1.5 360 22:21 22.01.2020
108 Clear -3 1033 92 650 1.5 110 21:40 22.01.2020
109 Clear -3 1033 92 900 1 0 21:22 22.01.2020
110 Clear -3 1033 92 1000 1 0 20:57 22.01.2020
111 Clear -3 1035 92 5000 1.22 9 20:37 22.01.2020
112 Mist -3 1033 92 1800 1.5 250 20:19 22.01.2020
113 Mist -3 1032 92 3000 1.5 210 19:56 22.01.2020
114 Fog -3 1032 92 800 2.1 170 19:37 22.01.2020
115 Mist -3 1032 92 1500 3.1 170 19:18 22.01.2020
116 Mist -3 1032 92 1500 1 0 18:56 22.01.2020
117 Fog -2 1032 100 900 1.5 130 18:38 22.01.2020
118 Mist -3 1032 92 2500 2.6 20 18:19 22.01.2020
119 Mist -3 1032 92 2500 2.6 20 18:19 22.01.2020
120 Mist -3 1032 92 1500 1.5 130 17:54 22.01.2020
121 Mist -3 1032 100 1500 1 0 17:36 22.01.2020
122 Mist -2 1032 100 1500 1 0 17:18 22.01.2020
123 Mist -2 1032 92 3900 2.6 50 16:42 22.01.2020
124 Mist -2 1032 92 4300 2.1 20 16:22 22.01.2020
125 Mist -2 1032 100 4000 2.6 10 15:58 22.01.2020
126 Mist -1 1032 100 1000 1 0 15:39 22.01.2020
127 Mist -1 1031 100 4500 1 0 15:21 22.01.2020
128 Mist -1 1031 100 4000 1 0 14:54 22.01.2020
129 Fog -1 1032 100 700 1.5 280 14:36 22.01.2020
130 Mist -1 1032 100 4000 1 0 14:36 22.01.2020
131 Mist -1 1032 100 4000 1 0 14:18 22.01.2020
132 Mist -2 1032 100 3500 1 0 13:54 22.01.2020
133 Fog -2 1032 100 800 1.5 240 13:36 22.01.2020
134 Mist -2 1032 100 3500 0.5 0 13:18 22.01.2020
135 Mist -2 1033 100 3000 1 0 12:54 22.01.2020
136 Fog -2 1033 100 700 0.5 270 12:36 22.01.2020
137 Mist -2 1033 92 3000 1.5 320 12:18 22.01.2020
138 Mist -2 1033 92 4500 2.1 220 11:54 22.01.2020
139 Mist -3 1033 92 3900 2.6 190 11:36 22.01.2020
140 Mist -3 1033 92 3900 2.6 190 11:18 22.01.2020
141 Fog -3 1033 100 600 1.5 190 10:41 22.01.2020
142 Fog -3 1033 100 550 2.1 110 10:19 22.01.2020
143 Fog -3 1033 92 400 1 0 09:43 22.01.2020
144 Fog -3 1033 100 500 2.6 20 09:24 22.01.2020
145 Fog -3 1033 92 500 0.5 0 08:57 22.01.2020
146 Fog -4 1033 92 200 1 300 08:39 22.01.2020
147 Fog -4 1032 92 550 1 0 08:20 22.01.2020
148 Fog -3 1033 92 550 0.5 0 07:47 22.01.2020
149 Fog -4 1032 92 650 1.5 220 07:29 22.01.2020
150 Clouds -3 1032 92 800 2.1 240 06:50 22.01.2020
151 Clouds -3 1032 100 1100 1.5 210 06:26 22.01.2020
152 Clouds -3 1033 100 800 1 0 05:33 22.01.2020
153 Clouds -3 1033 100 700 1.5 190 04:18 22.01.2020
154 Clouds -3 1034 100 650 1 0 03:22 22.01.2020
155 Fog -3 1035 100 200 1 0 01:44 22.01.2020
156 Clear -3 1035 92 1100 1.5 140 00:44 22.01.2020
157 Clear -3 1035 92 1200 0.5 0 00:26 22.01.2020
158 Clear -3 1035 92 4300 1 0 23:39 21.01.2020
159 Clear -3 1035 92 4300 1 0 23:21 21.01.2020
160 Clear -3 1035 92 5000 1.5 100 22:59 21.01.2020
161 Clear -2 1035 92 5000 1.5 100 22:39 21.01.2020
162 Clear -2 1036 92 6000 2.1 100 22:20 21.01.2020
163 Clear -3 1036 92 6000 2.1 80 21:56 21.01.2020
164 Mist -2 1036 92 3000 2.1 80 21:38 21.01.2020
165 Clear -2 1036 92 7000 2.6 50 21:19 21.01.2020
166 Clear -2 1036 92 6000 2.1 40 20:56 21.01.2020
167 Clear -2 1036 100 6000 2.1 30 20:37 21.01.2020
168 Clear -2 1036 100 6000 2.1 30 20:18 21.01.2020
169 Clear -2 1036 100 6000 3.1 30 19:56 21.01.2020
170 Mist -2 1036 92 5000 3.1 50 19:37 21.01.2020
171 Mist -2 1036 92 4500 3.1 20 19:19 21.01.2020
172 Clouds -2 1037 92 7000 2.6 20 18:55 21.01.2020
173 Clear -2 1036 92 7000 2.6 20 18:37 21.01.2020
174 Clear -2 1036 92 7000 2.6 20 18:18 21.01.2020
175 Clear -2 1036 92 7000 3.1 30 17:44 21.01.2020
176 Clear -1 1037 86 8000 2.6 20 17:20 21.01.2020
177 Clear -1 1037 86 10000 3.1 30 16:58 21.01.2020
178 Clear -1 1037 75 10000 2.1 20 16:37 21.01.2020
179 Clear -1 1037 75 10000 2.1 20 16:19 21.01.2020
180 Clear -1 1038 74 10000 1.5 10 15:42 21.01.2020
181 Clear 0 1038 74 10000 1.5 10 15:22 21.01.2020
182 Clear -1 1038 74 8000 1 0 14:59 21.01.2020
183 Clear -1 1038 74 8000 1 0 14:38 21.01.2020
184 Clouds 0 1038 57 8000 1 0 14:20 21.01.2020
185 Rain 0 1038 57 8000 0.5 0 13:40 21.01.2020
186 Rain -1 1039 55 8000 1.6 45 13:19 21.01.2020
187 Clouds -1 1039 92 7000 0.5 0 12:45 21.01.2020
188 Clouds -1 1039 92 9000 1 0 12:27 21.01.2020
189 Clouds -1 1040 92 8000 1.5 80 11:58 21.01.2020
190 Rain -1 1040 92 7000 1.5 70 11:40 21.01.2020
191 Clouds -1 1040 92 7000 1.5 70 11:21 21.01.2020
192 Rain -1 1040 92 8000 1.5 40 10:57 21.01.2020
193 Clouds -1 1040 86 8000 2.1 120 10:39 21.01.2020
194 Clouds -2 1040 92 8000 1 0 10:20 21.01.2020
195 Clouds -2 1040 92 10000 1 0 09:42 21.01.2020
196 Clouds -2 1040 92 10000 1 0 09:22 21.01.2020
197 Clouds -2 1040 92 10000 1 0 08:50 21.01.2020
198 Clouds -2 1039 92 10000 1 0 08:32 21.01.2020
199 Clouds -3 1039 92 9000 1.5 130 08:00 21.01.2020
200 Clouds -2 1039 92 10000 2.1 100 07:40 21.01.2020
201 Clouds -2 1039 92 10000 2.1 150 07:22 21.01.2020
202 Clear -2 1039 92 10000 2.6 120 06:49 21.01.2020
203 Clear -2 1039 92 10000 2.6 100 06:29 21.01.2020
204 Mist -2 1038 100 2000 1.5 100 05:43 21.01.2020
205 Clear -2 1040 86 10000 3.1 70 04:41 21.01.2020
206 Clear -1 1040 92 8000 3.1 60 02:57 21.01.2020
207 Clouds -1 1040 92 8000 2.6 60 02:19 21.01.2020
208 Clouds -1 1040 92 8000 3.1 80 01:26 21.01.2020
209 Clouds -1 1040 100 8000 4.1 50 00:38 21.01.2020
210 Clouds -1 1040 92 7000 4.1 90 23:59 20.01.2020
211 Clouds -2 1041 92 9000 3.1 40 23:41 20.01.2020
212 Clouds -1 1040 92 7000 4.6 80 23:19 20.01.2020
213 Clouds -1 1040 92 8000 5.1 90 22:59 20.01.2020
214 Clouds -1 1041 92 8000 5.1 80 22:39 20.01.2020
215 Clouds -1 1041 92 8000 5.1 80 22:21 20.01.2020
216 Clouds -1 1041 92 9000 4.1 80 21:58 20.01.2020
217 Clouds -1 1041 92 9000 4.1 80 21:38 20.01.2020
218 Clouds -1 1043 92 10000 2.1 30 21:19 20.01.2020
219 Clouds -1 1041 100 10000 2.6 80 20:57 20.01.2020
220 Clouds 0 1044 97 10000 2.1 60 20:38 20.01.2020
221 Clouds 0 1041 92 10000 3.6 80 20:19 20.01.2020
222 Clouds 0 1041 92 10000 3.6 80 20:19 20.01.2020
223 Clouds 0 1042 92 10000 3.6 70 19:57 20.01.2020
224 Clouds 0 1042 86 10000 3.1 60 19:38 20.01.2020
225 Clouds 0 1042 92 10000 3.1 80 19:19 20.01.2020
226 Clouds 0 1044 92 10000 3.1 80 18:45 20.01.2020
227 Clouds 0 1042 92 10000 2.6 70 18:24 20.01.2020
228 Clouds 0 1042 92 10000 3.1 70 17:59 20.01.2020
229 Clouds 0 1042 86 10000 3.6 60 17:38 20.01.2020
230 Clouds 1 1042 81 10000 4.1 80 17:18 20.01.2020
231 Clouds 1 1042 81 10000 4.1 80 16:45 20.01.2020
232 Clouds 1 1042 81 10000 4.6 80 16:25 20.01.2020
233 Clouds 1 1042 81 10000 3.6 80 15:59 20.01.2020
234 Clouds 2 1042 81 10000 5.1 60 15:40 20.01.2020
235 Clouds 2 1042 81 10000 4.6 80 15:21 20.01.2020
236 Clouds 1 1042 81 10000 4.1 90 14:56 20.01.2020
237 Clouds 1 1042 81 10000 3.6 70 14:37 20.01.2020
238 Clouds 1 1042 81 10000 3.6 70 14:37 20.01.2020
239 Clouds 1 1042 79 10000 3.6 70 14:19 20.01.2020
240 Clouds 1 1042 79 9000 3.6 70 13:42 20.01.2020
241 Clouds 1 1043 81 8000 4.1 60 13:24 20.01.2020
242 Rain 1 1043 100 8000 3.6 60 12:58 20.01.2020
243 Rain 1 1043 81 8000 4.1 40 12:40 20.01.2020
244 Rain 1 1043 100 8000 2.1 130 12:21 20.01.2020
245 Clouds 1 1043 100 7000 3.1 80 11:55 20.01.2020
246 Clouds 1 1043 100 7000 3.1 80 11:36 20.01.2020
247 Clouds 0 1043 100 7000 3.1 80 11:18 20.01.2020
248 Mist 0 1043 100 3000 2.1 80 10:41 20.01.2020
249 Mist 0 1043 100 3500 1.5 90 10:20 20.01.2020
250 Mist -1 1043 100 1000 1.5 80 09:42 20.01.2020
251 Mist -1 1043 92 5000 1 60 09:24 20.01.2020
252 Clouds -1 1042 100 6000 1 110 08:55 20.01.2020
253 Clouds -1 1042 100 7000 0.5 160 08:34 20.01.2020
254 Clouds -2 1042 100 7000 1 0 07:56 20.01.2020
255 Mist -2 1042 100 2500 0.5 60 07:38 20.01.2020
256 Clouds -1 1042 92 7000 1 0 07:19 20.01.2020
257 Clouds -1 1041 92 7000 1 290 06:42 20.01.2020
258 Clouds -2 1041 100 6000 0.5 0 06:21 20.01.2020
259 Mist -1 1041 92 2000 1 60 05:38 20.01.2020
260 Snow -1 1041 100 4100 2.1 150 05:19 20.01.2020
261 Snow -1 1041 100 4600 1 0 03:55 20.01.2020
262 Clouds -1 1040 100 7000 1.5 180 01:58 20.01.2020
263 Clouds -1 1040 100 8000 1 240 01:39 20.01.2020
264 Clouds -1 1040 100 8000 1 240 01:18 20.01.2020
265 Clouds -1 1040 100 8000 1 0 00:42 20.01.2020
266 Clouds -1 1040 100 10000 0.5 0 00:20 20.01.2020
267 Clouds -1 1039 92 10000 1.5 180 23:38 19.01.2020
268 Snow -1 1040 92 1500 1 240 23:19 19.01.2020
269 Clouds -1 1039 100 10000 1 190 22:56 19.01.2020
270 Snow -1 1039 100 8000 1.5 230 22:37 19.01.2020
271 Clouds -1 1039 92 10000 2.1 170 22:19 19.01.2020
272 Clouds -1 1039 92 10000 1 240 21:56 19.01.2020
273 Fog -1 1039 92 8000 1 230 21:38 19.01.2020
274 Clouds -2 1038 92 4900 1.5 210 21:19 19.01.2020
275 Clouds -2 1038 92 10000 2.1 220 20:56 19.01.2020
276 Clouds -1 1038 92 750 1.5 180 20:38 19.01.2020
277 Snow -1 1038 92 750 1.5 180 20:19 19.01.2020
278 Snow -1 1038 92 10000 1 0 19:55 19.01.2020
279 Snow -1 1037 88 10000 1.5 260 19:37 19.01.2020
280 Snow -1 1037 88 10000 1.5 260 19:19 19.01.2020
281 Clouds -1 1037 80 10000 1.5 280 18:55 19.01.2020
282 Fog -1 1037 100 8000 1 60 18:37 19.01.2020
283 Clouds 0 1037 80 10000 1 290 18:37 19.01.2020
284 Clouds 0 1037 80 10000 1 290 18:19 19.01.2020
285 Snow 0 1036 80 10000 1 260 17:57 19.01.2020
286 Clouds 0 1036 88 10000 1.5 320 17:39 19.01.2020
287 Clouds 0 1036 80 10000 1.5 270 17:20 19.01.2020
288 Snow 1 1035 100 2100 1.5 100 16:57 19.01.2020
289 Rain 1 1034 92 1000 4.1 20 16:38 19.01.2020
290 Rain 1 1034 86 10000 2.1 310 16:19 19.01.2020
291 Rain 2 1034 86 10000 2.1 310 15:57 19.01.2020
292 Rain 2 1033 84 10000 1.5 350 15:37 19.01.2020
293 Rain 2 1033 84 10000 1.5 350 15:19 19.01.2020
294 Rain 2 1033 86 10000 1 360 14:57 19.01.2020
295 Rain 2 1033 86 8000 2.6 330 14:38 19.01.2020
296 Rain 2 1033 86 8000 2.6 330 14:18 19.01.2020
297 Rain 2 1033 86 8000 2.6 330 14:18 19.01.2020
298 Rain 2 1033 80 10000 1.5 310 13:56 19.01.2020
299 Rain 2 1033 80 10000 1.5 290 13:37 19.01.2020
300 Rain 2 1033 86 10000 1.5 280 13:19 19.01.2020
301 Rain 2 1033 79 10000 1.5 280 12:55 19.01.2020
302 Rain 2 1033 80 10000 1.5 310 12:36 19.01.2020
303 Rain 1 1033 79 6000 2.6 280 12:18 19.01.2020
304 Rain 1 1032 79 10000 3.1 290 11:42 19.01.2020
305 Rain 1 1032 94 10000 3.1 290 11:20 19.01.2020
306 Snow 1 1032 94 10000 2.6 310 10:56 19.01.2020
307 Rain 1 1033 94 5000 4.1 310 10:38 19.01.2020
308 Snow 1 1031 94 7000 1.32 308 10:19 19.01.2020
309 Snow 0 1031 100 6000 0.5 0 09:55 19.01.2020
310 Snow 0 1031 100 6000 0.5 0 09:55 19.01.2020
311 Snow 0 1031 100 6000 0.5 0 09:55 19.01.2020
312 Snow 0 1031 100 6000 0.5 0 09:55 19.01.2020
313 Snow 0 1030 92 5000 0.5 0 09:37 19.01.2020
314 Snow 0 1030 92 5000 0.5 0 09:18 19.01.2020
315 Snow 0 1030 100 3600 0.5 0 08:48 19.01.2020
316 Snow 0 1030 100 7000 2.1 260 08:28 19.01.2020
317 Snow 0 1029 100 6000 2.6 240 07:42 19.01.2020
318 Snow 0 1029 92 3700 1.5 220 07:22 19.01.2020
319 Snow 0 1029 100 5000 1 0 06:54 19.01.2020
320 Snow 0 1029 100 6000 1 280 06:21 19.01.2020
321 Snow 0 1027 98 10000 1.5 220 02:47 19.01.2020
322 Snow 1 1027 97 10000 1 250 02:24 19.01.2020
323 Clouds 1 1027 97 2000 1.5 320 01:28 19.01.2020
324 Snow 1 1027 97 10000 1.5 270 00:54 19.01.2020
325 Snow 1 1027 97 4200 1.5 310 00:31 19.01.2020
326 Snow 1 1027 97 4200 1.5 310 23:59 18.01.2020
327 Snow 1 1027 97 4700 0.5 170 23:41 18.01.2020
328 Snow 1 1026 97 10000 2.1 230 23:23 18.01.2020
329 Snow 1 1026 97 10000 2.1 230 23:23 18.01.2020
330 Snow 1 1027 97 10000 1 0 22:56 18.01.2020
331 Snow 1 1027 97 10000 1.5 220 22:38 18.01.2020
332 Snow 1 1027 97 10000 1.5 220 22:20 18.01.2020
333 Snow 1 1027 97 10000 2.6 210 21:57 18.01.2020
334 Snow 1 1027 97 9000 1.5 160 21:38 18.01.2020
335 Snow 1 1027 97 10000 1.5 280 21:20 18.01.2020
336 Snow 1 1027 97 10000 3.1 250 20:55 18.01.2020
337 Snow 1 1026 96 10000 3.6 220 20:36 18.01.2020
338 Snow 1 1026 92 10000 3.1 230 20:18 18.01.2020
339 Snow 1 1026 92 10000 3.1 220 19:42 18.01.2020
340 Snow 1 1026 92 10000 3.1 220 19:24 18.01.2020
341 Snow 1 1026 93 10000 2.1 190 18:43 18.01.2020
342 Snow 1 1026 93 10000 2.1 190 18:43 18.01.2020
343 Snow 2 1026 93 10000 3.1 240 18:24 18.01.2020
344 Snow 2 1026 93 10000 3.1 240 17:57 18.01.2020
345 Snow 2 1026 93 10000 3.1 240 17:39 18.01.2020
346 Snow 2 1025 93 10000 2.6 180 17:20 18.01.2020
347 Snow 3 1025 93 10000 2.6 170 16:56 18.01.2020
348 Clouds 3 1025 93 10000 2.1 180 16:37 18.01.2020
349 Clouds 3 1025 93 10000 2.1 180 16:19 18.01.2020
350 Clouds 4 1025 86 10000 2.6 200 15:43 18.01.2020
351 Snow 4 1025 86 10000 2.1 200 15:24 18.01.2020
352 Clouds 4 1026 93 10000 2.6 230 14:59 18.01.2020
353 Snow 4 1025 80 10000 2.6 220 14:40 18.01.2020
354 Clouds 4 1026 93 10000 2.6 220 14:19 18.01.2020
355 Rain 4 1026 93 10000 2.6 220 13:55 18.01.2020
356 Rain 3 1026 96 10000 3.1 230 13:36 18.01.2020
357 Rain 3 1026 95 10000 3.1 230 13:18 18.01.2020
358 Rain 3 1026 95 10000 3.1 230 13:18 18.01.2020
359 Rain 3 1026 95 3000 4.6 230 12:40 18.01.2020
360 Snow 3 1026 95 1200 4.6 250 12:21 18.01.2020
361 Rain 3 1026 93 2500 3.6 320 11:56 18.01.2020
362 Rain 3 1026 86 10000 4.1 220 11:37 18.01.2020
363 Clouds 3 1026 86 10000 3.6 210 11:18 18.01.2020
364 Rain 3 1026 93 10000 4.1 210 10:41 18.01.2020
365 Rain 3 1026 93 10000 4.1 210 10:20 18.01.2020
366 Rain 3 1026 93 10000 4.1 210 10:20 18.01.2020
367 Rain 3 1026 93 10000 3.6 220 09:50 18.01.2020
368 Rain 3 1026 93 10000 4.1 220 09:32 18.01.2020
369 Rain 3 1026 93 10000 3.1 220 08:59 18.01.2020
370 Rain 3 1026 93 10000 3.1 220 08:41 18.01.2020
371 Rain 3 1026 100 8000 4.1 240 08:20 18.01.2020
372 Rain 3 1026 93 10000 4.1 220 07:52 18.01.2020
373 Rain 3 1025 100 10000 4.1 220 07:34 18.01.2020
374 Rain 3 1025 100 10000 4.1 220 06:48 18.01.2020
375 Rain 4 1024 100 10000 3.6 210 06:19 18.01.2020
376 Rain 4 1024 93 7000 6.2 260 05:31 18.01.2020
377 Rain 4 1023 93 10000 3.6 230 03:46 18.01.2020
378 Rain 5 1022 86 8000 4.6 250 02:21 18.01.2020
379 Rain 5 1022 86 10000 4.1 250 01:36 18.01.2020
380 Rain 5 1021 93 7000 3.6 230 00:39 18.01.2020
381 Rain 5 1021 86 10000 4.1 250 00:19 18.01.2020
382 Rain 5 1021 81 10000 3.6 250 23:56 17.01.2020
383 Rain 5 1021 86 8000 3.1 230 23:38 17.01.2020
384 Clouds 5 1021 81 10000 5.1 250 23:18 17.01.2020
385 Clouds 5 1021 81 10000 5.1 250 22:40 17.01.2020
386 Clouds 6 1021 75 10000 4.6 250 22:19 17.01.2020
387 Clouds 6 1021 75 10000 4.6 250 22:19 17.01.2020
388 Clouds 5 1021 70 10000 5.1 260 21:54 17.01.2020
389 Clouds 6 1020 65 10000 5.7 250 21:36 17.01.2020
390 Clouds 6 1020 65 10000 5.7 250 21:18 17.01.2020
391 Clouds 5 1020 65 10000 4.1 240 20:41 17.01.2020
392 Clouds 5 1020 74 10000 3.6 250 20:21 17.01.2020
393 Clouds 5 1020 78 10000 3.6 250 20:21 17.01.2020
394 Clouds 5 1020 70 10000 3.6 230 19:58 17.01.2020
395 Clouds 4 1020 74 10000 3.1 230 19:38 17.01.2020
396 Clouds 5 1019 74 10000 3.1 210 19:20 17.01.2020
397 Clouds 5 1019 74 10000 2.1 200 18:58 17.01.2020
398 Clouds 5 1019 74 10000 2.1 200 18:58 17.01.2020
399 Clouds 5 1019 70 10000 3.1 210 18:39 17.01.2020
400 Clouds 5 1019 70 10000 3.1 210 18:21 17.01.2020
401 Clouds 6 1019 56 10000 2.1 200 17:40 17.01.2020
402 Clouds 7 1019 52 10000 2.6 250 17:21 17.01.2020
403 Clouds 7 1019 69 10000 3.6 250 16:57 17.01.2020
404 Clouds 7 1019 57 10000 3.6 250 16:38 17.01.2020
405 Clouds 8 1019 57 10000 3.6 250 16:19 17.01.2020
406 Clouds 9 1019 69 10000 4.6 250 15:45 17.01.2020
407 Clouds 10 1019 69 10000 5.1 270 15:26 17.01.2020
408 Clear 10 1019 50 10000 6.2 250 14:45 17.01.2020
409 Clouds 10 1019 50 10000 4.6 250 14:27 17.01.2020
410 Clouds 10 1020 50 10000 5.7 240 13:58 17.01.2020
411 Clouds 10 1020 53 10000 6.2 240 13:38 17.01.2020
412 Clouds 9 1020 53 10000 6.2 240 13:19 17.01.2020
413 Clouds 9 1020 57 10000 6.2 230 12:44 17.01.2020
414 Clouds 8 1021 57 10000 4.1 220 12:22 17.01.2020
415 Clouds 7 1021 57 10000 4.6 230 11:40 17.01.2020
416 Clouds 5 1021 70 10000 4.1 220 11:19 17.01.2020
417 Clouds 4 1021 70 10000 4.6 220 10:44 17.01.2020
418 Clouds 3 1021 80 10000 4.6 220 10:23 17.01.2020
419 Rain 2 1021 57 10000 5.1 220 09:59 17.01.2020
420 Clouds 1 1021 80 10000 5.7 220 09:41 17.01.2020
421 Clouds 0 1021 80 10000 5.7 220 09:20 17.01.2020
422 Clouds 0 1021 80 10000 5.7 220 09:20 17.01.2020
423 Clouds 0 1021 80 10000 5.1 220 08:46 17.01.2020
424 Clear -1 1021 80 10000 6.2 220 08:25 17.01.2020
425 Clouds -1 1021 80 10000 6.2 220 08:25 17.01.2020
426 Clear -1 1021 78 10000 5.1 220 07:56 17.01.2020
427 Clear -1 1021 78 10000 5.1 220 07:56 17.01.2020
428 Clear -2 1021 92 10000 4.6 210 07:36 17.01.2020
429 Clear -2 1021 92 10000 4.6 210 07:18 17.01.2020
430 Clear -2 1021 100 10000 2.1 180 06:41 17.01.2020
431 Clear -2 1021 100 9000 2.6 210 05:59 17.01.2020
432 Fog -3 1022 100 10000 1 190 03:44 17.01.2020
433 Fog -2 1022 92 8000 2.6 180 02:55 17.01.2020
434 Fog -2 1023 100 300 0.5 160 02:28 17.01.2020
435 Fog -2 1023 92 8000 2.1 170 01:32 17.01.2020
436 Fog -1 1023 92 10000 0.5 190 00:58 17.01.2020
437 Fog -1 1023 92 10000 0.5 190 00:29 17.01.2020
438 Clear 0 1024 100 10000 2.1 40 23:56 16.01.2020
439 Clear 1 1024 100 10000 2.1 40 23:38 16.01.2020
440 Clear 0 1024 100 10000 2.1 40 23:19 16.01.2020
441 Clear 1 1024 86 10000 1.5 50 22:40 16.01.2020
442 Clear 1 1025 93 10000 0.5 0 22:21 16.01.2020
443 Clear 1 1025 91 10000 1 0 21:57 16.01.2020
444 Clear 1 1025 91 10000 1 30 21:37 16.01.2020
445 Clear 1 1025 91 10000 1.5 80 21:19 16.01.2020
446 Clear 1 1025 86 10000 0.5 0 20:56 16.01.2020
447 Clear 2 1025 86 10000 0.5 0 20:38 16.01.2020
448 Clouds 3 1026 75 10000 2.6 60 20:19 16.01.2020
449 Clouds 3 1026 75 10000 2.6 60 19:56 16.01.2020
450 Clouds 3 1026 91 10000 2.6 40 19:37 16.01.2020
451 Clouds 4 1026 80 10000 2.1 20 19:19 16.01.2020
452 Clouds 3 1026 80 10000 2.1 20 19:19 16.01.2020
453 Clouds 4 1026 75 10000 2.1 80 18:55 16.01.2020
454 Clouds 5 1026 75 10000 3.1 90 18:37 16.01.2020
455 Clouds 5 1026 70 10000 3.1 90 18:18 16.01.2020
456 Clouds 5 1026 70 10000 3.1 90 17:42 16.01.2020
457 Clouds 7 1026 65 10000 2.6 80 17:23 16.01.2020
458 Clouds 8 1026 61 10000 3.6 80 16:57 16.01.2020
459 Clouds 8 1026 57 10000 5.1 70 16:39 16.01.2020
460 Clouds 9 1026 57 10000 5.1 70 16:19 16.01.2020
461 Clouds 9 1026 53 10000 4.6 70 15:44 16.01.2020
462 Clouds 10 1026 53 10000 4.6 70 15:24 16.01.2020
463 Clouds 10 1027 53 10000 4.1 50 14:59 16.01.2020
464 Clouds 10 1026 57 10000 4.1 60 14:41 16.01.2020
465 Clouds 10 1027 53 10000 4.1 10 14:22 16.01.2020
466 Clouds 10 1027 46 10000 4.6 20 13:45 16.01.2020
467 Clouds 10 1028 46 10000 4.1 30 13:26 16.01.2020
468 Clouds 10 1028 70 10000 2.6 50 12:57 16.01.2020
469 Clouds 10 1028 53 10000 2.6 40 12:38 16.01.2020
470 Clouds 10 1028 70 10000 2.6 90 12:20 16.01.2020
471 Clouds 9 1029 70 10000 1.5 150 11:41 16.01.2020
472 Clouds 9 1029 70 10000 1.5 150 11:41 16.01.2020
473 Clouds 7 1029 80 10000 1.5 150 11:23 16.01.2020
474 Clouds 6 1029 80 10000 0.79 114 10:55 16.01.2020
475 Clouds 6 1029 80 10000 0.79 114 10:55 16.01.2020
476 Clouds 5 1029 75 10000 1 120 10:37 16.01.2020
477 Clouds 5 1029 80 10000 0.79 114 10:19 16.01.2020
478 Clouds 4 1029 70 10000 0.5 220 09:43 16.01.2020
479 Clouds 4 1029 80 10000 1 220 09:24 16.01.2020
480 Clouds 3 1029 80 10000 2.6 210 08:58 16.01.2020
481 Clouds 4 1029 77 10000 1 190 08:40 16.01.2020
482 Clouds 4 1029 76 10000 1 190 08:19 16.01.2020
483 Clouds 4 1028 76 10000 1.5 220 07:42 16.01.2020
484 Clouds 4 1028 60 10000 3.1 160 07:24 16.01.2020
485 Rain 4 1028 76 10000 2.6 150 06:54 16.01.2020
486 Rain 4 1028 60 10000 2.1 140 06:34 16.01.2020
487 Rain 4 1028 75 10000 2.6 210 05:51 16.01.2020
488 Rain 4 1028 75 10000 3.6 220 04:51 16.01.2020
489 Rain 3 1028 75 10000 3.6 210 04:21 16.01.2020
490 Rain 4 1027 75 10000 3.6 210 03:27 16.01.2020
491 Clear 3 1027 76 10000 4.6 210 02:21 16.01.2020
492 Clear 3 1026 68 10000 6.2 220 00:44 16.01.2020
493 Clear 3 1026 68 10000 6.2 220 00:23 16.01.2020
494 Clouds 3 1025 60 10000 4.1 190 23:45 15.01.2020
495 Clear 2 1026 65 10000 4.6 220 23:22 15.01.2020
496 Clear 2 1025 65 10000 3.6 220 22:57 15.01.2020
497 Clear 2 1025 65 10000 4.1 210 22:39 15.01.2020
498 Clear 2 1025 65 10000 4.1 210 22:18 15.01.2020
499 Clear 2 1025 69 10000 3.1 220 21:56 15.01.2020
500 Clouds 2 1024 64 10000 3.1 190 21:37 15.01.2020
501 Clear 3 1024 60 10000 5.1 200 21:19 15.01.2020
502 Clear 3 1024 60 10000 4.1 210 20:56 15.01.2020
503 Clear 3 1023 60 10000 3.6 190 20:38 15.01.2020
504 Clear 3 1023 60 10000 3.6 190 20:19 15.01.2020
505 Clear 2 1023 64 10000 3.6 230 19:54 15.01.2020
506 Clear 3 1023 60 10000 4.1 240 19:36 15.01.2020
507 Clear 3 1023 60 10000 4.1 240 19:18 15.01.2020
508 Clear 3 1023 60 10000 4.1 240 19:18 15.01.2020
509 Clear 3 1022 56 10000 4.1 240 18:56 15.01.2020
510 Clear 4 1022 52 10000 5.1 230 18:37 15.01.2020
511 Clear 4 1022 52 10000 5.1 230 18:19 15.01.2020
512 Clear 4 1022 52 10000 5.1 230 18:19 15.01.2020
513 Clear 4 1022 52 10000 5.1 230 18:19 15.01.2020
514 Clear 4 1021 52 10000 4.1 240 17:55 15.01.2020
515 Clouds 5 1021 56 10000 3.6 210 17:37 15.01.2020
516 Clear 6 1020 56 10000 3.1 230 17:18 15.01.2020
517 Clouds 7 1020 46 10000 4.1 220 16:40 15.01.2020
518 Clear 8 1020 46 10000 2.6 220 16:22 15.01.2020
519 Clear 8 1019 40 10000 2.6 210 15:57 15.01.2020
520 Clouds 8 1020 43 10000 4.1 230 15:39 15.01.2020
521 Clear 8 1019 34 10000 2.6 200 15:19 15.01.2020
522 Clear 8 1019 34 10000 2.6 200 14:43 15.01.2020
523 Clear 8 1019 34 10000 2.1 200 14:20 15.01.2020
524 Clouds 8 1019 43 10000 2.6 220 13:46 15.01.2020
525 Clear 7 1019 37 10000 1.5 220 13:27 15.01.2020
526 Clear 7 1019 42 10000 2.1 210 12:59 15.01.2020
527 Clear 9 1019 42 10000 2.1 210 12:40 15.01.2020
528 Clear 8 1019 42 10000 2.6 210 12:20 15.01.2020
529 Clear 7 1020 48 10000 1 230 11:58 15.01.2020
530 Clouds 6 1019 45 10000 3.1 200 11:37 15.01.2020
531 Clear 4 1020 55 10000 2.6 220 11:19 15.01.2020
532 Clouds 2 1020 52 10000 2.6 190 10:46 15.01.2020
533 Clear 1 1019 74 10000 1 180 10:27 15.01.2020
534 Clear 0 1019 49 10000 1 160 09:54 15.01.2020
535 Clouds -1 1020 64 10000 3.6 180 09:36 15.01.2020
536 Clear -1 1019 74 10000 2.1 190 09:18 15.01.2020
537 Clouds -2 1019 74 10000 3.1 180 08:41 15.01.2020
538 Clouds -3 1019 79 10000 3.1 210 08:23 15.01.2020
539 Clouds -2 1019 79 10000 3.1 240 07:53 15.01.2020
540 Clouds -2 1019 74 10000 2.1 160 07:32 15.01.2020
541 Clouds -2 1019 79 10000 1.5 190 06:47 15.01.2020
542 Clouds -2 1019 79 10000 1.5 170 06:23 15.01.2020
543 Clouds -1 1019 46 10000 1.5 200 04:45 15.01.2020
544 Clouds -1 1019 86 10000 1.5 200 02:40 15.01.2020
545 Clouds 0 1019 64 10000 1.5 200 01:43 15.01.2020
546 Clouds 0 1019 45 10000 2.6 160 01:20 15.01.2020
547 Clouds 1 1019 69 10000 2.6 170 00:37 15.01.2020
548 Clouds 1 1019 55 10000 2.6 190 00:19 15.01.2020
549 Clouds 2 1019 55 10000 2.6 190 23:46 14.01.2020
550 Clouds 2 1019 64 10000 1.5 190 23:24 14.01.2020
551 Clouds 2 1019 74 10000 2.6 160 22:54 14.01.2020
552 Clouds 2 1019 69 10000 2.1 170 22:36 14.01.2020
553 Clouds 2 1019 69 10000 2.1 170 22:18 14.01.2020
554 Clouds 2 1019 69 10000 2.6 170 21:55 14.01.2020
555 Clouds 2 1019 48 10000 3.6 180 21:37 14.01.2020
556 Clouds 2 1019 59 10000 1.5 230 21:19 14.01.2020
557 Clouds 2 1019 59 10000 1.5 230 20:42 14.01.2020
558 -273 0 0 0 0 0 20:22 14.01.2020
559 Clouds 3 1019 59 10000 2.1 170 19:57 14.01.2020
560 Clouds 3 1019 48 10000 2.1 150 19:38 14.01.2020
561 Clouds 3 1019 48 10000 2.1 150 19:38 14.01.2020
562 Clouds 4 1019 48 10000 2.1 150 19:20 14.01.2020
563 Clouds 3 1019 52 10000 1 0 18:59 14.01.2020
564 Clouds 3 1019 52 10000 1 0 18:40 14.01.2020
565 Clouds 5 1018 45 10000 2.6 180 18:19 14.01.2020
566 Clouds 5 1018 45 10000 2.6 180 18:19 14.01.2020
567 Clouds 5 1018 45 10000 2.6 180 17:39 14.01.2020
568 Clouds 6 1018 39 10000 3.6 240 17:20 14.01.2020
569 Clouds 7 1018 42 10000 4.1 230 16:59 14.01.2020
570 Clouds 7 1018 42 10000 4.1 210 16:41 14.01.2020
571 Clouds 8 1018 37 10000 3.6 220 16:21 14.01.2020
572 Clouds 8 1018 37 10000 2.6 220 15:56 14.01.2020
573 Clouds 8 1018 37 10000 2.1 220 15:38 14.01.2020
574 Clouds 8 1018 37 10000 2.1 220 15:18 14.01.2020
575 Clouds 9 1018 37 10000 2.1 220 15:18 14.01.2020
576 Clouds 8 1017 32 10000 4.1 220 14:43 14.01.2020
577 Clouds 8 1017 34 10000 3.1 220 14:20 14.01.2020
578 Clouds 8 1018 37 10000 3.6 220 13:55 14.01.2020
579 Clouds 8 1017 37 10000 4.1 200 13:37 14.01.2020
580 Clouds 8 1018 37 10000 2.6 210 13:18 14.01.2020
581 Clouds 7 1018 56 10000 1.28 233 12:41 14.01.2020
582 Clouds 7 1018 45 10000 3.1 210 12:20 14.01.2020
583 Clouds 6 1018 52 10000 2.1 220 11:43 14.01.2020
584 Clouds 4 1018 64 10000 3.1 220 11:25 14.01.2020
585 Clouds 3 1018 64 10000 3.1 220 10:59 14.01.2020
586 Clouds 2 1018 64 10000 3.1 220 10:40 14.01.2020
587 Clouds 1 1018 74 10000 2.1 210 10:20 14.01.2020
588 Clouds 0 1017 69 10000 2.6 220 09:58 14.01.2020
589 Clouds -1 1017 59 10000 3.6 190 09:40 14.01.2020
590 Clouds -1 1017 37 10000 0.5 0 09:21 14.01.2020
591 Clouds -2 1017 86 10000 1 0 08:48 14.01.2020
592 Clouds -2 1017 86 10000 3.1 220 08:25 14.01.2020
593 Clouds -2 1017 86 10000 3.1 220 07:56 14.01.2020
594 Clouds -2 1016 86 10000 4.1 230 07:34 14.01.2020
595 Clouds -2 1016 86 10000 4.1 230 07:34 14.01.2020
596 Clouds -2 1016 74 10000 1 0 06:57 14.01.2020
597 Clouds -2 1016 74 10000 4.6 180 06:39 14.01.2020
598 Clouds -2 1016 74 10000 4.6 180 06:39 14.01.2020
599 Clouds -2 1016 64 10000 2.1 170 05:28 14.01.2020
600 Clouds -2 1017 47 10000 2.6 170 04:22 14.01.2020
601 Clouds -2 1017 79 10000 2.6 200 03:35 14.01.2020
602 Clouds -2 1017 79 10000 1.5 200 02:26 14.01.2020
603 Clouds -2 1018 79 10000 2.1 210 01:18 14.01.2020
604 Clouds -1 1017 86 10000 2.1 210 00:39 14.01.2020
605 Clouds -1 1017 86 10000 2.1 210 00:21 14.01.2020
606 Fog -1 1018 100 10000 2.2 177 23:38 13.01.2020
607 Clear -1 1018 57 10000 2.1 170 23:18 13.01.2020
608 Clear -1 1018 57 10000 2.6 160 22:54 13.01.2020
609 Clear 0 1018 86 10000 3.1 210 22:36 13.01.2020
610 Clear 0 1018 86 10000 3.1 210 22:18 13.01.2020
611 Clear 0 1019 57 10000 1 0 21:54 13.01.2020
612 Clear 0 1019 57 10000 1 0 21:54 13.01.2020
613 Clear 0 1019 80 10000 1.5 220 21:36 13.01.2020
614 Clear 0 1019 80 10000 1.5 220 21:18 13.01.2020
615 Clear 1 1019 57 10000 2.1 220 20:42 13.01.2020
616 Clouds 1 1019 64 10000 0.5 0 20:23 13.01.2020
617 Clouds 1 1019 64 10000 2.1 170 19:59 13.01.2020
618 Clouds 2 1019 69 10000 1.5 160 19:41 13.01.2020
619 Clouds 2 1019 69 10000 1.5 160 19:20 13.01.2020
620 Clouds 2 1020 64 10000 3.1 160 18:58 13.01.2020
621 Clouds 2 1020 64 10000 3.1 160 18:58 13.01.2020
622 Clouds 2 1020 74 10000 2.1 160 18:38 13.01.2020
623 Clouds 3 1020 74 10000 2.1 160 18:19 13.01.2020
624 Clouds 2 1020 74 10000 2.1 160 18:19 13.01.2020
625 Clouds 3 1020 74 10000 1.5 170 17:58 13.01.2020
626 Clouds 3 1019 64 10000 3.1 140 17:38 13.01.2020
627 Clouds 4 1020 64 10000 1.5 150 17:20 13.01.2020
628 Clouds 5 1020 60 10000 1.5 130 16:42 13.01.2020
629 Clouds 5 1020 60 10000 1.5 130 16:23 13.01.2020
630 Clouds 5 1020 57 0 0.26 55 15:59 13.01.2020
631 Clouds 5 1020 52 10000 1 110 15:41 13.01.2020
632 Clouds 5 1020 52 10000 1 110 15:21 13.01.2020
633 Clouds 5 1020 52 10000 1 110 14:54 13.01.2020
634 Mist 5 1022 86 5000 1 0 14:36 13.01.2020
635 Mist 5 1022 86 5000 1 0 14:18 13.01.2020
636 Mist 5 1022 86 5000 1 0 13:40 13.01.2020
637 Clouds 5 1021 59 0 0.51 179 13:22 13.01.2020
638 Clouds 5 1021 62 0 0.45 179 12:58 13.01.2020
639 Clouds 4 1023 64 10000 1 0 12:40 13.01.2020
640 Clouds 4 1023 64 10000 1 0 12:21 13.01.2020
641 Clouds 4 1023 64 10000 1 0 11:54 13.01.2020
642 Clouds 3 1023 74 10000 1.5 170 11:36 13.01.2020
643 Clouds 2 1023 74 10000 1.5 170 11:18 13.01.2020
644 Clouds 2 1023 74 10000 1.5 170 11:18 13.01.2020
645 Clouds 1 1023 86 10000 0.57 124 10:55 13.01.2020
646 Clouds 1 1023 52 10000 1 190 10:36 13.01.2020
647 Clouds 1 1023 52 10000 1 190 10:18 13.01.2020
648 Clouds 1 1023 92 10000 1 0 09:40 13.01.2020
649 Clouds 1 1024 86 10000 1 0 09:40 13.01.2020
650 Clouds 0 1024 86 10000 1 0 09:22 13.01.2020
651 Clouds 0 1024 92 10000 1.5 140 08:42 13.01.2020
652 Clouds 0 1024 92 10000 1.5 230 08:21 13.01.2020
653 Clouds 0 1024 86 10000 1 170 07:57 13.01.2020
654 Clouds -1 1024 92 10000 2.6 160 07:38 13.01.2020
655 Clouds -1 1024 92 10000 1.5 180 06:55 13.01.2020
656 Clouds -1 1024 92 10000 1.5 150 06:36 13.01.2020
657 Clouds -1 1024 92 10000 1.5 150 06:36 13.01.2020
658 Clouds -1 1025 92 10000 0.5 0 05:36 13.01.2020
659 Clouds 0 1025 86 10000 1.5 170 04:25 13.01.2020
660 Clouds 0 1026 92 10000 1.5 190 03:34 13.01.2020
661 Clouds 0 1026 86 10000 2.1 180 02:49 13.01.2020
662 Clouds 0 1027 92 10000 0.5 0 02:29 13.01.2020
663 Clouds 0 1027 92 10000 0.5 0 02:29 13.01.2020
664 Clouds -1 1026 92 10000 1.5 150 01:33 13.01.2020
665 Clouds -1 1026 92 10000 1 0 00:44 13.01.2020
666 Clouds -1 1026 92 10000 1.5 210 00:25 13.01.2020
667 Clouds -1 1027 86 9000 0.5 0 23:57 12.01.2020
668 Clouds 0 1027 92 6000 0.5 0 23:38 12.01.2020
669 Clouds 0 1027 92 6000 0.5 0 23:20 12.01.2020
670 Clouds -1 1027 92 10000 1.5 210 22:43 12.01.2020
671 Clouds -1 1027 92 10000 1.5 210 22:24 12.01.2020
672 Clouds -1 1027 86 10000 1.5 210 21:59 12.01.2020
673 Clouds -1 1027 86 10000 1.5 210 21:59 12.01.2020
674 Clouds -1 1027 92 10000 1.5 230 21:40 12.01.2020
675 Clouds -1 1027 92 10000 1.5 230 21:20 12.01.2020
676 Clouds -1 1027 66 10000 1.5 200 20:58 12.01.2020
677 Clouds 0 1027 65 10000 1 0 20:39 12.01.2020
678 Clouds 0 1027 62 10000 1 0 20:21 12.01.2020
679 Clouds 0 1027 100 10000 0.5 0 19:56 12.01.2020
680 Clouds 0 1027 100 10000 0.5 0 19:56 12.01.2020
681 Clouds 0 1027 100 10000 0.5 0 19:56 12.01.2020
682 Clouds 0 1026 92 10000 1 180 19:38 12.01.2020
683 Clouds 0 1027 62 10000 0.5 0 19:38 12.01.2020
684 Clouds 0 1026 62 10000 0.5 0 19:19 12.01.2020
685 Clouds 0 1026 62 10000 0.5 0 18:58 12.01.2020
686 Clouds 0 1026 62 10000 0.5 0 18:40 12.01.2020
687 Clouds 0 1026 92 10000 0.5 0 18:21 12.01.2020
688 Clouds 1 1026 86 10000 1 150 17:58 12.01.2020
689 Clouds 1 1026 86 10000 1 150 17:40 12.01.2020
690 Clouds 1 1025 57 10000 1 0 17:19 12.01.2020
691 Clouds 2 1025 57 10000 1 350 16:56 12.01.2020
692 Clouds 3 1025 57 10000 2.1 210 16:37 12.01.2020
693 Clouds 3 1025 57 10000 2.1 210 16:19 12.01.2020
694 Clouds 3 1025 57 10000 2.6 230 15:43 12.01.2020
695 Clouds 3 1025 60 10000 1.5 250 15:24 12.01.2020
696 Clouds 4 1025 65 10000 2.1 240 14:57 12.01.2020
697 Clouds 4 1026 57 10000 2.1 280 14:38 12.01.2020
698 Clouds 4 1026 49 10000 2.6 220 14:20 12.01.2020
699 Clouds 4 1026 49 10000 3.1 240 13:55 12.01.2020
700 Clear 3 1026 47 10000 2.6 200 13:36 12.01.2020
701 Clear 4 1026 47 10000 2.6 200 13:18 12.01.2020
702 Clear 3 1026 47 10000 2.6 200 13:18 12.01.2020
703 Fog 3 1028 100 1000 2.6 240 12:43 12.01.2020
704 Clear 2 1027 47 10000 3.1 230 12:21 12.01.2020
705 Clear 2 1027 80 10000 2.6 220 11:59 12.01.2020
706 Clear 2 1027 80 10000 2.6 220 11:40 12.01.2020
707 Clear 0 1027 66 10000 2.6 210 11:21 12.01.2020
708 Clear -1 1027 66 8000 2.6 230 10:43 12.01.2020
709 Clear -2 1027 92 10000 1.5 220 10:23 12.01.2020
710 Clear -2 1027 92 10000 1.5 220 09:59 12.01.2020
711 Clear -2 1027 92 10000 1.5 220 09:41 12.01.2020
712 Clear -3 1026 92 10000 2.1 190 09:21 12.01.2020
713 Clear -4 1027 92 10000 2.6 190 08:47 12.01.2020
714 Clear -5 1026 100 10000 2.1 220 08:22 12.01.2020
715 Clear -5 1026 92 10000 2.6 220 07:46 12.01.2020
716 Clear -4 1026 100 10000 3.1 220 07:25 12.01.2020
717 Clear -4 1027 100 10000 2.6 220 06:54 12.01.2020
718 Clear -4 1027 100 10000 1 250 06:36 12.01.2020
719 Clear -4 1027 100 10000 2.1 180 05:52 12.01.2020
720 Clear -4 1027 100 10000 3.1 220 04:54 12.01.2020
721 Clear -3 1028 100 8000 1 200 03:35 12.01.2020
722 Clear -3 1028 100 8000 1.5 200 02:46 12.01.2020
723 Clouds -3 1028 92 6000 2.1 220 02:24 12.01.2020
724 Clouds -3 1029 100 4500 0.5 0 01:34 12.01.2020
725 Clouds -3 1029 100 3600 1 180 00:46 12.01.2020
726 Clouds -2 1029 100 7000 1 0 00:22 12.01.2020
727 Clouds -2 1030 100 10000 2.6 160 23:56 11.01.2020
728 Clouds -2 1030 100 100 1 220 23:38 11.01.2020
729 Clouds -2 1030 100 1000 0.5 190 23:18 11.01.2020
730 Clouds -2 1030 100 9000 0.5 0 22:56 11.01.2020
731 Clouds -2 1030 100 100 1 140 22:37 11.01.2020
732 Clouds -2 1030 92 1000 0.8 119 22:19 11.01.2020
733 Clouds -1 1030 100 10000 1 150 21:44 11.01.2020
734 Clouds 0 1030 92 10000 0.5 0 21:19 11.01.2020
735 Clouds 0 1030 100 10000 0.8 119 20:57 11.01.2020
736 Clouds 0 1030 100 10000 0.8 119 20:39 11.01.2020
737 Clouds 1 1030 91 10000 0.5 0 20:19 11.01.2020
738 Clouds 1 1030 91 10000 1 0 19:57 11.01.2020
739 Clouds 1 1031 91 10000 1.5 130 19:38 11.01.2020
740 Clouds 1 1030 91 10000 1 0 19:38 11.01.2020
741 Clouds 2 1031 91 10000 1.5 130 19:20 11.01.2020
742 Clouds 1 1031 91 10000 0.5 150 18:55 11.01.2020
743 Clouds 2 1031 91 10000 1 0 18:37 11.01.2020
744 Clouds 2 1031 91 10000 1 0 18:18 11.01.2020
745 Clouds 3 1031 91 10000 1.5 80 17:57 11.01.2020
746 Clouds 3 1031 91 10000 1.5 60 17:39 11.01.2020
747 Clouds 4 1031 80 10000 1.5 60 17:18 11.01.2020
748 Clouds 4 1031 80 10000 1 100 16:44 11.01.2020
749 Clouds 5 1031 80 10000 1 90 16:25 11.01.2020
750 Rain 5 1031 80 10000 2.1 110 15:56 11.01.2020
751 Rain 5 1031 80 10000 2.1 110 15:56 11.01.2020
752 Rain 5 1032 80 10000 1.5 50 15:38 11.01.2020
753 Rain 5 1032 69 10000 0.5 0 15:20 11.01.2020
754 Clouds 5 1032 69 10000 2.1 20 14:46 11.01.2020
755 Clouds 5 1032 69 650 1 0 14:25 11.01.2020
756 Clouds 5 1032 74 100 1.5 330 13:58 11.01.2020
757 Clouds 5 1032 74 2000 2.1 330 13:38 11.01.2020
758 Clouds 5 1032 73 2000 2.1 330 13:20 11.01.2020
759 Clouds 5 1032 73 150 1.5 360 12:56 11.01.2020
760 Clouds 5 1033 73 10000 1.5 360 12:37 11.01.2020
761 Clouds 5 1032 69 10000 1 0 12:19 11.01.2020
762 Clouds 5 1033 73 10000 1.5 220 11:45 11.01.2020
763 Clouds 4 1033 80 10000 1.5 200 11:24 11.01.2020
764 Clouds 4 1033 86 10000 2.1 200 10:50 11.01.2020
765 Clouds 4 1033 86 10000 1 210 10:30 11.01.2020
766 Clouds 3 1033 86 10000 1.5 240 09:44 11.01.2020
767 Clouds 3 1032 86 10000 2.1 320 09:21 11.01.2020
768 Clouds 3 1033 86 10000 1 0 09:21 11.01.2020
769 Clouds 3 1032 86 10000 2.1 320 09:21 11.01.2020
770 Clouds 3 1033 86 10000 1 0 09:21 11.01.2020
771 Clouds 3 1032 86 10000 2.1 320 08:59 11.01.2020
772 Clouds 3 1033 86 10000 1 260 08:41 11.01.2020
773 Clouds 3 1032 86 10000 4.1 340 08:20 11.01.2020
774 Clouds 3 1032 86 10000 3.1 320 07:43 11.01.2020
775 Clouds 3 1031 86 10000 2.1 250 07:24 11.01.2020
776 Clouds 4 1031 93 10000 2.6 240 06:45 11.01.2020
777 Clouds 4 1031 86 10000 3.1 250 05:33 11.01.2020
778 Clouds 4 1031 80 10000 2.1 250 04:45 11.01.2020
779 Clouds 4 1030 86 10000 2.6 270 04:27 11.01.2020
780 Clouds 5 1030 75 10000 3.6 260 02:48 11.01.2020
781 Rain 5 1029 93 10000 2.6 260 01:51 11.01.2020
782 Rain 5 1029 93 10000 3.1 260 01:32 11.01.2020
783 Rain 5 1028 86 10000 3.1 260 00:58 11.01.2020
784 Rain 5 1028 86 10000 3.1 260 00:58 11.01.2020
785 Rain 5 1028 86 10000 3.6 290 00:32 11.01.2020
786 Rain 6 1028 93 8000 5.1 290 23:59 10.01.2020
787 Rain 6 1028 93 8000 5.1 290 23:39 10.01.2020
788 Rain 6 1027 81 10000 7.2 250 23:21 10.01.2020
789 Rain 7 1027 81 10000 7.2 250 22:56 10.01.2020
790 Rain 7 1028 81 9000 4.6 260 22:38 10.01.2020
791 Rain 7 1027 75 10000 4.6 250 22:19 10.01.2020
792 Rain 7 1026 70 10000 5.7 240 21:55 10.01.2020
793 Rain 7 1027 75 10000 4.6 240 21:36 10.01.2020
794 Rain 7 1026 70 10000 6.2 240 21:18 10.01.2020
795 Rain 7 1025 75 10000 5.1 230 20:42 10.01.2020
796 Clouds 7 1025 70 10000 5.7 220 20:24 10.01.2020
797 Clouds 8 1025 70 10000 5.7 220 20:24 10.01.2020
798 Clouds 7 1025 70 10000 6.2 220 19:55 10.01.2020
799 Clouds 7 1024 70 10000 5.7 230 19:37 10.01.2020
800 Clouds 7 1024 70 10000 5.7 230 19:19 10.01.2020
801 Clouds 7 1024 70 10000 4.1 230 18:41 10.01.2020
802 Clouds 8 1024 70 10000 4.1 220 18:19 10.01.2020
803 Clouds 8 1023 70 10000 4.6 220 17:57 10.01.2020
804 Clouds 8 1023 70 10000 4.1 200 17:39 10.01.2020
805 Clouds 8 1023 70 10000 5.1 220 17:20 10.01.2020
806 Clouds 8 1022 70 10000 5.7 230 16:56 10.01.2020
807 Clouds 8 1022 65 10000 5.7 200 16:37 10.01.2020
808 Clouds 9 1022 65 10000 6.7 240 16:19 10.01.2020
809 Clouds 9 1022 65 10000 6.7 250 15:56 10.01.2020
810 Clouds 9 1022 61 10000 7.7 240 15:36 10.01.2020
811 Clouds 9 1022 61 10000 7.7 240 15:18 10.01.2020
812 Clouds 10 1021 61 10000 6.7 250 14:55 10.01.2020
813 Clouds 10 1021 57 10000 7.7 250 14:37 10.01.2020
814 Clouds 10 1021 57 10000 7.7 250 14:18 10.01.2020
815 Clouds 10 1021 57 10000 7.2 250 13:43 10.01.2020
816 Clear 10 1021 53 10000 7.2 260 13:25 10.01.2020
817 Clear 10 1021 57 10000 8.2 250 12:58 10.01.2020
818 Clear 10 1021 57 10000 7.7 250 12:39 10.01.2020
819 Clear 9 1021 57 10000 7.7 250 12:19 10.01.2020
820 Clear 9 1021 57 10000 7.7 250 12:19 10.01.2020
821 Clear 9 1021 61 10000 5.1 250 11:56 10.01.2020
822 Clear 8 1021 61 10000 4.6 240 11:38 10.01.2020
823 Clear 8 1021 61 10000 4.6 240 11:38 10.01.2020
824 Clear 8 1021 61 10000 4.6 240 11:38 10.01.2020
825 Clear 8 1021 61 10000 4.6 240 11:18 10.01.2020
826 Clear 7 1021 65 10000 4.1 220 10:58 10.01.2020
827 Clear 7 1020 70 10000 3.6 240 10:36 10.01.2020
828 Clear 6 1020 70 10000 3.6 240 10:18 10.01.2020
829 Clouds 5 1020 65 10000 4.6 210 09:43 10.01.2020
830 Clear 4 1020 75 10000 4.6 220 09:24 10.01.2020
831 Clouds 4 1019 69 10000 5.1 220 08:43 10.01.2020
832 Clouds 3 1019 69 10000 5.1 220 08:24 10.01.2020
833 Clouds 3 1019 69 10000 5.1 220 08:24 10.01.2020
834 Clouds 3 1019 64 10000 4.6 230 07:58 10.01.2020
835 Clouds 3 1019 60 10000 3.6 210 07:39 10.01.2020
836 Clouds 3 1019 60 10000 4.1 210 07:19 10.01.2020
837 Clouds 3 1019 60 10000 3.6 210 06:27 10.01.2020
838 Clouds 3 1019 59 10000 3.6 220 05:59 10.01.2020
839 Clouds 2 1018 52 10000 3.6 200 04:44 10.01.2020
840 Clouds 1 1017 74 10000 6.2 220 03:31 10.01.2020
841 Clouds 1 1017 74 10000 6.2 220 03:31 10.01.2020
842 Clouds 1 1017 80 10000 1.5 190 02:52 10.01.2020
843 Clouds 1 1017 80 10000 2.1 200 02:19 10.01.2020
844 Clouds 1 1016 80 10000 3.6 240 01:30 10.01.2020
845 Clouds 1 1016 69 10000 3.1 240 00:51 10.01.2020
846 Clouds 1 1016 74 10000 2.6 200 00:33 10.01.2020
847 Clouds 2 1017 69 10000 2.1 180 23:57 09.01.2020
848 Clouds 2 1017 69 10000 2.1 180 23:57 09.01.2020
849 Clouds 2 1017 69 10000 1 0 23:36 09.01.2020
850 Clouds 2 1017 69 10000 1 0 23:18 09.01.2020
851 Clouds 2 1017 64 10000 2.6 160 22:56 09.01.2020
852 Clouds 3 1017 64 10000 2.6 170 22:37 09.01.2020
853 Clouds 3 1017 64 10000 2.6 170 22:18 09.01.2020
854 Clouds 3 1018 69 10000 1.5 160 21:55 09.01.2020
855 Clouds 3 1018 80 10000 4.1 210 21:37 09.01.2020
856 Clouds 3 1018 80 10000 4.1 210 21:18 09.01.2020
857 Clouds 3 1018 80 10000 2.1 180 20:55 09.01.2020
858 Clouds 3 1018 80 10000 2.1 180 20:37 09.01.2020
859 Clouds 3 1018 80 10000 1.5 200 20:18 09.01.2020
860 Clouds 3 1018 80 10000 1.5 200 20:18 09.01.2020
861 Clouds 3 1018 69 10000 1.5 170 19:39 09.01.2020
862 Clouds 4 1019 74 10000 2.1 150 19:21 09.01.2020
863 Clouds 4 1019 74 10000 2.6 150 18:57 09.01.2020
864 Clouds 5 1019 74 10000 2.6 150 18:39 09.01.2020
865 Clouds 5 1019 80 10000 1 0 18:21 09.01.2020
866 Clouds 6 1019 75 10000 0.5 0 17:57 09.01.2020
867 Clouds 6 1019 75 10000 0.5 0 17:39 09.01.2020
868 Clouds 8 1019 75 10000 1 0 17:18 09.01.2020
869 Clouds 8 1019 70 10000 1 170 16:42 09.01.2020
870 Clouds 10 1019 57 10000 1.5 200 16:21 09.01.2020
871 Clouds 10 1019 53 10000 3.1 220 15:43 09.01.2020
872 Clouds 11 1019 53 10000 3.1 220 15:25 09.01.2020
873 Clouds 11 1020 53 10000 2.6 210 14:59 09.01.2020
874 Clouds 11 1020 53 10000 2.6 210 14:41 09.01.2020
875 Clouds 11 1020 37 10000 3.6 210 14:19 09.01.2020
876 Clouds 11 1020 37 10000 3.6 220 13:57 09.01.2020
877 Clouds 11 1020 37 10000 3.6 220 13:38 09.01.2020
878 Clouds 11 1021 40 10000 3.6 220 13:19 09.01.2020
879 Clouds 11 1021 51 10000 2.1 220 12:57 09.01.2020
880 Clouds 11 1021 51 10000 2.1 220 12:38 09.01.2020
881 Clouds 10 1021 51 10000 2.6 220 12:18 09.01.2020
882 Clouds 9 1022 37 10000 2.6 210 11:42 09.01.2020
883 Clouds 7 1022 56 10000 2.1 190 11:24 09.01.2020
884 Clouds 6 1023 45 10000 2.1 200 10:59 09.01.2020
885 Clouds 6 1023 45 10000 2.1 200 10:41 09.01.2020
886 Clouds 5 1023 45 10000 3.6 180 10:21 09.01.2020
887 Clouds 4 1023 65 10000 1.5 190 09:49 09.01.2020
888 Clouds 3 1023 69 10000 2.1 200 09:26 09.01.2020
889 Clouds 2 1024 74 10000 3.1 200 08:59 09.01.2020
890 Clouds 2 1024 74 10000 3.1 200 08:40 09.01.2020
891 Clouds 2 1024 74 10000 1.5 170 08:22 09.01.2020
892 Clouds 2 1024 74 10000 2.6 210 07:57 09.01.2020
893 Clouds 2 1024 74 10000 2.6 210 07:38 09.01.2020
894 Clouds 2 1024 80 10000 2.6 200 07:19 09.01.2020
895 Clouds 2 1024 74 10000 1.5 170 06:38 09.01.2020
896 Clouds 2 1024 69 10000 1.5 210 06:18 09.01.2020
897 Clouds 2 1024 80 10000 1.5 230 05:40 09.01.2020
898 Clouds 2 1025 74 10000 1.5 220 04:42 09.01.2020
899 Clouds 2 1025 74 10000 1.5 220 04:42 09.01.2020
900 Clouds 3 1025 52 10000 1.69 208 03:28 09.01.2020
901 Clouds 4 1026 56 10000 4.1 150 02:47 09.01.2020
902 Clouds 4 1027 65 10000 2.1 190 01:56 09.01.2020
903 Clouds 4 1027 65 10000 2.1 190 01:34 09.01.2020
904 Clouds 3 1027 53 10000 1.5 160 00:40 09.01.2020
905 Clouds 4 1027 69 10000 2.1 200 00:20 09.01.2020
906 Clouds 3 1027 64 10000 1.5 210 23:41 08.01.2020
907 Clouds 4 1027 65 10000 0.5 0 23:23 08.01.2020
908 Clouds 3 1027 50 10000 2.1 180 22:58 08.01.2020
909 Clouds 3 1027 50 10000 2.1 180 22:38 08.01.2020
910 Clouds 3 1028 50 10000 1.5 170 22:20 08.01.2020
911 Clouds 3 1028 50 10000 1.5 170 21:57 08.01.2020
912 Clouds 3 1028 50 10000 1 0 21:38 08.01.2020
913 Clouds 4 1028 74 10000 1.5 210 21:19 08.01.2020
914 Clouds 4 1028 74 10000 1.5 210 20:57 08.01.2020
915 Clouds 4 1027 69 10000 1 160 20:38 08.01.2020
916 Clouds 4 1028 55 10000 1 190 20:20 08.01.2020
917 Clouds 4 1028 60 10000 1.5 150 19:56 08.01.2020
918 Clouds 4 1028 55 10000 1 190 19:56 08.01.2020
919 Clouds 4 1028 60 10000 1.5 150 19:37 08.01.2020
920 Clouds 4 1028 60 10000 1.5 150 19:37 08.01.2020
921 Clouds 4 1028 69 10000 2.1 230 19:18 08.01.2020
922 Clouds 4 1028 64 10000 0.5 0 18:55 08.01.2020
923 Clouds 4 1028 64 10000 0.5 0 18:37 08.01.2020
924 Clouds 3 1028 55 10000 1.5 200 18:18 08.01.2020
925 Clouds 3 1028 69 10000 1 0 17:47 08.01.2020
926 Clouds 3 1028 69 10000 1 0 17:24 08.01.2020
927 Clouds 3 1028 69 10000 1 0 17:24 08.01.2020
928 Clouds 3 1028 60 10000 1 0 16:57 08.01.2020
929 Clouds 3 1028 69 10000 1.5 190 16:39 08.01.2020
930 Clouds 4 1028 80 10000 1 0 16:19 08.01.2020
931 Clouds 4 1028 80 10000 1 0 15:58 08.01.2020
932 Clouds 3 1029 54 10000 0.5 340 15:39 08.01.2020
933 Clouds 3 1028 86 10000 1.5 220 15:19 08.01.2020
934 Clouds 3 1028 86 10000 1.5 220 14:56 08.01.2020
935 Clouds 3 1028 86 10000 0.5 0 14:38 08.01.2020
936 Clouds 3 1028 46 10000 2.6 230 14:19 08.01.2020
937 Clouds 3 1029 46 10000 1 0 13:39 08.01.2020
938 Clouds 2 1029 46 10000 2.1 230 13:19 08.01.2020
939 Clouds 2 1029 74 10000 2.6 150 12:42 08.01.2020
940 Clouds 2 1029 80 10000 1.5 210 12:19 08.01.2020
941 Clouds 1 1029 80 10000 1.5 210 11:55 08.01.2020
942 Clouds 0 1030 46 10000 2.6 210 11:37 08.01.2020
943 Clouds 0 1031 86 10000 1.5 110 11:19 08.01.2020
944 Clouds 0 1030 51 10000 1.86 218 10:55 08.01.2020
945 Clouds 0 1030 51 10000 1.86 218 10:37 08.01.2020
946 Clouds 0 1029 51 10000 2.1 220 10:18 08.01.2020
947 Clouds 0 1030 100 10000 1.5 180 09:41 08.01.2020
948 Clouds 0 1029 51 10000 3.1 160 09:19 08.01.2020
949 Clouds -1 1029 51 10000 3.1 160 08:56 08.01.2020
950 Clouds -1 1028 92 10000 1.5 170 08:37 08.01.2020
951 Clouds -2 1029 92 10000 1.5 220 08:19 08.01.2020
952 Clouds -2 1029 92 10000 1.5 220 08:19 08.01.2020
953 Clouds -2 1029 92 10000 1.5 220 07:48 08.01.2020
954 Clouds -2 1028 100 10000 2.6 180 07:29 08.01.2020
955 Clouds -2 1028 92 10000 1 0 06:45 08.01.2020
956 -273 0 0 0 0 0 06:22 08.01.2020
957 Clouds -3 1028 100 10000 1.5 210 05:41 08.01.2020
958 Clear -2 1028 100 8000 2.1 180 04:56 08.01.2020
959 Clear -2 1029 100 6000 2.6 170 04:25 08.01.2020
960 Clear -1 1029 100 1300 1 0 02:45 08.01.2020
961 Clear -1 1029 100 6000 2.6 160 02:22 08.01.2020
962 Clear -1 1029 92 3700 2.6 160 01:48 08.01.2020
963 Clear 0 1029 91 600 1.5 190 01:23 08.01.2020
964 Rain 0 1029 91 2700 1.5 180 00:38 08.01.2020
965 Rain 0 1029 100 7000 1.5 160 00:20 08.01.2020
966 Clear 1 1030 91 10000 1 0 23:43 07.01.2020
967 Clouds 1 1030 94 10000 1.5 140 23:20 07.01.2020
968 Clouds 1 1030 94 9000 1 0 22:40 07.01.2020
969 Clouds 1 1030 94 10000 1 0 22:20 07.01.2020
970 Clouds 1 1030 94 10000 1 0 21:57 07.01.2020
971 Clouds 1 1030 94 10000 2.1 150 21:39 07.01.2020
972 Clouds 1 1030 94 6000 1 0 21:21 07.01.2020
973 Clouds 1 1030 94 6000 1 0 20:57 07.01.2020
974 Clouds 1 1031 100 9000 2.1 150 20:38 07.01.2020
975 Clouds 2 1031 94 10000 1 140 20:20 07.01.2020
976 Clouds 2 1031 94 10000 1 190 19:55 07.01.2020
977 Clouds 2 1031 94 10000 1 190 19:36 07.01.2020
978 Clouds 2 1031 94 5000 2.1 160 19:18 07.01.2020
979 Clouds 2 1031 94 9000 2.6 150 18:55 07.01.2020
980 Clouds 2 1031 94 9000 2.6 150 18:37 07.01.2020
981 Clouds 3 1030 93 10000 1 0 18:18 07.01.2020
982 Clouds 3 1030 93 10000 1 180 17:40 07.01.2020
983 Clouds 3 1030 86 10000 1 170 17:22 07.01.2020
984 Clouds 3 1030 86 10000 1 170 16:57 07.01.2020
985 Clouds 3 1030 86 10000 1 180 16:38 07.01.2020
986 Clouds 3 1030 86 10000 1 180 16:38 07.01.2020
987 Clouds 3 1030 86 10000 1 180 16:38 07.01.2020
988 Clouds 4 1030 86 10000 2.1 250 16:19 07.01.2020
989 Rain 4 1029 86 10000 2.6 260 15:59 07.01.2020
990 Rain 4 1029 86 10000 2.6 260 15:40 07.01.2020
991 Rain 4 1029 86 10000 3.1 250 15:22 07.01.2020
992 Rain 4 1029 86 10000 3.1 250 14:56 07.01.2020
993 Rain 4 1029 86 10000 3.6 250 14:37 07.01.2020
994 Rain 4 1029 86 10000 3.6 250 14:19 07.01.2020
995 Clouds 4 1029 86 10000 4.1 250 13:40 07.01.2020
996 Clouds 3 1029 93 10000 3.1 260 13:19 07.01.2020
997 Rain 4 1029 86 10000 3.6 240 12:54 07.01.2020
998 Rain 4 1029 86 10000 3.6 240 12:36 07.01.2020
999 Rain 4 1029 86 10000 3.6 250 12:18 07.01.2020
1000 Rain 3 1029 86 10000 3.6 260 11:41 07.01.2020
1001 Clouds 3 1029 93 10000 4.6 230 11:21 07.01.2020
1002 Rain 3 1029 93 10000 6.2 230 10:43 07.01.2020
1003 Rain 2 1028 100 7000 5.1 240 10:24 07.01.2020
1004 Rain 2 1028 93 7000 8.2 260 09:59 07.01.2020
1005 Rain 3 1028 93 7000 8.2 260 09:38 07.01.2020
1006 Rain 2 1027 80 10000 5.1 240 09:20 07.01.2020
1007 Rain 2 1027 90 10000 7.2 250 08:47 07.01.2020
1008 Rain 1 1027 92 10000 7.2 250 08:28 07.01.2020
1009 Clouds 1 1025 69 10000 4.1 240 07:55 07.01.2020
1010 Clouds 0 1025 69 10000 4.1 240 07:35 07.01.2020
1011 Clouds 0 1025 64 10000 2.6 230 06:54 07.01.2020
1012 Clouds -1 1025 64 10000 2.6 230 06:35 07.01.2020
1013 Clouds -2 1025 69 10000 3.6 240 05:58 07.01.2020
1014 Clouds -1 1025 92 9000 3.41 262 05:39 07.01.2020
1015 Clear -2 1024 64 10000 2.6 250 03:44 07.01.2020
1016 Clear -2 1024 70 10000 4.1 220 02:47 07.01.2020
1017 Clear -3 1024 80 10000 4.6 220 01:59 07.01.2020
1018 Clear -3 1024 80 10000 4.6 220 01:36 07.01.2020
1019 Clear -2 1024 65 10000 3.6 230 00:55 07.01.2020
1020 Clear -2 1024 80 10000 4.1 220 00:20 07.01.2020
1021 Clear -2 1024 80 10000 4.1 220 23:56 06.01.2020
1022 Clear -2 1024 79 10000 1.5 190 23:37 06.01.2020
1023 Clear -2 1025 80 10000 1.5 190 23:19 06.01.2020
1024 Clear -2 1025 74 10000 1.5 210 22:44 06.01.2020
1025 Clear -2 1025 74 10000 1.5 210 22:44 06.01.2020
1026 Clear -2 1025 100 8000 1.5 90 22:24 06.01.2020
1027 Clear -2 1025 74 10000 1 0 21:58 06.01.2020
1028 Clear -2 1025 72 10000 1.5 180 21:39 06.01.2020
1029 Clear -2 1025 72 10000 2.6 200 21:20 06.01.2020
1030 Clear -2 1025 72 10000 2.6 200 20:57 06.01.2020
1031 Clear -2 1026 92 6000 2.1 80 20:39 06.01.2020
1032 Clear -2 1025 80 10000 1.5 210 20:20 06.01.2020
1033 Clear -1 1025 66 10000 1 190 19:57 06.01.2020
1034 Clear -1 1025 66 10000 1 190 19:39 06.01.2020
1035 Clear -1 1025 74 10000 1.5 150 19:20 06.01.2020
1036 Clear -1 1025 86 10000 1 150 18:48 06.01.2020
1037 Clear -1 1026 92 10000 1 200 18:25 06.01.2020
1038 Clear 0 1026 66 10000 1.5 230 17:59 06.01.2020
1039 Clear 1 1026 66 10000 1.5 230 17:39 06.01.2020
1040 Clear 1 1026 86 10000 0.5 140 17:19 06.01.2020
1041 Clear 2 1026 74 10000 0.5 100 16:55 06.01.2020
1042 Clear 3 1026 74 10000 0.5 100 16:36 06.01.2020
1043 Clear 3 1026 64 10000 1 0 16:18 06.01.2020
1044 Clear 4 1026 65 10000 1 0 15:42 06.01.2020
1045 Clear 4 1026 60 10000 1.5 190 15:20 06.01.2020
1046 Clear 4 1026 60 10000 1.5 190 14:59 06.01.2020
1047 Clear 4 1027 64 10000 1.5 180 14:41 06.01.2020
1048 Clear 4 1027 64 10000 1.5 180 14:41 06.01.2020
1049 Clear 4 1027 69 10000 1.5 210 14:21 06.01.2020
1050 Clear 4 1027 64 10000 2.1 210 13:58 06.01.2020
1051 Clear 3 1027 64 10000 2.1 210 13:38 06.01.2020
1052 Clear 3 1028 74 10000 2.6 220 13:20 06.01.2020
1053 Clear 3 1028 64 10000 2.6 230 12:44 06.01.2020
1054 Clear 2 1028 74 10000 1 0 12:21 06.01.2020
1055 Clear 1 1029 86 10000 1 0 11:59 06.01.2020
1056 Clear 1 1029 86 10000 1 0 11:41 06.01.2020
1057 Clear 0 1029 63 10000 1 0 11:23 06.01.2020
1058 Clear -1 1029 92 10000 2.1 210 10:58 06.01.2020
1059 Clear -1 1029 92 10000 2.1 210 10:40 06.01.2020
1060 Clear -2 1029 100 10000 3.6 230 10:20 06.01.2020
1061 Clear -3 1029 100 10000 1.5 230 09:39 06.01.2020
1062 Clear -4 1029 92 10000 1.5 170 09:20 06.01.2020
1063 Clear -4 1029 100 10000 0.5 0 08:52 06.01.2020
1064 Clouds -4 1029 100 10000 0.5 0 08:34 06.01.2020
1065 Clouds -4 1029 92 10000 0.5 0 07:57 06.01.2020
1066 Clouds -4 1029 92 10000 0.5 0 07:37 06.01.2020
1067 Clouds -4 1029 92 10000 1 220 06:49 06.01.2020
1068 Clouds -4 1029 92 10000 1 220 06:30 06.01.2020
1069 Clouds -4 1029 100 10000 1 0 05:48 06.01.2020
1070 Clear -3 1029 92 10000 0.5 0 04:58 06.01.2020
1071 Clear -3 1030 92 10000 2.1 140 04:22 06.01.2020
1072 Clear -3 1031 92 10000 1 0 03:26 06.01.2020
1073 Clear -2 1031 100 8000 2.1 120 02:26 06.01.2020
1074 Clear -2 1032 92 5000 1.5 140 01:49 06.01.2020
1075 Clear -2 1032 92 5000 1.5 140 01:29 06.01.2020
1076 Clear -2 1032 100 2000 1 140 00:45 06.01.2020
1077 Clear -2 1033 92 1200 0.5 100 00:26 06.01.2020
1078 Clear -2 1033 92 1200 0.5 100 23:57 05.01.2020
1079 Clear -2 1033 100 5000 1.5 160 23:38 05.01.2020
1080 Clear -1 1033 100 2100 1 90 23:19 05.01.2020
1081 Clear -1 1033 100 7000 1.5 160 22:40 05.01.2020
1082 Clear -1 1033 100 10000 2.6 150 22:20 05.01.2020
1083 Clear -1 1033 100 10000 2.6 150 22:20 05.01.2020
1084 Clear -1 1034 100 7000 1 150 21:57 05.01.2020
1085 Clear -1 1034 100 7000 1 150 21:39 05.01.2020
1086 Clear 0 1034 92 10000 1 220 21:20 05.01.2020
1087 Clouds 0 1035 86 10000 1.5 0 20:56 05.01.2020
1088 Clear 0 1034 100 10000 0.5 150 20:38 05.01.2020
1089 Clouds 1 1034 92 10000 0.5 0 20:19 05.01.2020
1090 Clouds 1 1034 92 10000 1.5 110 19:58 05.01.2020
1091 Clouds 1 1034 92 10000 1.5 110 19:38 05.01.2020
1092 Clouds 1 1034 100 10000 0.47 148 19:20 05.01.2020
1093 Clouds 1 1034 100 10000 0.47 148 19:20 05.01.2020
1094 Clouds 1 1034 90 10000 1 130 18:55 05.01.2020
1095 Clouds 2 1034 90 10000 1 130 18:37 05.01.2020
1096 Clouds 2 1034 100 10000 1 0 18:19 05.01.2020
1097 Clouds 2 1035 86 10000 1.5 270 17:58 05.01.2020
1098 Clouds 2 1034 90 10000 1.5 230 17:39 05.01.2020
1099 Clouds 3 1034 86 10000 1 330 17:20 05.01.2020
1100 Clouds 3 1034 86 10000 1 330 17:20 05.01.2020
1101 Clouds 3 1034 74 10000 1 0 16:56 05.01.2020
1102 Clouds 3 1034 74 10000 1 0 16:56 05.01.2020
1103 Clouds 4 1034 74 10000 1 0 16:38 05.01.2020
1104 Clouds 4 1034 82 10000 0.5 0 16:19 05.01.2020
1105 Clouds 4 1034 82 10000 1.5 300 15:39 05.01.2020
1106 Clouds 4 1034 82 10000 1 0 15:20 05.01.2020
1107 Clouds 4 1034 82 10000 1 0 14:56 05.01.2020
1108 Clouds 4 1034 82 10000 2.1 310 14:38 05.01.2020
1109 Clouds 4 1034 73 10000 1.5 350 14:20 05.01.2020
1110 Clouds 4 1034 86 10000 1.5 340 13:56 05.01.2020
1111 Clouds 4 1034 86 10000 1.5 340 13:38 05.01.2020
1112 Clouds 4 1034 86 10000 2.6 320 13:19 05.01.2020
1113 Snow 4 1034 86 10000 2.6 290 12:56 05.01.2020
1114 Snow 4 1034 86 10000 2.6 290 12:37 05.01.2020
1115 Snow 4 1034 86 10000 2.6 270 12:19 05.01.2020
1116 Snow 3 1034 86 10000 2.1 280 11:44 05.01.2020
1117 Clouds 3 1035 86 10000 3.1 250 11:20 05.01.2020
1118 Clouds 3 1035 86 10000 3.1 250 11:20 05.01.2020
1119 Clouds 3 1035 86 10000 3.1 250 10:59 05.01.2020
1120 Clouds 3 1035 93 10000 3.1 240 10:40 05.01.2020
1121 Clouds 2 1035 92 10000 3.1 240 10:19 05.01.2020
1122 Clouds 2 1035 92 10000 3.1 240 09:42 05.01.2020
1123 Clouds 2 1034 92 10000 4.1 230 09:22 05.01.2020
1124 Clouds 2 1034 92 10000 3.1 230 08:52 05.01.2020
1125 Clouds 2 1034 92 10000 3.1 230 08:32 05.01.2020
1126 Snow 2 1034 97 10000 4.6 230 07:59 05.01.2020
1127 Snow 2 1034 97 10000 4.6 230 07:39 05.01.2020
1128 Snow 2 1034 97 10000 4.6 230 07:39 05.01.2020
1129 Snow 2 1034 97 10000 4.6 240 07:20 05.01.2020
1130 Snow 2 1034 97 10000 4.1 250 06:44 05.01.2020
1131 Snow 2 1033 97 10000 5.1 250 05:38 05.01.2020
1132 Snow 2 1033 94 10000 6.2 260 04:55 05.01.2020
1133 Snow 2 1033 94 10000 6.7 260 04:18 05.01.2020
1134 Snow 2 1033 94 10000 6.7 260 04:18 05.01.2020
1135 Snow 2 1033 94 10000 6.7 260 04:18 05.01.2020
1136 Snow 3 1032 94 10000 6.2 250 03:26 05.01.2020
1137 Snow 3 1032 94 10000 7.7 250 02:32 05.01.2020
1138 Snow 3 1032 96 10000 6.7 250 01:49 05.01.2020
1139 Snow 3 1032 96 10000 7.2 250 01:20 05.01.2020
1140 Snow 3 1032 96 10000 7.2 250 00:57 05.01.2020
1141 Snow 3 1032 96 10000 7.2 250 00:57 05.01.2020
1142 Snow 2 1031 96 10000 8.2 250 00:39 05.01.2020
1143 Snow 2 1031 96 10000 7.7 250 00:19 05.01.2020
1144 Snow 3 1031 96 10000 7.7 250 23:41 04.01.2020
1145 Snow 3 1031 95 10000 8.2 250 23:21 04.01.2020
1146 Rain 3 1031 80 10000 7.2 250 22:59 04.01.2020
1147 Rain 3 1031 80 10000 7.2 250 22:39 04.01.2020
1148 Rain 3 1031 74 10000 7.2 260 22:20 04.01.2020
1149 Snow 3 1031 74 10000 7.7 250 21:56 04.01.2020
1150 Snow 3 1031 74 10000 7.7 250 21:37 04.01.2020
1151 Snow 3 1031 74 10000 7.2 260 21:19 04.01.2020
1152 Snow 3 1031 74 10000 7.7 250 20:55 04.01.2020
1153 Snow 3 1031 74 10000 7.7 250 20:36 04.01.2020
1154 Snow 3 1031 69 10000 6.7 260 20:18 04.01.2020
1155 Snow 3 1031 74 10000 5.1 260 19:41 04.01.2020
1156 Snow 3 1031 74 10000 5.7 260 19:23 04.01.2020
1157 Snow 3 1030 74 10000 6.7 260 18:58 04.01.2020
1158 Snow 3 1030 74 10000 6.7 260 18:39 04.01.2020
1159 Snow 3 1029 74 10000 7.7 250 18:20 04.01.2020
1160 Snow 3 1029 91 10000 7.2 250 17:57 04.01.2020
1161 Snow 3 1029 91 10000 7.2 250 17:39 04.01.2020
1162 Clouds 3 1029 74 10000 7.2 240 17:21 04.01.2020
1163 Clouds 3 1029 81 10000 6.7 240 16:42 04.01.2020
1164 Clouds 3 1029 81 10000 6.7 240 16:24 04.01.2020
1165 Clouds 3 1028 81 10000 5.7 240 15:58 04.01.2020
1166 Clouds 3 1028 81 10000 5.1 240 15:39 04.01.2020
1167 Clouds 3 1029 81 10000 5.7 260 15:19 04.01.2020
1168 Clouds 3 1028 81 10000 4.6 260 14:57 04.01.2020
1169 Clouds 3 1029 81 10000 5.7 260 14:57 04.01.2020
1170 Clouds 3 1028 81 10000 4.6 260 14:39 04.01.2020
1171 Snow 3 1028 82 10000 5.1 250 14:19 04.01.2020
1172 Snow 3 1028 82 10000 4.1 270 13:56 04.01.2020
1173 Snow 3 1028 82 10000 4.1 270 13:37 04.01.2020
1174 Snow 3 1028 86 10000 4.1 270 13:18 04.01.2020
1175 Snow 4 1029 86 10000 4.1 280 12:42 04.01.2020
1176 Snow 4 1029 86 10000 5.1 270 12:20 04.01.2020
1177 Snow 4 1029 93 9000 5.1 290 11:59 04.01.2020
1178 Snow 4 1029 93 9000 5.1 290 11:40 04.01.2020
1179 Snow 4 1029 93 9000 5.1 290 11:40 04.01.2020
1180 Rain 4 1029 93 10000 3.1 270 11:20 04.01.2020
1181 Rain 3 1029 80 10000 5.1 290 10:59 04.01.2020
1182 Rain 3 1029 100 10000 2.6 300 10:38 04.01.2020
1183 Rain 3 1028 100 5000 3.1 310 10:19 04.01.2020
1184 Drizzle 3 1028 100 7000 3.6 310 09:43 04.01.2020
1185 Drizzle 3 1028 100 7000 3.6 310 09:43 04.01.2020
1186 Rain 4 1028 93 3200 4.6 340 09:25 04.01.2020
1187 Rain 4 1027 93 2800 4.6 280 08:49 04.01.2020
1188 Rain 4 1027 93 2800 4.6 280 08:29 04.01.2020
1189 Rain 5 1027 93 3500 4.1 250 07:55 04.01.2020
1190 Rain 5 1027 93 3500 4.1 250 07:55 04.01.2020
1191 Rain 5 1027 93 3500 4.1 250 07:37 04.01.2020
1192 Rain 5 1026 93 10000 5.1 240 06:43 04.01.2020
1193 Rain 5 1026 93 10000 6.2 240 05:57 04.01.2020
1194 Rain 5 1026 93 10000 5.7 240 04:51 04.01.2020
1195 Rain 5 1026 93 10000 5.7 240 04:30 04.01.2020
1196 Rain 6 1026 87 10000 6.7 230 03:29 04.01.2020
1197 Rain 6 1026 93 10000 6.7 230 02:49 04.01.2020
1198 Rain 6 1026 93 10000 6.7 230 02:18 04.01.2020
1199 Rain 6 1026 93 10000 6.7 230 02:18 04.01.2020
1200 Rain 6 1026 87 10000 7.2 230 01:45 04.01.2020
1201 Rain 6 1026 87 10000 7.2 230 01:27 04.01.2020
1202 Rain 6 1026 81 10000 7.7 240 00:29 04.01.2020
1203 Rain 6 1026 81 10000 6.7 230 23:59 03.01.2020
1204 Rain 6 1026 81 10000 6.7 230 23:37 03.01.2020
1205 Clouds 5 1026 86 10000 6.2 220 23:18 03.01.2020
1206 Clouds 5 1026 86 10000 6.7 220 22:40 03.01.2020
1207 Clouds 6 1026 86 10000 6.7 230 22:19 03.01.2020
1208 Clouds 6 1026 86 10000 6.7 230 21:58 03.01.2020
1209 Clouds 6 1026 81 10000 6.2 230 21:38 03.01.2020
1210 Clouds 6 1026 81 10000 6.2 230 21:38 03.01.2020
1211 Clouds 6 1026 81 10000 7.2 240 21:19 03.01.2020
1212 Clouds 6 1026 81 10000 7.2 240 21:19 03.01.2020
1213 Clouds 6 1026 81 10000 7.2 240 20:56 03.01.2020
1214 Clouds 6 1025 81 10000 7.7 240 20:38 03.01.2020
1215 Clouds 6 1025 81 10000 7.7 240 20:18 03.01.2020
1216 Rain 6 1025 81 10000 7.7 240 19:55 03.01.2020
1217 Rain 6 1025 81 10000 7.2 240 19:37 03.01.2020
1218 Rain 6 1025 70 10000 7.7 250 19:18 03.01.2020
1219 Clouds 6 1025 74 10000 7.2 240 18:41 03.01.2020
1220 Clouds 6 1025 74 10000 7.2 240 18:23 03.01.2020
1221 Clouds 6 1024 74 10000 5.1 240 17:55 03.01.2020
1222 Clouds 6 1024 74 10000 5.1 240 17:36 03.01.2020
1223 Clouds 6 1024 74 10000 5.1 240 17:36 03.01.2020
1224 Clouds 5 1024 68 10000 5.7 230 17:18 03.01.2020
1225 Clouds 5 1024 68 10000 7.2 230 16:42 03.01.2020
1226 Clouds 5 1024 68 10000 7.2 240 16:22 03.01.2020
1227 Clouds 5 1024 68 10000 6.7 240 15:44 03.01.2020
1228 Clouds 5 1024 68 10000 6.7 240 15:19 03.01.2020
1229 Clouds 5 1024 68 10000 6.7 240 14:59 03.01.2020
1230 Clouds 6 1024 68 10000 7.2 250 14:38 03.01.2020
1231 Clouds 6 1023 52 10000 4.1 230 14:19 03.01.2020
1232 Clouds 5 1023 52 10000 4.1 250 13:44 03.01.2020
1233 Clouds 5 1023 54 10000 3.6 220 13:24 03.01.2020
1234 Clouds 5 1023 54 10000 3.6 220 12:58 03.01.2020
1235 Clouds 5 1023 54 10000 4.1 220 12:39 03.01.2020
1236 Clouds 4 1024 69 10000 3.6 220 12:21 03.01.2020
1237 Clouds 4 1024 54 10000 3.1 220 11:44 03.01.2020
1238 Clouds 2 1024 55 10000 1 0 11:21 03.01.2020
1239 Clouds 1 1024 55 10000 2.6 220 10:45 03.01.2020
1240 Clouds 0 1024 55 10000 2.6 220 10:26 03.01.2020
1241 Clouds 0 1024 55 10000 1 0 09:58 03.01.2020
1242 Clouds -1 1024 80 10000 1.5 140 09:39 03.01.2020
1243 Clouds -2 1025 92 10000 1.5 190 09:21 03.01.2020
1244 Clouds -2 1025 86 10000 1 0 08:57 03.01.2020
1245 Clouds -2 1025 86 10000 1 0 08:38 03.01.2020
1246 Clouds -2 1025 92 10000 1.5 200 08:19 03.01.2020
1247 Clouds -2 1025 92 10000 2.1 170 07:40 03.01.2020
1248 Clouds -2 1025 92 10000 2.1 170 07:40 03.01.2020
1249 Clouds -2 1025 92 10000 1 0 07:18 03.01.2020
1250 Clouds -2 1025 92 10000 2.1 200 06:50 03.01.2020
1251 Clouds -2 1025 92 10000 2.1 200 06:32 03.01.2020
1252 Clouds -2 1026 58 10000 2.1 200 05:46 03.01.2020
1253 Clouds -3 1026 92 10000 4.6 230 04:24 03.01.2020
1254 Clouds -3 1026 100 10000 4.1 210 02:59 03.01.2020
1255 Clouds -3 1026 92 9000 2.1 210 02:41 03.01.2020
1256 Clouds -3 1026 100 300 2.6 210 01:45 03.01.2020
1257 Clear -3 1027 92 1000 1.5 210 00:56 03.01.2020
1258 Clear -3 1027 92 1000 1.5 210 00:32 03.01.2020
1259 Fog -3 1028 100 200 1.5 200 23:58 02.01.2020
1260 Fog -3 1028 100 200 1 0 23:39 02.01.2020
1261 Fog -3 1028 92 200 1 0 23:19 02.01.2020
1262 Fog -3 1028 92 200 1 0 22:58 02.01.2020
1263 Fog -3 1028 100 200 1 270 22:39 02.01.2020
1264 Clouds -3 1027 92 350 1 10 22:19 02.01.2020
1265 Fog -2 1028 100 200 0.5 0 21:55 02.01.2020
1266 Fog -2 1028 100 200 0.5 0 21:36 02.01.2020
1267 Fog -2 1028 100 200 1 0 21:18 02.01.2020
1268 Fog -2 1028 100 200 1 0 20:54 02.01.2020
1269 Clouds -2 1027 100 350 1 0 20:36 02.01.2020
1270 Clouds -2 1027 92 500 2.1 20 20:18 02.01.2020
1271 Clouds -2 1027 92 600 1 30 19:54 02.01.2020
1272 Clouds -2 1027 92 600 1 30 19:36 02.01.2020
1273 Clouds -2 1027 92 600 1 30 19:36 02.01.2020
1274 Clouds -2 1027 100 4200 0.87 191 19:18 02.01.2020
1275 Clouds -2 1027 92 8000 0.5 0 18:42 02.01.2020
1276 Clouds -1 1027 92 10000 1 110 18:23 02.01.2020
1277 Clouds -1 1027 66 10000 1 130 17:58 02.01.2020
1278 Clouds -1 1027 66 10000 1 130 17:38 02.01.2020
1279 Clear 0 1027 86 10000 0.5 0 17:20 02.01.2020
1280 Clear 0 1027 86 10000 0.5 0 16:58 02.01.2020
1281 Clear 1 1027 80 10000 1.5 40 16:40 02.01.2020
1282 Clear 1 1027 69 10000 2.1 30 16:20 02.01.2020
1283 Clear 1 1027 69 10000 2.1 30 16:20 02.01.2020
1284 Clear 1 1027 69 10000 2.1 30 15:57 02.01.2020
1285 Clear 1 1027 69 10000 2.1 350 15:39 02.01.2020
1286 Clear 2 1027 69 10000 2.1 360 15:20 02.01.2020
1287 Clear 2 1027 65 10000 2.1 280 14:57 02.01.2020
1288 Clear 2 1027 65 10000 2.1 280 14:36 02.01.2020
1289 Clear 2 1027 65 10000 2.1 290 14:36 02.01.2020
1290 Clouds 2 1027 65 10000 2.1 290 14:18 02.01.2020
1291 Clouds 2 1028 80 10000 2.1 280 13:49 02.01.2020
1292 Clouds 2 1028 86 10000 1 0 13:31 02.01.2020
1293 Clouds 2 1029 47 10000 1 0 12:46 02.01.2020
1294 Clouds 1 1029 47 10000 0.5 0 12:26 02.01.2020
1295 Clouds 1 1029 47 10000 0.5 0 11:59 02.01.2020
1296 Clouds 0 1029 47 10000 0.5 0 11:40 02.01.2020
1297 Rain -1 1029 100 10000 1 0 11:20 02.01.2020
1298 Rain -2 1029 92 10000 1.5 210 10:45 02.01.2020
1299 Rain -2 1029 92 10000 1.5 210 10:26 02.01.2020
1300 Clouds -4 1029 100 10000 1 0 09:52 02.01.2020
1301 Clouds -4 1029 100 10000 1 0 09:33 02.01.2020
1302 Clouds -4 1029 92 10000 1.5 250 08:48 02.01.2020
1303 Clouds -5 1029 92 10000 1.5 250 08:27 02.01.2020
1304 Clear -5 1028 92 9000 1.5 240 07:54 02.01.2020
1305 Clear -5 1028 92 5000 1.5 230 07:31 02.01.2020
1306 Clear -5 1028 92 5000 1.5 230 06:57 02.01.2020
1307 Clear -5 1028 92 5000 1.5 230 06:57 02.01.2020
1308 Clear -5 1028 92 3400 1.5 230 06:39 02.01.2020
1309 Clear -5 1028 92 7000 1.5 160 05:37 02.01.2020
1310 Clear -4 1028 100 7000 1 0 04:34 02.01.2020
1311 Clouds -4 1028 92 1000 2.1 200 03:19 02.01.2020
1312 Clouds -5 1028 92 450 2.1 230 02:20 02.01.2020
1313 Clouds -4 1028 92 250 2.6 230 01:47 02.01.2020
1314 Clear -4 1029 92 500 3.1 220 01:19 02.01.2020
1315 Clear -4 1029 92 5000 2.6 220 00:38 02.01.2020
1316 Clear -4 1029 92 4500 1.5 100 00:19 02.01.2020
1317 Clouds -3 1030 100 3400 1.5 170 23:41 01.01.2020
1318 Clear -3 1030 100 750 0.63 121 23:21 01.01.2020
1319 Clear -3 1030 100 350 0.5 0 22:38 01.01.2020
1320 Clear -3 1030 100 500 1.5 50 22:20 01.01.2020
1321 Clear -2 1030 100 500 1.5 50 21:58 01.01.2020
1322 Clear -2 1030 100 2900 1.5 70 21:39 01.01.2020
1323 Clear -2 1030 92 5000 1.5 90 21:20 01.01.2020
1324 Clear -2 1030 92 5000 1.5 90 20:56 01.01.2020
1325 Clear -2 1030 100 4900 2.1 50 20:38 01.01.2020
1326 Clear -2 1030 100 4900 2.1 50 20:38 01.01.2020
1327 Clear -2 1031 100 6000 2.1 50 20:19 01.01.2020
1328 Clear -1 1030 92 6000 1 0 19:56 01.01.2020
1329 Clear -1 1030 92 6000 1 0 19:37 01.01.2020
1330 Clear -1 1031 92 9000 1.5 90 19:19 01.01.2020
1331 Clear -1 1031 92 9000 1.5 90 18:56 01.01.2020
1332 Clear 0 1031 92 10000 1 70 18:37 01.01.2020
1333 Clear 0 1031 92 10000 1.5 60 18:19 01.01.2020
1334 Clear 0 1032 92 10000 1.5 50 17:57 01.01.2020
1335 Clear 1 1031 92 10000 2.1 70 17:39 01.01.2020
1336 Clear 1 1031 80 10000 1 0 17:19 01.01.2020
1337 Clear 1 1031 80 10000 1 0 16:56 01.01.2020
1338 Clear 2 1030 74 10000 2.1 90 16:37 01.01.2020
1339 Clear 3 1030 69 10000 3.1 80 16:19 01.01.2020
1340 Clear 3 1030 69 10000 3.6 80 15:54 01.01.2020
1341 Clear 3 1030 69 10000 3.6 80 15:36 01.01.2020
1342 Clear 4 1030 69 10000 3.6 80 15:18 01.01.2020
1343 Clear 4 1030 69 10000 3.6 80 14:41 01.01.2020
1344 Clear 4 1031 69 10000 3.6 30 14:22 01.01.2020
1345 Clear 4 1032 67 10000 3.6 50 13:57 01.01.2020
1346 Clear 4 1031 69 10000 3.1 70 13:38 01.01.2020
1347 Clear 4 1031 69 10000 2.1 70 13:19 01.01.2020
1348 Clear 3 1032 74 10000 2.6 70 12:57 01.01.2020
1349 Clear 3 1032 74 10000 2.6 70 12:39 01.01.2020
1350 Clear 2 1032 80 10000 3.1 80 12:19 01.01.2020
1351 Clear 2 1032 80 10000 3.6 80 11:56 01.01.2020
1352 Clear 2 1032 80 10000 3.6 80 11:38 01.01.2020
1353 Clear 0 1033 86 9000 2.6 90 11:19 01.01.2020
1354 Clear 0 1033 79 7000 2.6 70 10:54 01.01.2020
1355 Clear 0 1033 79 7000 2.6 70 10:36 01.01.2020
1356 Clear -1 1033 100 6000 1 20 10:18 01.01.2020
1357 Clear -2 1032 92 4100 1.5 10 09:40 01.01.2020
1358 Clear -3 1032 92 3400 1.45 88 09:20 01.01.2020
1359 Clear -3 1032 92 3400 1.45 88 08:57 01.01.2020
1360 Clear -3 1032 100 2900 1 80 08:37 01.01.2020
1361 Clear -3 1032 92 3300 0.5 0 08:19 01.01.2020
1362 Clear -3 1032 92 3300 0.5 0 07:57 01.01.2020
1363 Clear -3 1032 92 3700 1 0 07:38 01.01.2020
1364 Clear -2 1032 100 4500 0.5 0 06:55 01.01.2020
1365 Clear -3 1032 100 4500 0.5 0 06:36 01.01.2020
1366 Clear -2 1032 100 3500 0.5 0 05:48 01.01.2020
1367 Clear -2 1032 92 6000 1 130 04:28 01.01.2020
1368 Clear -2 1032 92 7000 1.5 150 03:39 01.01.2020
1369 Clear -2 1033 100 8000 1 100 03:21 01.01.2020
1370 Clear -2 1033 92 6000 0.5 130 02:42 01.01.2020
1371 Clear -2 1032 92 9000 1 170 02:23 01.01.2020
1372 Clear -2 1032 92 8000 1 0 01:42 01.01.2020
1373 Clear -1 1032 92 10000 1.5 180 01:23 01.01.2020
1374 Clear -2 1033 92 10000 1 170 00:45 01.01.2020
1375 Clear -1 1033 92 10000 1.5 130 00:26 01.01.2020
1376 Clear 0 1033 92 10000 1.5 130 23:58 31.12.2019
1377 Clear 0 1034 77 10000 1 210 23:38 31.12.2019
1378 Clear 0 1034 80 10000 0.93 44 23:18 31.12.2019
1379 Clear 0 1034 80 10000 0.93 44 22:56 31.12.2019
1380 Clear 0 1034 76 10000 1.5 90 22:37 31.12.2019
1381 Clear 0 1034 76 10000 1.5 140 22:18 31.12.2019
1382 Clear 0 1034 86 10000 1 120 21:43 31.12.2019
1383 Clear 0 1034 92 10000 1 120 21:25 31.12.2019
1384 Clear 0 1033 86 10000 1 0 20:57 31.12.2019
1385 Clear 0 1033 86 10000 1 0 20:39 31.12.2019
1386 Clouds 0 1033 92 10000 1.82 210 20:21 31.12.2019
1387 Clouds 0 1033 92 10000 1.82 210 19:58 31.12.2019
1388 Clouds 0 1033 92 10000 1 0 19:40 31.12.2019
1389 Clouds 0 1032 92 10000 2.1 180 19:22 31.12.2019
1390 Clouds 0 1032 86 10000 1.5 190 18:57 31.12.2019
1391 Clouds 0 1032 86 10000 1.5 190 18:57 31.12.2019
1392 Clouds 0 1032 86 10000 1.5 190 18:39 31.12.2019
1393 Clouds 1 1032 92 10000 0.5 150 18:19 31.12.2019
1394 Clouds 1 1032 78 10000 1 0 17:56 31.12.2019
1395 Clouds 2 1032 78 10000 1 0 17:37 31.12.2019
1396 Clouds 3 1032 74 10000 0.5 0 17:19 31.12.2019
1397 Clouds 4 1032 60 10000 1 0 16:56 31.12.2019
1398 Clouds 4 1032 60 10000 1 0 16:37 31.12.2019
1399 Clouds 5 1032 52 10000 2.1 330 16:19 31.12.2019
1400 Clouds 5 1032 52 10000 3.1 300 15:56 31.12.2019
1401 Clouds 5 1032 52 10000 3.1 300 15:38 31.12.2019
1402 Clouds 6 1031 48 10000 2.6 310 15:20 31.12.2019
1403 Clouds 6 1031 48 10000 2.6 310 14:57 31.12.2019
1404 Clouds 6 1031 48 10000 2.6 240 14:37 31.12.2019
1405 Clouds 6 1031 42 10000 3.6 260 14:19 31.12.2019
1406 Clouds 7 1031 39 10000 3.6 260 13:57 31.12.2019
1407 Clouds 7 1031 39 10000 3.6 260 13:39 31.12.2019
1408 Clouds 7 1031 45 10000 4.1 250 13:20 31.12.2019
1409 Clouds 7 1031 45 10000 4.1 250 12:56 31.12.2019
1410 Clouds 7 1031 45 10000 4.1 260 12:56 31.12.2019
1411 Clouds 7 1031 45 10000 4.1 260 12:38 31.12.2019
1412 Clouds 6 1032 49 10000 4.1 280 12:19 31.12.2019
1413 Clouds 6 1032 49 10000 4.1 280 12:19 31.12.2019
1414 Clouds 6 1032 49 10000 4.1 280 12:19 31.12.2019
1415 Clouds 6 1032 52 10000 4.1 240 11:56 31.12.2019
1416 Clouds 5 1032 52 10000 4.1 240 11:38 31.12.2019
1417 Clear 4 1032 56 10000 2.6 240 11:19 31.12.2019
1418 Clear 3 1032 64 10000 2.1 250 10:57 31.12.2019
1419 Clear 4 1031 61 10000 4.1 220 10:57 31.12.2019
1420 Clear 3 1031 61 10000 4.1 220 10:38 31.12.2019
1421 Clear 2 1031 74 10000 2.6 220 10:20 31.12.2019
1422 Clear 2 1031 74 10000 2.6 220 09:58 31.12.2019
1423 Clear 1 1031 74 10000 4.1 210 09:39 31.12.2019
1424 Clear 0 1030 74 10000 3.1 200 09:20 31.12.2019
1425 Clear 0 1030 74 10000 3.1 200 08:57 31.12.2019
1426 Clear 0 1030 61 10000 4.1 220 08:37 31.12.2019
1427 Clouds -1 1030 73 10000 5.1 230 08:19 31.12.2019
1428 Clouds -1 1030 92 10000 4.1 230 07:42 31.12.2019
1429 Clouds -1 1030 92 10000 5.7 210 07:20 31.12.2019
1430 Clouds -1 1030 92 10000 3.1 200 06:49 31.12.2019
1431 Clouds -1 1030 73 10000 3.6 210 05:57 31.12.2019
1432 Clouds -1 1030 76 10000 4.1 210 04:28 31.12.2019
1433 Clouds -1 1030 92 10000 3.1 210 03:28 31.12.2019
1434 Clouds -1 1030 92 10000 3.1 210 02:54 31.12.2019
1435 Clouds -1 1030 76 10000 1.5 220 02:54 31.12.2019
1436 Clear -1 1030 77 10000 3.6 210 02:18 31.12.2019
1437 Clear -1 1030 76 10000 1.5 190 01:42 31.12.2019
1438 Clear -1 1030 86 10000 2.6 210 01:23 31.12.2019
1439 Clear -2 1030 92 10000 2.6 210 00:46 31.12.2019
1440 Clear -2 1030 92 10000 2.6 220 00:22 31.12.2019
1441 Clear -2 1031 100 10000 2.1 260 23:56 30.12.2019
1442 Clear -2 1031 100 10000 2.1 260 23:38 30.12.2019
1443 Clear -2 1030 100 10000 2.1 230 23:20 30.12.2019
1444 Clear -2 1030 100 10000 2.1 230 22:57 30.12.2019
1445 Clear -2 1030 92 10000 1 0 22:38 30.12.2019
1446 Clear -2 1030 92 10000 2.1 230 22:20 30.12.2019
1447 Clear -2 1030 92 10000 2.1 230 21:56 30.12.2019
1448 Clear -2 1030 92 10000 3.1 210 21:38 30.12.2019
1449 Clear -2 1030 92 10000 3.1 210 21:38 30.12.2019
1450 Clear -2 1030 100 10000 2.6 220 21:19 30.12.2019
1451 Clear -2 1030 100 10000 2.6 220 20:56 30.12.2019
1452 Clear -1 1030 100 10000 1 0 20:38 30.12.2019
1453 Clear -1 1030 92 10000 1.5 200 20:20 30.12.2019
1454 Clear -1 1030 92 10000 2.1 130 19:57 30.12.2019
1455 Clear -1 1030 92 10000 2.1 130 19:38 30.12.2019
1456 Clear -1 1030 92 10000 0.5 0 19:19 30.12.2019
1457 Clear -1 1030 92 10000 0.5 0 18:57 30.12.2019
1458 Clear 0 1031 92 10000 0.89 198 18:38 30.12.2019
1459 Clear 0 1031 69 10000 1.5 170 18:20 30.12.2019
1460 Clear 0 1031 69 10000 1.5 170 17:55 30.12.2019
1461 Clear 1 1031 69 10000 0.5 0 17:37 30.12.2019
1462 Clear 1 1031 80 10000 0.5 0 17:18 30.12.2019
1463 Clear 2 1031 80 10000 0.5 0 16:57 30.12.2019
1464 Clear 2 1031 69 10000 2.1 20 16:37 30.12.2019
1465 Clear 2 1031 69 10000 2.1 20 16:37 30.12.2019
1466 Clear 3 1031 64 10000 2.1 30 16:18 30.12.2019
1467 Clear 3 1031 65 10000 1 10 15:55 30.12.2019
1468 Clear 3 1031 65 10000 1 10 15:37 30.12.2019
1469 Clear 4 1031 65 10000 1.5 10 15:18 30.12.2019
1470 Clear 4 1032 60 10000 2.1 30 14:43 30.12.2019
1471 Clear 4 1032 64 10000 2.6 40 14:20 30.12.2019
1472 Clear 4 1032 64 10000 2.6 40 13:58 30.12.2019
1473 Clear 3 1032 69 10000 2.1 20 13:40 30.12.2019
1474 Clear 3 1033 64 10000 1 0 13:21 30.12.2019
1475 Clear 3 1033 64 10000 1 0 12:56 30.12.2019
1476 Clear 2 1033 69 10000 1.5 40 12:37 30.12.2019
1477 Clear 2 1033 74 10000 1 0 12:18 30.12.2019
1478 Clear 1 1033 80 10000 1.14 69 11:42 30.12.2019
1479 Clear 0 1034 74 10000 1.12 113 11:20 30.12.2019
1480 Clear -1 1034 74 10000 1.12 113 10:58 30.12.2019
1481 Clear -2 1034 92 10000 1.12 113 10:40 30.12.2019
1482 Clear -3 1036 86 10000 2.1 50 10:19 30.12.2019
1483 Clear -4 1034 92 10000 0.5 20 09:42 30.12.2019
1484 Clear -5 1034 92 10000 0.5 0 09:20 30.12.2019
1485 Clear -5 1034 92 10000 0.5 0 08:56 30.12.2019
1486 Clear -5 1034 92 10000 1.5 170 08:38 30.12.2019
1487 Clear -6 1034 92 10000 2.1 170 08:18 30.12.2019
1488 Clear -6 1034 92 10000 1.33 122 07:42 30.12.2019
1489 Clear -6 1034 92 10000 1.33 122 07:18 30.12.2019
1490 Clear -6 1034 92 10000 1 140 06:29 30.12.2019
1491 Clear -6 1035 92 10000 1.5 150 04:29 30.12.2019
1492 Clear -6 1035 92 10000 1.23 108 03:47 30.12.2019
1493 Clear -6 1035 92 10000 1.5 150 02:45 30.12.2019
1494 Clear -6 1035 92 10000 1.5 150 02:25 30.12.2019
1495 Clear -5 1035 100 10000 1.37 100 01:27 30.12.2019
1496 Clear -5 1035 100 10000 1.37 100 00:59 30.12.2019
1497 Clear -5 1035 100 10000 1 100 00:39 30.12.2019
1498 Clear -5 1035 92 7000 1.37 100 23:55 29.12.2019
1499 Clear -5 1035 92 7000 1.37 100 23:36 29.12.2019
1500 Clear -4 1036 100 7000 0.5 0 23:18 29.12.2019
1501 Clear -4 1035 100 4300 0.5 20 22:40 29.12.2019
1502 Clear -4 1036 100 7000 1 80 22:21 29.12.2019
1503 Clear -4 1036 92 10000 1 110 21:56 29.12.2019
1504 Clear -4 1036 92 10000 1 110 21:38 29.12.2019
1505 Clear -4 1036 92 9000 1.58 110 21:19 29.12.2019
1506 Clear -4 1036 92 9000 1.58 110 20:55 29.12.2019
1507 Clear -3 1036 100 10000 1.5 110 20:37 29.12.2019
1508 Clouds -3 1036 100 8000 1 70 20:18 29.12.2019
1509 Clouds -3 1036 100 8000 1 70 19:56 29.12.2019
1510 Clouds -3 1036 100 10000 1 0 19:37 29.12.2019
1511 Clouds -3 1036 92 10000 0.5 0 19:19 29.12.2019
1512 Clouds -3 1036 92 10000 0.5 0 18:55 29.12.2019
1513 Clouds -2 1036 92 10000 0.5 0 18:37 29.12.2019
1514 Clouds -2 1036 86 10000 1 90 18:18 29.12.2019
1515 Clouds -2 1036 86 10000 2.1 90 17:56 29.12.2019
1516 Clouds -1 1036 86 10000 2.1 90 17:37 29.12.2019
1517 Clear -1 1036 80 10000 1.5 100 17:19 29.12.2019
1518 Rain 0 1036 66 10000 2.1 60 16:55 29.12.2019
1519 Clear 0 1036 66 10000 2.1 60 16:36 29.12.2019
1520 Clear 1 1036 66 10000 3.1 60 16:18 29.12.2019
1521 Clear 1 1036 69 10000 2.6 50 15:55 29.12.2019
1522 Clear 1 1036 69 10000 2.6 50 15:37 29.12.2019
1523 Clear 1 1035 69 10000 2.1 90 15:18 29.12.2019
1524 Clear 1 1035 69 10000 2.1 90 14:55 29.12.2019
1525 Clear 1 1036 69 10000 2.1 90 14:37 29.12.2019
1526 Clear 1 1036 69 10000 2.6 90 14:18 29.12.2019
1527 Clear 1 1036 69 10000 2.1 40 13:55 29.12.2019
1528 Clear 1 1036 69 10000 2.1 40 13:37 29.12.2019
1529 Clouds 1 1036 55 10000 2.1 40 13:18 29.12.2019
1530 Clouds 0 1036 55 10000 1.5 30 12:41 29.12.2019
1531 Clouds 0 1037 80 10000 2.6 20 12:23 29.12.2019
1532 Clouds -1 1037 80 10000 2.6 70 11:55 29.12.2019
1533 Clouds -1 1037 80 10000 2.6 70 11:37 29.12.2019
1534 Rain -2 1037 86 10000 1.5 60 11:19 29.12.2019
1535 Clear -2 1037 86 10000 1.5 60 10:41 29.12.2019
1536 Clear -3 1037 92 10000 1.64 53 10:22 29.12.2019
1537 Clear -4 1037 92 10000 1 0 09:56 29.12.2019
1538 Clear -5 1037 92 10000 1 0 09:38 29.12.2019
1539 Clear -6 1037 92 9000 0.5 0 09:19 29.12.2019
1540 Clear -6 1037 92 6000 0.5 0 08:46 29.12.2019
1541 Clouds -6 1037 92 5000 1.3 74 08:24 29.12.2019
1542 Clouds -6 1037 92 8000 1.5 10 07:55 29.12.2019
1543 Clouds -6 1037 92 8000 1.5 10 07:28 29.12.2019
1544 Clouds -6 1037 92 6000 1 30 06:55 29.12.2019
1545 Clouds -6 1036 100 6000 1 0 06:25 29.12.2019
1546 Clouds -6 1037 100 10000 1 100 05:51 29.12.2019
1547 Clouds -5 1037 92 7000 1.5 120 04:36 29.12.2019
1548 Clouds -5 1037 92 10000 1 20 03:51 29.12.2019
1549 Clouds -5 1037 92 10000 1 30 03:20 29.12.2019
1550 Clear -5 1039 92 10000 1 40 02:20 29.12.2019
1551 Clear -4 1037 100 10000 1 10 01:31 29.12.2019
1552 Clouds -4 1038 92 10000 0.5 20 01:31 29.12.2019
1553 Clear -4 1038 92 10000 0.5 20 01:31 29.12.2019
1554 Clouds -4 1038 92 10000 0.5 20 00:58 29.12.2019
1555 Clouds -4 1038 92 10000 2.26 99 00:40 29.12.2019
1556 Clouds -4 1038 85 10000 2.1 120 00:21 29.12.2019
1557 Clouds -3 1038 92 10000 1 130 23:42 28.12.2019
1558 Clouds -3 1038 92 10000 1 140 23:18 28.12.2019
1559 Clouds -3 1038 92 10000 0.5 0 22:39 28.12.2019
1560 Clouds -3 1038 100 10000 0.5 0 22:20 28.12.2019
1561 Clouds -2 1038 92 10000 1.5 80 21:58 28.12.2019
1562 Clouds -2 1038 92 10000 1.5 80 21:39 28.12.2019
1563 Clouds -2 1038 92 10000 1 0 21:21 28.12.2019
1564 Clouds -2 1039 79 10000 1 40 20:57 28.12.2019
1565 Clouds -2 1038 92 10000 1.5 50 20:38 28.12.2019
1566 Clear -1 1038 86 10000 1 80 20:20 28.12.2019
1567 Clear -1 1038 86 10000 1 80 19:58 28.12.2019
1568 Clear -1 1039 86 10000 2.1 120 19:39 28.12.2019
1569 Clear -1 1039 80 10000 2.1 90 19:20 28.12.2019
1570 Clear 0 1039 80 10000 2.1 90 18:58 28.12.2019
1571 Clear 0 1039 74 10000 2.1 110 18:40 28.12.2019
1572 Clear 0 1039 80 10000 2.1 60 18:19 28.12.2019
1573 Clear 0 1039 80 10000 2.1 360 17:55 28.12.2019
1574 Clear 0 1039 80 10000 2.1 360 17:36 28.12.2019
1575 Clouds 0 1038 80 10000 3.6 20 17:18 28.12.2019
1576 Clouds 0 1038 80 10000 2.6 30 16:46 28.12.2019
1577 Clouds 0 1038 80 10000 2.6 30 16:26 28.12.2019
1578 Clouds 1 1037 83 10000 3.1 30 15:46 28.12.2019
1579 Clouds 1 1037 69 10000 2.6 30 15:24 28.12.2019
1580 Clouds 1 1037 69 10000 2.6 30 14:59 28.12.2019
1581 Clouds 2 1036 69 10000 3.1 30 14:39 28.12.2019
1582 Clouds 1 1036 69 10000 3.1 20 14:20 28.12.2019
1583 Clouds 2 1037 74 10000 1.5 40 13:56 28.12.2019
1584 Clear 2 1037 74 10000 1.5 40 13:37 28.12.2019
1585 Clear 1 1037 73 10000 2.6 70 13:18 28.12.2019
1586 Clear 1 1037 69 10000 2.6 50 12:43 28.12.2019
1587 Clear 1 1038 80 10000 2.6 40 12:24 28.12.2019
1588 Clear 1 1037 86 10000 1.5 60 11:57 28.12.2019
1589 Clear 1 1037 86 10000 1.5 60 11:38 28.12.2019
1590 Clear 0 1037 84 10000 0.5 0 11:20 28.12.2019
1591 Clear 0 1037 84 10000 0.5 0 10:46 28.12.2019
1592 Clear -1 1037 92 9000 0.5 100 10:22 28.12.2019
1593 Clear -1 1037 92 9000 0.5 100 10:22 28.12.2019
1594 Clear -1 1037 92 9000 0.5 100 10:22 28.12.2019
1595 Clear -1 1037 92 9000 0.5 100 10:22 28.12.2019
1596 Clear -1 1037 92 9000 0.5 100 09:58 28.12.2019
1597 Clear -1 1037 92 7000 0.5 230 09:40 28.12.2019
1598 Clear -1 1037 100 9000 0.5 0 09:20 28.12.2019
1599 Clear -1 1037 100 9000 1.3 76 08:44 28.12.2019
1600 Clouds -1 1036 100 5000 1.5 10 08:26 28.12.2019
1601 Clouds -2 1036 100 5000 1.5 10 07:55 28.12.2019
1602 Clouds -2 1035 100 450 0.5 0 07:32 28.12.2019
1603 Clouds -2 1035 100 250 0.5 0 06:42 28.12.2019
1604 Clouds -2 1035 100 400 1 0 05:19 28.12.2019
1605 Clouds -1 1034 92 10000 1.5 90 03:47 28.12.2019
1606 Clouds 0 1034 96 10000 1 80 02:49 28.12.2019
1607 Clouds 0 1034 95 10000 2.1 40 02:19 28.12.2019
1608 Clouds 0 1034 95 10000 3.1 40 01:50 28.12.2019
1609 Clouds 1 1034 93 10000 3.1 40 01:20 28.12.2019
1610 Clouds 1 1034 93 10000 2.6 70 00:41 28.12.2019
1611 Clouds 1 1033 93 10000 3.1 30 00:23 28.12.2019
1612 Clouds 1 1033 93 8000 3.1 40 23:45 27.12.2019
1613 Snow 1 1033 93 6000 4.1 20 23:21 27.12.2019
1614 Snow 2 1032 93 7000 4.6 20 22:58 27.12.2019
1615 Snow 2 1032 93 7000 4.6 20 22:39 27.12.2019
1616 Snow 2 1032 93 7000 3.6 20 22:21 27.12.2019
1617 Snow 2 1032 93 7000 3.6 20 21:59 27.12.2019
1618 Snow 2 1031 93 8000 3.6 20 21:40 27.12.2019
1619 Snow 2 1031 93 8000 2.1 30 21:22 27.12.2019
1620 Snow 2 1031 93 10000 2.6 10 20:42 27.12.2019
1621 Rain 2 1030 93 10000 4.1 20 20:24 27.12.2019
1622 Snow 2 1030 93 10000 4.1 20 19:57 27.12.2019
1623 Snow 2 1030 93 10000 3.1 20 19:38 27.12.2019
1624 Snow 2 1030 93 10000 3.1 20 19:38 27.12.2019
1625 Snow 3 1029 93 8000 3.6 30 19:19 27.12.2019
1626 Snow 3 1029 93 7000 4.6 30 18:55 27.12.2019
1627 Snow 3 1029 93 7000 4.6 30 18:36 27.12.2019
1628 Snow 3 1028 93 5000 2.1 20 18:18 27.12.2019
1629 Rain 3 1029 86 10000 1 0 17:55 27.12.2019
1630 Rain 3 1028 93 9000 2.6 30 17:36 27.12.2019
1631 Rain 3 1027 93 10000 3.1 20 17:18 27.12.2019
1632 Rain 4 1028 86 10000 2.6 360 16:41 27.12.2019
1633 Rain 4 1026 100 5000 2.6 20 16:22 27.12.2019
1634 Rain 4 1026 100 5000 2.6 20 15:57 27.12.2019
1635 Rain 4 1026 100 6000 3.1 30 15:37 27.12.2019
1636 Rain 4 1025 93 5000 4.1 20 15:19 27.12.2019
1637 Rain 4 1025 93 5000 4.1 20 14:56 27.12.2019
1638 Rain 4 1025 93 6000 4.1 30 14:38 27.12.2019
1639 Rain 4 1024 100 3500 3.1 20 14:19 27.12.2019
1640 Rain 4 1024 93 2300 2.1 310 13:47 27.12.2019
1641 Rain 4 1024 93 2300 2.1 310 13:24 27.12.2019
1642 Rain 5 1023 93 6000 3.6 270 12:56 27.12.2019
1643 Rain 5 1023 93 6000 3.6 270 12:37 27.12.2019
1644 Rain 5 1023 93 6000 3.6 280 12:18 27.12.2019
1645 Rain 5 1023 93 6000 3.6 280 12:18 27.12.2019
1646 Rain 4 1023 93 4000 2.1 300 11:42 27.12.2019
1647 Drizzle 4 1023 93 3000 1.5 290 11:20 27.12.2019
1648 Drizzle 4 1023 93 3000 1.5 300 10:54 27.12.2019
1649 Drizzle 4 1023 93 3000 1.5 300 10:36 27.12.2019
1650 Rain 4 1022 100 4000 1.5 280 10:18 27.12.2019
1651 Rain 4 1022 100 5000 2.1 270 09:40 27.12.2019
1652 Rain 4 1022 100 5000 1.5 240 09:21 27.12.2019
1653 Rain 4 1021 93 8000 2.1 240 08:54 27.12.2019
1654 Rain 4 1021 93 8000 2.1 240 08:34 27.12.2019
1655 Rain 3 1021 93 5000 3.6 230 07:50 27.12.2019
1656 Rain 3 1021 93 10000 4.6 230 07:31 27.12.2019
1657 Rain 3 1021 93 10000 3.1 230 06:36 27.12.2019
1658 Rain 3 1021 93 8000 4.6 230 04:59 27.12.2019
1659 Rain 3 1022 86 10000 2.6 240 03:26 27.12.2019
1660 Clouds 2 1023 93 10000 1.5 190 01:59 27.12.2019
1661 Clouds 2 1022 86 10000 1.5 230 01:37 27.12.2019
1662 Clouds 2 1022 86 10000 3.1 220 01:18 27.12.2019
1663 Clouds 3 1023 86 10000 3.6 230 00:41 27.12.2019
1664 Clouds 3 1023 93 10000 3.6 220 00:23 27.12.2019
1665 Clouds 3 1024 93 10000 3.6 220 23:41 26.12.2019
1666 Clouds 3 1024 93 10000 2.6 220 23:22 26.12.2019
1667 Clouds 3 1024 86 10000 3.1 240 22:47 26.12.2019
1668 Clouds 2 1024 86 10000 4.1 250 22:23 26.12.2019
1669 Clouds 2 1024 86 10000 5.1 240 21:59 26.12.2019
1670 Clouds 2 1024 86 10000 5.1 240 21:39 26.12.2019
1671 Clouds 2 1024 93 10000 3.6 230 21:20 26.12.2019
1672 Clouds 2 1024 100 10000 4.1 220 20:46 26.12.2019
1673 Clouds 2 1024 92 10000 1.5 220 20:23 26.12.2019
1674 Clouds 2 1023 92 10000 1 220 19:59 26.12.2019
1675 Clouds 2 1023 92 10000 1 220 19:40 26.12.2019
1676 Clouds 2 1023 92 10000 0.5 280 19:22 26.12.2019
1677 Clouds 2 1023 92 10000 0.5 280 18:58 26.12.2019
1678 -273 0 0 0 0 0 18:40 26.12.2019
1679 Clouds 2 1022 93 10000 1.5 60 18:19 26.12.2019
1680 Clouds 2 1022 92 10000 1.5 110 17:57 26.12.2019
1681 Clouds 2 1022 92 10000 1.5 110 17:38 26.12.2019
1682 Clouds 2 1022 92 10000 1.5 110 17:38 26.12.2019
1683 Clouds 2 1022 92 10000 1.5 110 17:38 26.12.2019
1684 Clouds 3 1022 93 10000 0.5 0 17:19 26.12.2019
1685 Clouds 4 1023 86 10000 0.76 96 16:45 26.12.2019
1686 Clouds 4 1023 90 10000 1 100 16:24 26.12.2019
1687 Clouds 4 1023 75 10000 2.1 100 15:56 26.12.2019
1688 Clouds 4 1022 80 10000 2.1 70 15:38 26.12.2019
1689 Rain 4 1022 80 10000 2.1 100 15:18 26.12.2019
1690 Clouds 5 1022 90 10000 2.1 120 14:41 26.12.2019
1691 Clouds 5 1023 70 10000 1 70 14:22 26.12.2019
1692 Clouds 5 1023 80 10000 1.5 60 13:44 26.12.2019
1693 Clouds 5 1023 86 10000 1.5 50 13:23 26.12.2019
1694 Clouds 5 1024 86 10000 1.5 40 12:58 26.12.2019
1695 Clouds 4 1024 86 10000 1.5 40 12:39 26.12.2019
1696 Clouds 4 1024 86 10000 2.6 30 12:21 26.12.2019
1697 Clouds 4 1024 86 10000 2.1 50 11:58 26.12.2019
1698 Clouds 4 1024 86 10000 2.1 50 11:39 26.12.2019
1699 Clouds 3 1024 86 10000 2.6 150 11:20 26.12.2019
1700 Clouds 3 1024 86 10000 1.5 130 10:49 26.12.2019
1701 Clouds 2 1024 86 10000 1.5 130 10:24 26.12.2019
1702 Clouds 2 1025 100 10000 3.1 180 09:54 26.12.2019
1703 Clouds 1 1025 100 10000 3.1 180 09:33 26.12.2019
1704 Clouds 1 1024 100 10000 1.5 150 08:58 26.12.2019
1705 Clouds 1 1024 100 2600 2.1 160 08:39 26.12.2019
1706 Clouds 1 1024 100 500 1.5 190 08:20 26.12.2019
1707 Clouds 1 1024 92 1100 1 190 07:38 26.12.2019
1708 Clouds 1 1024 100 2300 1.5 160 07:19 26.12.2019
1709 Clouds 1 1024 100 6000 1 150 06:37 26.12.2019
1710 Clouds 1 1024 100 6000 1.5 180 06:19 26.12.2019
1711 Clouds 1 1024 100 1300 1.5 170 05:41 26.12.2019
1712 Snow 2 1024 94 10000 1.5 180 04:33 26.12.2019
1713 Rain 2 1025 94 10000 3.1 230 03:31 26.12.2019
1714 Snow 2 1025 93 10000 3.1 220 02:46 26.12.2019
1715 Snow 2 1025 93 10000 3.1 220 02:27 26.12.2019
1716 Rain 3 1024 93 10000 2.6 230 01:44 26.12.2019
1717 Rain 3 1024 93 10000 3.1 250 01:25 26.12.2019
1718 Rain 3 1025 93 6000 3.6 250 00:44 26.12.2019
1719 Rain 3 1025 93 9000 3.1 270 00:23 26.12.2019
1720 Rain 3 1025 93 9000 3.1 270 23:57 25.12.2019
1721 Rain 3 1024 93 10000 3.6 290 23:37 25.12.2019
1722 Rain 3 1024 93 10000 4.6 270 23:19 25.12.2019
1723 Rain 3 1024 93 10000 4.6 270 22:56 25.12.2019
1724 Rain 3 1024 93 8000 4.6 260 22:37 25.12.2019
1725 Rain 4 1024 86 10000 4.6 260 22:18 25.12.2019
1726 Rain 4 1024 86 10000 4.1 270 21:55 25.12.2019
1727 Rain 4 1024 86 10000 4.1 270 21:37 25.12.2019
1728 Rain 4 1023 86 10000 4.6 260 21:19 25.12.2019
1729 Rain 4 1023 86 10000 4.6 270 20:40 25.12.2019
1730 Rain 4 1023 86 10000 6.2 260 20:21 25.12.2019
1731 Rain 4 1023 86 10000 5.7 250 19:59 25.12.2019
1732 Rain 4 1023 86 10000 5.7 250 19:41 25.12.2019
1733 Rain 5 1022 86 10000 5.7 250 19:21 25.12.2019
1734 Rain 5 1022 86 10000 6.2 250 18:40 25.12.2019
1735 Rain 5 1022 86 10000 6.2 260 18:21 25.12.2019
1736 Rain 5 1021 86 10000 5.1 260 17:59 25.12.2019
1737 Rain 5 1021 86 10000 5.1 260 17:39 25.12.2019
1738 Rain 5 1020 93 10000 5.1 260 17:18 25.12.2019
1739 Rain 5 1020 93 10000 5.1 260 16:55 25.12.2019
1740 Rain 5 1020 86 10000 6.2 270 16:36 25.12.2019
1741 Rain 5 1019 86 10000 5.7 280 16:18 25.12.2019
1742 Rain 5 1019 86 10000 5.7 270 15:56 25.12.2019
1743 Rain 5 1019 86 10000 5.7 270 15:37 25.12.2019
1744 Rain 5 1018 93 10000 5.7 260 15:18 25.12.2019
1745 Rain 5 1018 93 10000 5.7 260 14:55 25.12.2019
1746 Rain 5 1018 93 10000 5.7 260 14:37 25.12.2019
1747 Rain 5 1018 86 10000 5.7 270 14:18 25.12.2019
1748 Rain 5 1016 93 10000 6.7 270 13:42 25.12.2019
1749 Rain 5 1016 81 10000 11.3 250 13:21 25.12.2019
1750 Rain 6 1016 87 10000 10.8 240 12:44 25.12.2019
1751 Rain 6 1016 81 10000 9.3 240 12:22 25.12.2019
1752 Rain 6 1016 81 10000 10.3 240 11:58 25.12.2019
1753 Rain 6 1016 81 10000 10.3 240 11:40 25.12.2019
1754 Rain 7 1016 81 10000 9.8 240 11:21 25.12.2019
1755 Rain 6 1016 87 10000 8.7 240 10:41 25.12.2019
1756 Rain 6 1016 87 10000 8.7 240 10:21 25.12.2019
1757 Rain 6 1016 87 10000 8.2 250 09:59 25.12.2019
1758 Rain 6 1016 87 10000 8.2 250 09:41 25.12.2019
1759 Rain 6 1016 87 10000 7.7 240 09:23 25.12.2019
1760 Rain 6 1016 87 10000 8.2 240 08:44 25.12.2019
1761 Rain 6 1015 87 10000 8.2 250 08:24 25.12.2019
1762 Rain 6 1015 87 10000 8.2 250 08:24 25.12.2019
1763 Rain 6 1015 81 10000 9.3 250 07:44 25.12.2019
1764 Rain 6 1015 81 10000 7.2 240 07:23 25.12.2019
1765 Rain 6 1015 81 10000 7.2 240 06:41 25.12.2019
1766 Rain 5 1015 81 10000 7.2 240 06:21 25.12.2019
1767 Rain 6 1015 81 10000 7.2 240 04:47 25.12.2019
1768 Rain 6 1015 81 10000 7.7 240 04:25 25.12.2019
1769 Rain 6 1015 75 10000 7.2 240 03:52 25.12.2019
1770 Rain 6 1015 75 10000 7.2 240 03:32 25.12.2019
1771 Rain 6 1015 81 10000 7.2 240 02:32 25.12.2019
1772 Rain 6 1015 81 10000 6.7 230 01:55 25.12.2019
1773 Rain 6 1015 86 10000 5.7 230 01:24 25.12.2019
1774 Rain 6 1015 80 10000 6.2 250 00:48 25.12.2019
1775 Rain 6 1015 75 10000 9.3 250 00:28 25.12.2019
1776 Rain 6 1015 75 10000 9.3 250 23:55 24.12.2019
1777 Rain 6 1015 93 10000 3.6 240 23:37 24.12.2019
1778 Rain 5 1015 86 10000 4.6 230 23:19 24.12.2019
1779 Rain 5 1015 93 10000 3.6 220 22:39 24.12.2019
1780 Rain 5 1015 86 10000 3.1 240 22:20 24.12.2019
1781 Rain 5 1015 86 10000 3.1 240 22:20 24.12.2019
1782 Rain 6 1015 87 10000 5.1 250 21:42 24.12.2019
1783 Rain 6 1015 87 10000 5.1 240 21:22 24.12.2019
1784 Rain 6 1015 87 10000 5.1 240 21:22 24.12.2019
1785 Rain 6 1015 87 10000 7.2 240 20:54 24.12.2019
1786 Rain 6 1015 87 10000 7.2 240 20:36 24.12.2019
1787 Rain 6 1015 87 10000 6.2 250 20:18 24.12.2019
1788 Rain 6 1014 87 10000 7.2 250 19:43 24.12.2019
1789 Rain 6 1015 87 10000 6.7 240 19:19 24.12.2019
1790 Rain 6 1014 87 10000 5.1 250 18:43 24.12.2019
1791 Rain 6 1014 87 10000 5.7 250 18:24 24.12.2019
1792 Rain 6 1014 87 10000 7.2 250 17:58 24.12.2019
1793 Rain 6 1014 87 10000 7.2 250 17:38 24.12.2019
1794 Rain 6 1013 87 10000 6.7 260 17:20 24.12.2019
1795 Rain 6 1013 87 10000 6.7 260 16:55 24.12.2019
1796 Rain 5 1012 93 10000 8.2 240 16:37 24.12.2019
1797 Rain 5 1012 93 10000 5.7 240 16:19 24.12.2019
1798 Rain 5 1012 93 3000 3.1 210 15:54 24.12.2019
1799 Rain 5 1012 93 3000 3.1 210 15:36 24.12.2019
1800 Rain 5 1011 93 8000 4.6 180 15:18 24.12.2019
1801 Rain 5 1011 93 8000 4.6 180 14:55 24.12.2019
1802 Rain 5 1011 93 10000 4.6 180 14:36 24.12.2019
1803 Rain 5 1012 93 10000 2.1 160 14:18 24.12.2019
1804 Rain 5 1012 75 10000 3.1 190 13:55 24.12.2019
1805 Rain 6 1012 75 10000 3.1 190 13:37 24.12.2019
1806 Rain 6 1013 83 10000 3.1 190 13:19 24.12.2019
1807 Rain 6 1013 70 10000 4.1 160 12:55 24.12.2019
1808 Rain 6 1013 70 10000 4.1 160 12:36 24.12.2019
1809 Rain 6 1014 75 10000 4.1 160 12:18 24.12.2019
1810 Rain 5 1015 83 10000 2.6 190 11:55 24.12.2019
1811 Rain 5 1015 83 10000 2.6 190 11:36 24.12.2019
1812 Clouds 5 1016 82 10000 2.1 190 11:18 24.12.2019
1813 Clouds 5 1016 82 10000 2.6 200 10:55 24.12.2019
1814 Clouds 5 1016 82 10000 2.6 200 10:55 24.12.2019
1815 Clouds 4 1016 82 10000 2.6 200 10:37 24.12.2019
1816 Clouds 4 1017 82 10000 3.1 190 10:19 24.12.2019
1817 Clouds 4 1017 82 10000 3.1 200 09:54 24.12.2019
1818 Clouds 3 1017 82 10000 3.1 200 09:36 24.12.2019
1819 Clouds 2 1017 82 10000 4.1 220 09:18 24.12.2019
1820 Clouds 2 1018 86 10000 4.1 220 08:44 24.12.2019
1821 Clouds 3 1018 94 10000 4.6 220 08:20 24.12.2019
1822 Clouds 3 1018 94 10000 3.1 210 07:46 24.12.2019
1823 Clouds 3 1018 94 10000 3.1 210 07:25 24.12.2019
1824 Clouds 3 1019 94 10000 4.1 230 07:25 24.12.2019
1825 Clouds 3 1019 94 10000 4.1 230 06:58 24.12.2019
1826 Clouds 4 1019 80 10000 4.6 230 06:38 24.12.2019
1827 Clouds 4 1019 80 10000 5.1 230 06:19 24.12.2019
1828 Rain 4 1019 86 10000 6.7 240 05:21 24.12.2019
1829 Rain 4 1019 86 10000 5.1 240 04:44 24.12.2019
1830 Rain 4 1019 86 10000 5.7 240 03:50 24.12.2019
1831 Rain 4 1019 86 10000 6.7 250 03:22 24.12.2019
1832 Rain 5 1019 80 10000 7.2 250 02:23 24.12.2019
1833 Rain 4 1018 93 10000 5.1 240 01:50 24.12.2019
1834 Rain 4 1018 93 10000 5.7 250 01:22 24.12.2019
1835 Rain 5 1018 86 10000 6.2 240 00:45 24.12.2019
1836 Rain 5 1018 93 10000 5.1 240 00:24 24.12.2019
1837 Rain 5 1018 93 10000 5.1 240 23:59 23.12.2019
1838 Rain 5 1017 93 10000 7.2 250 23:40 23.12.2019
1839 Rain 5 1017 86 10000 6.2 260 23:22 23.12.2019
1840 Rain 5 1017 86 10000 6.2 260 22:56 23.12.2019
1841 Rain 5 1017 86 10000 6.2 260 22:37 23.12.2019
1842 Rain 5 1016 93 10000 6.7 260 22:19 23.12.2019
1843 Rain 5 1016 93 10000 6.7 250 21:55 23.12.2019
1844 Rain 5 1016 93 10000 6.7 250 21:36 23.12.2019
1845 Rain 5 1016 93 10000 6.7 250 21:36 23.12.2019
1846 Rain 5 1015 86 10000 6.7 260 21:18 23.12.2019
1847 Rain 5 1015 86 10000 6.7 260 20:57 23.12.2019
1848 Rain 5 1015 86 10000 7.7 250 20:39 23.12.2019
1849 Rain 5 1015 86 10000 5.7 250 20:18 23.12.2019
1850 Rain 5 1014 86 10000 5.7 260 19:56 23.12.2019
1851 Rain 5 1014 86 10000 5.7 260 19:38 23.12.2019
1852 Rain 5 1014 86 10000 7.2 250 19:19 23.12.2019
1853 Rain 5 1014 86 10000 6.7 260 18:58 23.12.2019
1854 Rain 5 1014 86 10000 6.7 260 18:38 23.12.2019
1855 Rain 5 1013 86 10000 6.7 250 18:20 23.12.2019
1856 Rain 5 1013 86 10000 6.7 250 17:56 23.12.2019
1857 Rain 5 1013 86 10000 6.7 250 17:38 23.12.2019
1858 Rain 5 1012 86 10000 6.7 250 17:19 23.12.2019
1859 Rain 5 1012 86 10000 6.7 250 16:55 23.12.2019
1860 Rain 5 1012 86 10000 5.1 250 16:55 23.12.2019
1861 Rain 5 1012 86 10000 5.1 250 16:36 23.12.2019
1862 Clouds 5 1011 86 10000 4.6 260 16:18 23.12.2019
1863 Rain 5 1011 86 10000 6.7 260 15:55 23.12.2019
1864 Rain 5 1011 86 10000 6.7 260 15:36 23.12.2019
1865 Rain 6 1010 86 10000 7.7 260 15:18 23.12.2019
1866 Rain 6 1010 80 10000 7.7 250 14:45 23.12.2019
1867 Rain 6 1009 80 10000 8.7 260 14:27 23.12.2019
1868 Rain 6 1009 81 10000 7.2 250 13:59 23.12.2019
1869 Rain 6 1009 81 10000 7.2 250 13:41 23.12.2019
1870 Clouds 6 1008 75 10000 7.2 260 13:23 23.12.2019
1871 Clouds 6 1008 75 10000 7.2 260 12:59 23.12.2019
1872 Rain 6 1008 80 10000 7.2 260 12:40 23.12.2019
1873 Clouds 6 1008 80 10000 8.7 260 12:21 23.12.2019
1874 Clouds 6 1008 80 10000 8.7 260 11:59 23.12.2019
1875 Rain 5 1007 87 10000 8.7 270 11:41 23.12.2019
1876 Rain 5 1007 86 10000 8.7 250 11:22 23.12.2019
1877 Rain 5 1007 93 10000 7.7 250 10:55 23.12.2019
1878 Rain 5 1007 93 10000 7.7 250 10:37 23.12.2019
1879 Rain 5 1007 93 10000 7.7 250 10:37 23.12.2019
1880 Rain 5 1007 93 10000 6.7 240 10:18 23.12.2019
1881 Rain 5 1006 80 10000 7.2 240 09:56 23.12.2019
1882 Rain 5 1006 80 10000 7.2 240 09:37 23.12.2019
1883 Clouds 5 1006 80 10000 6.7 240 09:19 23.12.2019
1884 Clouds 5 1006 80 10000 6.7 240 08:41 23.12.2019
1885 Clouds 5 1005 80 10000 8.2 250 08:22 23.12.2019
1886 Clouds 5 1005 80 10000 8.2 250 07:57 23.12.2019
1887 Rain 5 1005 80 10000 6.7 250 07:38 23.12.2019
1888 Rain 5 1004 80 10000 7.2 260 07:19 23.12.2019
1889 Rain 5 1004 86 10000 7.2 250 06:43 23.12.2019
1890 Rain 5 1004 86 10000 8.2 260 06:22 23.12.2019
1891 Rain 5 1003 80 10000 6.2 260 05:46 23.12.2019
1892 Rain 5 1002 86 10000 8.2 260 04:55 23.12.2019
1893 Rain 5 1001 80 10000 8.7 250 04:19 23.12.2019
1894 Rain 5 1000 80 10000 7.7 250 02:48 23.12.2019
1895 Rain 5 999 80 10000 7.2 250 02:23 23.12.2019
1896 Rain 5 999 80 10000 6.7 250 01:51 23.12.2019
1897 Clouds 5 999 80 10000 6.7 250 01:32 23.12.2019
1898 Clouds 5 998 80 10000 7.7 240 00:55 23.12.2019
1899 Clouds 5 998 80 10000 7.7 240 00:35 23.12.2019
1900 Clouds 5 998 80 10000 8.2 250 23:57 22.12.2019
1901 Clouds 5 998 80 10000 8.2 250 23:57 22.12.2019
1902 Clouds 5 998 80 10000 8.2 250 23:39 22.12.2019
1903 Rain 6 997 80 10000 7.2 250 23:20 22.12.2019
1904 Rain 6 997 80 10000 7.2 250 22:57 22.12.2019
1905 Rain 6 997 75 10000 8.2 240 22:38 22.12.2019
1906 Rain 6 996 75 10000 8.7 250 22:19 22.12.2019
1907 Rain 6 996 75 10000 9.3 240 21:57 22.12.2019
1908 Rain 6 996 75 10000 9.3 240 21:39 22.12.2019
1909 Rain 6 995 81 10000 8.2 240 21:20 22.12.2019
1910 Rain 6 995 81 10000 8.2 240 20:56 22.12.2019
1911 Rain 6 995 81 10000 8.2 240 20:38 22.12.2019
1912 Rain 6 995 81 10000 7.7 240 20:18 22.12.2019
1913 Rain 6 995 81 10000 7.7 240 19:54 22.12.2019
1914 Rain 6 995 81 10000 8.2 250 19:36 22.12.2019
1915 Rain 6 994 87 10000 8.2 240 19:18 22.12.2019
1916 Rain 6 994 87 10000 8.2 240 18:39 22.12.2019
1917 Rain 6 993 81 10000 8.7 240 18:21 22.12.2019
1918 Rain 6 993 81 10000 7.7 240 17:55 22.12.2019
1919 Rain 6 993 81 10000 7.7 240 17:37 22.12.2019
1920 Rain 6 992 87 10000 8.7 250 17:18 22.12.2019
1921 Rain 6 992 81 10000 8.7 250 16:56 22.12.2019
1922 Rain 7 992 81 10000 8.7 250 16:37 22.12.2019
1923 Rain 7 991 75 10000 9.3 250 16:19 22.12.2019
1924 Rain 7 991 75 10000 7.7 240 15:55 22.12.2019
1925 Rain 7 991 75 10000 7.7 240 15:36 22.12.2019
1926 Rain 7 990 70 10000 7.2 240 15:18 22.12.2019
1927 Rain 7 990 81 10000 3.6 220 14:54 22.12.2019
1928 Rain 7 990 81 10000 3.6 220 14:54 22.12.2019
1929 Rain 7 990 81 10000 3.6 220 14:36 22.12.2019
1930 Clouds 7 990 87 10000 3.1 210 14:18 22.12.2019
1931 Clouds 7 990 81 10000 3.1 200 13:54 22.12.2019
1932 Clouds 6 990 81 10000 3.1 200 13:36 22.12.2019
1933 Clouds 6 989 81 10000 2.1 200 13:18 22.12.2019
1934 Clouds 6 990 87 10000 3.1 210 12:54 22.12.2019
1935 Clouds 5 990 87 10000 3.1 210 12:36 22.12.2019
1936 Clouds 5 990 81 10000 2.6 190 12:18 22.12.2019
1937 Clouds 4 990 81 10000 3.1 200 11:39 22.12.2019
1938 Clouds 4 990 86 10000 3.1 160 11:21 22.12.2019
1939 Clouds 3 990 80 10000 5.1 150 10:59 22.12.2019
1940 Clouds 3 990 80 10000 5.1 150 10:40 22.12.2019
1941 Clouds 3 990 86 10000 3.6 180 10:21 22.12.2019
1942 Clouds 3 990 100 10000 3.1 210 09:59 22.12.2019
1943 Clouds 3 990 100 10000 3.1 210 09:40 22.12.2019
1944 Clouds 2 989 93 10000 3.1 200 09:22 22.12.2019
1945 Clouds 2 989 93 10000 3.1 200 08:59 22.12.2019
1946 Clouds 2 989 93 10000 1.5 200 08:38 22.12.2019
1947 Clouds 2 989 93 10000 3.1 170 08:18 22.12.2019
1948 Rain 2 989 93 10000 4.1 210 07:38 22.12.2019
1949 Rain 2 989 86 10000 5.7 230 07:20 22.12.2019
1950 Clouds 1 989 100 10000 4.1 220 06:40 22.12.2019
1951 Clouds 1 988 90 10000 1 0 05:54 22.12.2019
1952 Clouds 1 988 93 10000 2.1 220 05:23 22.12.2019
1953 Clouds 1 988 100 10000 3.1 170 04:29 22.12.2019
1954 Clouds 1 988 93 10000 3.1 170 03:56 22.12.2019
1955 Clouds 1 989 93 2700 2.1 210 02:42 22.12.2019
1956 Clouds 1 989 93 2700 2.1 210 02:42 22.12.2019
1957 Clouds 0 989 89 10000 2.1 140 01:51 22.12.2019
1958 Clouds 0 989 89 10000 2.1 140 01:30 22.12.2019
1959 Clouds 0 989 100 10000 2.1 120 01:30 22.12.2019
1960 Clouds 0 989 92 10000 1.5 160 00:47 22.12.2019
1961 Clouds 0 989 100 10000 3.1 80 00:24 22.12.2019
1962 Clouds 0 990 89 10000 1 0 23:57 21.12.2019
1963 Clouds 1 990 89 10000 1 0 23:38 21.12.2019
1964 Clouds 1 990 93 10000 1.5 150 23:19 21.12.2019
1965 Clouds 1 990 90 10000 2.1 130 22:45 21.12.2019
1966 Clouds 1 990 93 10000 3.1 130 22:20 21.12.2019
1967 Clouds 1 991 93 10000 3.1 140 21:58 21.12.2019
1968 Clouds 1 991 93 10000 3.1 140 21:38 21.12.2019
1969 Clouds 1 992 93 10000 3.6 140 21:20 21.12.2019
1970 Clouds 1 992 93 10000 3.6 140 20:59 21.12.2019
1971 Clouds 1 992 93 10000 2.1 140 20:41 21.12.2019
1972 Clouds 2 993 100 10000 2.1 160 20:22 21.12.2019
1973 Clouds 2 993 100 10000 2.1 160 20:22 21.12.2019
1974 Clouds 2 993 100 10000 2.1 160 19:58 21.12.2019
1975 Clouds 2 993 93 10000 2.1 150 19:40 21.12.2019
1976 Clouds 3 993 93 10000 2.6 190 19:20 21.12.2019
1977 Clouds 3 994 100 10000 2.6 200 18:56 21.12.2019
1978 Clouds 3 994 100 10000 2.6 200 18:38 21.12.2019
1979 Clouds 3 993 93 10000 3.6 180 18:20 21.12.2019
1980 Clouds 4 994 93 10000 4.1 170 17:55 21.12.2019
1981 Clouds 4 994 93 10000 4.1 170 17:37 21.12.2019
1982 Rain 4 994 100 10000 3.1 170 17:18 21.12.2019
1983 Rain 5 995 93 10000 3.6 180 16:54 21.12.2019
1984 Rain 5 995 93 10000 3.6 180 16:36 21.12.2019
1985 Rain 5 995 93 10000 3.1 180 16:18 21.12.2019
1986 Rain 5 995 93 10000 3.1 180 15:54 21.12.2019
1987 Rain 5 995 93 10000 3.6 180 15:36 21.12.2019
1988 Rain 5 995 93 10000 3.6 180 15:18 21.12.2019
1989 Rain 5 995 93 10000 3.1 190 14:40 21.12.2019
1990 Rain 5 995 93 10000 3.1 220 14:22 21.12.2019
1991 Rain 5 995 93 10000 3.1 220 13:57 21.12.2019
1992 Rain 5 995 93 10000 3.1 220 13:39 21.12.2019
1993 Rain 5 995 93 10000 2.6 230 13:19 21.12.2019
1994 Rain 5 995 93 10000 2.1 280 12:56 21.12.2019
1995 Rain 5 995 93 10000 2.1 280 12:37 21.12.2019
1996 Rain 5 995 93 10000 3.1 190 12:19 21.12.2019
1997 Rain 5 995 93 10000 3.1 180 11:45 21.12.2019
1998 Rain 4 995 87 10000 3.6 160 11:26 21.12.2019
1999 Rain 4 995 93 10000 3.1 150 10:57 21.12.2019
2000 Rain 4 995 93 10000 3.1 150 10:39 21.12.2019
2001 Rain 4 996 100 10000 1 170 10:21 21.12.2019
2002 Rain 4 996 100 10000 1 170 09:57 21.12.2019
2003 Rain 4 996 100 10000 2.1 220 09:39 21.12.2019
2004 Rain 4 996 100 10000 2.1 220 09:39 21.12.2019
2005 Clouds 4 996 93 10000 1 0 09:19 21.12.2019
2006 Rain 3 996 93 10000 2.1 220 08:47 21.12.2019
2007 Rain 3 997 93 10000 1 0 08:27 21.12.2019
2008 Clouds 3 996 93 10000 3.1 150 07:47 21.12.2019
2009 Clouds 3 996 93 10000 0.8 147 07:23 21.12.2019
2010 Clouds 3 996 93 10000 0.8 147 06:58 21.12.2019
2011 Clouds 3 996 93 10000 1 0 06:40 21.12.2019
2012 Clouds 3 996 93 10000 1.5 140 06:21 21.12.2019
2013 Rain 3 997 93 10000 1.5 110 05:25 21.12.2019
2014 Rain 4 997 93 10000 3.6 160 04:34 21.12.2019
2015 Rain 4 998 93 10000 2.6 150 03:56 21.12.2019
2016 Rain 5 998 93 10000 6.2 180 02:25 21.12.2019
2017 Rain 5 999 100 10000 5.7 190 01:50 21.12.2019
2018 Rain 5 999 93 10000 7.7 220 01:25 21.12.2019
2019 Rain 6 998 86 10000 5.7 230 00:48 21.12.2019
2020 Rain 6 998 87 10000 6.2 250 00:28 21.12.2019
2021 Rain 7 997 93 10000 6.2 250 23:39 20.12.2019
2022 Rain 6 997 93 10000 6.2 250 23:39 20.12.2019
2023 Rain 7 996 87 7000 9.3 250 23:21 20.12.2019
2024 Rain 7 996 87 7000 9.3 250 22:59 20.12.2019
2025 Clouds 8 995 81 10000 7.7 250 22:39 20.12.2019
2026 Clouds 8 995 70 10000 8.2 250 22:19 20.12.2019
2027 Clouds 8 995 66 10000 4.1 250 21:56 20.12.2019
2028 Clouds 8 995 66 10000 4.1 250 21:38 20.12.2019
2029 Clouds 8 994 66 10000 2.6 250 21:18 20.12.2019
2030 Clouds 8 994 61 10000 5.1 270 20:39 20.12.2019
2031 Clouds 8 994 61 10000 5.1 270 20:39 20.12.2019
2032 Clouds 9 994 50 10000 9.3 250 20:19 20.12.2019
2033 Clouds 10 993 43 10000 5.7 240 19:57 20.12.2019
2034 Clouds 10 993 43 10000 5.7 240 19:39 20.12.2019
2035 Clouds 10 992 77 10000 5.7 180 19:19 20.12.2019
2036 Clouds 9 991 77 10000 5.7 160 18:42 20.12.2019
2037 Clouds 9 991 77 10000 5.7 160 18:42 20.12.2019
2038 Clouds 8 991 77 10000 5.7 160 18:23 20.12.2019
2039 Clouds 8 991 77 10000 5.7 160 17:58 20.12.2019
2040 Clouds 8 991 86 10000 1.5 290 17:40 20.12.2019
2041 Clouds 11 991 43 10000 4.6 150 17:21 20.12.2019
2042 Clouds 11 992 47 10000 4.1 150 16:59 20.12.2019
2043 Clouds 11 992 44 10000 5.1 150 16:39 20.12.2019
2044 Clouds 11 992 44 10000 5.1 150 16:20 20.12.2019
2045 Clouds 10 992 44 10000 5.1 150 15:56 20.12.2019
2046 Clouds 11 992 47 10000 3.6 150 15:38 20.12.2019
2047 Clouds 11 992 47 10000 3.6 150 15:19 20.12.2019
2048 Clouds 10 993 44 10000 4.1 150 14:54 20.12.2019
2049 Clouds 10 993 41 10000 5.1 150 14:36 20.12.2019
2050 Clouds 11 993 41 10000 5.7 150 14:18 20.12.2019
2051 Clouds 11 993 80 10000 0.5 20 13:41 20.12.2019
2052 Clouds 11 994 41 10000 5.7 160 13:20 20.12.2019
2053 Clouds 11 994 38 10000 6.7 160 12:58 20.12.2019
2054 Clouds 11 994 80 10000 1.5 280 12:38 20.12.2019
2055 Clouds 10 995 38 10000 5.7 160 12:19 20.12.2019
2056 Clouds 10 995 41 10000 4.6 150 11:59 20.12.2019
2057 Clouds 10 995 41 10000 4.6 150 11:59 20.12.2019
2058 Mist 10 995 100 5000 0.5 90 11:39 20.12.2019
2059 Clouds 6 996 86 10000 1 0 11:19 20.12.2019
2060 Clouds 6 997 93 10000 1 0 10:58 20.12.2019
2061 Clouds 5 996 69 10000 1.5 280 10:39 20.12.2019
2062 Clouds 3 997 100 10000 1 340 10:20 20.12.2019
2063 Clouds 5 996 46 10000 6.7 160 09:55 20.12.2019
2064 Clouds 3 997 50 10000 5.7 160 09:37 20.12.2019
2065 Clouds 3 997 50 10000 5.7 160 09:19 20.12.2019
2066 Clouds 3 997 57 10000 3.1 160 08:42 20.12.2019
2067 Fog 1 998 100 10000 2.1 80 08:22 20.12.2019
2068 Fog 1 999 86 10000 1 0 07:58 20.12.2019
2069 Clouds 1 998 100 10000 1 0 07:40 20.12.2019
2070 Fog 0 999 100 10000 1.5 70 07:19 20.12.2019
2071 Fog 1 1000 100 10000 1 0 06:51 20.12.2019
2072 Clear 1 1001 100 10000 1 50 06:31 20.12.2019
2073 Fog 1 1001 86 10000 1.5 50 05:53 20.12.2019
2074 Fog 1 1002 100 10000 1.5 60 05:35 20.12.2019
2075 Fog 1 1003 100 10000 1 0 04:33 20.12.2019
2076 Fog 1 1004 100 9000 2.1 70 03:30 20.12.2019
2077 Fog 1 1004 100 9000 2.1 70 03:30 20.12.2019
2078 Fog 1 1005 92 9000 1.5 320 02:43 20.12.2019
2079 Clouds 3 1004 61 10000 4.1 160 01:52 20.12.2019
2080 Clouds 3 1005 84 10000 3.1 150 01:33 20.12.2019
2081 Fog 2 1005 92 2500 1 10 00:44 20.12.2019
2082 Fog 2 1006 83 9000 1 0 00:25 20.12.2019
2083 Fog 2 1007 83 9000 1.5 70 23:54 19.12.2019
2084 Clouds 3 1007 100 200 2.6 70 23:36 19.12.2019
2085 Clouds 3 1007 80 10000 2.1 120 23:18 19.12.2019
2086 Clouds 3 1008 100 100 3.1 80 22:37 19.12.2019
2087 Clouds 2 1008 75 10000 3.1 150 22:19 19.12.2019
2088 Clouds 2 1009 100 10000 1 0 21:56 19.12.2019
2089 Clouds 2 1009 93 7000 0.5 0 21:37 19.12.2019
2090 Clouds 2 1009 93 7000 0.5 0 21:18 19.12.2019
2091 Clouds 3 1010 93 10000 2.1 90 20:56 19.12.2019
2092 Clouds 3 1011 100 100 2.6 80 20:37 19.12.2019
2093 Clouds 3 1010 80 10000 1.5 170 20:18 19.12.2019
2094 Clouds 3 1010 93 10000 1 0 19:57 19.12.2019
2095 Clouds 3 1010 93 10000 1 0 19:57 19.12.2019
2096 Fog 3 1010 80 10000 0.5 10 19:39 19.12.2019
2097 Fog 3 1010 80 10000 0.5 10 19:39 19.12.2019
2098 Clouds 4 1010 100 10000 2.1 170 19:19 19.12.2019
2099 Clouds 4 1010 100 10000 2.1 170 19:19 19.12.2019
2100 Clouds 4 1011 100 10000 1 0 18:55 19.12.2019
2101 Fog 4 1011 93 10000 1.44 208 18:37 19.12.2019
2102 Clouds 4 1011 100 10000 0.5 0 18:18 19.12.2019
2103 Clouds 5 1011 93 10000 0.5 0 17:54 19.12.2019
2104 Clouds 5 1011 87 10000 1 0 17:36 19.12.2019
2105 Clouds 6 1011 87 10000 1 0 17:18 19.12.2019
2106 Clouds 7 1011 87 10000 2.6 60 16:55 19.12.2019
2107 Clouds 7 1012 81 10000 1 0 16:36 19.12.2019
2108 Clouds 8 1012 81 10000 1 0 16:18 19.12.2019
2109 Clouds 8 1012 71 10000 2.1 40 15:55 19.12.2019
2110 Clouds 8 1012 71 10000 2.1 20 15:36 19.12.2019
2111 Clouds 8 1012 71 10000 2.1 20 15:18 19.12.2019
2112 Clouds 8 1012 76 10000 2.1 330 14:42 19.12.2019
2113 Clouds 8 1012 71 10000 3.1 10 14:20 19.12.2019
2114 Clouds 8 1012 66 10000 1.5 10 13:58 19.12.2019
2115 Clouds 7 1013 71 10000 2.6 20 13:38 19.12.2019
2116 Clouds 7 1013 71 10000 2.6 20 13:19 19.12.2019
2117 Clouds 7 1014 76 10000 1 0 12:57 19.12.2019
2118 Clouds 7 1014 81 10000 1 0 12:39 19.12.2019
2119 Fog 6 1015 100 5000 1.5 60 12:19 19.12.2019
2120 Clouds 6 1014 81 10000 1 0 12:19 19.12.2019
2121 Clouds 6 1015 86 10000 1 0 11:58 19.12.2019
2122 Clouds 5 1015 93 10000 0.5 0 11:40 19.12.2019
2123 Clouds 4 1015 93 10000 0.5 0 11:18 19.12.2019
2124 Clouds 3 1015 93 10000 1 0 10:58 19.12.2019
2125 Fog 2 1016 74 200 1 260 10:38 19.12.2019
2126 Clouds 2 1016 93 10000 0.5 0 10:20 19.12.2019
2127 Clouds 2 1016 74 10000 1.5 160 09:55 19.12.2019
2128 Clouds 1 1015 74 10000 1 0 09:37 19.12.2019
2129 Clouds 1 1016 100 10000 0.5 0 09:18 19.12.2019
2130 Clouds 1 1016 74 10000 2.6 230 08:42 19.12.2019
2131 Fog 0 1017 92 200 1 180 08:20 19.12.2019
2132 Clouds 0 1016 85 10000 2.6 230 08:20 19.12.2019
2133 Clouds 0 1016 85 10000 2.6 230 08:20 19.12.2019
2134 Clouds 0 1016 85 10000 2.1 240 07:59 19.12.2019
2135 Clouds 0 1016 100 10000 2.1 180 07:40 19.12.2019
2136 Clouds 0 1016 100 10000 2.1 180 07:22 19.12.2019
2137 Clouds 0 1016 100 10000 1.5 250 06:52 19.12.2019
2138 Clouds 0 1016 100 10000 1.5 250 06:52 19.12.2019
2139 Clouds 0 1016 100 10000 1.5 250 06:52 19.12.2019
2140 Clouds 1 1016 85 10000 1 0 06:33 19.12.2019
2141 Clouds 0 1016 92 10000 2.1 220 05:59 19.12.2019
2142 Fog 0 1017 92 1300 0.5 0 05:41 19.12.2019
2143 Fog 1 1017 100 1700 1 100 05:18 19.12.2019
2144 Clouds 1 1017 84 10000 1.25 161 03:46 19.12.2019
2145 Clouds 3 1018 86 10000 1.38 137 02:25 19.12.2019
2146 Clouds 4 1018 66 10000 4.1 130 01:24 19.12.2019
2147 Clouds 3 1019 70 10000 4.1 130 00:55 19.12.2019
2148 Clouds 4 1019 70 10000 3.6 120 00:36 19.12.2019
2149 Clouds 4 1019 70 10000 3.6 120 00:18 19.12.2019
2150 Clouds 4 1019 75 10000 3.6 120 23:44 18.12.2019
2151 Clouds 4 1020 75 10000 2.6 100 23:19 18.12.2019
2152 Clouds 4 1020 81 10000 3.6 100 22:56 18.12.2019
2153 Fog 4 1020 100 10000 0.5 10 22:38 18.12.2019
2154 Clouds 4 1020 75 10000 3.6 100 22:20 18.12.2019
2155 Clouds 5 1020 76 10000 2.1 90 21:58 18.12.2019
2156 Clouds 5 1020 93 10000 1.5 350 21:39 18.12.2019
2157 Clouds 5 1020 75 10000 3.1 100 21:20 18.12.2019
2158 Clouds 5 1020 81 10000 3.1 110 20:56 18.12.2019
2159 Clouds 5 1020 87 10000 3.1 100 20:38 18.12.2019
2160 Clouds 6 1020 87 10000 2.1 110 20:19 18.12.2019
2161 Clouds 6 1020 87 10000 2.1 110 19:56 18.12.2019
2162 Clouds 6 1020 87 10000 1.5 120 19:38 18.12.2019
2163 Clouds 6 1020 87 10000 1.5 120 19:18 18.12.2019
2164 Clouds 6 1020 87 10000 2.1 130 18:54 18.12.2019
2165 Clouds 6 1020 86 10000 2.1 110 18:36 18.12.2019
2166 Clouds 7 1020 86 10000 1.5 130 18:18 18.12.2019
2167 Clouds 7 1020 87 10000 0.5 0 17:55 18.12.2019
2168 Clouds 8 1019 81 10000 2.1 110 17:37 18.12.2019
2169 Clouds 9 1019 70 10000 1 40 17:18 18.12.2019
2170 Clouds 9 1019 70 10000 1 40 16:42 18.12.2019
2171 Clouds 11 1019 62 10000 1.5 60 16:23 18.12.2019
2172 Clouds 11 1019 62 10000 2.6 30 15:57 18.12.2019
2173 Clouds 12 1019 62 10000 2.6 30 15:39 18.12.2019
2174 Clouds 12 1019 62 10000 2.1 30 15:21 18.12.2019
2175 Clouds 13 1019 62 10000 2.1 30 14:56 18.12.2019
2176 Clouds 12 1019 58 10000 2.6 360 14:38 18.12.2019
2177 Clouds 13 1019 54 10000 1 0 14:19 18.12.2019
2178 Clouds 13 1019 54 10000 1 0 13:55 18.12.2019
2179 Clouds 13 1019 54 10000 1 0 13:36 18.12.2019
2180 Clouds 12 1019 54 10000 1 0 13:18 18.12.2019
2181 Clouds 12 1019 54 10000 1 0 13:18 18.12.2019
2182 Clouds 13 1019 54 10000 2.1 360 12:40 18.12.2019
2183 Clouds 13 1019 54 10000 2.6 320 12:21 18.12.2019
2184 Clouds 12 1019 47 10000 0.5 0 11:57 18.12.2019
2185 Clouds 12 1019 47 10000 0.5 0 11:39 18.12.2019
2186 Clouds 9 1019 54 10000 0.89 171 11:20 18.12.2019
2187 Clouds 9 1019 66 10000 1 0 10:58 18.12.2019
2188 Clouds 9 1019 66 10000 1 0 10:39 18.12.2019
2189 Clouds 8 1019 76 10000 0.5 160 10:20 18.12.2019
2190 Clouds 7 1019 76 10000 0.5 160 09:59 18.12.2019
2191 Clouds 7 1019 76 10000 0.5 160 09:59 18.12.2019
2192 Clouds 7 1018 70 10000 1.5 160 09:20 18.12.2019
2193 Clouds 7 1018 70 10000 1.5 160 08:55 18.12.2019
2194 Clouds 7 1018 75 10000 1 170 08:37 18.12.2019
2195 Clouds 6 1017 70 10000 1.5 210 08:19 18.12.2019
2196 Clouds 6 1017 66 10000 0.5 0 07:42 18.12.2019
2197 Clouds 6 1017 66 10000 0.5 0 07:21 18.12.2019
2198 Clouds 6 1017 70 10000 3.1 210 06:52 18.12.2019
2199 Clouds 5 1016 66 10000 2.1 210 06:26 18.12.2019
2200 Clouds 6 1016 66 10000 2.1 240 05:37 18.12.2019
2201 Clouds 5 1015 93 10000 1 300 04:35 18.12.2019
2202 Clouds 4 1013 75 10000 1.5 230 02:50 18.12.2019
2203 Clouds 4 1013 75 10000 1.5 230 02:30 18.12.2019
2204 Clouds 5 1012 65 10000 2.1 180 01:47 18.12.2019
2205 Clouds 5 1012 70 10000 3.1 230 01:28 18.12.2019
2206 Clouds 5 1012 70 10000 3.1 230 00:59 18.12.2019
2207 Clouds 5 1012 66 10000 3.6 230 00:39 18.12.2019
2208 Clouds 5 1012 57 10000 3.6 210 00:21 18.12.2019
2209 Clouds 6 1011 50 10000 5.7 170 23:54 17.12.2019
2210 Clouds 6 1011 50 10000 5.7 170 23:36 17.12.2019
2211 Clouds 6 1011 50 10000 5.7 170 23:18 17.12.2019
2212 Clouds 6 1011 50 10000 5.7 170 22:54 17.12.2019
2213 Clouds 6 1011 50 10000 5.7 170 22:36 17.12.2019
2214 Clouds 5 1010 50 10000 5.1 160 22:18 17.12.2019
2215 Clouds 5 1010 50 10000 5.1 160 21:55 17.12.2019
2216 Clouds 3 1010 93 10000 0.5 0 21:36 17.12.2019
2217 Clouds 3 1010 100 10000 0.5 40 21:18 17.12.2019
2218 Clouds 3 1010 100 10000 0.5 0 20:55 17.12.2019
2219 Clouds 5 1010 47 10000 5.7 170 20:36 17.12.2019
2220 Clouds 6 1010 47 10000 5.7 170 20:18 17.12.2019
2221 Clouds 7 1010 44 10000 7.2 170 19:41 17.12.2019
2222 Clouds 7 1010 44 10000 7.2 170 19:41 17.12.2019
2223 Clouds 7 1010 44 10000 6.2 160 19:20 17.12.2019
2224 Clouds 6 1010 44 10000 6.2 160 18:58 17.12.2019
2225 Clouds 6 1010 44 10000 7.2 160 18:40 17.12.2019
2226 Clouds 5 1009 44 10000 6.7 170 18:21 17.12.2019
2227 Clouds 5 1010 93 10000 1.5 60 17:58 17.12.2019
2228 Clouds 6 1010 44 10000 6.2 160 17:39 17.12.2019
2229 Clouds 8 1009 44 10000 4.6 170 17:19 17.12.2019
2230 Clouds 9 1009 44 10000 5.7 160 16:56 17.12.2019
2231 Clouds 8 1009 44 10000 5.7 160 16:37 17.12.2019
2232 Clouds 8 1009 44 10000 5.7 160 16:37 17.12.2019
2233 Clouds 9 1009 44 10000 5.1 160 16:19 17.12.2019
2234 Clouds 8 1009 44 10000 2.6 130 15:55 17.12.2019
2235 Clouds 8 1009 44 10000 2.6 130 15:37 17.12.2019
2236 Clouds 7 1009 47 10000 4.1 170 15:18 17.12.2019
2237 Clouds 8 1009 47 10000 4.1 170 14:55 17.12.2019
2238 Clouds 8 1009 41 10000 4.1 170 14:36 17.12.2019
2239 Clouds 9 1009 47 10000 4.1 150 14:18 17.12.2019
2240 Clouds 9 1009 47 10000 3.6 150 13:55 17.12.2019
2241 Clouds 8 1009 47 10000 3.6 150 13:37 17.12.2019
2242 Clouds 8 1009 41 10000 4.1 150 13:18 17.12.2019
2243 Clouds 10 1009 41 10000 3.6 140 12:41 17.12.2019
2244 Clouds 9 1009 44 10000 4.6 160 12:19 17.12.2019
2245 Clouds 9 1009 44 10000 4.6 160 12:19 17.12.2019
2246 Clouds 9 1009 44 10000 4.6 160 12:19 17.12.2019
2247 Clouds 9 1009 44 10000 4.6 160 11:59 17.12.2019
2248 Clouds 9 1009 50 10000 3.1 150 11:37 17.12.2019
2249 Clouds 5 1009 44 10000 3.6 130 11:19 17.12.2019
2250 Clouds 4 1009 47 10000 5.1 160 10:59 17.12.2019
2251 Clouds 4 1009 47 10000 5.1 160 10:41 17.12.2019
2252 Clouds 4 1009 74 10000 1 80 10:22 17.12.2019
2253 Clouds 5 1008 43 10000 6.2 170 09:59 17.12.2019
2254 Clouds 5 1008 43 10000 6.2 170 09:41 17.12.2019
2255 Clouds 5 1008 43 10000 6.7 170 09:20 17.12.2019
2256 Clouds 5 1008 43 10000 6.7 160 08:56 17.12.2019
2257 Clouds 5 1008 43 10000 6.7 160 08:56 17.12.2019
2258 Clouds 5 1008 43 10000 6.7 160 08:38 17.12.2019
2259 Clouds 2 1008 83 10000 0.5 0 08:20 17.12.2019
2260 Clouds 2 1007 83 10000 1 0 07:54 17.12.2019
2261 Clouds 2 1007 83 10000 1 0 07:36 17.12.2019
2262 Clouds 1 1007 83 10000 1 0 07:18 17.12.2019
2263 Clouds 1 1007 83 10000 1 0 06:35 17.12.2019
2264 Clouds 1 1007 83 10000 2.1 80 05:56 17.12.2019
2265 Clouds 1 1007 83 10000 2.1 80 05:36 17.12.2019
2266 Clouds 1 1007 83 10000 1.5 10 04:33 17.12.2019
2267 Clouds 1 1007 93 10000 1.37 187 02:47 17.12.2019
2268 Clouds 1 1007 82 10000 2.1 340 01:56 17.12.2019
2269 Clouds 2 1007 82 10000 1.5 350 01:20 17.12.2019
2270 Clouds 2 1007 86 10000 1.5 0 00:38 17.12.2019
2271 Clouds 2 1007 82 10000 1.5 0 00:20 17.12.2019
2272 Clouds 1 1007 82 10000 1 0 23:42 16.12.2019
2273 Clouds 2 1007 80 10000 2.26 161 23:19 16.12.2019
2274 Clouds 2 1007 80 10000 2.26 161 22:58 16.12.2019
2275 Clouds 2 1007 80 10000 2.26 161 22:38 16.12.2019
2276 Clouds 2 1008 80 10000 0.5 110 22:20 16.12.2019
2277 Clouds 1 1008 80 10000 2.1 170 21:56 16.12.2019
2278 Clouds 2 1008 80 10000 2.1 170 21:38 16.12.2019
2279 Clouds 2 1008 80 10000 1 260 21:20 16.12.2019
2280 Clouds 1 1009 80 10000 1 0 20:58 16.12.2019
2281 Clouds 2 1009 81 10000 1 0 20:39 16.12.2019
2282 Clouds 2 1009 82 10000 2.1 150 20:19 16.12.2019
2283 Clouds 2 1009 93 10000 1 0 19:56 16.12.2019
2284 Clouds 3 1009 93 10000 1 0 19:37 16.12.2019
2285 Clouds 3 1009 82 10000 0.5 0 19:19 16.12.2019
2286 Clouds 3 1009 82 10000 0.5 0 18:58 16.12.2019
2287 Clouds 4 1009 82 10000 0.5 0 18:40 16.12.2019
2288 Clouds 4 1009 86 10000 1 80 18:20 16.12.2019
2289 Clouds 4 1009 93 10000 1.5 40 17:58 16.12.2019
2290 Clouds 5 1009 93 10000 1.5 40 17:39 16.12.2019
2291 Clouds 5 1010 86 10000 1.5 20 17:21 16.12.2019
2292 Clouds 5 1009 80 10000 1.5 10 16:57 16.12.2019
2293 Clouds 6 1009 80 10000 1.5 10 16:39 16.12.2019
2294 Clouds 6 1009 75 10000 1.5 50 16:20 16.12.2019
2295 Clouds 6 1009 75 10000 1.5 50 15:59 16.12.2019
2296 Clouds 6 1009 75 10000 1.5 50 15:59 16.12.2019
2297 Clouds 7 1009 75 10000 1 0 15:39 16.12.2019
2298 Clouds 7 1009 70 10000 2.1 60 15:20 16.12.2019
2299 Clouds 7 1009 70 10000 1.5 30 14:57 16.12.2019
2300 Clouds 8 1009 70 10000 1.5 30 14:37 16.12.2019
2301 Clouds 8 1009 65 10000 1.5 30 14:19 16.12.2019
2302 Clouds 8 1009 75 10000 2.1 340 13:56 16.12.2019
2303 Clouds 7 1009 75 10000 2.1 340 13:38 16.12.2019
2304 Clouds 7 1009 75 10000 2.1 340 13:38 16.12.2019
2305 Clouds 6 1010 75 10000 1 0 13:19 16.12.2019
2306 Clouds 6 1010 75 10000 0.85 155 12:58 16.12.2019
2307 Clouds 6 1010 75 10000 0.85 155 12:39 16.12.2019
2308 Clouds 5 1010 86 10000 0.97 193 12:19 16.12.2019
2309 Clouds 4 1011 93 10000 1 0 11:59 16.12.2019
2310 Clouds 3 1011 93 10000 1 0 11:40 16.12.2019
2311 Clouds 3 1011 93 10000 1 200 11:20 16.12.2019
2312 Clouds 2 1011 74 10000 0.5 0 10:58 16.12.2019
2313 Clouds 2 1011 74 10000 0.5 0 10:39 16.12.2019
2314 Clouds 2 1011 74 10000 1 0 10:20 16.12.2019
2315 Clouds 2 1011 74 10000 1 0 09:45 16.12.2019
2316 Clouds 1 1011 74 10000 1 0 09:27 16.12.2019
2317 Clouds 1 1011 92 10000 1 0 08:57 16.12.2019
2318 Clouds 1 1011 92 10000 1 0 08:38 16.12.2019
2319 Clouds 1 1011 92 10000 0.5 10 08:18 16.12.2019
2320 Clouds 1 1011 92 10000 1.5 360 07:47 16.12.2019
2321 Clouds 1 1011 92 10000 1.5 360 07:29 16.12.2019
2322 Clouds 1 1011 92 10000 1.5 150 06:46 16.12.2019
2323 Clouds 1 1011 100 10000 1 190 06:26 16.12.2019
2324 Clouds 1 1011 100 10000 1.54 164 05:54 16.12.2019
2325 Clouds 2 1011 81 10000 1 0 05:35 16.12.2019
2326 Clouds 3 1012 81 10000 1.5 130 04:33 16.12.2019
2327 Clouds 4 1012 100 10000 0.5 0 02:49 16.12.2019
2328 Clouds 5 1012 100 900 1.33 133 01:45 16.12.2019
2329 Clouds 5 1012 100 7000 1.63 151 00:55 16.12.2019
2330 Clouds 6 1012 93 10000 1.63 151 00:36 16.12.2019
2331 Clouds 6 1012 93 10000 1 0 00:18 16.12.2019
2332 Clouds 6 1012 93 10000 1 0 23:40 15.12.2019
2333 Clouds 6 1013 93 10000 1.5 120 23:22 15.12.2019
2334 Clouds 6 1013 93 10000 2.6 110 22:57 15.12.2019
2335 Clouds 6 1013 93 10000 2.6 110 22:38 15.12.2019
2336 Clouds 6 1013 93 10000 2.6 110 22:19 15.12.2019
2337 Clouds 6 1013 100 10000 2.1 100 21:57 15.12.2019
2338 Clouds 6 1013 100 10000 2.1 100 21:38 15.12.2019
2339 Clouds 6 1012 93 10000 2.1 90 21:19 15.12.2019
2340 Clouds 6 1012 93 10000 2.1 90 20:58 15.12.2019
2341 Clouds 7 1012 93 10000 2.1 50 20:39 15.12.2019
2342 Clouds 7 1012 93 10000 2.1 50 20:39 15.12.2019
2343 Clouds 7 1012 93 10000 3.1 30 20:21 15.12.2019
2344 Clouds 7 1011 87 10000 4.1 50 19:58 15.12.2019
2345 Clouds 8 1011 87 10000 4.1 50 19:40 15.12.2019
2346 Clouds 8 1011 71 10000 3.1 250 19:20 15.12.2019
2347 Clouds 8 1011 71 10000 3.1 250 18:57 15.12.2019
2348 Rain 8 1011 87 10000 1.5 340 18:39 15.12.2019
2349 Clouds 9 1010 66 10000 3.6 250 18:19 15.12.2019
2350 Rain 9 1010 81 10000 6.7 330 17:56 15.12.2019
2351 Clouds 10 1010 62 10000 4.1 230 17:38 15.12.2019
2352 Clouds 10 1009 54 10000 6.7 240 17:19 15.12.2019
2353 Clouds 11 1009 62 10000 6.7 250 16:57 15.12.2019
2354 Clouds 12 1009 62 10000 6.7 250 16:39 15.12.2019
2355 Clouds 12 1008 62 10000 8.2 260 16:21 15.12.2019
2356 Clouds 12 1008 58 10000 8.2 260 15:56 15.12.2019
2357 Clouds 13 1008 58 10000 8.2 260 15:38 15.12.2019
2358 Clouds 13 1008 54 10000 9.3 260 15:19 15.12.2019
2359 Clouds 13 1007 54 10000 10.8 250 14:56 15.12.2019
2360 Clouds 13 1007 54 10000 10.8 250 14:37 15.12.2019
2361 Clouds 13 1007 47 10000 9.3 260 14:18 15.12.2019
2362 Clouds 13 1007 47 10000 9.3 260 13:58 15.12.2019
2363 Clouds 13 1007 54 10000 7.7 250 13:37 15.12.2019
2364 Clouds 13 1007 54 10000 7.7 250 13:37 15.12.2019
2365 Clouds 13 1007 50 10000 9.3 250 13:19 15.12.2019
2366 Clouds 13 1007 50 10000 9.3 250 12:56 15.12.2019
2367 Clouds 13 1007 50 10000 9.3 250 12:38 15.12.2019
2368 Clouds 13 1007 47 10000 11.3 250 12:20 15.12.2019
2369 Clouds 12 1007 50 10000 10.8 250 11:56 15.12.2019
2370 Clouds 12 1007 50 10000 10.8 250 11:36 15.12.2019
2371 Clouds 12 1007 50 10000 9.3 240 11:18 15.12.2019
2372 Clouds 11 1006 58 10000 7.7 230 10:55 15.12.2019
2373 Clouds 10 1006 58 10000 7.7 230 10:36 15.12.2019
2374 Clouds 10 1006 54 10000 8.2 220 10:18 15.12.2019
2375 Clouds 9 1006 66 10000 8.7 220 09:40 15.12.2019
2376 Clouds 9 1006 66 10000 7.2 220 09:20 15.12.2019
2377 Clouds 8 1006 66 10000 7.2 220 08:58 15.12.2019
2378 Clouds 8 1006 70 10000 7.7 230 08:39 15.12.2019
2379 Clouds 7 1006 75 10000 5.7 220 08:21 15.12.2019
2380 Clouds 7 1005 75 10000 5.7 220 07:56 15.12.2019
2381 Clouds 7 1005 70 10000 4.1 210 07:34 15.12.2019
2382 Clouds 7 1005 65 10000 4.6 180 06:51 15.12.2019
2383 Clouds 6 1005 80 10000 2.6 180 06:20 15.12.2019
2384 Clouds 6 1005 93 10000 3.1 160 05:26 15.12.2019
2385 Clouds 6 1006 93 10000 3.1 210 04:47 15.12.2019
2386 Clouds 6 1005 87 10000 2.6 150 03:31 15.12.2019
2387 Clouds 6 1006 87 10000 3.1 160 02:34 15.12.2019
2388 Clouds 6 1006 81 10000 3.1 190 01:47 15.12.2019
2389 Clouds 7 1006 75 10000 4.6 240 01:28 15.12.2019
2390 Clouds 7 1006 75 10000 4.6 240 00:59 15.12.2019
2391 Clouds 7 1006 75 10000 5.7 230 00:41 15.12.2019
2392 Clouds 7 1007 70 10000 6.2 240 00:23 15.12.2019
2393 Clouds 8 1007 70 10000 6.2 240 23:40 14.12.2019
2394 Clouds 8 1007 70 10000 6.2 240 23:40 14.12.2019
2395 Clouds 8 1007 70 10000 6.2 240 23:40 14.12.2019
2396 Clouds 8 1007 66 10000 7.2 240 23:21 14.12.2019
2397 Clouds 8 1006 66 10000 8.2 240 22:58 14.12.2019
2398 Clouds 8 1006 66 10000 8.2 240 22:40 14.12.2019
2399 Clouds 8 1006 66 10000 9.8 250 22:21 14.12.2019
2400 Clouds 8 1005 61 10000 9.8 240 21:56 14.12.2019
2401 Clouds 8 1005 61 10000 9.8 240 21:38 14.12.2019
2402 Clouds 8 1005 61 10000 9.3 240 21:19 14.12.2019
2403 Clouds 8 1005 61 10000 9.3 240 20:57 14.12.2019
2404 Clouds 8 1005 85 10000 10.8 240 20:39 14.12.2019
2405 Clouds 7 1004 49 10000 12.3 240 20:19 14.12.2019
2406 Clouds 7 1004 49 10000 12.3 240 19:57 14.12.2019
2407 Clouds 7 1004 49 10000 10.3 230 19:37 14.12.2019
2408 Clouds 7 1004 49 10000 10.3 230 19:19 14.12.2019
2409 Clouds 7 1004 49 10000 11.3 240 18:56 14.12.2019
2410 Clouds 7 1004 49 10000 11.3 240 18:37 14.12.2019
2411 Clouds 6 1004 48 10000 9.3 240 18:19 14.12.2019
2412 Clouds 6 1004 48 10000 9.3 240 18:19 14.12.2019
2413 Clouds 6 1004 48 10000 8.7 230 17:43 14.12.2019
2414 Clouds 6 1004 56 10000 9.8 220 17:24 14.12.2019
2415 Clouds 6 1005 56 10000 9.8 230 16:58 14.12.2019
2416 Clouds 6 1005 56 10000 9.8 230 16:39 14.12.2019
2417 Clouds 6 1005 56 10000 9.8 230 16:39 14.12.2019
2418 Clouds 7 1004 56 10000 11.3 240 16:18 14.12.2019
2419 Clouds 7 1003 52 10000 12.3 250 15:43 14.12.2019
2420 Clouds 7 1002 61 10000 13.4 240 15:22 14.12.2019
2421 Clouds 8 1001 61 10000 10.8 240 14:59 14.12.2019
2422 Clouds 8 1001 61 10000 10.8 240 14:39 14.12.2019
2423 Clouds 8 1000 61 10000 12.9 250 14:20 14.12.2019
2424 Clouds 8 999 65 10000 11.3 260 13:56 14.12.2019
2425 Clouds 8 999 65 10000 11.3 260 13:38 14.12.2019
2426 Clouds 8 999 65 10000 9.8 240 13:18 14.12.2019
2427 Clouds 8 998 66 10000 11.8 260 12:55 14.12.2019
2428 Clouds 8 998 66 10000 11.8 260 12:37 14.12.2019
2429 Clouds 8 998 66 10000 14.9 260 12:18 14.12.2019
2430 Clouds 8 997 65 10000 13.9 250 11:55 14.12.2019
2431 Clouds 8 996 65 10000 13.9 250 11:36 14.12.2019
2432 Rain 8 996 65 10000 13.9 250 11:18 14.12.2019
2433 Rain 7 996 75 10000 11.3 250 10:55 14.12.2019
2434 Rain 7 996 75 10000 11.3 250 10:37 14.12.2019
2435 Rain 6 994 81 10000 11.3 240 10:18 14.12.2019
2436 Rain 6 994 81 10000 11.8 250 09:40 14.12.2019
2437 Rain 5 993 81 10000 9.3 260 09:21 14.12.2019
2438 Rain 4 992 81 10000 6.7 230 08:45 14.12.2019
2439 Rain 3 991 86 10000 5.1 220 08:20 14.12.2019
2440 Rain 3 991 86 10000 5.1 220 07:58 14.12.2019
2441 Rain 2 991 77 10000 4.6 170 07:38 14.12.2019
2442 Rain 2 991 77 10000 4.6 160 07:19 14.12.2019
2443 Rain 2 991 77 10000 4.1 170 06:42 14.12.2019
2444 Rain 2 992 80 8000 8.2 210 06:22 14.12.2019
2445 Snow 3 992 51 10000 5.7 200 05:35 14.12.2019
2446 Clear 3 993 64 10000 6.2 230 03:44 14.12.2019
2447 Clouds 3 993 69 10000 5.1 220 02:23 14.12.2019
2448 Clouds 4 994 64 10000 8.2 230 01:44 14.12.2019
2449 Clouds 4 994 64 10000 8.2 230 01:20 14.12.2019
2450 Clouds 4 993 69 10000 9.3 230 00:41 14.12.2019
2451 Clouds 4 993 74 10000 9.8 240 00:20 14.12.2019
2452 Clouds 3 993 74 10000 11.8 240 23:41 13.12.2019
2453 Clouds 3 992 74 10000 11.3 240 23:20 13.12.2019
2454 Clouds 3 992 74 10000 11.3 240 22:59 13.12.2019
2455 Clouds 4 992 74 10000 12.3 240 22:40 13.12.2019
2456 Clouds 4 991 69 10000 12.9 240 22:19 13.12.2019
2457 Clouds 4 991 85 10000 12.3 240 21:55 13.12.2019
2458 Clouds 4 991 85 10000 12.3 240 21:36 13.12.2019
2459 Clouds 4 990 85 10000 10.8 240 21:18 13.12.2019
2460 Clouds 4 990 85 10000 11.8 240 20:40 13.12.2019
2461 Snow 4 989 84 10000 10.8 240 20:21 13.12.2019
2462 Snow 4 989 84 10000 10.8 240 19:58 13.12.2019
2463 Snow 4 989 84 9000 9.3 210 19:40 13.12.2019
2464 Snow 4 989 84 10000 9.3 230 19:20 13.12.2019
2465 Snow 4 988 84 10000 9.3 220 18:57 13.12.2019
2466 Snow 4 988 84 10000 9.8 210 18:39 13.12.2019
2467 Snow 4 988 84 10000 10.8 230 18:18 13.12.2019
2468 Clouds 4 987 84 10000 7.7 240 17:42 13.12.2019
2469 Clouds 4 987 89 10000 7.7 240 17:19 13.12.2019
2470 Clouds 4 987 89 10000 7.7 240 17:19 13.12.2019
2471 Clouds 4 986 89 10000 9.8 240 16:59 13.12.2019
2472 Clouds 4 985 89 10000 9.8 230 16:39 13.12.2019
2473 Clouds 4 985 89 10000 9.8 230 16:20 13.12.2019
2474 Clouds 4 985 89 10000 9.8 230 16:20 13.12.2019
2475 Clouds 4 985 89 10000 9.8 240 15:43 13.12.2019
2476 Clouds 4 984 70 10000 11.3 250 15:23 13.12.2019
2477 Clouds 4 984 89 10000 12.3 230 15:23 13.12.2019
2478 Clouds 4 983 89 10000 11.8 240 14:59 13.12.2019
2479 Clouds 4 983 80 10000 5.1 250 14:41 13.12.2019
2480 Clouds 4 983 70 10000 10.3 240 14:20 13.12.2019
2481 Rain 4 983 74 5000 11.3 270 13:57 13.12.2019
2482 Rain 3 982 80 10000 10.3 230 13:38 13.12.2019
2483 Rain 3 982 80 10000 10.3 230 13:19 13.12.2019
2484 Rain 1 982 86 6000 4.1 210 12:42 13.12.2019
2485 Rain 1 982 86 6000 4.1 210 12:20 13.12.2019
2486 Rain 1 982 74 7000 5.7 220 11:57 13.12.2019
2487 Rain 1 982 74 7000 5.7 220 11:57 13.12.2019
2488 Rain 1 981 86 3800 1 0 11:39 13.12.2019
2489 Clouds 1 980 69 10000 2.1 170 11:21 13.12.2019
2490 Clouds 0 981 92 10000 3.1 90 10:55 13.12.2019
2491 Snow 0 981 58 2000 2.1 120 10:37 13.12.2019
2492 Snow 0 981 58 2000 1.5 90 10:19 13.12.2019
2493 Clouds -1 981 86 10000 1 0 09:39 13.12.2019
2494 Clouds -1 981 92 10000 1 0 09:19 13.12.2019
2495 Clouds -1 981 92 10000 1 0 08:42 13.12.2019
2496 Clouds -1 982 100 10000 1.5 80 08:24 13.12.2019
2497 Clouds -1 982 86 10000 2.1 120 07:47 13.12.2019
2498 Clouds -1 984 92 10000 1 0 07:24 13.12.2019
2499 Clouds -1 985 92 10000 2.6 250 06:55 13.12.2019
2500 Clouds -1 985 92 10000 1 80 06:29 13.12.2019
2501 Clouds -2 985 92 10000 1.5 10 05:51 13.12.2019
2502 Clouds -2 986 92 10000 1 0 05:30 13.12.2019
2503 Clouds -2 987 86 10000 1 0 04:46 13.12.2019
2504 Clouds -2 988 92 10000 0.5 0 03:49 13.12.2019
2505 Clouds -2 990 100 10000 1.5 150 02:35 13.12.2019
2506 Clouds -2 991 86 10000 1 110 01:49 13.12.2019
2507 Clear -2 992 86 10000 2.6 120 01:21 13.12.2019
2508 Clear -2 993 92 10000 2.6 110 00:46 13.12.2019
2509 Clear -2 994 86 10000 2.1 130 00:24 13.12.2019
2510 Clear -2 994 100 10000 2.1 120 23:41 12.12.2019
2511 Clear -1 996 86 10000 2.1 140 23:22 12.12.2019
2512 Clear -1 996 86 10000 3.1 130 22:56 12.12.2019
2513 Clear -1 997 86 10000 3.6 130 22:38 12.12.2019
2514 Clear -1 997 86 10000 3.6 130 22:19 12.12.2019
2515 Clear -1 998 100 10000 3.1 140 21:55 12.12.2019
2516 Clear -1 997 92 10000 1.5 140 21:37 12.12.2019
2517 Clear -1 999 92 10000 2.1 150 21:19 12.12.2019
2518 Clear -1 999 92 10000 2.1 150 20:58 12.12.2019
2519 Fog -1 999 100 10000 2.1 150 20:39 12.12.2019
2520 Clouds 0 1000 100 10000 2.1 130 20:21 12.12.2019
2521 Clouds 0 1000 92 10000 2.6 150 19:55 12.12.2019
2522 Clouds 0 1001 92 10000 1.5 140 19:37 12.12.2019
2523 Clouds 0 1001 92 10000 1.5 140 19:18 12.12.2019
2524 Clouds 1 1001 100 10000 2.1 160 18:55 12.12.2019
2525 Clouds 1 1001 100 10000 1 160 18:36 12.12.2019
2526 Clouds 1 1002 92 10000 2.1 180 18:18 12.12.2019
2527 Clouds 1 1002 86 10000 3.1 220 17:55 12.12.2019
2528 Clouds 1 1002 93 10000 1 190 17:37 12.12.2019
2529 Clouds 2 1002 86 10000 5.1 240 17:19 12.12.2019
2530 Clouds 2 1003 80 10000 5.7 240 16:54 12.12.2019
2531 Rain 2 1003 87 10000 4.6 230 16:36 12.12.2019
2532 Rain 2 1003 87 10000 4.6 230 16:18 12.12.2019
2533 Rain 2 1003 93 10000 5.1 240 15:42 12.12.2019
2534 Rain 2 1003 93 10000 5.1 240 15:20 12.12.2019
2535 Rain 2 1003 93 10000 5.1 240 15:20 12.12.2019
2536 Rain 2 1004 93 10000 5.1 240 14:57 12.12.2019
2537 Rain 2 1004 93 10000 5.1 240 14:57 12.12.2019
2538 Rain 2 1004 93 10000 3.6 250 14:37 12.12.2019
2539 Rain 2 1004 93 10000 3.6 250 14:19 12.12.2019
2540 Rain 3 1004 93 7000 3.1 220 13:55 12.12.2019
2541 Rain 3 1005 93 8000 3.1 210 13:37 12.12.2019
2542 Rain 3 1005 93 10000 4.1 210 13:19 12.12.2019
2543 Rain 3 1005 93 10000 4.1 210 12:56 12.12.2019
2544 Drizzle 3 1005 93 10000 4.1 220 12:38 12.12.2019
2545 Drizzle 3 1005 93 10000 4.1 220 12:18 12.12.2019
2546 Clouds 3 1005 94 10000 3.6 220 11:54 12.12.2019
2547 Snow 3 1006 94 10000 3.6 210 11:36 12.12.2019
2548 Clouds 2 1006 86 10000 3.6 210 11:18 12.12.2019
2549 Rain 2 1006 86 10000 2.6 180 10:41 12.12.2019
2550 Rain 2 1006 86 10000 2.6 180 10:23 12.12.2019
2551 Rain 1 1006 86 10000 2.6 170 09:59 12.12.2019
2552 Clouds 1 1006 86 10000 3.1 170 09:41 12.12.2019
2553 Clouds 1 1006 86 10000 3.1 170 09:23 12.12.2019
2554 Clouds 1 1006 86 10000 2.1 190 08:55 12.12.2019
2555 Clouds 1 1006 86 10000 2.6 170 08:37 12.12.2019
2556 Clouds 1 1006 90 10000 2.6 170 08:18 12.12.2019
2557 Rain 1 1006 90 10000 3.1 160 07:41 12.12.2019
2558 Rain 1 1006 90 10000 3.1 160 07:23 12.12.2019
2559 Rain 1 1006 90 10000 2.6 200 06:44 12.12.2019
2560 Rain 1 1006 90 10000 2.6 200 06:24 12.12.2019
2561 Rain 1 1006 90 7000 3.6 230 05:36 12.12.2019
2562 Rain 1 1006 94 5000 3.6 220 04:51 12.12.2019
2563 Rain 2 1007 93 10000 4.1 240 02:57 12.12.2019
2564 Rain 2 1007 93 10000 4.6 230 02:37 12.12.2019
2565 Rain 2 1007 93 10000 4.6 230 02:18 12.12.2019
2566 Rain 2 1007 92 10000 4.1 230 01:37 12.12.2019
2567 Rain 2 1007 93 10000 5.1 240 01:18 12.12.2019
2568 Rain 2 1008 93 10000 6.2 240 00:40 12.12.2019
2569 Rain 2 1008 93 10000 6.2 240 00:19 12.12.2019
2570 Rain 2 1008 93 10000 7.7 250 23:44 11.12.2019
2571 Rain 2 1007 86 10000 8.2 240 23:20 11.12.2019
2572 Clouds 2 1008 74 10000 6.7 250 22:57 11.12.2019
2573 Clouds 1 1008 84 8000 6.2 220 22:38 11.12.2019
2574 Clouds 1 1008 74 10000 4.1 210 22:19 11.12.2019
2575 Clouds 1 1008 69 10000 3.6 230 21:57 11.12.2019
2576 Clouds 1 1008 74 10000 3.1 240 21:38 11.12.2019
2577 Clouds 1 1008 74 10000 3.1 240 21:19 11.12.2019
2578 Clouds 1 1008 74 10000 3.1 240 21:19 11.12.2019
2579 Clouds 1 1008 84 10000 3.6 230 20:56 11.12.2019
2580 Clouds 0 1008 81 10000 2.6 210 20:37 11.12.2019
2581 Clouds 0 1008 54 10000 2.6 210 20:19 11.12.2019
2582 Clouds 0 1008 54 10000 1 260 19:58 11.12.2019
2583 Clouds 0 1008 54 10000 2.1 190 19:39 11.12.2019
2584 Clouds 0 1008 92 10000 2.1 180 19:19 11.12.2019
2585 Clouds 0 1008 86 10000 0.5 0 18:42 11.12.2019
2586 Clouds 0 1008 86 10000 0.5 0 18:22 11.12.2019
2587 Clouds 0 1008 86 10000 1.5 130 17:57 11.12.2019
2588 Clouds 0 1008 54 10000 2.05 221 17:39 11.12.2019
2589 Clouds 0 1008 54 10000 0.5 210 17:19 11.12.2019
2590 Clouds 0 1009 54 10000 1.5 170 16:58 11.12.2019
2591 Clouds 1 1008 54 10000 2.6 110 16:40 11.12.2019
2592 Clouds 1 1009 74 10000 1 0 16:22 11.12.2019
2593 Clouds 1 1009 69 10000 2.6 130 15:59 11.12.2019
2594 Clouds 1 1009 69 10000 2.6 130 15:59 11.12.2019
2595 Clouds 2 1009 74 10000 1.5 140 15:41 11.12.2019
2596 Clouds 2 1010 69 10000 1 0 15:23 11.12.2019
2597 Clouds 2 1010 64 10000 0.5 120 14:57 11.12.2019
2598 Clouds 2 1010 69 10000 1 130 14:38 11.12.2019
2599 Clouds 2 1010 64 10000 1 0 14:20 11.12.2019
2600 Clouds 2 1011 64 10000 0.44 93 13:56 11.12.2019
2601 Clouds 2 1011 69 10000 1.5 170 13:38 11.12.2019
2602 Clouds 2 1011 64 10000 1 0 13:19 11.12.2019
2603 Clouds 2 1012 74 10000 1 0 12:57 11.12.2019
2604 Clouds 1 1012 74 10000 1 0 12:38 11.12.2019
2605 Clouds 1 1012 69 10000 0.5 134 12:19 11.12.2019
2606 Clouds 1 1013 45 10000 0.5 0 11:57 11.12.2019
2607 Clouds 1 1013 45 10000 1.5 150 11:38 11.12.2019
2608 Clouds 0 1014 80 10000 0.11 180 11:18 11.12.2019
2609 Clouds 0 1014 80 10000 0.11 180 11:18 11.12.2019
2610 Clouds -1 1014 80 10000 0.11 180 10:56 11.12.2019
2611 Clouds -2 1014 86 10000 0.11 180 10:38 11.12.2019
2612 Clouds -2 1014 86 10000 0.11 180 10:19 11.12.2019
2613 Clouds -3 1015 85 10000 1.5 160 09:41 11.12.2019
2614 Clouds -4 1015 92 10000 1 150 09:21 11.12.2019
2615 Clouds -4 1015 92 10000 0.11 180 08:58 11.12.2019
2616 Clouds -5 1017 100 10000 0.5 40 08:38 11.12.2019
2617 Clear -6 1015 100 10000 1 0 08:19 11.12.2019
2618 Clear -6 1015 92 10000 1 0 07:57 11.12.2019
2619 Clouds -6 1016 92 10000 1 180 07:39 11.12.2019
2620 Clear -5 1016 92 10000 1 0 07:21 11.12.2019
2621 Clear -5 1016 92 10000 1 0 06:44 11.12.2019
2622 Clear -5 1016 100 10000 1 240 06:22 11.12.2019
2623 Clear -5 1016 100 10000 1 0 05:46 11.12.2019
2624 Clear -5 1017 100 10000 2.1 150 05:27 11.12.2019
2625 Clear -5 1018 92 10000 1.5 150 04:41 11.12.2019
2626 Clear -5 1020 92 10000 2.1 160 02:50 11.12.2019
2627 Clear -4 1021 86 10000 1.5 210 01:30 11.12.2019
2628 Clear -4 1022 92 10000 2.1 150 00:56 11.12.2019
2629 Clear -3 1022 92 10000 1.5 160 00:36 11.12.2019
2630 Clear -3 1022 92 10000 1.5 160 00:18 11.12.2019
2631 Clear -3 1022 86 10000 1 140 23:41 10.12.2019
2632 Clear -3 1022 86 10000 1 140 23:21 10.12.2019
2633 Clear -2 1023 92 10000 2.6 150 22:42 10.12.2019
2634 Clear -2 1023 92 10000 2.6 150 22:24 10.12.2019
2635 Clear -2 1023 92 10000 2.6 150 22:24 10.12.2019
2636 Clear -2 1023 92 10000 2.6 160 21:58 10.12.2019
2637 Clear -2 1023 92 10000 1 140 21:39 10.12.2019
2638 Clear -2 1024 92 10000 2.1 140 21:21 10.12.2019
2639 Clear -2 1024 92 10000 2.1 140 20:59 10.12.2019
2640 Clear -2 1024 92 10000 2.1 140 20:59 10.12.2019
2641 Clear -1 1024 100 10000 1.5 140 20:38 10.12.2019
2642 Clear -1 1024 100 10000 1.5 140 20:38 10.12.2019
2643 Clear -1 1024 100 10000 1.5 140 20:38 10.12.2019
2644 Clear -1 1024 100 10000 1.5 140 20:38 10.12.2019
2645 Clear -1 1024 100 10000 1.5 140 20:38 10.12.2019
2646 Clouds -2 1024 100 10000 1.5 140 20:20 10.12.2019
2647 Clouds -1 1024 100 10000 2.1 140 19:58 10.12.2019
2648 Clouds -1 1025 92 10000 2.6 150 19:40 10.12.2019
2649 Clouds -1 1025 92 10000 2.6 150 19:22 10.12.2019
2650 Clouds -1 1025 92 10000 3.1 150 18:56 10.12.2019
2651 Clouds 0 1025 86 10000 2.1 160 18:38 10.12.2019
2652 Clouds 0 1025 92 10000 2.6 150 18:19 10.12.2019
2653 Clouds 0 1026 86 10000 3.1 160 17:54 10.12.2019
2654 Clouds 1 1026 87 10000 2.1 200 17:36 10.12.2019
2655 Clouds 1 1026 82 10000 2.1 200 17:18 10.12.2019
2656 Clouds 2 1026 74 10000 2.1 190 16:42 10.12.2019
2657 Clouds 2 1026 74 10000 2.1 190 16:20 10.12.2019
2658 Clouds 3 1026 74 10000 2.6 230 15:54 10.12.2019
2659 Clouds 3 1027 64 10000 5.1 270 15:36 10.12.2019
2660 Clouds 3 1027 64 10000 5.1 270 15:18 10.12.2019
2661 Clouds 3 1026 74 10000 2.1 270 14:42 10.12.2019
2662 Clouds 3 1026 80 10000 3.1 260 14:24 10.12.2019
2663 Clouds 3 1027 80 10000 4.1 240 13:59 10.12.2019
2664 Clouds 3 1027 69 10000 2.6 240 13:40 10.12.2019
2665 Clouds 3 1027 68 10000 4.1 250 13:20 10.12.2019
2666 Clouds 3 1027 68 10000 3.6 250 12:57 10.12.2019
2667 Clouds 3 1027 80 10000 3.1 280 12:38 10.12.2019
2668 Clouds 3 1027 80 10000 3.1 280 12:20 10.12.2019
2669 Clouds 3 1027 86 10000 3.1 240 11:41 10.12.2019
2670 Clouds 3 1027 86 10000 3.1 240 11:41 10.12.2019
2671 Clouds 2 1027 87 10000 3.6 270 11:23 10.12.2019
2672 Clouds 2 1026 87 10000 3.6 280 10:56 10.12.2019
2673 Clouds 2 1026 86 10000 4.6 270 10:37 10.12.2019
2674 Clouds 2 1026 86 10000 4.6 270 10:19 10.12.2019
2675 Clouds 2 1026 87 10000 4.1 280 09:55 10.12.2019
2676 Clouds 1 1025 87 10000 4.1 280 09:37 10.12.2019
2677 Clouds 1 1025 87 10000 4.1 280 09:18 10.12.2019
2678 Clouds 1 1025 87 10000 3.6 270 08:54 10.12.2019
2679 Clouds 1 1024 86 10000 3.6 280 08:36 10.12.2019
2680 Clouds 1 1024 88 10000 3.6 280 08:18 10.12.2019
2681 Clouds 1 1024 88 10000 2.6 270 07:43 10.12.2019
2682 Clouds 1 1023 88 10000 4.1 300 07:24 10.12.2019
2683 Clouds 2 1022 93 10000 5.1 310 06:46 10.12.2019
2684 Snow 2 1021 88 10000 5.1 300 06:19 10.12.2019
2685 Snow 2 1021 93 10000 5.1 310 05:54 10.12.2019
2686 Rain 3 1019 93 9000 5.7 320 04:52 10.12.2019
2687 Rain 3 1017 93 10000 3.6 250 03:38 10.12.2019
2688 Snow 3 1017 93 8000 6.7 280 02:46 10.12.2019
2689 Rain 4 1015 93 10000 5.1 260 01:45 10.12.2019
2690 Rain 4 1015 93 9000 4.6 260 01:21 10.12.2019
2691 Rain 4 1013 93 10000 4.1 250 00:42 10.12.2019
2692 Rain 4 1013 93 10000 4.1 250 00:22 10.12.2019
2693 Rain 4 1013 93 10000 4.6 270 23:42 09.12.2019
2694 Rain 4 1012 86 10000 5.7 270 23:24 09.12.2019
2695 Rain 4 1011 93 7000 5.1 270 22:58 09.12.2019
2696 Rain 4 1011 93 7000 5.1 270 22:58 09.12.2019
2697 Rain 4 1012 86 10000 4.6 250 22:40 09.12.2019
2698 Rain 4 1011 86 10000 6.7 270 22:20 09.12.2019
2699 Rain 4 1010 86 10000 7.2 250 21:57 09.12.2019
2700 Rain 5 1009 86 10000 6.2 240 21:39 09.12.2019
2701 Rain 5 1009 86 10000 6.2 240 21:19 09.12.2019
2702 Rain 5 1008 80 10000 7.2 240 20:57 09.12.2019
2703 Rain 5 1008 80 10000 7.2 240 20:57 09.12.2019
2704 Rain 5 1008 93 10000 5.1 230 20:39 09.12.2019
2705 Clouds 5 1007 86 10000 5.1 230 20:20 09.12.2019
2706 Clouds 5 1007 86 10000 5.1 230 20:20 09.12.2019
2707 Clouds 5 1007 75 10000 5.7 230 19:56 09.12.2019
2708 Clouds 5 1007 75 10000 6.2 230 19:38 09.12.2019
2709 Clouds 5 1007 75 10000 6.2 230 19:20 09.12.2019
2710 Clouds 5 1006 75 10000 4.1 220 18:59 09.12.2019
2711 Clouds 5 1006 75 10000 5.1 230 18:40 09.12.2019
2712 Clouds 6 1006 75 10000 5.1 230 18:20 09.12.2019
2713 Clouds 6 1006 70 10000 7.2 240 17:59 09.12.2019
2714 Clouds 6 1006 70 10000 7.7 230 17:40 09.12.2019
2715 Clouds 6 1006 70 10000 7.7 240 17:21 09.12.2019
2716 Clouds 6 1005 70 10000 10.3 240 16:56 09.12.2019
2717 Rain 7 1005 65 10000 9.3 240 16:38 09.12.2019
2718 Rain 7 1005 65 10000 9.3 240 16:20 09.12.2019
2719 Rain 7 1005 52 10000 6.7 250 15:56 09.12.2019
2720 Clouds 8 1004 52 10000 6.7 240 15:38 09.12.2019
2721 Clouds 8 1004 52 10000 6.7 240 15:19 09.12.2019
2722 Clouds 9 1004 52 10000 9.3 250 14:59 09.12.2019
2723 Clouds 9 1004 52 10000 9.3 250 14:41 09.12.2019
2724 Clouds 9 1004 49 10000 11.3 250 14:18 09.12.2019
2725 Clouds 9 1005 63 10000 10.3 250 13:56 09.12.2019
2726 Clouds 9 1004 67 10000 9.3 230 13:37 09.12.2019
2727 Clouds 9 1005 67 10000 8.2 250 13:19 09.12.2019
2728 Clouds 9 1005 67 10000 8.2 250 12:55 09.12.2019
2729 Clouds 9 1005 67 10000 8.2 250 12:55 09.12.2019
2730 Clouds 8 1004 67 10000 9.3 240 12:37 09.12.2019
2731 Clouds 8 1005 67 10000 9.3 240 12:18 09.12.2019
2732 Clouds 8 1005 67 10000 9.3 240 11:40 09.12.2019
2733 Clouds 8 1006 61 10000 7.2 230 11:22 09.12.2019
2734 Clouds 8 1006 61 10000 7.2 230 11:22 09.12.2019
2735 Rain 8 1006 65 10000 6.2 210 10:59 09.12.2019
2736 Clouds 7 1005 65 10000 9.3 220 10:39 09.12.2019
2737 Clouds 7 1006 70 10000 6.7 220 10:20 09.12.2019
2738 Clouds 7 1006 70 10000 7.7 230 09:56 09.12.2019
2739 Clouds 7 1005 70 10000 7.7 230 09:37 09.12.2019
2740 Clouds 6 1006 80 10000 9.3 230 09:19 09.12.2019
2741 Clouds 6 1006 70 10000 5.7 240 08:40 09.12.2019
2742 Rain 6 1006 65 10000 7.2 240 08:22 09.12.2019
2743 Rain 6 1006 65 10000 7.7 230 07:53 09.12.2019
2744 Rain 6 1006 65 10000 8.2 230 07:34 09.12.2019
2745 Rain 6 1006 65 10000 7.7 240 06:59 09.12.2019
2746 Clouds 6 1006 83 10000 7.2 220 06:37 09.12.2019
2747 Rain 6 1006 65 10000 6.7 240 06:19 09.12.2019
2748 Rain 7 1007 65 10000 10.8 230 05:25 09.12.2019
2749 Rain 7 1007 75 10000 7.7 250 04:29 09.12.2019
2750 Rain 8 1007 70 10000 10.8 250 03:19 09.12.2019
2751 Rain 8 1006 66 10000 11.8 240 02:18 09.12.2019
2752 Rain 9 1006 66 10000 10.8 250 01:40 09.12.2019
2753 Clouds 9 1006 76 10000 6.2 220 00:45 09.12.2019
2754 Rain 10 1006 62 10000 12.9 250 00:25 09.12.2019
2755 Rain 9 1006 50 10000 10.3 250 23:40 08.12.2019
2756 Clouds 9 1006 50 10000 10.3 250 23:22 08.12.2019
2757 Clouds 9 1006 70 10000 9.8 250 22:57 08.12.2019
2758 Clouds 9 1007 70 10000 7.2 250 22:38 08.12.2019
2759 Clouds 9 1007 70 10000 7.2 250 22:19 08.12.2019
2760 Clouds 8 1007 46 10000 5.1 250 21:58 08.12.2019
2761 Clouds 8 1007 53 10000 7.7 220 21:40 08.12.2019
2762 Clouds 9 1007 43 10000 6.2 250 21:19 08.12.2019
2763 Clouds 8 1007 43 10000 6.2 250 20:57 08.12.2019
2764 Clouds 8 1007 70 10000 7.7 230 20:38 08.12.2019
2765 Clouds 8 1007 43 10000 7.7 240 20:20 08.12.2019
2766 Clouds 8 1007 46 10000 8.2 230 19:58 08.12.2019
2767 Clouds 8 1007 57 10000 6.7 210 19:40 08.12.2019
2768 Clouds 8 1008 76 10000 6.2 220 19:22 08.12.2019
2769 Clouds 8 1008 61 10000 5.7 220 18:55 08.12.2019
2770 Clouds 8 1009 65 10000 4.6 220 18:37 08.12.2019
2771 Clouds 8 1009 65 10000 4.6 220 18:19 08.12.2019
2772 Clouds 8 1009 70 10000 5.1 220 17:56 08.12.2019
2773 Clouds 8 1009 70 10000 6.7 210 17:38 08.12.2019
2774 Clouds 8 1010 70 10000 5.1 230 17:19 08.12.2019
2775 Clouds 8 1010 65 10000 5.1 240 16:57 08.12.2019
2776 Clouds 8 1010 70 10000 5.7 220 16:39 08.12.2019
2777 Clouds 8 1010 65 10000 5.1 240 16:20 08.12.2019
2778 Clouds 9 1010 61 10000 5.7 220 15:55 08.12.2019
2779 Clouds 9 1011 61 10000 7.2 230 15:36 08.12.2019
2780 Clouds 10 1011 61 10000 7.2 230 15:18 08.12.2019
2781 Clouds 10 1012 61 10000 7.7 240 14:43 08.12.2019
2782 Clouds 10 1012 61 10000 7.7 240 14:24 08.12.2019
2783 Clouds 10 1012 61 10000 8.7 240 13:58 08.12.2019
2784 Clouds 10 1012 66 10000 7.7 220 13:40 08.12.2019
2785 Clouds 9 1012 61 10000 6.7 240 13:21 08.12.2019
2786 Clouds 9 1013 66 10000 4.6 230 12:56 08.12.2019
2787 Clouds 9 1013 65 10000 5.1 220 12:38 08.12.2019
2788 Clouds 8 1013 65 10000 5.1 220 12:18 08.12.2019
2789 Clouds 8 1014 70 10000 6.2 220 11:56 08.12.2019
2790 Clouds 8 1014 75 10000 6.2 210 11:37 08.12.2019
2791 Clouds 7 1014 75 10000 6.2 210 11:19 08.12.2019
2792 Clouds 6 1014 70 10000 5.7 220 10:40 08.12.2019
2793 Clouds 5 1014 86 10000 3.1 210 10:21 08.12.2019
2794 Clouds 5 1015 76 10000 1 200 09:58 08.12.2019
2795 Clouds 4 1014 80 10000 5.1 210 09:39 08.12.2019
2796 Clouds 3 1015 76 10000 0.5 0 09:20 08.12.2019
2797 Clouds 3 1015 80 10000 2.6 230 08:59 08.12.2019
2798 Clouds 3 1015 80 10000 5.1 210 08:41 08.12.2019
2799 Clouds 3 1015 92 10000 1.5 200 08:22 08.12.2019
2800 Clouds 2 1015 100 10000 1 0 07:49 08.12.2019
2801 Clouds 3 1015 88 10000 2.6 170 07:21 08.12.2019
2802 Clouds 3 1016 88 10000 2.1 170 06:58 08.12.2019
2803 Clouds 3 1016 92 10000 2.1 180 06:38 08.12.2019
2804 Clouds 3 1016 92 10000 2.1 180 06:18 08.12.2019
2805 Clouds 3 1016 94 10000 3.1 180 05:23 08.12.2019
2806 Clouds 4 1017 94 10000 1.5 140 04:23 08.12.2019
2807 Clouds 4 1018 80 10000 3.6 230 03:38 08.12.2019
2808 Clouds 4 1018 80 10000 4.1 230 02:41 08.12.2019
2809 Clouds 5 1018 80 10000 4.6 230 02:20 08.12.2019
2810 Clouds 5 1019 75 10000 5.1 230 01:35 08.12.2019
2811 Clouds 5 1019 81 10000 4.6 230 00:53 08.12.2019
2812 Clouds 5 1019 81 10000 3.6 230 00:24 08.12.2019
2813 Clouds 5 1019 81 10000 4.1 230 23:59 07.12.2019
2814 Clouds 5 1019 75 10000 3.6 220 23:38 07.12.2019
2815 Clouds 5 1019 75 10000 3.6 220 23:20 07.12.2019
2816 Clouds 5 1019 81 10000 3.6 220 22:56 07.12.2019
2817 Clouds 5 1019 81 10000 3.6 220 22:37 07.12.2019
2818 Clouds 5 1019 81 10000 3.6 220 22:19 07.12.2019
2819 Clouds 6 1019 81 10000 3.1 220 21:55 07.12.2019
2820 Clouds 6 1019 86 10000 3.6 200 21:37 07.12.2019
2821 Clouds 6 1019 81 10000 3.6 220 21:19 07.12.2019
2822 Clouds 6 1019 81 10000 3.6 220 21:19 07.12.2019
2823 Clouds 6 1019 81 10000 3.6 230 20:54 07.12.2019
2824 Clouds 6 1020 86 10000 4.1 240 20:36 07.12.2019
2825 Clouds 6 1020 86 10000 4.1 240 20:18 07.12.2019
2826 Clouds 6 1019 81 10000 4.1 250 19:54 07.12.2019
2827 Clouds 6 1019 75 10000 4.6 240 19:36 07.12.2019
2828 Clouds 6 1019 75 10000 4.6 240 19:18 07.12.2019
2829 Clouds 7 1019 81 10000 5.1 230 18:42 07.12.2019
2830 Clouds 7 1018 75 10000 6.7 230 18:18 07.12.2019
2831 Clouds 7 1018 75 10000 5.1 240 17:57 07.12.2019
2832 Clouds 7 1018 81 10000 4.6 230 17:38 07.12.2019
2833 Clouds 7 1018 75 10000 5.7 230 17:20 07.12.2019
2834 Clouds 7 1018 75 10000 6.2 230 16:56 07.12.2019
2835 Clouds 8 1018 70 10000 7.2 230 16:37 07.12.2019
2836 Clouds 8 1018 70 10000 7.2 230 16:19 07.12.2019
2837 Clouds 8 1017 70 10000 7.2 230 15:42 07.12.2019
2838 Clouds 8 1017 70 10000 8.2 230 15:23 07.12.2019
2839 Clouds 9 1017 70 10000 8.2 250 14:57 07.12.2019
2840 Clouds 9 1017 66 10000 5.7 240 14:39 07.12.2019
2841 Rain 9 1017 75 10000 6.2 240 14:18 07.12.2019
2842 Rain 9 1017 70 10000 6.2 240 13:41 07.12.2019
2843 Rain 9 1017 75 10000 7.2 250 13:41 07.12.2019
2844 Rain 9 1017 75 10000 7.2 250 13:21 07.12.2019
2845 Rain 9 1017 75 10000 6.7 240 12:59 07.12.2019
2846 Rain 9 1017 70 10000 8.2 240 12:40 07.12.2019
2847 Rain 9 1017 70 10000 8.2 240 12:22 07.12.2019
2848 Rain 9 1017 75 10000 6.7 230 11:58 07.12.2019
2849 Rain 8 1017 81 10000 7.7 230 11:39 07.12.2019
2850 Rain 8 1017 81 10000 7.7 230 11:21 07.12.2019
2851 Rain 8 1017 81 10000 6.2 220 10:38 07.12.2019
2852 Rain 7 1017 75 10000 7.2 240 10:19 07.12.2019
2853 Rain 7 1017 75 10000 7.2 240 09:58 07.12.2019
2854 Rain 7 1017 75 10000 6.7 240 09:37 07.12.2019
2855 Rain 7 1017 75 10000 6.7 240 09:18 07.12.2019
2856 Rain 7 1016 75 10000 7.7 240 08:41 07.12.2019
2857 Rain 7 1016 75 10000 7.7 240 08:21 07.12.2019
2858 Rain 7 1015 65 10000 7.2 240 07:46 07.12.2019
2859 Rain 7 1015 65 10000 8.2 240 07:26 07.12.2019
2860 Rain 7 1015 65 10000 7.7 240 06:50 07.12.2019
2861 Rain 7 1014 65 10000 8.7 240 06:25 07.12.2019
2862 Rain 6 1014 70 10000 8.7 240 05:38 07.12.2019
2863 Clouds 6 1014 75 10000 9.3 230 04:19 07.12.2019
2864 Rain 6 1014 75 10000 7.2 220 03:47 07.12.2019
2865 Rain 4 1014 61 10000 7.7 240 02:22 07.12.2019
2866 Clouds 3 1015 62 10000 5.7 230 01:37 07.12.2019
2867 Clouds 3 1015 65 10000 5.7 230 01:18 07.12.2019
2868 Clouds 3 1015 60 10000 4.1 220 00:21 07.12.2019
2869 Clouds 2 1015 64 10000 5.7 220 23:57 06.12.2019
2870 Clouds 2 1015 64 10000 5.1 220 23:39 06.12.2019
2871 Clear 1 1015 64 10000 5.1 220 23:19 06.12.2019
2872 Clear 1 1015 64 10000 5.1 220 22:39 06.12.2019
2873 Clear 1 1015 64 10000 5.1 220 22:21 06.12.2019
2874 Clear 1 1015 64 10000 4.6 210 21:59 06.12.2019
2875 Clear 1 1015 69 10000 1.5 190 21:40 06.12.2019
2876 Clear 1 1015 69 10000 4.6 220 21:20 06.12.2019
2877 Clear 1 1015 64 10000 4.6 220 20:56 06.12.2019
2878 Clear 2 1016 65 10000 5.1 220 20:38 06.12.2019
2879 Clear 1 1016 65 10000 5.1 220 20:19 06.12.2019
2880 Clear 2 1016 56 10000 5.1 230 19:42 06.12.2019
2881 Clear 2 1016 56 10000 5.1 230 19:42 06.12.2019
2882 Clear 2 1016 56 10000 5.1 230 19:24 06.12.2019
2883 Clear 2 1016 56 10000 5.1 230 19:24 06.12.2019
2884 Clear 1 1016 52 10000 5.7 230 18:59 06.12.2019
2885 Clear 1 1016 56 10000 5.1 240 18:40 06.12.2019
2886 Clear 1 1016 56 10000 5.1 240 18:21 06.12.2019
2887 Clear 1 1016 52 10000 4.6 240 17:58 06.12.2019
2888 Clear 1 1016 52 10000 4.6 240 17:40 06.12.2019
2889 Clear 2 1016 52 10000 3.1 250 17:40 06.12.2019
2890 Clear 3 1016 52 10000 3.1 250 17:22 06.12.2019
2891 Clear 3 1016 48 10000 3.6 250 16:58 06.12.2019
2892 Clear 4 1016 45 10000 3.6 230 16:38 06.12.2019
2893 Clear 5 1016 45 10000 3.6 230 16:19 06.12.2019
2894 Clouds 5 1016 49 10000 4.1 230 15:41 06.12.2019
2895 Clear 5 1017 62 10000 3.6 220 15:22 06.12.2019
2896 Clear 5 1017 62 10000 3.1 220 14:58 06.12.2019
2897 Clouds 6 1017 49 10000 3.1 230 14:40 06.12.2019
2898 Clear 6 1017 61 10000 2.6 210 14:20 06.12.2019
2899 Clear 6 1018 61 10000 3.1 220 13:55 06.12.2019
2900 Clear 5 1018 48 10000 3.1 220 13:37 06.12.2019
2901 Clear 6 1018 48 10000 3.1 220 13:18 06.12.2019
2902 Clouds 5 1019 74 8000 0.5 0 12:39 06.12.2019
2903 Clear 4 1019 100 10000 1.5 220 12:21 06.12.2019
2904 Clear 1 1020 48 10000 1 220 11:43 06.12.2019
2905 Clear 1 1020 50 10000 1 220 11:23 06.12.2019
2906 Clear 0 1020 92 10000 0.5 0 10:58 06.12.2019
2907 Clear 0 1020 92 10000 0.5 0 10:40 06.12.2019
2908 Clear -2 1020 100 10000 0.5 0 10:20 06.12.2019
2909 Clear -3 1020 100 10000 1 0 09:56 06.12.2019
2910 Clear -4 1020 92 10000 1 180 09:37 06.12.2019
2911 Clear -4 1020 92 10000 1 180 09:19 06.12.2019
2912 Clouds -4 1020 92 6000 1.5 180 08:43 06.12.2019
2913 Clear -4 1020 100 8000 1.5 160 08:25 06.12.2019
2914 Fog -4 1020 100 900 1 180 07:43 06.12.2019
2915 Fog -4 1020 92 200 1.38 228 07:23 06.12.2019
2916 Fog -4 1020 92 200 1.38 228 07:23 06.12.2019
2917 Clouds -4 1020 92 350 1.38 228 06:55 06.12.2019
2918 Clouds -3 1020 92 400 1 0 06:26 06.12.2019
2919 Clear -4 1020 92 800 1.5 340 05:52 06.12.2019
2920 Fog -2 1021 100 900 2.6 240 04:34 06.12.2019
2921 Clouds -2 1020 92 400 1 0 01:48 06.12.2019
2922 Clouds -2 1021 100 350 1.5 210 00:57 06.12.2019
2923 Clouds -2 1021 92 350 1.5 190 00:39 06.12.2019
2924 Clouds -2 1021 92 350 1.5 190 00:19 06.12.2019
2925 Clouds -2 1021 100 300 1.5 170 23:37 05.12.2019
2926 Clouds -2 1021 92 250 1 0 23:18 05.12.2019
2927 Clouds -2 1021 92 250 1 0 22:55 05.12.2019
2928 Fog -2 1023 92 300 0.5 0 22:37 05.12.2019
2929 Fog -2 1023 100 300 1.5 270 22:18 05.12.2019
2930 Fog -2 1022 100 300 2.1 200 21:42 05.12.2019
2931 Clouds -2 1022 92 450 2.1 200 21:24 05.12.2019
2932 Fog -2 1023 100 400 2.1 270 20:59 05.12.2019
2933 Fog -2 1023 100 400 2.1 270 20:40 05.12.2019
2934 Fog -2 1023 100 500 1.5 200 20:20 05.12.2019
2935 Clouds -2 1022 100 450 1.5 160 19:56 05.12.2019
2936 Clouds -2 1022 100 450 1.5 160 19:38 05.12.2019
2937 Fog -2 1022 100 250 0.5 0 19:19 05.12.2019
2938 Fog -2 1022 92 250 1 140 18:54 05.12.2019
2939 Fog -2 1022 92 250 1 140 18:36 05.12.2019
2940 Fog -2 1022 100 250 1 0 18:18 05.12.2019
2941 Fog -2 1022 100 250 1.5 10 17:39 05.12.2019
2942 Fog -1 1021 100 250 1.5 40 17:19 05.12.2019
2943 Fog -1 1021 100 250 1.5 40 16:57 05.12.2019
2944 Fog -1 1021 92 250 2.1 40 16:39 05.12.2019
2945 Fog 0 1021 100 400 2.1 360 16:21 05.12.2019
2946 Clear -1 1021 92 7000 2.6 20 15:56 05.12.2019
2947 Clear -2 1021 92 7000 2.6 20 15:38 05.12.2019
2948 Clear -1 1021 86 10000 2.6 20 15:19 05.12.2019
2949 Clear -1 1021 86 10000 2.6 20 14:55 05.12.2019
2950 Clear -1 1021 86 10000 2.6 20 14:55 05.12.2019
2951 Clear -1 1021 67 10000 2.6 20 14:37 05.12.2019
2952 Mist 2 1022 92 2000 1 0 14:19 05.12.2019
2953 Clear 2 1021 47 10000 1 0 13:56 05.12.2019
2954 Clear 2 1021 47 10000 1 0 13:38 05.12.2019
2955 Clear 2 1021 48 10000 1.5 10 13:19 05.12.2019
2956 Clear -2 1021 48 10000 1.5 360 12:56 05.12.2019
2957 Clear -2 1021 48 10000 1.5 360 12:38 05.12.2019
2958 Clear -2 1021 48 10000 2.1 340 12:19 05.12.2019
2959 Clear -2 1021 100 10000 1 0 11:39 05.12.2019
2960 Clear -1 1021 100 9000 1.08 186 11:21 05.12.2019
2961 Clear -1 1022 92 8000 1.08 186 10:58 05.12.2019
2962 Clear -2 1022 92 8000 1.08 186 10:40 05.12.2019
2963 Clouds -3 1022 92 6000 1.08 186 10:19 05.12.2019
2964 Fog -3 1021 100 400 1.08 186 09:55 05.12.2019
2965 Fog -3 1021 100 400 1.08 186 09:37 05.12.2019
2966 Fog -3 1022 92 300 1.08 186 09:18 05.12.2019
2967 Fog -3 1021 92 400 1.08 186 08:39 05.12.2019
2968 Fog -3 1022 92 400 1.5 270 08:21 05.12.2019
2969 Fog -3 1022 92 400 1.5 270 07:59 05.12.2019
2970 Fog -3 1022 100 400 2.1 260 07:40 05.12.2019
2971 Fog -3 1022 92 400 2.1 260 07:21 05.12.2019
2972 Fog -3 1021 92 1000 3.6 260 06:47 05.12.2019
2973 Clear -3 1020 92 6000 0.5 0 06:23 05.12.2019
2974 Clear -3 1020 92 6000 2.6 260 05:53 05.12.2019
2975 Clouds -4 1020 92 600 2.6 230 05:24 05.12.2019
2976 Clear -4 1020 100 800 2.6 210 04:33 05.12.2019
2977 Clouds -4 1020 100 900 2.1 240 03:33 05.12.2019
2978 Clear -4 1019 100 1200 2.6 210 02:41 05.12.2019
2979 Clouds -4 1019 100 450 2.6 220 02:21 05.12.2019
2980 Clouds -4 1019 100 550 2.1 220 01:50 05.12.2019
2981 Clouds -4 1019 92 400 2.1 210 01:23 05.12.2019
2982 Clouds -4 1019 100 600 2.6 220 00:43 05.12.2019
2983 Clear -4 1019 92 10000 1.5 200 00:20 05.12.2019
2984 Clear -4 1019 92 9000 2.1 210 23:46 04.12.2019
2985 Clear -4 1019 100 8000 1.5 190 23:22 04.12.2019
2986 Clear -4 1019 100 8000 1.5 190 22:59 04.12.2019
2987 Clear -3 1019 100 8000 0.96 241 22:38 04.12.2019
2988 Clear -3 1019 92 9000 1.5 170 22:20 04.12.2019
2989 Clear -3 1019 100 10000 1 210 21:58 04.12.2019
2990 Clear -3 1019 100 10000 1 210 21:38 04.12.2019
2991 Clear -3 1019 92 10000 1 250 21:19 04.12.2019
2992 Clear -2 1019 92 10000 1 250 20:57 04.12.2019
2993 Clear -3 1019 92 10000 1 0 20:39 04.12.2019
2994 Clear -2 1019 92 10000 0.5 0 20:21 04.12.2019
2995 Clear -2 1019 92 10000 0.34 112 19:57 04.12.2019
2996 Clear -2 1019 92 10000 0.34 112 19:38 04.12.2019
2997 Clear -1 1018 86 10000 1.5 70 19:20 04.12.2019
2998 Clear -2 1018 86 10000 2.1 90 18:42 04.12.2019
2999 Clear -2 1018 86 10000 2.6 60 18:24 04.12.2019
3000 Clear -1 1018 86 10000 2.6 60 17:59 04.12.2019
3001 Clear -1 1019 86 10000 2.1 50 17:39 04.12.2019
3002 Clear 0 1019 80 10000 2.6 50 17:21 04.12.2019
3003 Clear 1 1019 74 10000 2.1 60 16:57 04.12.2019
3004 Clear 1 1019 74 10000 2.1 60 16:39 04.12.2019
3005 Clear 1 1019 74 10000 2.1 20 16:19 04.12.2019
3006 Clear 2 1019 74 10000 3.1 20 15:55 04.12.2019
3007 Clear 2 1019 74 10000 3.1 20 15:37 04.12.2019
3008 Clear 2 1019 74 10000 2.6 30 15:19 04.12.2019
3009 Clear 2 1019 69 10000 3.1 20 14:44 04.12.2019
3010 Clear 3 1019 69 10000 1.5 50 14:23 04.12.2019
3011 Clear 2 1019 69 10000 1.5 50 13:58 04.12.2019
3012 Clear 2 1020 69 10000 1.5 100 13:38 04.12.2019
3013 Clear 2 1020 69 10000 1.5 100 13:38 04.12.2019
3014 Clear 2 1020 69 10000 1.5 100 13:20 04.12.2019
3015 Clear 2 1020 74 10000 2.1 110 12:45 04.12.2019
3016 Clear 2 1020 57 10000 2.6 90 12:25 04.12.2019
3017 Clear 1 1021 80 10000 3.1 100 11:57 04.12.2019
3018 Clear 0 1021 80 10000 3.1 100 11:39 04.12.2019
3019 Clear -1 1021 86 10000 2.1 50 11:21 04.12.2019
3020 Clear -1 1021 86 10000 2.1 80 10:44 04.12.2019
3021 Clear -2 1021 92 10000 3.1 70 10:24 04.12.2019
3022 Clear -2 1021 92 10000 3.1 70 09:57 04.12.2019
3023 Clear -2 1021 86 10000 1 0 09:38 04.12.2019
3024 Clear -4 1021 85 10000 1.5 80 09:20 04.12.2019
3025 Clear -4 1021 92 10000 1 0 08:42 04.12.2019
3026 Clear -4 1021 92 10000 2.1 70 08:23 04.12.2019
3027 Clear -4 1021 92 10000 2.6 70 07:51 04.12.2019
3028 Clear -4 1021 92 10000 2.6 60 07:31 04.12.2019
3029 Clear -4 1021 92 10000 2.6 60 06:57 04.12.2019
3030 Clear -4 1021 92 10000 1.5 90 06:31 04.12.2019
3031 Clear -4 1021 92 10000 2.1 80 05:43 04.12.2019
3032 Clear -4 1022 92 10000 2.6 80 04:33 04.12.2019
3033 Clear -3 1022 100 6000 2.6 70 03:29 04.12.2019
3034 Clear -3 1023 92 9000 2.6 70 01:25 04.12.2019
3035 Clear -3 1024 92 10000 3.1 80 00:47 04.12.2019
3036 Clear -3 1024 92 10000 2.6 80 00:21 04.12.2019
3037 Clear -3 1024 92 10000 2.6 80 23:43 03.12.2019
3038 Clear -2 1024 92 10000 2.6 80 23:20 03.12.2019
3039 Clear -2 1026 92 10000 2.6 50 22:59 03.12.2019
3040 Clear -2 1025 92 10000 2.6 80 22:38 03.12.2019
3041 Clear -2 1025 92 10000 2.6 80 22:38 03.12.2019
3042 Clear -2 1025 92 10000 2.6 80 22:18 03.12.2019
3043 Clear -3 1025 86 10000 2.6 80 21:57 03.12.2019
3044 Clear -2 1025 86 10000 2.6 80 21:37 03.12.2019
3045 Clear -2 1025 86 10000 2.6 90 21:18 03.12.2019
3046 Clear -2 1025 86 10000 2.6 90 20:54 03.12.2019
3047 Clear -2 1026 86 10000 3.1 90 20:36 03.12.2019
3048 Clear -2 1026 79 10000 3.1 90 20:18 03.12.2019
3049 Clear -2 1027 86 10000 1 90 19:54 03.12.2019
3050 Clear -2 1026 86 10000 2.6 80 19:36 03.12.2019
3051 Clear -2 1026 79 10000 2.1 100 19:18 03.12.2019
3052 Clear -2 1026 79 10000 1.5 70 18:55 03.12.2019
3053 Clear -1 1026 79 10000 1.5 70 18:36 03.12.2019
3054 Clear -1 1026 80 10000 2.6 50 18:18 03.12.2019
3055 Clear -1 1026 86 10000 2.1 70 17:39 03.12.2019
3056 Clear 0 1026 80 10000 1.5 100 17:19 03.12.2019
3057 Clear 1 1026 64 10000 2.1 90 16:59 03.12.2019
3058 Clear 1 1026 64 10000 2.1 90 16:40 03.12.2019
3059 Clear 2 1026 59 10000 3.1 90 16:21 03.12.2019
3060 Clear 2 1026 59 10000 3.1 90 16:21 03.12.2019
3061 Clear 3 1026 59 10000 3.1 90 15:59 03.12.2019
3062 Clear 3 1026 64 10000 3.1 100 15:38 03.12.2019
3063 Clear 4 1026 59 10000 3.6 100 15:19 03.12.2019
3064 Clear 4 1026 59 10000 3.6 100 14:54 03.12.2019
3065 Clear 3 1026 59 10000 3.6 100 14:36 03.12.2019
3066 Rain 4 1026 59 10000 3.1 80 14:18 03.12.2019
3067 Clear 3 1026 59 10000 3.1 100 13:38 03.12.2019
3068 Rain 3 1027 59 10000 2.1 100 13:20 03.12.2019
3069 Rain 3 1027 59 10000 2.1 100 12:58 03.12.2019
3070 Rain 3 1027 64 10000 1.5 80 12:37 03.12.2019
3071 Rain 3 1027 69 10000 1.5 120 12:18 03.12.2019
3072 Rain 3 1028 69 10000 0.5 0 11:57 03.12.2019
3073 Rain 3 1028 69 10000 0.5 0 11:38 03.12.2019
3074 Rain 1 1028 80 10000 1.38 82 11:19 03.12.2019
3075 Rain 1 1028 80 10000 1.38 82 10:56 03.12.2019
3076 Rain 0 1028 80 10000 1.38 82 10:38 03.12.2019
3077 Rain 0 1028 86 10000 0.5 0 10:19 03.12.2019
3078 Clear -2 1028 92 10000 1.5 190 09:45 03.12.2019
3079 Clear -2 1028 92 10000 1.5 220 09:24 03.12.2019
3080 Clear -2 1028 100 10000 1.5 200 08:57 03.12.2019
3081 Clear -3 1028 100 10000 1.5 200 08:38 03.12.2019
3082 Clear -3 1027 100 10000 1 190 08:20 03.12.2019
3083 Clear -4 1027 100 10000 1.5 210 07:51 03.12.2019
3084 Clear -3 1027 100 10000 1.5 210 07:28 03.12.2019
3085 Clear -3 1027 92 10000 1 140 06:45 03.12.2019
3086 Clear -3 1027 92 10000 2.1 160 06:20 03.12.2019
3087 Clear -3 1027 100 10000 1.5 160 05:54 03.12.2019
3088 Clear -2 1027 85 10000 1 0 03:44 03.12.2019
3089 Clear -2 1027 85 10000 2.1 210 03:22 03.12.2019
3090 Clear -2 1027 92 10000 1 0 02:54 03.12.2019
3091 Clear -2 1027 92 10000 1 0 02:32 03.12.2019
3092 Clouds -1 1027 92 10000 1.5 170 01:59 03.12.2019
3093 Clouds -1 1026 86 10000 3.6 160 01:39 03.12.2019
3094 Clouds -1 1027 86 10000 2.6 170 01:20 03.12.2019
3095 Clouds -1 1027 86 10000 0.5 0 00:42 03.12.2019
3096 Clouds -1 1027 86 10000 2.1 150 00:23 03.12.2019
3097 Clouds -1 1027 92 10000 1.5 170 23:44 02.12.2019
3098 Clouds 0 1027 86 10000 0.5 0 23:22 02.12.2019
3099 Clouds 0 1027 86 10000 0.5 0 22:59 02.12.2019
3100 Clouds 0 1026 86 10000 2.1 180 22:39 02.12.2019
3101 Clouds 0 1027 92 10000 2.1 160 22:21 02.12.2019
3102 Clouds -1 1026 80 10000 1.5 230 21:57 02.12.2019
3103 Clouds -1 1026 80 10000 1.5 230 21:36 02.12.2019
3104 Clouds -1 1026 80 10000 0.92 237 21:18 02.12.2019
3105 Clouds -1 1026 92 10000 1.5 200 20:55 02.12.2019
3106 Clouds -1 1026 80 10000 0.92 237 20:55 02.12.2019
3107 Clouds -1 1026 92 10000 1.5 200 20:37 02.12.2019
3108 Clouds 0 1026 86 10000 1 0 20:18 02.12.2019
3109 Clouds 0 1026 80 10000 2.1 200 19:42 02.12.2019
3110 Clouds 0 1025 86 10000 2.6 190 19:21 02.12.2019
3111 Clouds 0 1025 86 10000 2.6 190 18:57 02.12.2019
3112 Clouds 0 1025 86 10000 2.6 190 18:57 02.12.2019
3113 Clouds 0 1025 86 10000 2.6 190 18:57 02.12.2019
3114 Clouds 0 1025 80 10000 2.1 180 18:38 02.12.2019
3115 Clouds 0 1025 86 10000 2.1 180 18:18 02.12.2019
3116 Clouds 0 1025 86 10000 2.1 180 17:57 02.12.2019
3117 Clouds 0 1025 86 10000 2.1 180 17:57 02.12.2019
3118 Clouds 0 1025 90 10000 1.5 200 17:38 02.12.2019
3119 Clouds 0 1025 85 10000 2.1 240 17:18 02.12.2019
3120 Rain 1 1025 85 10000 1 0 16:40 02.12.2019
3121 Rain 1 1024 85 10000 2.6 320 16:19 02.12.2019
3122 Rain 1 1024 85 10000 2.1 310 15:58 02.12.2019
3123 Clouds 1 1024 85 10000 2.1 310 15:39 02.12.2019
3124 Clouds 1 1024 85 10000 2.1 310 15:39 02.12.2019
3125 Clouds 1 1024 74 10000 1.5 280 15:21 02.12.2019
3126 Rain 1 1024 74 10000 1.5 280 14:59 02.12.2019
3127 Rain 1 1024 85 10000 3.6 300 14:38 02.12.2019
3128 Rain 1 1023 75 10000 2.6 310 14:19 02.12.2019
3129 Clouds 1 1023 75 9000 2.6 320 13:57 02.12.2019
3130 Clouds 1 1023 75 9000 2.6 320 13:39 02.12.2019
3131 Clouds 1 1023 78 8000 3.1 320 13:19 02.12.2019
3132 Clouds 1 1023 78 8000 3.1 320 12:55 02.12.2019
3133 Rain 1 1023 78 8000 3.1 320 12:37 02.12.2019
3134 Rain 1 1023 78 8000 2.6 300 12:18 02.12.2019
3135 Clouds 1 1023 78 10000 2.6 310 11:38 02.12.2019
3136 Clouds 1 1022 88 10000 3.1 300 11:20 02.12.2019
3137 Clouds 1 1022 88 10000 3.1 300 10:58 02.12.2019
3138 Clouds 1 1022 88 10000 2.6 290 10:40 02.12.2019
3139 Clouds 0 1022 88 10000 2.6 280 10:22 02.12.2019
3140 Snow 0 1021 88 10000 2.1 240 09:57 02.12.2019
3141 Snow 0 1021 88 10000 2.1 240 09:39 02.12.2019
3142 Clouds 0 1021 100 10000 2.1 250 09:18 02.12.2019
3143 Clouds 0 1021 100 10000 2.1 250 09:18 02.12.2019
3144 Clouds 0 1021 88 10000 1.5 280 08:55 02.12.2019
3145 Clouds 0 1020 100 10000 2.6 260 08:37 02.12.2019
3146 Snow 0 1020 100 10000 2.1 260 08:18 02.12.2019
3147 Clouds 0 1019 100 10000 2.1 280 07:40 02.12.2019
3148 Clouds 0 1019 95 8000 2.1 260 07:20 02.12.2019
3149 Snow 0 1019 100 8000 3.1 280 06:45 02.12.2019
3150 Snow 0 1018 95 6000 2.6 300 06:27 02.12.2019
3151 Snow 0 1018 97 4400 3.1 280 05:19 02.12.2019
3152 Snow 0 1018 97 4400 3.1 280 05:19 02.12.2019
3153 Snow 0 1017 97 3200 2.1 260 04:19 02.12.2019
3154 Snow 0 1016 97 4300 1.5 250 02:51 02.12.2019
3155 Rain 1 1016 97 3500 1.5 260 01:50 02.12.2019
3156 Rain 1 1016 97 6000 1.5 250 01:21 02.12.2019
3157 Rain 1 1016 97 7000 2.1 250 00:45 02.12.2019
3158 Rain 1 1015 97 10000 1.5 290 00:23 02.12.2019
3159 Rain 1 1015 97 10000 1 0 23:45 01.12.2019
3160 Clouds 1 1015 86 10000 1 220 23:23 01.12.2019
3161 Clouds 1 1015 86 10000 1 240 22:58 01.12.2019
3162 Clouds 1 1015 86 10000 1 240 22:39 01.12.2019
3163 Clouds 1 1015 86 10000 1 0 22:20 01.12.2019
3164 Clouds 1 1015 86 10000 1.97 228 21:58 01.12.2019
3165 Clouds 1 1015 86 10000 1.97 228 21:40 01.12.2019
3166 Clouds 1 1015 86 10000 1 320 21:22 01.12.2019
3167 Clouds 1 1015 86 10000 1 320 20:59 01.12.2019
3168 Clouds 0 1015 86 10000 1.97 228 20:41 01.12.2019
3169 Clouds 0 1014 86 10000 0.19 218 20:23 01.12.2019
3170 Clouds 0 1015 100 10000 1 0 19:59 01.12.2019
3171 Clouds 0 1015 100 10000 1 0 19:40 01.12.2019
3172 Clouds 0 1014 100 10000 1 0 19:21 01.12.2019
3173 Clouds 0 1014 100 10000 1 0 18:58 01.12.2019
3174 Clouds 1 1015 86 10000 1 330 18:39 01.12.2019
3175 Clouds 0 1015 100 10000 1.5 250 18:20 01.12.2019
3176 Clouds 1 1014 86 10000 0.5 180 17:59 01.12.2019
3177 Clouds 1 1014 86 10000 0.5 180 17:41 01.12.2019
3178 -273 0 0 0 0 0 17:23 01.12.2019
3179 Clouds 1 1014 79 10000 1.5 70 16:56 01.12.2019
3180 Clouds 1 1014 79 10000 1.5 70 16:38 01.12.2019
3181 Clouds 1 1014 79 10000 1 100 16:20 01.12.2019
3182 Clouds 1 1014 79 10000 1.5 60 15:49 01.12.2019
3183 Clouds 1 1015 79 200 0.5 0 15:30 01.12.2019
3184 Clouds 1 1015 79 200 0.5 0 15:30 01.12.2019
3185 Clouds 1 1014 79 10000 1 0 14:43 01.12.2019
3186 Clouds 1 1014 72 10000 1.5 150 14:20 01.12.2019
3187 Clouds 1 1014 72 10000 1.5 150 13:59 01.12.2019
3188 Clouds 1 1014 72 10000 3.1 60 13:39 01.12.2019
3189 Clouds 1 1014 68 10000 2.1 70 13:20 01.12.2019
3190 Clouds 1 1015 68 10000 1.5 80 12:44 01.12.2019
3191 Clouds 0 1014 68 10000 2.6 70 11:59 01.12.2019
3192 Clouds 0 1014 68 10000 2.6 70 11:40 01.12.2019
3193 Clouds 0 1014 92 10000 3.1 70 11:21 01.12.2019
3194 Clouds 0 1015 86 10000 3.6 60 10:43 01.12.2019
3195 Clouds 0 1014 86 10000 4.1 70 10:22 01.12.2019
3196 Clouds -1 1014 92 10000 3.6 80 09:58 01.12.2019
3197 Clouds -1 1014 92 10000 3.6 80 09:39 01.12.2019
3198 Clouds -1 1014 92 10000 4.1 70 09:20 01.12.2019
3199 Clouds -1 1015 92 10000 3.6 80 08:47 01.12.2019
3200 Clouds -1 1015 92 10000 3.6 70 08:20 01.12.2019
3201 Clouds -1 1015 92 10000 3.1 80 07:51 01.12.2019
3202 Clouds -1 1015 92 10000 3.1 80 07:31 01.12.2019
3203 Clouds -2 1016 92 10000 3.6 80 06:57 01.12.2019
3204 Clouds -1 1016 92 10000 3.1 70 06:34 01.12.2019
3205 Clouds -2 1017 92 10000 2.6 70 05:48 01.12.2019
3206 Clouds -1 1017 92 10000 3.1 70 04:50 01.12.2019
3207 Clouds -1 1019 86 10000 1.5 50 03:23 01.12.2019
3208 Clouds -2 1018 92 10000 3.1 70 02:36 01.12.2019
3209 Clouds -1 1018 92 10000 3.1 100 02:18 01.12.2019
3210 Clouds -1 1018 92 10000 3.6 90 01:51 01.12.2019
3211 Clouds -1 1019 92 10000 3.6 80 01:24 01.12.2019
3212 Clouds -1 1019 92 10000 4.6 70 00:41 01.12.2019
3213 Clouds -1 1019 86 10000 3.1 80 00:23 01.12.2019
3214 Clouds -1 1020 92 10000 3.6 70 23:42 30.11.2019
3215 Clear -1 1020 86 10000 2.6 80 23:23 30.11.2019
3216 Clear -1 1020 86 10000 2.1 90 22:56 30.11.2019
3217 Clear -1 1020 86 10000 2.1 90 22:38 30.11.2019
3218 Clear -1 1020 86 10000 3.1 80 22:19 30.11.2019
3219 Clear -1 1020 86 10000 4.1 80 21:43 30.11.2019
3220 Clear -1 1021 92 10000 2.6 90 21:24 30.11.2019
3221 Clear -1 1021 92 10000 2.6 90 20:56 30.11.2019
3222 Clear 0 1021 88 10000 2.1 100 20:38 30.11.2019
3223 Clear 0 1021 90 10000 2.1 100 20:38 30.11.2019
3224 Clear 0 1021 86 10000 3.6 80 20:19 30.11.2019
3225 Clear 0 1021 86 10000 3.6 80 20:19 30.11.2019
3226 Clear 0 1021 86 10000 2.6 90 19:55 30.11.2019
3227 Clear 0 1021 86 10000 2.6 90 19:37 30.11.2019
3228 Clear 0 1021 86 10000 3.1 90 19:19 30.11.2019
3229 Clear 0 1021 86 10000 3.1 90 18:57 30.11.2019
3230 Clouds 1 1021 86 10000 3.1 80 18:38 30.11.2019
3231 Clouds 1 1021 80 10000 2.6 70 18:19 30.11.2019
3232 Clouds 2 1022 80 10000 2.1 80 17:57 30.11.2019
3233 Clouds 2 1022 80 10000 2.1 80 17:38 30.11.2019
3234 Clouds 2 1022 80 10000 2.1 80 17:38 30.11.2019
3235 Clouds 3 1023 64 10000 1.5 50 17:19 30.11.2019
3236 Clouds 3 1023 64 10000 1 80 16:56 30.11.2019
3237 Clouds 3 1023 64 10000 1 80 16:38 30.11.2019
3238 Clouds 4 1023 56 10000 1.5 80 16:19 30.11.2019
3239 Clouds 4 1022 64 10000 2.1 80 15:42 30.11.2019
3240 Clouds 4 1022 55 10000 2.6 70 15:19 30.11.2019
3241 Clouds 5 1022 55 10000 2.6 70 14:57 30.11.2019
3242 Clouds 5 1022 60 10000 1.5 360 14:38 30.11.2019
3243 Clouds 5 1022 60 10000 1 0 14:19 30.11.2019
3244 Clouds 5 1022 60 10000 1 0 13:57 30.11.2019
3245 Clear 5 1022 64 10000 1 0 13:37 30.11.2019
3246 Clear 5 1022 66 10000 1.5 200 13:19 30.11.2019
3247 Clear 5 1022 66 10000 1.5 200 13:19 30.11.2019
3248 Clear 5 1022 66 10000 2.1 190 12:47 30.11.2019
3249 Clear 4 1022 66 10000 2.1 190 12:28 30.11.2019
3250 Clear 4 1023 80 10000 2.6 250 11:58 30.11.2019
3251 Clear 4 1023 66 10000 1.5 250 11:39 30.11.2019
3252 Clear 4 1023 86 10000 2.1 230 11:18 30.11.2019
3253 Clear 3 1023 84 10000 2.6 270 10:45 30.11.2019
3254 Clear 2 1022 93 10000 1 200 10:21 30.11.2019
3255 Clear 2 1022 93 10000 1 200 09:59 30.11.2019
3256 Clear 1 1022 84 10000 0.5 0 09:40 30.11.2019
3257 Clear 1 1022 100 8000 2.1 210 09:20 30.11.2019
3258 Rain 1 1022 100 10000 3.1 280 08:41 30.11.2019
3259 Rain 1 1022 94 10000 3.1 210 08:19 30.11.2019
3260 Clouds 1 1021 100 10000 3.6 210 07:43 30.11.2019
3261 Clouds 1 1021 100 10000 3.6 220 07:24 30.11.2019
3262 Clouds 1 1021 94 10000 2.1 250 06:46 30.11.2019
3263 Clouds 1 1021 94 10000 2.1 250 06:28 30.11.2019
3264 Clouds 1 1021 92 10000 2.6 220 05:30 30.11.2019
3265 Snow 2 1020 93 10000 3.6 230 03:40 30.11.2019
3266 Snow 2 1020 93 10000 3.1 230 02:39 30.11.2019
3267 Snow 2 1019 90 10000 3.1 230 02:20 30.11.2019
3268 Snow 1 1019 94 10000 3.1 230 01:25 30.11.2019
3269 Snow 2 1019 93 10000 3.6 240 00:47 30.11.2019
3270 Snow 2 1018 93 10000 4.1 250 00:28 30.11.2019
3271 Snow 2 1018 100 10000 3.1 250 23:57 29.11.2019
3272 Snow 2 1018 100 10000 3.1 250 23:38 29.11.2019
3273 Snow 2 1017 100 10000 3.1 240 23:18 29.11.2019
3274 Snow 2 1017 93 10000 3.1 250 22:40 29.11.2019
3275 Snow 2 1017 93 10000 2.6 260 22:21 29.11.2019
3276 Rain 2 1016 93 10000 2.6 250 21:43 29.11.2019
3277 Rain 2 1016 93 10000 2.6 280 21:22 29.11.2019
3278 Rain 3 1016 93 10000 2.6 280 20:57 29.11.2019
3279 Rain 3 1015 93 10000 2.6 300 20:38 29.11.2019
3280 Rain 3 1015 93 10000 2.6 300 20:19 29.11.2019
3281 Rain 3 1015 80 10000 2.6 290 19:56 29.11.2019
3282 Rain 3 1014 93 10000 3.6 310 19:38 29.11.2019
3283 Rain 3 1014 86 10000 5.7 340 19:19 29.11.2019
3284 Rain 4 1013 93 10000 5.1 310 18:54 29.11.2019
3285 Rain 4 1013 93 10000 5.1 310 18:36 29.11.2019
3286 Rain 4 1012 93 10000 3.1 290 18:18 29.11.2019
3287 Rain 5 1012 93 10000 4.6 290 17:41 29.11.2019
3288 Rain 5 1012 93 10000 4.6 280 17:22 29.11.2019
3289 Rain 5 1011 93 10000 6.2 250 16:56 29.11.2019
3290 Rain 6 1011 93 10000 6.2 250 16:37 29.11.2019
3291 Rain 6 1010 86 10000 7.7 240 16:18 29.11.2019
3292 Clouds 6 1010 81 10000 7.2 240 15:40 29.11.2019
3293 Clouds 6 1009 81 10000 8.7 240 15:21 29.11.2019
3294 Clouds 6 1009 81 10000 8.2 240 14:55 29.11.2019
3295 Clouds 7 1009 81 10000 8.2 240 14:37 29.11.2019
3296 Clouds 7 1009 81 10000 9.8 250 14:18 29.11.2019
3297 Rain 7 1008 81 10000 8.2 230 13:40 29.11.2019
3298 Rain 7 1008 75 10000 9.8 240 13:20 29.11.2019
3299 Rain 8 1008 81 10000 8.7 240 12:56 29.11.2019
3300 Rain 8 1008 81 10000 8.7 240 12:37 29.11.2019
3301 Clouds 8 1008 81 10000 9.3 240 12:19 29.11.2019
3302 Clouds 8 1008 81 10000 9.8 250 11:54 29.11.2019
3303 Clouds 8 1008 81 10000 9.8 250 11:36 29.11.2019
3304 Clouds 8 1008 81 10000 8.2 240 11:18 29.11.2019
3305 Rain 8 1007 87 10000 6.2 250 10:55 29.11.2019
3306 Rain 8 1007 87 10000 6.2 250 10:37 29.11.2019
3307 Rain 8 1007 87 10000 6.2 240 10:18 29.11.2019
3308 Rain 7 1007 87 10000 6.7 260 09:55 29.11.2019
3309 Rain 7 1007 87 10000 6.7 260 09:36 29.11.2019
3310 Rain 7 1006 81 10000 7.7 240 09:18 29.11.2019
3311 Rain 7 1006 81 10000 7.7 250 08:39 29.11.2019
3312 Clouds 7 1005 81 10000 7.2 240 08:21 29.11.2019
3313 Rain 7 1005 81 10000 7.2 240 07:58 29.11.2019
3314 Rain 7 1005 81 10000 6.2 240 07:39 29.11.2019
3315 Rain 7 1005 81 10000 6.2 240 07:21 29.11.2019
3316 Rain 7 1005 81 10000 6.2 230 06:42 29.11.2019
3317 Rain 7 1005 81 10000 7.2 230 05:48 29.11.2019
3318 Rain 7 1004 87 10000 6.7 230 05:24 29.11.2019
3319 Rain 7 1004 81 10000 7.7 230 04:32 29.11.2019
3320 Rain 7 1004 70 10000 7.7 230 03:22 29.11.2019
3321 Rain 8 1004 75 10000 7.7 230 02:30 29.11.2019
3322 Rain 8 1004 70 10000 8.7 240 01:53 29.11.2019
3323 Rain 8 1004 70 10000 8.7 240 01:26 29.11.2019
3324 Rain 8 1004 70 10000 7.7 240 00:45 29.11.2019
3325 Rain 8 1004 70 10000 7.7 230 00:21 29.11.2019
3326 Rain 8 1004 70 10000 7.7 240 23:57 28.11.2019
3327 Rain 8 1004 70 10000 7.7 240 23:38 28.11.2019
3328 Clouds 8 1004 70 10000 7.7 240 23:20 28.11.2019
3329 Clouds 7 1004 75 10000 6.7 240 22:40 28.11.2019
3330 Clouds 7 1004 75 10000 8.2 230 22:21 28.11.2019
3331 Clouds 7 1004 75 10000 8.2 230 21:59 28.11.2019
3332 Clouds 7 1003 75 10000 7.2 240 21:41 28.11.2019
3333 Clouds 7 1003 75 10000 9.8 240 21:21 28.11.2019
3334 Clouds 7 1003 75 10000 9.8 240 20:58 28.11.2019
3335 Clouds 7 1003 70 10000 8.7 240 20:40 28.11.2019
3336 Clouds 7 1002 70 10000 9.3 230 20:21 28.11.2019
3337 Clouds 7 1002 70 10000 9.3 230 20:21 28.11.2019
3338 Clouds 8 1002 70 10000 8.7 230 19:57 28.11.2019
3339 Clouds 8 1002 70 10000 8.7 230 19:37 28.11.2019
3340 Clouds 8 1002 70 10000 8.2 230 19:19 28.11.2019
3341 Clouds 8 1002 70 10000 8.2 230 18:57 28.11.2019
3342 Clouds 8 1002 70 10000 8.7 230 18:38 28.11.2019
3343 Clouds 8 1002 70 10000 8.7 240 18:18 28.11.2019
3344 Clouds 8 1002 70 10000 8.2 240 17:43 28.11.2019
3345 Clouds 8 1002 70 10000 7.2 240 17:25 28.11.2019
3346 Clouds 8 1002 70 10000 7.2 240 17:25 28.11.2019
3347 Clouds 9 1002 70 10000 7.2 240 16:59 28.11.2019
3348 Clouds 9 1001 66 10000 10.3 240 16:40 28.11.2019
3349 Clouds 9 1001 70 10000 8.7 240 16:19 28.11.2019
3350 Clouds 9 1001 70 10000 8.2 240 15:57 28.11.2019
3351 Clouds 9 1001 70 10000 7.7 230 15:38 28.11.2019
3352 Clouds 10 1001 70 10000 8.2 240 15:19 28.11.2019
3353 Clouds 10 1001 70 10000 10.3 240 14:57 28.11.2019
3354 Clouds 9 1001 70 10000 8.2 240 14:57 28.11.2019
3355 Clouds 10 1001 70 10000 10.3 240 14:39 28.11.2019
3356 Clouds 10 1001 70 10000 10.3 240 14:19 28.11.2019
3357 Clouds 10 1001 61 10000 8.7 240 13:42 28.11.2019
3358 Clouds 10 1001 61 10000 6.2 230 13:23 28.11.2019
3359 Clouds 11 1001 66 10000 5.7 240 12:56 28.11.2019
3360 Clouds 11 1001 66 10000 5.7 240 12:38 28.11.2019
3361 Clouds 10 1001 66 10000 6.7 240 12:20 28.11.2019
3362 Rain 10 1001 66 10000 7.2 230 11:55 28.11.2019
3363 Rain 10 1001 66 10000 7.2 230 11:55 28.11.2019
3364 Rain 10 1001 66 10000 7.2 230 11:37 28.11.2019
3365 Rain 10 1001 66 10000 7.2 230 11:37 28.11.2019
3366 -273 0 0 0 0 0 11:18 28.11.2019
3367 Clouds 9 1001 61 10000 8.2 230 10:42 28.11.2019
3368 Clouds 9 1001 70 10000 8.2 240 10:22 28.11.2019
3369 Clouds 9 1001 70 10000 8.2 240 09:56 28.11.2019
3370 Clouds 9 1001 70 10000 7.7 240 09:38 28.11.2019
3371 Clouds 9 1001 70 10000 8.7 240 09:20 28.11.2019
3372 Rain 8 1001 70 10000 8.2 240 08:44 28.11.2019
3373 Clouds 9 1001 70 10000 8.2 240 08:44 28.11.2019
3374 Rain 8 1001 70 10000 7.2 230 08:22 28.11.2019
3375 Rain 8 1001 70 10000 7.2 230 07:58 28.11.2019
3376 Rain 8 1001 70 10000 7.2 230 07:58 28.11.2019
3377 Clouds 8 1000 70 10000 6.7 230 07:40 28.11.2019
3378 Rain 8 1000 75 10000 4.6 230 07:22 28.11.2019
3379 Clouds 8 1000 70 10000 4.1 230 06:43 28.11.2019
3380 Clouds 8 1000 75 10000 4.1 210 05:58 28.11.2019
3381 Clouds 8 1000 75 10000 3.1 200 05:40 28.11.2019
3382 Clouds 8 1000 81 10000 3.6 210 04:54 28.11.2019
3383 Clouds 7 1001 75 10000 4.1 200 02:33 28.11.2019
3384 Clouds 7 1001 75 10000 4.1 220 01:28 28.11.2019
3385 Clouds 6 1001 80 10000 3.1 230 00:43 28.11.2019
3386 Clouds 7 1001 81 10000 4.1 210 00:20 28.11.2019
3387 Clouds 7 1001 81 10000 4.6 210 23:40 27.11.2019
3388 Clouds 7 1001 81 10000 5.1 220 23:22 27.11.2019
3389 Clouds 7 1001 81 10000 4.6 220 22:59 27.11.2019
3390 Clouds 7 1001 81 10000 4.6 220 22:38 27.11.2019
3391 Clouds 7 1001 75 10000 4.1 210 22:20 27.11.2019
3392 Clouds 7 1001 75 10000 4.1 210 21:56 27.11.2019
3393 Clouds 7 1001 70 10000 5.7 190 21:37 27.11.2019
3394 Clouds 6 1001 81 10000 3.6 180 21:19 27.11.2019
3395 Clouds 6 1001 81 10000 3.6 180 20:58 27.11.2019
3396 Clouds 6 1001 81 10000 3.6 180 20:58 27.11.2019
3397 Clouds 6 1000 81 10000 3.6 170 20:39 27.11.2019
3398 Clouds 6 1000 75 10000 2.1 220 20:20 27.11.2019
3399 Clouds 6 1000 75 10000 3.6 200 19:57 27.11.2019
3400 Clouds 6 1000 75 10000 3.6 200 19:39 27.11.2019
3401 Clouds 6 1000 75 10000 3.1 180 19:19 27.11.2019
3402 Clouds 6 1000 75 10000 3.1 180 18:58 27.11.2019
3403 Clouds 6 1000 75 10000 3.1 180 18:58 27.11.2019
3404 Clouds 7 1000 70 10000 3.6 210 18:37 27.11.2019
3405 Clouds 7 1000 75 10000 3.6 210 18:19 27.11.2019
3406 Clouds 7 1000 76 10000 3.1 200 17:56 27.11.2019
3407 Clouds 8 1000 76 10000 3.1 200 17:38 27.11.2019
3408 Rain 7 1000 75 10000 3.1 220 17:20 27.11.2019
3409 Rain 7 1000 75 10000 3.1 220 17:20 27.11.2019
3410 Rain 8 1000 76 10000 2.6 250 16:56 27.11.2019
3411 Rain 8 1000 76 10000 2.6 250 16:37 27.11.2019
3412 Rain 9 1000 93 10000 2.6 100 16:18 27.11.2019
3413 Rain 9 1000 93 10000 2.6 100 15:57 27.11.2019
3414 Rain 9 999 76 10000 2.6 220 15:38 27.11.2019
3415 Rain 9 999 76 10000 2.6 210 15:20 27.11.2019
3416 Rain 9 999 71 10000 2.6 200 14:56 27.11.2019
3417 Rain 9 999 71 10000 2.6 200 14:38 27.11.2019
3418 Rain 9 1000 76 10000 4.1 200 14:20 27.11.2019
3419 Clouds 9 1000 87 10000 2.1 130 13:56 27.11.2019
3420 Rain 8 1001 93 10000 1.5 150 13:38 27.11.2019
3421 Rain 8 1001 93 10000 1.5 150 13:19 27.11.2019
3422 Clouds 7 1001 100 10000 2.1 200 12:42 27.11.2019
3423 Rain 7 1001 87 10000 5.7 240 12:22 27.11.2019
3424 Rain 6 1002 93 10000 3.6 220 11:59 27.11.2019
3425 Rain 6 1002 93 10000 3.1 230 11:37 27.11.2019
3426 Rain 5 1002 93 10000 3.1 230 11:19 27.11.2019
3427 Rain 5 1001 100 10000 0.5 0 10:55 27.11.2019
3428 Rain 5 1001 100 10000 0.5 0 10:37 27.11.2019
3429 Clouds 4 1001 93 9000 1 0 10:19 27.11.2019
3430 Clouds 4 1000 100 8000 2.1 230 09:41 27.11.2019
3431 Mist 4 999 100 4000 2.6 260 09:23 27.11.2019
3432 Clouds 4 998 100 8000 1.5 90 08:43 27.11.2019
3433 Mist 3 998 100 4500 2.1 180 08:23 27.11.2019
3434 -273 0 0 0 0 0 07:59 27.11.2019
3435 Clouds 3 998 100 7000 0.5 0 07:40 27.11.2019
3436 Clouds 3 998 100 8000 1 0 07:20 27.11.2019
3437 Clouds 3 998 100 8000 0.5 0 06:45 27.11.2019
3438 Clouds 3 998 100 10000 1.5 330 06:25 27.11.2019
3439 Clouds 3 998 100 10000 2.6 80 05:27 27.11.2019
3440 Clouds 3 998 100 6000 2.6 80 04:57 27.11.2019
3441 Clouds 3 998 100 6000 2.6 80 04:37 27.11.2019
3442 Rain 3 1000 100 800 2.6 40 03:50 27.11.2019
3443 Rain 3 1000 100 800 1.5 30 03:21 27.11.2019
3444 Clouds 3 1001 100 550 2.1 40 02:54 27.11.2019
3445 Clouds 3 1002 84 1100 1 0 01:35 27.11.2019
3446 Clouds 3 1003 100 650 1 340 00:44 27.11.2019
3447 Clouds 3 1003 100 1000 1 80 00:25 27.11.2019
3448 Clouds 3 1004 83 350 2.1 100 23:47 26.11.2019
3449 Clouds 3 1005 100 400 0.5 100 23:26 26.11.2019
3450 Clear 3 1005 89 800 1 0 22:57 26.11.2019
3451 Fog 4 1006 100 500 2.6 100 22:38 26.11.2019
3452 Clouds 4 1006 100 600 1.21 146 22:19 26.11.2019
3453 Clouds 4 1006 100 600 1.21 146 21:58 26.11.2019
3454 Clouds 4 1006 100 450 1.21 146 21:37 26.11.2019
3455 Fog 4 1007 100 400 3.1 80 21:19 26.11.2019
3456 Fog 4 1007 89 1100 0.5 0 20:54 26.11.2019
3457 Fog 5 1008 100 400 3.1 80 20:36 26.11.2019
3458 Fog 5 1008 100 400 2.6 100 20:18 26.11.2019
3459 Fog 5 1008 100 400 2.6 80 19:54 26.11.2019
3460 Fog 5 1007 100 1200 0.5 0 19:36 26.11.2019
3461 Fog 5 1007 93 2000 1 0 19:18 26.11.2019
3462 Fog 6 1007 100 2000 1 160 18:56 26.11.2019
3463 Fog 6 1007 100 1800 1 130 18:37 26.11.2019
3464 Fog 6 1007 100 1800 1 130 18:19 26.11.2019
3465 Fog 6 1007 100 2100 1.48 119 17:54 26.11.2019
3466 Clouds 7 1008 93 10000 0.5 0 17:36 26.11.2019
3467 Clouds 7 1008 93 10000 0.5 0 17:18 26.11.2019
3468 Clouds 8 1008 93 10000 1 120 16:54 26.11.2019
3469 Clouds 8 1008 93 10000 1 120 16:36 26.11.2019
3470 Clouds 8 1008 87 10000 1.5 110 16:18 26.11.2019
3471 Clouds 9 1008 81 10000 1 120 15:56 26.11.2019
3472 Clouds 9 1008 81 10000 1 120 15:37 26.11.2019
3473 Clouds 9 1008 81 10000 2.1 130 15:18 26.11.2019
3474 Clouds 9 1008 81 10000 2.1 140 14:43 26.11.2019
3475 Clouds 9 1008 76 10000 1 0 14:24 26.11.2019
3476 Clouds 9 1008 76 10000 1.5 220 13:43 26.11.2019
3477 Clouds 9 1009 76 10000 1 0 13:24 26.11.2019
3478 Clouds 9 1009 81 10000 1 0 12:58 26.11.2019
3479 Clouds 9 1009 81 10000 1 0 12:37 26.11.2019
3480 Clouds 8 1010 87 10000 1 0 12:19 26.11.2019
3481 Clouds 8 1010 100 10000 0.5 0 11:56 26.11.2019
3482 Clouds 7 1010 100 10000 0.5 0 11:37 26.11.2019
3483 Clouds 7 1010 100 8000 1.26 189 11:19 26.11.2019
3484 Rain 6 1010 100 9000 1 0 10:56 26.11.2019
3485 Rain 6 1010 100 9000 1 0 10:38 26.11.2019
3486 Fog 5 1010 100 8000 1 0 10:19 26.11.2019
3487 Fog 5 1010 100 8000 0.5 190 09:43 26.11.2019
3488 Clouds 5 1010 100 7000 1 0 09:24 26.11.2019
3489 Clouds 4 1010 100 7000 0.5 0 08:58 26.11.2019
3490 Clouds 4 1010 100 7000 0.5 0 08:38 26.11.2019
3491 Mist 4 1010 100 5000 1.5 150 08:18 26.11.2019
3492 Rain 4 1010 100 4500 1 200 07:43 26.11.2019
3493 Fog 4 1011 100 600 1.5 170 07:24 26.11.2019
3494 Clouds 4 1010 100 4500 3.1 210 06:53 26.11.2019
3495 Clouds 4 1010 100 6000 1.5 170 05:59 26.11.2019
3496 Clouds 4 1010 100 6000 1.5 170 05:36 26.11.2019
3497 Clouds 4 1010 93 800 2.6 200 03:22 26.11.2019
3498 Clouds 4 1011 100 900 2.1 210 01:53 26.11.2019
3499 Clouds 4 1011 93 900 2.6 210 01:28 26.11.2019
3500 Clouds 4 1011 93 1100 2.1 210 00:48 26.11.2019
3501 Clouds 4 1011 100 800 2.6 220 00:23 26.11.2019
3502 Clouds 4 1011 100 650 3.1 230 23:39 25.11.2019
3503 Clouds 4 1011 100 450 2.6 220 23:39 25.11.2019
3504 Clouds 4 1011 100 650 3.1 230 23:39 25.11.2019
3505 Clouds 4 1011 100 450 2.6 220 23:20 25.11.2019
3506 Clouds 4 1011 100 500 1 0 22:58 25.11.2019
3507 Clouds 4 1011 100 500 1 0 22:37 25.11.2019
3508 Clouds 4 1011 100 400 1 0 22:18 25.11.2019
3509 Clouds 4 1011 100 400 1 0 21:58 25.11.2019
3510 Clouds 4 1011 93 500 2.1 190 21:39 25.11.2019
3511 Clouds 4 1011 93 500 2.1 190 21:19 25.11.2019
3512 Clouds 4 1011 100 450 2.1 200 20:55 25.11.2019
3513 Clouds 4 1011 100 450 2.1 200 20:37 25.11.2019
3514 Clouds 4 1011 93 450 2.1 200 20:18 25.11.2019
3515 Clouds 4 1011 100 550 1.5 240 19:55 25.11.2019
3516 Clouds 4 1011 100 550 1.5 240 19:36 25.11.2019
3517 Clouds 3 1011 100 600 1.5 230 19:18 25.11.2019
3518 Clouds 4 1010 100 600 1.5 190 18:56 25.11.2019
3519 Clouds 4 1010 100 750 1 280 18:37 25.11.2019
3520 Clouds 4 1010 100 750 1 280 18:19 25.11.2019
3521 Clouds 4 1010 93 600 1.5 250 17:56 25.11.2019
3522 Fog 4 1010 100 550 0.5 0 17:37 25.11.2019
3523 Fog 4 1010 100 550 0.5 0 17:18 25.11.2019
3524 Fog 4 1010 100 500 0.5 0 16:55 25.11.2019
3525 Fog 4 1010 100 500 0.5 0 16:37 25.11.2019
3526 Fog 4 1009 100 450 0.5 0 16:18 25.11.2019
3527 Fog 4 1009 100 500 1 0 15:41 25.11.2019
3528 Fog 4 1009 100 400 0.5 0 15:21 25.11.2019
3529 Fog 4 1009 100 400 0.5 0 14:58 25.11.2019
3530 Fog 4 1009 100 450 1 0 14:40 25.11.2019
3531 Fog 4 1009 100 450 1 0 14:21 25.11.2019
3532 Fog 4 1009 100 450 1.5 330 13:54 25.11.2019
3533 Fog 4 1009 100 450 1.5 330 13:36 25.11.2019
3534 Clouds 4 1009 100 550 1 0 13:18 25.11.2019
3535 Clouds 4 1009 100 550 1 0 13:18 25.11.2019
3536 Clouds 4 1009 100 450 0.5 0 12:41 25.11.2019
3537 Fog 4 1009 100 550 1 0 12:22 25.11.2019
3538 Fog 4 1010 100 500 1 0 11:59 25.11.2019
3539 Fog 4 1010 100 500 1 0 11:39 25.11.2019
3540 Fog 4 1010 100 500 0.5 0 11:20 25.11.2019
3541 Fog 3 1010 100 400 1 0 10:46 25.11.2019
3542 Fog 3 1010 100 400 1 0 10:28 25.11.2019
3543 Fog 3 1010 100 400 1 0 09:59 25.11.2019
3544 Fog 3 1010 100 350 1.5 260 09:41 25.11.2019
3545 Fog 3 1010 100 350 1.5 260 09:41 25.11.2019
3546 Fog 3 1010 100 300 1.5 250 09:23 25.11.2019
3547 Fog 2 1010 100 250 1 200 08:41 25.11.2019
3548 Fog 2 1010 97 350 2.1 210 08:22 25.11.2019
3549 Clouds 2 1009 97 900 1.5 240 07:47 25.11.2019
3550 Fog 2 1010 100 400 1.5 270 07:28 25.11.2019
3551 Clouds 2 1009 100 550 1 210 06:58 25.11.2019
3552 Clouds 2 1009 97 300 2.1 220 06:23 25.11.2019
3553 Clouds 2 1009 100 700 2.1 200 05:51 25.11.2019
3554 Clouds 2 1009 97 550 2.6 220 05:31 25.11.2019
3555 Clouds 1 1009 96 900 2.6 230 04:48 25.11.2019
3556 Clouds 1 1009 96 3800 2.6 230 02:36 25.11.2019
3557 Clouds 1 1008 100 800 2.6 230 01:43 25.11.2019
3558 Clouds 1 1008 95 1100 1.5 190 01:24 25.11.2019
3559 Clouds 1 1009 100 750 1 210 00:45 25.11.2019
3560 Clouds 1 1009 100 600 2.1 230 00:20 25.11.2019
3561 Clouds 1 1009 100 500 2.1 220 23:45 24.11.2019
3562 Clouds 2 1009 96 10000 1.5 160 23:21 24.11.2019
3563 Clouds 2 1008 96 700 1.5 210 22:58 24.11.2019
3564 Clouds 2 1008 96 700 1.5 210 22:39 24.11.2019
3565 Clouds 2 1008 96 2000 1 210 22:19 24.11.2019
3566 Clouds 2 1008 100 4600 1 190 21:57 24.11.2019
3567 Clouds 2 1008 100 4600 1 190 21:39 24.11.2019
3568 Clouds 3 1008 100 6000 2.1 220 21:20 24.11.2019
3569 Clouds 3 1008 100 6000 2.1 220 20:58 24.11.2019
3570 Clouds 3 1008 100 6000 1.5 190 20:38 24.11.2019
3571 Clouds 4 1008 100 7000 1.5 230 20:18 24.11.2019
3572 Clouds 4 1008 100 10000 1.5 190 19:56 24.11.2019
3573 Clouds 4 1008 100 10000 1.5 190 19:38 24.11.2019
3574 Clouds 4 1008 100 10000 0.5 0 19:20 24.11.2019
3575 Clouds 5 1007 93 10000 1.5 260 18:58 24.11.2019
3576 Clouds 5 1007 93 10000 1.5 260 18:37 24.11.2019
3577 Clouds 6 1007 93 10000 1.5 220 18:19 24.11.2019
3578 Clouds 6 1007 93 10000 1.5 220 18:19 24.11.2019
3579 Clouds 6 1007 93 10000 0.5 0 17:56 24.11.2019
3580 Clouds 7 1007 87 10000 1 310 17:37 24.11.2019
3581 Clouds 7 1007 87 10000 1 310 17:19 24.11.2019
3582 Clouds 8 1007 81 10000 1.5 310 16:57 24.11.2019
3583 Clouds 8 1007 81 10000 1.5 310 16:38 24.11.2019
3584 Clouds 10 1006 76 10000 2.6 350 16:20 24.11.2019
3585 Clouds 10 1006 71 10000 2.6 350 15:44 24.11.2019
3586 Clouds 10 1006 71 10000 3.1 350 15:26 24.11.2019
3587 Clouds 10 1006 71 10000 2.6 350 14:58 24.11.2019
3588 Clouds 11 1006 71 10000 2.6 350 14:39 24.11.2019
3589 Clouds 11 1006 71 10000 1 10 14:19 24.11.2019
3590 Clouds 11 1005 66 10000 0.99 268 13:55 24.11.2019
3591 Clouds 11 1006 71 10000 2.6 60 13:36 24.11.2019
3592 Clouds 10 1005 71 10000 1.5 180 13:18 24.11.2019
3593 Clouds 10 1005 76 10000 2.6 220 12:42 24.11.2019
3594 Clouds 9 1005 76 10000 0.5 0 12:20 24.11.2019
3595 Clouds 9 1005 76 10000 0.5 0 11:59 24.11.2019
3596 Clouds 9 1005 76 10000 0.5 0 11:37 24.11.2019
3597 Clouds 9 1005 76 10000 0.5 0 11:37 24.11.2019
3598 Clouds 7 1005 81 10000 1 0 11:19 24.11.2019
3599 Clouds 7 1005 87 10000 1 0 10:48 24.11.2019
3600 Clouds 6 1005 87 10000 1 0 10:29 24.11.2019
3601 Clouds 5 1005 87 10000 2.6 50 09:59 24.11.2019
3602 Clouds 4 1005 100 10000 1 0 09:38 24.11.2019
3603 Clouds 4 1004 93 10000 1 0 09:19 24.11.2019
3604 Clouds 4 1005 86 10000 2.6 60 08:57 24.11.2019
3605 Clouds 3 1004 86 10000 1.5 50 08:38 24.11.2019
3606 Clouds 3 1003 100 10000 2.1 230 08:19 24.11.2019
3607 Clouds 3 1003 100 10000 1 0 07:47 24.11.2019
3608 Clouds 4 1003 93 10000 1 0 07:20 24.11.2019
3609 Clouds 3 1002 93 10000 1 0 06:40 24.11.2019
3610 Clouds 4 1002 93 10000 0.5 0 05:24 24.11.2019
3611 Clouds 4 1001 93 10000 0.5 0 04:40 24.11.2019
3612 Clouds 5 1001 93 10000 0.5 0 02:36 24.11.2019
3613 Clouds 5 1001 86 10000 1.5 120 01:56 24.11.2019
3614 Clouds 5 1001 86 10000 1.5 120 01:34 24.11.2019
3615 Clouds 6 1001 93 10000 1 0 00:52 24.11.2019
3616 Clouds 6 1001 81 10000 2.6 50 00:25 24.11.2019
3617 Clouds 5 1000 93 10000 1 0 23:57 23.11.2019
3618 Clouds 5 1000 93 10000 1 0 23:39 23.11.2019
3619 Clouds 6 1000 86 10000 2.1 80 23:20 23.11.2019
3620 Clouds 6 1000 86 10000 2.1 80 23:20 23.11.2019
3621 Clouds 6 1000 80 10000 1 0 22:57 23.11.2019
3622 Clouds 6 1000 80 10000 1 0 22:37 23.11.2019
3623 Clouds 6 1000 80 10000 2.6 140 22:19 23.11.2019
3624 Clouds 6 1001 81 10000 1.5 70 21:56 23.11.2019
3625 Clouds 6 1000 75 10000 3.1 120 21:37 23.11.2019
3626 Clouds 7 1000 70 10000 2.1 130 21:19 23.11.2019
3627 Clouds 7 1000 70 10000 2.6 140 20:38 23.11.2019
3628 Clouds 7 1000 70 10000 2.6 140 20:38 23.11.2019
3629 Clouds 8 999 57 10000 3.6 130 20:20 23.11.2019
3630 Clouds 8 999 81 10000 2.1 140 19:57 23.11.2019
3631 Clouds 8 999 81 10000 2.1 140 19:57 23.11.2019
3632 Clouds 8 999 57 10000 3.6 130 19:57 23.11.2019
3633 Clouds 8 999 81 10000 2.1 140 19:39 23.11.2019
3634 Clouds 8 999 81 10000 2.1 130 19:19 23.11.2019
3635 Clouds 8 999 81 10000 2.1 130 19:19 23.11.2019
3636 Clouds 8 999 81 10000 2.6 140 18:59 23.11.2019
3637 Clouds 8 999 81 10000 2.6 140 18:39 23.11.2019
3638 Clouds 8 999 75 10000 2.6 110 18:19 23.11.2019
3639 Clouds 9 998 66 10000 2.1 100 17:45 23.11.2019
3640 Clouds 10 998 62 10000 2.1 120 17:23 23.11.2019
3641 Clouds 10 998 62 10000 2.1 120 17:23 23.11.2019
3642 Clouds 10 998 76 10000 2.1 140 16:57 23.11.2019
3643 Clouds 10 998 76 10000 2.1 140 16:39 23.11.2019
3644 Clouds 11 998 71 10000 2.1 120 16:21 23.11.2019
3645 Clouds 10 998 71 10000 2.1 120 15:59 23.11.2019
3646 Clouds 11 998 62 10000 2.1 90 15:39 23.11.2019
3647 Clouds 11 998 62 10000 2.1 90 15:19 23.11.2019
3648 Clouds 11 998 62 10000 2.1 90 15:19 23.11.2019
3649 Clouds 12 998 62 10000 2.1 90 14:58 23.11.2019
3650 Clouds 12 998 58 10000 3.1 90 14:39 23.11.2019
3651 Clouds 12 998 58 10000 3.6 90 14:21 23.11.2019
3652 Clouds 12 998 58 10000 4.1 90 13:56 23.11.2019
3653 Clouds 12 998 58 10000 4.1 90 13:38 23.11.2019
3654 Clouds 11 998 54 10000 4.1 80 13:18 23.11.2019
3655 Clouds 11 998 62 10000 2.6 80 12:42 23.11.2019
3656 Clouds 10 998 66 10000 1.5 60 12:24 23.11.2019
3657 Clouds 10 999 87 10000 1.5 360 11:45 23.11.2019
3658 Clouds 7 999 93 10000 1.5 60 11:24 23.11.2019
3659 Clouds 6 999 100 10000 0.5 0 10:57 23.11.2019
3660 Clouds 6 999 100 10000 0.5 0 10:39 23.11.2019
3661 Clouds 5 999 64 10000 1.5 70 10:18 23.11.2019
3662 Clouds 4 1000 64 10000 0.5 0 09:41 23.11.2019
3663 Clouds 3 1000 100 10000 1 0 09:18 23.11.2019
3664 Clouds 2 1000 92 10000 1 0 08:41 23.11.2019
3665 Clouds 2 1000 92 10000 1 0 08:41 23.11.2019
3666 Clouds 1 1000 100 10000 1.5 130 08:19 23.11.2019
3667 Clouds 1 1000 100 10000 1 0 07:42 23.11.2019
3668 Clouds 1 1000 100 10000 1 0 06:59 23.11.2019
3669 Clouds 1 1000 100 10000 1 0 06:40 23.11.2019
3670 Clouds 1 1001 100 10000 1 0 06:19 23.11.2019
3671 Clouds 1 1001 100 10000 1 0 05:41 23.11.2019
3672 Clouds 0 1001 100 10000 1 30 05:22 23.11.2019
3673 Clouds 0 1001 92 10000 1 70 04:39 23.11.2019
3674 Clouds 1 1002 100 7000 1 0 04:21 23.11.2019
3675 Clouds 1 1002 100 1100 2.1 90 02:39 23.11.2019
3676 Clouds 1 1003 100 700 1.5 60 01:42 23.11.2019
3677 Clouds 2 1003 83 900 2.1 60 00:49 23.11.2019
3678 Clouds 2 1003 83 900 1.5 80 00:23 23.11.2019
3679 Clouds 2 1003 83 900 1.5 80 00:23 23.11.2019
3680 Clouds 2 1003 83 900 1.5 80 00:22 23.11.2019
3681 Clouds 2 1003 83 900 1.5 80 00:22 23.11.2019
3682 Clouds 2 1004 100 700 2.1 90 23:59 22.11.2019
3683 Clouds 2 1004 100 700 2.1 90 23:37 22.11.2019
3684 Clouds 2 1004 100 700 2.1 80 23:19 22.11.2019
3685 Clouds 2 1004 100 600 2.1 90 22:57 22.11.2019
3686 Clouds 2 1004 100 600 2.1 90 22:37 22.11.2019
3687 Clouds 2 1005 93 650 2.1 80 22:19 22.11.2019
3688 Clouds 2 1005 93 650 2.1 80 21:57 22.11.2019
3689 Clouds 3 1005 100 650 2.1 110 21:38 22.11.2019
3690 Clear 3 1005 100 900 2.6 90 21:18 22.11.2019
3691 Clear 3 1005 100 1900 3.1 110 20:42 22.11.2019
3692 Clouds 3 1005 100 4000 2.6 90 20:22 22.11.2019
3693 Clouds 3 1005 100 4000 2.6 90 19:55 22.11.2019
3694 Clouds 3 1005 93 5000 2.6 100 19:37 22.11.2019
3695 Clouds 3 1005 93 6000 3.1 90 19:18 22.11.2019
3696 Clouds 3 1006 93 8000 3.1 80 18:39 22.11.2019
3697 Clouds 3 1006 93 10000 3.1 70 18:21 22.11.2019
3698 Clouds 3 1006 93 10000 3.1 70 18:21 22.11.2019
3699 Clouds 3 1006 93 10000 2.6 80 17:56 22.11.2019
3700 Clouds 3 1006 93 10000 2.6 80 17:38 22.11.2019
3701 Clouds 3 1006 86 9000 2.6 90 17:20 22.11.2019
3702 Clouds 4 1006 93 10000 3.1 70 16:41 22.11.2019
3703 Clouds 4 1006 86 10000 3.1 70 16:23 22.11.2019
3704 Clouds 4 1006 86 10000 3.6 70 15:44 22.11.2019
3705 Clouds 4 1007 80 10000 2.6 90 15:24 22.11.2019
3706 Clouds 4 1007 80 10000 2.6 90 14:56 22.11.2019
3707 Clouds 4 1007 81 10000 4.1 40 14:38 22.11.2019
3708 Clouds 4 1007 81 10000 3.1 30 14:19 22.11.2019
3709 Clouds 4 1007 81 10000 3.1 30 13:57 22.11.2019
3710 Clouds 4 1007 86 10000 1.5 10 13:37 22.11.2019
3711 Clouds 4 1008 86 9000 1 0 13:18 22.11.2019
3712 Clouds 4 1008 86 8000 2.1 30 12:55 22.11.2019
3713 Clouds 4 1008 86 9000 1 0 12:55 22.11.2019
3714 Clouds 4 1008 86 8000 2.1 30 12:36 22.11.2019
3715 Clouds 4 1009 93 7000 1 0 12:18 22.11.2019
3716 Mist 4 1009 93 5000 0.5 0 11:55 22.11.2019
3717 Mist 3 1009 93 5000 0.5 0 11:36 22.11.2019
3718 Mist 3 1009 100 5000 1.27 255 11:18 22.11.2019
3719 Mist 3 1009 100 5000 1.27 255 11:18 22.11.2019
3720 Mist 3 1009 100 4000 1 0 10:40 22.11.2019
3721 Mist 3 1010 100 4200 3.1 120 10:22 22.11.2019
3722 Mist 3 1010 100 4200 3.1 120 10:22 22.11.2019
3723 Mist 3 1009 93 2500 1.5 100 09:57 22.11.2019
3724 Mist 3 1009 93 2500 1.5 100 09:39 22.11.2019
3725 Mist 3 1009 93 2000 1.27 255 09:21 22.11.2019
3726 Mist 3 1009 93 2000 1.27 255 09:21 22.11.2019
3727 Mist 3 1009 100 1100 1.5 50 08:47 22.11.2019
3728 Mist 2 1009 100 1200 2.1 60 08:27 22.11.2019
3729 Mist 3 1009 100 1200 2.1 60 07:56 22.11.2019
3730 Mist 3 1008 93 1100 1 0 07:37 22.11.2019
3731 Mist 2 1008 93 1300 1.5 40 07:18 22.11.2019
3732 Clouds 3 1008 100 2100 1.5 110 06:41 22.11.2019
3733 Clouds 3 1008 100 1800 1.5 90 05:56 22.11.2019
3734 Clouds 3 1008 100 1700 2.6 110 04:53 22.11.2019
3735 Clouds 3 1008 93 3300 3.1 110 02:57 22.11.2019
3736 Clouds 3 1008 100 3600 2.6 110 02:37 22.11.2019
3737 Clouds 3 1008 100 5000 3.1 80 02:18 22.11.2019
3738 Clouds 3 1008 100 4500 2.1 90 01:42 22.11.2019
3739 Clouds 3 1008 100 3100 2.1 90 01:18 22.11.2019
3740 Clouds 3 1009 93 5000 2.1 100 00:26 22.11.2019
3741 Clouds 3 1009 93 6000 2.1 110 23:57 21.11.2019
3742 Clouds 3 1009 93 6000 2.1 110 23:39 21.11.2019
3743 Clouds 3 1009 93 6000 2.1 70 23:21 21.11.2019
3744 Clouds 3 1009 93 6000 2.1 80 22:54 21.11.2019
3745 Clouds 3 1009 93 6000 2.1 80 22:36 21.11.2019
3746 Clouds 3 1009 93 7000 1.5 140 22:18 21.11.2019
3747 Clouds 3 1009 93 7000 1.5 140 21:54 21.11.2019
3748 Clouds 3 1009 93 7000 1.5 130 21:36 21.11.2019
3749 Clouds 3 1009 93 7000 1 90 21:18 21.11.2019
3750 Clouds 4 1009 93 7000 1.5 100 20:55 21.11.2019
3751 Clouds 4 1009 93 7000 1.5 100 20:36 21.11.2019
3752 Clouds 4 1009 93 7000 1.5 100 20:36 21.11.2019
3753 Clear 4 1009 93 7000 1 0 20:18 21.11.2019
3754 Clouds 4 1009 93 7000 2.1 110 19:55 21.11.2019
3755 Clouds 3 1009 93 7000 2.1 110 19:36 21.11.2019
3756 Clouds 3 1009 93 6000 1.5 130 19:18 21.11.2019
3757 Clouds 4 1009 93 7000 1.5 100 18:41 21.11.2019
3758 Clouds 4 1009 86 7000 1.5 100 18:21 21.11.2019
3759 Clouds 4 1009 86 6000 1.5 60 17:58 21.11.2019
3760 Clouds 4 1009 86 6000 1.5 60 17:39 21.11.2019
3761 Clouds 4 1009 86 6000 1.5 60 17:39 21.11.2019
3762 Clouds 4 1008 86 7000 1 0 17:21 21.11.2019
3763 Clouds 4 1008 86 7000 1 0 16:57 21.11.2019
3764 Clouds 4 1008 86 7000 1 0 16:39 21.11.2019
3765 Clouds 4 1008 86 7000 2.1 40 16:20 21.11.2019
3766 Clouds 4 1008 86 7000 2.1 40 15:55 21.11.2019
3767 Clouds 4 1008 86 6000 0.5 0 15:37 21.11.2019
3768 Clouds 4 1008 93 6000 1 0 15:18 21.11.2019
3769 Clouds 5 1008 86 6000 1 0 14:39 21.11.2019
3770 Mist 4 1008 86 5000 1 0 14:20 21.11.2019
3771 Mist 5 1008 86 4500 1 0 13:59 21.11.2019
3772 Mist 4 1008 86 4500 1 0 13:38 21.11.2019
3773 Mist 4 1008 86 4000 1 0 13:19 21.11.2019
3774 Mist 4 1008 86 3400 0.5 0 12:43 21.11.2019
3775 Mist 4 1009 86 3400 0.5 0 12:25 21.11.2019
3776 Mist 4 1009 86 3200 0.67 39 11:59 21.11.2019
3777 Mist 4 1009 86 3200 0.67 39 11:40 21.11.2019
3778 Mist 4 1009 93 2900 0.5 0 11:21 21.11.2019
3779 Mist 4 1009 93 2900 0.5 0 11:21 21.11.2019
3780 Mist 4 1009 93 2900 0.5 0 10:57 21.11.2019
3781 Mist 4 1009 93 2900 1 0 10:39 21.11.2019
3782 Mist 3 1009 93 1500 0.5 0 10:20 21.11.2019
3783 Mist 3 1009 93 1500 0.56 207 09:43 21.11.2019
3784 Mist 3 1010 100 1400 0.56 207 09:23 21.11.2019
3785 Mist 3 1010 100 1200 0.56 207 08:59 21.11.2019
3786 Mist 3 1010 100 1200 0.54 184 08:40 21.11.2019
3787 Mist 3 1010 100 1200 0.56 207 08:40 21.11.2019
3788 Mist 3 1010 93 3000 0.5 360 08:18 21.11.2019
3789 Mist 2 1009 100 1400 0.27 182 07:40 21.11.2019
3790 Mist 2 1009 100 2200 0.27 182 07:18 21.11.2019
3791 Clouds 2 1009 100 1600 0.5 280 06:51 21.11.2019
3792 Clouds 2 1009 100 2100 0.5 290 06:33 21.11.2019
3793 Clouds 2 1009 100 2000 0.5 60 05:32 21.11.2019
3794 Clouds 2 1009 93 3500 1 80 03:32 21.11.2019
3795 Clouds 2 1010 93 5000 1.5 10 02:40 21.11.2019
3796 Clouds 2 1010 93 5000 1 330 01:54 21.11.2019
3797 Clouds 2 1010 93 5000 1 330 01:36 21.11.2019
3798 Clouds 2 1011 93 5000 1.5 310 00:54 21.11.2019
3799 Clouds 2 1011 93 5000 1.5 320 00:21 21.11.2019
3800 Clouds 3 1011 93 6000 1.5 340 23:57 20.11.2019
3801 Clouds 3 1011 93 6000 1.5 340 23:39 20.11.2019
3802 Clouds 3 1011 93 6000 0.34 132 23:20 20.11.2019
3803 Mist 3 1012 100 4000 0.5 0 22:55 20.11.2019
3804 Clouds 3 1012 93 6000 1 0 22:37 20.11.2019
3805 Clouds 3 1012 93 6000 1 0 22:37 20.11.2019
3806 Clouds 3 1012 93 7000 0.34 132 22:18 20.11.2019
3807 Clouds 3 1012 93 7000 0.34 132 21:55 20.11.2019
3808 Clouds 3 1012 93 7000 0.34 132 21:36 20.11.2019
3809 Clouds 3 1012 93 8000 1.5 70 21:18 20.11.2019
3810 Clouds 3 1012 93 7000 2.1 20 20:54 20.11.2019
3811 Clouds 3 1012 93 7000 2.1 20 20:36 20.11.2019
3812 Clouds 3 1012 93 9000 2.1 30 20:18 20.11.2019
3813 Clouds 3 1012 93 9000 2.1 30 20:18 20.11.2019
3814 Clouds 3 1012 86 10000 2.1 30 19:54 20.11.2019
3815 Clouds 3 1012 86 10000 2.1 30 19:36 20.11.2019
3816 Clouds 3 1012 86 10000 2.1 30 19:36 20.11.2019
3817 Clouds 3 1012 86 9000 2.1 30 19:18 20.11.2019
3818 Clouds 3 1012 86 9000 2.1 30 19:18 20.11.2019
3819 Clouds 3 1012 86 9000 2.1 30 18:55 20.11.2019
3820 Clouds 3 1012 86 9000 3.1 30 18:36 20.11.2019
3821 Clouds 3 1012 86 9000 2.6 20 18:18 20.11.2019
3822 Clouds 3 1013 86 9000 3.1 20 17:54 20.11.2019
3823 Clouds 3 1013 86 9000 3.1 20 17:36 20.11.2019
3824 Clouds 4 1012 86 9000 3.1 20 17:18 20.11.2019
3825 Clouds 4 1012 86 9000 2.6 20 16:41 20.11.2019
3826 Clouds 4 1013 86 8000 1.5 30 16:20 20.11.2019
3827 Clouds 4 1012 93 10000 2.6 20 15:57 20.11.2019
3828 Clouds 4 1013 86 8000 1.5 30 15:57 20.11.2019
3829 Clouds 4 1012 93 10000 2.6 20 15:39 20.11.2019
3830 Clouds 4 1012 93 9000 2.6 10 15:20 20.11.2019
3831 Clouds 4 1012 93 9000 2.6 10 14:56 20.11.2019
3832 Clouds 4 1013 86 8000 2.6 20 14:38 20.11.2019
3833 Mist 4 1013 93 5000 3.1 20 14:19 20.11.2019
3834 Mist 4 1013 93 5000 3.1 20 13:56 20.11.2019
3835 Mist 4 1013 93 4500 3.1 30 13:37 20.11.2019
3836 Mist 4 1013 100 4600 3.6 20 13:18 20.11.2019
3837 Mist 4 1014 93 5000 3.6 30 12:42 20.11.2019
3838 Clouds 4 1014 93 6000 4.1 20 12:23 20.11.2019
3839 Clouds 4 1014 93 8000 3.1 50 11:57 20.11.2019
3840 Clouds 4 1014 93 8000 3.1 50 11:37 20.11.2019
3841 Clouds 3 1015 86 8000 2.6 60 11:18 20.11.2019
3842 Clouds 3 1015 86 8000 2.6 60 11:18 20.11.2019
3843 Clouds 4 1015 86 8000 3.1 50 10:55 20.11.2019
3844 Clouds 3 1015 86 8000 3.1 50 10:36 20.11.2019
3845 Clouds 3 1015 86 10000 3.1 50 10:18 20.11.2019
3846 Clouds 3 1015 86 10000 3.1 50 10:18 20.11.2019
3847 Clouds 3 1015 93 10000 2.6 50 09:42 20.11.2019
3848 Clouds 3 1016 93 3200 2.1 30 09:21 20.11.2019
3849 Clouds 2 1015 93 10000 2.1 60 08:54 20.11.2019
3850 Clouds 2 1015 93 10000 2.1 60 08:36 20.11.2019
3851 Clouds 2 1015 93 10000 1 0 08:18 20.11.2019
3852 Clouds 2 1015 93 10000 1 30 07:40 20.11.2019
3853 Clouds 2 1015 93 10000 1.5 60 07:21 20.11.2019
3854 Clouds 2 1015 93 10000 2.1 60 06:46 20.11.2019
3855 Clouds 2 1016 93 10000 1 70 06:20 20.11.2019
3856 Clouds 2 1016 100 10000 0.5 70 04:51 20.11.2019
3857 Clouds 2 1016 100 10000 1.63 54 03:28 20.11.2019
3858 Clouds 2 1016 83 6000 1 110 02:21 20.11.2019
3859 Clouds 2 1016 83 7000 0.82 50 01:32 20.11.2019
3860 Clouds 2 1017 83 10000 1.5 260 00:41 20.11.2019
3861 Clouds 2 1017 83 8000 1.36 28 23:55 19.11.2019
3862 Clouds 3 1017 83 10000 1.5 250 23:26 19.11.2019
3863 Clouds 3 1017 93 10000 1.5 290 22:58 19.11.2019
3864 Clouds 3 1017 83 10000 1 0 22:40 19.11.2019
3865 Clouds 3 1017 83 10000 1 0 22:19 19.11.2019
3866 Clouds 3 1017 83 10000 1 0 21:57 19.11.2019
3867 Clouds 3 1017 93 10000 1.5 180 21:38 19.11.2019
3868 Clouds 3 1017 93 10000 1 170 21:19 19.11.2019
3869 Clouds 3 1017 93 10000 1 170 20:56 19.11.2019
3870 Clouds 3 1017 93 10000 0.5 0 20:38 19.11.2019
3871 Clouds 3 1017 86 10000 1.44 359 20:19 19.11.2019
3872 Clouds 3 1017 93 10000 1 230 19:56 19.11.2019
3873 Clouds 4 1017 93 10000 1 230 19:38 19.11.2019
3874 Clouds 3 1017 86 10000 1 300 19:19 19.11.2019
3875 Clouds 4 1016 93 10000 0.5 230 18:55 19.11.2019
3876 Clouds 4 1016 93 10000 1 200 18:36 19.11.2019
3877 Clouds 4 1016 93 10000 1 200 18:18 19.11.2019
3878 Clouds 4 1016 86 10000 1 340 17:55 19.11.2019
3879 Clouds 4 1016 80 10000 1.5 330 17:37 19.11.2019
3880 Clouds 4 1016 80 10000 1.5 330 17:37 19.11.2019
3881 Clouds 4 1016 80 10000 1.5 330 17:18 19.11.2019
3882 Clouds 5 1016 80 10000 2.6 320 16:43 19.11.2019
3883 Clouds 5 1015 80 10000 3.6 330 16:24 19.11.2019
3884 Clouds 5 1015 80 10000 3.6 330 15:59 19.11.2019
3885 Clouds 5 1015 75 10000 2.1 350 15:39 19.11.2019
3886 Clouds 5 1015 75 10000 2.1 340 15:21 19.11.2019
3887 Clouds 5 1015 75 10000 2.1 340 14:56 19.11.2019
3888 Clouds 5 1015 75 10000 2.1 10 14:37 19.11.2019
3889 Clouds 5 1015 75 10000 1.5 360 14:19 19.11.2019
3890 Clouds 5 1015 75 10000 1.5 20 13:41 19.11.2019
3891 Clouds 5 1015 80 10000 2.1 40 13:20 19.11.2019
3892 Clouds 5 1015 80 10000 1.5 60 12:42 19.11.2019
3893 Clouds 5 1015 80 10000 1.5 60 12:23 19.11.2019
3894 Clouds 4 1016 80 10000 2.6 10 11:59 19.11.2019
3895 Clouds 4 1016 80 10000 2.6 10 11:39 19.11.2019
3896 Clouds 4 1016 80 10000 2.6 10 11:20 19.11.2019
3897 Clouds 3 1016 86 10000 1.5 360 10:48 19.11.2019
3898 Clouds 2 1016 93 10000 0.93 70 10:23 19.11.2019
3899 Clouds 2 1016 93 10000 0.93 70 10:23 19.11.2019
3900 Clouds 1 1016 93 10000 0.93 70 09:59 19.11.2019
3901 Clouds 1 1016 78 10000 0.5 0 09:41 19.11.2019
3902 Clouds 0 1016 100 10000 0.5 0 09:19 19.11.2019
3903 Clouds 0 1016 100 10000 0.5 0 09:19 19.11.2019
3904 Clouds -1 1015 100 10000 0.93 70 08:55 19.11.2019
3905 Clouds -1 1015 100 10000 1.48 89 08:37 19.11.2019
3906 Clouds -1 1015 100 10000 1 160 08:19 19.11.2019
3907 Clouds -1 1015 100 10000 1 0 07:42 19.11.2019
3908 Clouds -1 1015 92 10000 1 0 07:23 19.11.2019
3909 Clouds -1 1015 100 10000 0.5 0 06:54 19.11.2019
3910 Clouds 0 1015 100 10000 1.5 150 06:35 19.11.2019
3911 Clouds 0 1015 91 10000 1 0 05:49 19.11.2019
3912 Clouds 1 1015 95 10000 0.5 0 04:46 19.11.2019
3913 Clouds 2 1015 95 10000 1 160 03:35 19.11.2019
3914 Clouds 2 1015 95 10000 0.97 113 02:59 19.11.2019
3915 Clouds 2 1016 86 10000 1 0 02:33 19.11.2019
3916 Clouds 2 1015 93 10000 2.6 210 01:46 19.11.2019
3917 Clouds 3 1015 93 10000 2.1 150 00:41 19.11.2019
3918 Clouds 3 1015 93 10000 2.6 150 00:19 19.11.2019
3919 Clouds 3 1015 93 10000 3.6 160 23:38 18.11.2019
3920 Clouds 3 1015 91 10000 3.1 160 23:19 18.11.2019
3921 Clouds 3 1015 91 10000 3.1 150 22:46 18.11.2019
3922 Clouds 3 1014 91 10000 1.5 200 22:24 18.11.2019
3923 Clouds 3 1014 91 10000 2.1 190 21:57 18.11.2019
3924 Clouds 3 1014 91 10000 2.1 190 21:39 18.11.2019
3925 Clouds 3 1014 91 10000 2.6 220 21:20 18.11.2019
3926 Clouds 3 1014 91 10000 2.6 220 20:57 18.11.2019
3927 Clouds 3 1014 91 10000 2.6 220 20:57 18.11.2019
3928 Clouds 3 1014 91 10000 2.1 200 20:39 18.11.2019
3929 Clouds 3 1013 86 10000 2.1 250 20:18 18.11.2019
3930 Clouds 3 1013 86 10000 2.6 210 19:56 18.11.2019
3931 Clouds 3 1013 86 10000 2.6 210 19:38 18.11.2019
3932 Clouds 3 1013 86 10000 2.6 240 19:19 18.11.2019
3933 Clouds 3 1013 86 10000 2.6 240 18:56 18.11.2019
3934 Clouds 4 1013 86 10000 2.1 220 18:38 18.11.2019
3935 Clouds 3 1012 86 10000 2.6 250 18:19 18.11.2019
3936 Clouds 4 1012 74 10000 2.1 250 17:55 18.11.2019
3937 Clouds 4 1012 74 10000 2.1 250 17:36 18.11.2019
3938 Clouds 5 1012 76 10000 2.1 270 17:18 18.11.2019
3939 Clouds 5 1012 76 10000 2.1 270 17:18 18.11.2019
3940 Clouds 5 1012 69 10000 3.1 240 16:42 18.11.2019
3941 Clouds 6 1011 60 10000 5.1 250 16:23 18.11.2019
3942 Clouds 7 1011 60 10000 5.1 250 15:57 18.11.2019
3943 Clouds 7 1011 76 10000 4.6 260 15:39 18.11.2019
3944 Clouds 7 1010 76 10000 5.1 260 15:20 18.11.2019
3945 Clouds 7 1010 76 10000 5.7 260 14:44 18.11.2019
3946 Clouds 8 1010 72 10000 6.7 250 14:24 18.11.2019
3947 Clouds 8 1010 72 10000 6.7 250 13:59 18.11.2019
3948 Clouds 8 1010 72 10000 8.2 250 13:41 18.11.2019
3949 Clouds 8 1009 52 10000 7.2 250 13:23 18.11.2019
3950 Clouds 8 1009 73 10000 6.7 240 12:40 18.11.2019
3951 Clouds 7 1009 73 10000 8.7 240 12:20 18.11.2019
3952 Clouds 7 1009 65 10000 7.7 240 11:56 18.11.2019
3953 Clouds 7 1009 65 10000 7.7 240 11:38 18.11.2019
3954 Clouds 6 1009 83 10000 8.2 250 11:19 18.11.2019
3955 Clouds 6 1009 83 10000 8.7 240 10:43 18.11.2019
3956 Clouds 5 1008 75 10000 7.2 240 10:25 18.11.2019
3957 Clouds 5 1008 75 10000 7.2 240 09:57 18.11.2019
3958 Clouds 4 1008 83 10000 5.1 240 09:38 18.11.2019
3959 Clouds 4 1008 83 10000 3.6 240 09:20 18.11.2019
3960 Clouds 3 1007 83 10000 3.6 230 08:55 18.11.2019
3961 Clouds 3 1007 79 10000 3.6 230 08:36 18.11.2019
3962 Clouds 2 1007 86 10000 4.1 210 08:18 18.11.2019
3963 Clouds 3 1007 87 10000 3.1 210 07:44 18.11.2019
3964 Clouds 3 1006 87 10000 4.1 230 07:23 18.11.2019
3965 Clouds 3 1006 87 10000 5.1 230 06:48 18.11.2019
3966 Clouds 3 1005 87 10000 4.6 240 06:28 18.11.2019
3967 Clouds 3 1005 87 10000 3.1 220 05:44 18.11.2019
3968 Clouds 3 1005 88 10000 3.6 250 03:59 18.11.2019
3969 Clouds 3 1004 93 10000 3.6 230 01:40 18.11.2019
3970 Clouds 4 1004 86 10000 4.6 240 00:54 18.11.2019
3971 Clouds 4 1004 86 10000 4.1 230 00:20 18.11.2019
3972 Clouds 4 1004 86 10000 4.1 240 23:41 17.11.2019
3973 Clouds 4 1003 86 10000 5.1 240 23:22 17.11.2019
3974 Clouds 4 1003 86 10000 4.1 230 22:57 17.11.2019
3975 Clouds 4 1003 86 10000 4.1 230 22:39 17.11.2019
3976 Clouds 4 1003 86 10000 4.1 230 22:21 17.11.2019
3977 Clouds 4 1003 93 9000 3.6 260 21:57 17.11.2019
3978 Clouds 4 1003 93 9000 3.6 260 21:39 17.11.2019
3979 Clouds 5 1003 93 10000 2.6 230 21:18 17.11.2019
3980 Clouds 5 1002 93 10000 4.1 250 20:55 17.11.2019
3981 Clouds 5 1002 93 10000 4.1 250 20:37 17.11.2019
3982 Clouds 5 1002 100 6000 3.6 270 20:18 17.11.2019
3983 Clouds 5 1002 100 3500 4.1 260 19:55 17.11.2019
3984 Clouds 5 1002 100 3500 4.1 260 19:37 17.11.2019
3985 Clouds 5 1002 100 2200 3.6 260 19:19 17.11.2019
3986 Clouds 5 1001 100 3500 3.1 270 18:54 17.11.2019
3987 Clouds 5 1001 100 3500 3.1 270 18:36 17.11.2019
3988 Clouds 5 1001 93 6000 3.1 280 18:18 17.11.2019
3989 Clouds 5 1001 93 9000 3.1 260 17:57 17.11.2019
3990 Clouds 5 1001 93 9000 3.1 260 17:38 17.11.2019
3991 Clouds 5 1000 93 10000 2.1 270 17:19 17.11.2019
3992 Clouds 5 1000 93 10000 2.1 270 16:55 17.11.2019
3993 Clouds 5 1000 93 10000 1 0 16:37 17.11.2019
3994 Clouds 6 1000 93 10000 1 0 16:19 17.11.2019
3995 Clouds 6 1000 93 10000 2.6 40 15:54 17.11.2019
3996 Clouds 6 1000 93 10000 2.6 40 15:54 17.11.2019
3997 Clouds 6 1000 93 10000 2.6 40 15:36 17.11.2019
3998 Clouds 6 1001 93 10000 2.6 70 15:18 17.11.2019
3999 Clouds 6 1001 93 10000 2.6 70 15:18 17.11.2019
4000 Clouds 6 1000 93 10000 3.1 90 14:54 17.11.2019
4001 Clouds 6 1000 93 10000 3.1 90 14:36 17.11.2019
4002 Rain 5 1000 93 8000 3.1 90 14:18 17.11.2019
4003 Rain 5 1000 100 7000 3.1 80 13:41 17.11.2019
4004 Rain 5 1001 100 6000 4.6 80 13:21 17.11.2019
4005 Rain 5 1001 100 6000 4.6 80 12:59 17.11.2019
4006 Rain 5 1002 93 4600 6.2 70 12:38 17.11.2019
4007 Rain 4 1003 93 2800 3.1 80 12:19 17.11.2019
4008 Rain 4 1003 100 2600 3.1 50 11:56 17.11.2019
4009 Rain 4 1003 100 2600 3.1 50 11:38 17.11.2019
4010 Rain 4 1005 100 2600 1 0 11:19 17.11.2019
4011 Mist 4 1004 100 2200 2.1 10 10:41 17.11.2019
4012 Rain 4 1004 100 2800 2.1 340 10:23 17.11.2019
4013 Rain 4 1005 100 2900 1 0 09:57 17.11.2019
4014 Rain 4 1005 100 2900 1 0 09:39 17.11.2019
4015 Rain 4 1005 100 2200 2.1 10 09:19 17.11.2019
4016 Clouds 4 1005 100 750 2.6 20 08:38 17.11.2019
4017 Rain 4 1006 100 3700 2.6 50 08:19 17.11.2019
4018 Rain 4 1006 100 700 1.5 50 07:46 17.11.2019
4019 Rain 4 1006 100 1100 1.5 90 07:22 17.11.2019
4020 Rain 4 1006 100 1000 2.1 30 06:57 17.11.2019
4021 Rain 4 1007 93 2600 2.1 50 06:31 17.11.2019
4022 Rain 4 1007 100 3900 3.1 60 05:40 17.11.2019
4023 Rain 4 1007 100 3900 3.1 60 05:40 17.11.2019
4024 Rain 4 1008 100 4300 1.5 10 04:23 17.11.2019
4025 Rain 4 1009 93 4900 2.1 50 03:45 17.11.2019
4026 Rain 4 1009 93 5000 2.6 50 03:25 17.11.2019
4027 Rain 4 1010 100 5000 2.1 50 02:27 17.11.2019
4028 Rain 4 1010 93 5000 3.1 40 01:25 17.11.2019
4029 Rain 4 1010 93 5000 2.6 20 00:54 17.11.2019
4030 Rain 4 1011 93 6000 1.5 60 00:22 17.11.2019
4031 Rain 4 1011 93 6000 1.5 60 00:22 17.11.2019
4032 Rain 4 1011 93 9000 2.1 60 23:46 16.11.2019
4033 Rain 4 1011 93 10000 2.1 70 23:20 16.11.2019
4034 Rain 4 1011 93 10000 3.1 80 22:59 16.11.2019
4035 Rain 4 1011 93 10000 3.1 80 22:40 16.11.2019
4036 Rain 4 1011 93 10000 1.5 70 22:19 16.11.2019
4037 Rain 4 1011 93 10000 1.5 70 21:56 16.11.2019
4038 Rain 4 1011 93 10000 1.5 100 21:37 16.11.2019
4039 Rain 4 1011 86 10000 2.1 90 21:19 16.11.2019
4040 Rain 4 1011 93 10000 1.5 80 20:42 16.11.2019
4041 Clouds 5 1012 93 10000 1.5 100 20:21 16.11.2019
4042 Clouds 5 1012 93 10000 2.1 80 19:58 16.11.2019
4043 Clouds 5 1012 93 10000 1.5 100 19:58 16.11.2019
4044 Clouds 5 1012 93 10000 2.1 80 19:40 16.11.2019
4045 Clouds 5 1012 86 10000 2.1 90 19:21 16.11.2019
4046 Clouds 5 1011 93 10000 1.5 50 18:47 16.11.2019
4047 Clouds 5 1012 86 10000 0.5 0 18:29 16.11.2019
4048 Clouds 5 1012 86 10000 0.5 0 17:57 16.11.2019
4049 Clouds 5 1011 86 10000 1 0 17:39 16.11.2019
4050 Clouds 5 1011 93 10000 0.5 0 17:19 16.11.2019
4051 Clouds 5 1011 86 10000 0.5 0 16:55 16.11.2019
4052 Clouds 5 1011 86 10000 0.5 0 16:37 16.11.2019
4053 Clouds 5 1011 93 10000 1.15 47 16:18 16.11.2019
4054 Clouds 5 1011 93 10000 1 0 15:41 16.11.2019
4055 Clouds 5 1010 93 10000 1 0 15:22 16.11.2019
4056 Clouds 5 1010 93 10000 2.1 150 14:58 16.11.2019
4057 Clouds 5 1010 93 10000 2.1 150 14:40 16.11.2019
4058 Clouds 5 1010 93 10000 1 0 14:21 16.11.2019
4059 Clouds 5 1009 93 10000 1 0 13:56 16.11.2019
4060 Clouds 5 1009 93 10000 1 0 13:38 16.11.2019
4061 Clouds 5 1009 93 10000 2.1 280 13:19 16.11.2019
4062 Clouds 5 1009 93 10000 2.1 280 13:19 16.11.2019
4063 Clouds 5 1010 86 10000 2.6 290 12:56 16.11.2019
4064 Clouds 5 1010 86 10000 2.6 290 12:38 16.11.2019
4065 Clouds 5 1010 86 10000 1 0 12:19 16.11.2019
4066 Clouds 5 1009 86 10000 1 0 11:43 16.11.2019
4067 Clouds 5 1008 86 10000 0.5 0 11:25 16.11.2019
4068 Clouds 4 1008 86 10000 1.5 40 10:56 16.11.2019
4069 Clouds 4 1008 86 10000 1.5 40 10:37 16.11.2019
4070 Clouds 4 1008 93 10000 1 0 10:19 16.11.2019
4071 Clouds 4 1008 93 10000 0.82 145 09:43 16.11.2019
4072 Clouds 3 1007 93 9000 0.82 145 09:21 16.11.2019
4073 Clouds 3 1007 93 9000 0.82 145 08:58 16.11.2019
4074 Clouds 3 1007 100 10000 0.5 0 08:37 16.11.2019
4075 Clouds 3 1006 100 6000 1.5 180 08:18 16.11.2019
4076 Clouds 2 1006 100 6000 1 0 07:41 16.11.2019
4077 Clouds 3 1005 100 6000 1 0 07:20 16.11.2019
4078 Clouds 2 1005 100 5000 1 0 06:51 16.11.2019
4079 Clouds 2 1005 100 5000 1 0 06:33 16.11.2019
4080 Clouds 2 1004 100 500 2.1 150 05:28 16.11.2019
4081 Clouds 2 1003 100 6000 1 0 03:44 16.11.2019
4082 Clouds 2 1003 93 4700 2.6 220 03:25 16.11.2019
4083 Rain 4 1002 93 10000 2.1 290 01:51 16.11.2019
4084 Rain 4 1002 93 10000 2.6 270 01:20 16.11.2019
4085 Rain 4 1002 93 10000 3.1 240 00:44 16.11.2019
4086 Rain 4 1002 93 10000 2.6 240 00:25 16.11.2019
4087 Rain 4 1002 93 10000 1.5 270 23:40 15.11.2019
4088 Rain 4 1001 93 10000 1.5 260 23:21 15.11.2019
4089 Rain 4 1002 93 10000 1.5 270 22:57 15.11.2019
4090 Rain 4 1002 93 10000 1.5 270 22:38 15.11.2019
4091 Rain 4 1002 93 10000 2.6 140 22:18 15.11.2019
4092 Rain 4 1002 93 10000 2.1 130 21:54 15.11.2019
4093 Rain 4 1002 93 10000 2.1 130 21:36 15.11.2019
4094 Rain 5 1002 93 10000 2.34 258 21:18 15.11.2019
4095 Rain 5 1001 80 10000 2.1 300 20:54 15.11.2019
4096 Rain 5 1001 80 10000 2.1 300 20:36 15.11.2019
4097 Clouds 5 1002 80 10000 3.6 240 20:18 15.11.2019
4098 Clouds 5 1002 80 10000 3.6 270 19:56 15.11.2019
4099 Clouds 5 1002 80 10000 3.6 270 19:36 15.11.2019
4100 Clouds 5 1002 80 10000 1.5 250 19:18 15.11.2019
4101 Clouds 5 1003 80 10000 1.34 262 18:41 15.11.2019
4102 Clouds 5 1003 93 10000 2.1 250 18:23 15.11.2019
4103 Clouds 5 1002 86 10000 1.34 262 17:55 15.11.2019
4104 Clouds 5 1002 86 10000 1.34 262 17:37 15.11.2019
4105 Clouds 5 1002 86 10000 1 160 17:19 15.11.2019
4106 Clouds 6 1002 70 10000 2.1 280 16:40 15.11.2019
4107 Clouds 6 1001 75 10000 1 0 16:22 15.11.2019
4108 Clouds 6 1001 75 10000 1 0 16:00 15.11.2019
4109 Clouds 6 1001 75 10000 1 0 16:00 15.11.2019
4110 Clouds 6 1001 75 10000 1 0 16:00 15.11.2019
4111 Clouds 6 1001 75 10000 2.1 230 15:37 15.11.2019
4112 Clouds 7 1001 70 10000 2.6 200 15:18 15.11.2019
4113 Clouds 7 1001 70 10000 2.6 200 14:56 15.11.2019
4114 Clouds 7 1000 70 10000 2.1 200 14:37 15.11.2019
4115 Clouds 8 1001 65 10000 2.6 220 14:18 15.11.2019
4116 Clouds 7 1001 75 10000 3.6 240 13:56 15.11.2019
4117 Clouds 7 1001 75 10000 3.6 240 13:38 15.11.2019
4118 Clouds 7 1000 75 10000 4.6 250 13:19 15.11.2019
4119 Clouds 7 1000 75 10000 4.6 250 12:56 15.11.2019
4120 Clouds 6 1001 70 10000 4.1 270 12:37 15.11.2019
4121 Clouds 6 1000 70 10000 5.7 260 12:18 15.11.2019
4122 Clouds 6 1000 70 10000 6.2 270 11:55 15.11.2019
4123 Clouds 6 1000 70 10000 6.2 270 11:37 15.11.2019
4124 Clouds 6 999 70 10000 7.2 260 11:18 15.11.2019
4125 Clouds 6 996 86 10000 1.5 0 10:39 15.11.2019
4126 Clouds 6 996 86 10000 1.5 40 10:21 15.11.2019
4127 Clouds 5 996 80 10000 4.6 80 09:58 15.11.2019
4128 Clouds 5 996 80 10000 4.6 80 09:58 15.11.2019
4129 Clouds 4 995 70 10000 2.1 10 09:39 15.11.2019
4130 Clouds 4 995 86 10000 1 0 09:18 15.11.2019
4131 Clouds 3 995 86 10000 5.1 100 08:42 15.11.2019
4132 Clouds 3 995 86 10000 4.6 80 08:21 15.11.2019
4133 Clouds 2 994 86 10000 2.1 360 07:47 15.11.2019
4134 Clouds 2 994 92 10000 1 0 07:27 15.11.2019
4135 Clouds 2 994 71 10000 2.6 100 06:38 15.11.2019
4136 Clouds 2 995 71 10000 2.6 0 05:59 15.11.2019
4137 Clouds 2 995 71 10000 2.6 0 05:39 15.11.2019
4138 Clouds 2 995 71 10000 2.6 0 05:39 15.11.2019
4139 Clouds 2 995 100 10000 3.6 40 05:19 15.11.2019
4140 Clouds 1 996 100 7000 1.5 310 03:46 15.11.2019
4141 Clouds 1 997 100 3900 1 0 02:52 15.11.2019
4142 Clouds 1 997 100 6000 2.1 30 02:18 15.11.2019
4143 Clouds 1 997 100 550 1.5 40 01:32 15.11.2019
4144 Clouds 1 998 100 4500 1.5 310 00:49 15.11.2019
4145 Clouds 1 998 100 5000 1.5 330 00:31 15.11.2019
4146 Clouds 1 999 92 6000 2.1 280 23:50 14.11.2019
4147 Clouds 1 998 84 5000 1 0 23:27 14.11.2019
4148 Clouds 1 999 84 7000 1 0 22:58 14.11.2019
4149 Clouds 1 999 84 7000 1 0 22:39 14.11.2019
4150 Clouds 2 999 84 10000 1.5 340 22:21 14.11.2019
4151 Clouds 2 999 84 10000 1.5 340 21:55 14.11.2019
4152 Clouds 2 999 84 10000 3.1 60 21:37 14.11.2019
4153 Clouds 1 1000 84 10000 2.1 20 21:18 14.11.2019
4154 Clouds 1 1000 84 10000 2.1 70 20:42 14.11.2019
4155 Clouds 1 1000 96 10000 3.1 60 20:23 14.11.2019
4156 Clouds 2 1000 96 10000 3.1 60 19:59 14.11.2019
4157 Clouds 2 1000 96 10000 2.1 100 19:40 14.11.2019
4158 Clouds 2 1000 96 10000 2.6 100 19:18 14.11.2019
4159 Clouds 2 1000 96 10000 2.6 100 19:18 14.11.2019
4160 Clouds 2 1001 96 10000 3.1 100 18:55 14.11.2019
4161 Clouds 2 1001 96 10000 3.1 100 18:37 14.11.2019
4162 Clouds 2 1001 96 10000 2.1 90 18:18 14.11.2019
4163 Clouds 2 1001 96 10000 2.1 90 17:55 14.11.2019
4164 Clouds 2 1001 96 10000 2.1 90 17:36 14.11.2019
4165 Clouds 2 1001 82 10000 2.6 90 17:18 14.11.2019
4166 Clouds 3 1001 82 10000 2.6 80 16:55 14.11.2019
4167 Clouds 3 1001 82 10000 2.6 80 16:36 14.11.2019
4168 Clouds 3 1002 82 10000 3.1 80 16:18 14.11.2019
4169 Clouds 4 1002 80 10000 3.1 70 15:54 14.11.2019
4170 Clouds 5 1002 80 10000 3.1 70 15:36 14.11.2019
4171 Clouds 5 1002 75 10000 3.1 70 15:18 14.11.2019
4172 Clouds 5 1002 75 10000 3.6 80 14:41 14.11.2019
4173 Clouds 5 1003 70 10000 3.6 80 14:22 14.11.2019
4174 Clouds 5 1003 70 10000 3.6 80 13:56 14.11.2019
4175 Clouds 5 1003 67 10000 3.6 70 13:37 14.11.2019
4176 Clouds 5 1003 70 10000 4.1 80 13:19 14.11.2019
4177 Clouds 5 1003 70 10000 3.6 80 12:46 14.11.2019
4178 Clouds 4 1003 70 10000 3.6 100 12:26 14.11.2019
4179 Clouds 3 1004 70 10000 3.1 70 11:58 14.11.2019
4180 Clouds 3 1004 70 10000 3.1 70 11:58 14.11.2019
4181 Clouds 3 1004 70 10000 3.1 70 11:38 14.11.2019
4182 Clouds 2 1004 73 10000 3.1 80 11:19 14.11.2019
4183 Clouds 2 1004 86 10000 2.6 70 10:57 14.11.2019
4184 Clouds 1 1004 86 10000 2.6 70 10:38 14.11.2019
4185 Rain 1 1004 73 10000 2.1 80 10:19 14.11.2019
4186 Rain 1 1003 73 10000 2.6 80 09:56 14.11.2019
4187 Rain 0 1003 73 10000 2.6 80 09:37 14.11.2019
4188 Mist -1 1006 73 5000 4.1 70 09:18 14.11.2019
4189 Clouds -1 1003 92 10000 2.6 90 08:46 14.11.2019
4190 Clouds -1 1003 92 10000 2.6 90 08:46 14.11.2019
4191 Clear -2 1003 92 10000 2.1 100 08:25 14.11.2019
4192 Clear -2 1003 92 10000 2.6 70 07:43 14.11.2019
4193 Clear -2 1003 92 10000 2.1 80 07:25 14.11.2019
4194 Clear -2 1003 92 10000 3.1 100 06:56 14.11.2019
4195 Clear -2 1003 92 10000 3.1 100 06:37 14.11.2019
4196 Clear -2 1003 92 10000 1.5 90 06:18 14.11.2019
4197 Clear -1 1003 92 10000 1 0 04:40 14.11.2019
4198 Clear -2 1004 100 10000 1.5 110 03:59 14.11.2019
4199 Clear -1 1004 88 10000 1 120 02:43 14.11.2019
4200 Clear 0 1005 90 10000 4.1 150 01:44 14.11.2019
4201 Clear 0 1005 86 10000 4.1 150 01:26 14.11.2019
4202 Clear 0 1006 90 10000 3.6 160 00:49 14.11.2019
4203 Clear 1 1006 90 10000 4.1 170 00:29 14.11.2019
4204 Clear 2 1006 90 10000 3.6 180 23:41 13.11.2019
4205 Clear 2 1006 94 10000 3.6 180 23:22 13.11.2019
4206 Clear 1 1006 94 10000 3.1 160 22:57 13.11.2019
4207 Clear 2 1006 94 10000 3.1 160 22:39 13.11.2019
4208 Clear 1 1006 86 10000 3.1 190 22:21 13.11.2019
4209 Clear 1 1006 86 10000 3.1 190 21:56 13.11.2019
4210 Clear 2 1006 94 10000 3.1 200 21:37 13.11.2019
4211 Clear 2 1006 94 10000 3.1 200 21:37 13.11.2019
4212 Clear 2 1006 94 10000 3.6 210 21:19 13.11.2019
4213 Clear 2 1006 94 10000 3.6 210 20:56 13.11.2019
4214 Clear 2 1006 86 10000 3.6 210 20:37 13.11.2019
4215 Clear 2 1006 86 10000 3.6 210 20:37 13.11.2019
4216 Clouds 2 1006 92 10000 3.1 210 20:19 13.11.2019
4217 Clouds 2 1005 95 10000 2.6 210 19:56 13.11.2019
4218 Clouds 2 1005 95 10000 2.6 210 19:37 13.11.2019
4219 Clouds 2 1005 86 10000 2.6 210 19:18 13.11.2019
4220 Clouds 2 1005 95 10000 2.6 210 18:55 13.11.2019
4221 Clouds 3 1005 95 10000 2.6 210 18:36 13.11.2019
4222 Clouds 3 1005 86 10000 3.1 210 18:18 13.11.2019
4223 Clouds 3 1005 86 10000 3.1 210 18:18 13.11.2019
4224 Clouds 3 1005 86 10000 3.6 220 17:56 13.11.2019
4225 Clouds 4 1005 86 10000 3.6 220 17:36 13.11.2019
4226 Clouds 4 1005 93 10000 2.6 210 17:18 13.11.2019
4227 Clouds 4 1004 86 10000 2.6 210 16:56 13.11.2019
4228 Clouds 4 1004 86 10000 2.6 210 16:37 13.11.2019
4229 Clouds 4 1004 80 10000 2.6 200 16:18 13.11.2019
4230 Clouds 5 1004 80 10000 1.5 200 15:55 13.11.2019
4231 Clouds 5 1004 80 10000 1.5 200 15:36 13.11.2019
4232 Clouds 5 1004 75 10000 2.6 250 15:18 13.11.2019
4233 Clouds 4 1004 75 10000 2.6 260 14:41 13.11.2019
4234 Clouds 5 1004 86 10000 2.1 260 14:20 13.11.2019
4235 Clouds 5 1004 86 10000 2.1 260 14:20 13.11.2019
4236 Clouds 4 1004 86 10000 2.1 220 13:38 13.11.2019
4237 Clouds 4 1003 86 10000 3.1 230 13:20 13.11.2019
4238 Clouds 4 1003 86 10000 3.1 230 12:59 13.11.2019
4239 Clouds 4 1004 86 10000 4.1 220 12:41 13.11.2019
4240 Rain 4 1004 93 10000 2.6 220 12:23 13.11.2019
4241 Rain 3 1004 93 9000 3.6 210 11:57 13.11.2019
4242 Rain 3 1004 93 9000 3.6 210 11:38 13.11.2019
4243 Rain 3 1004 93 9000 3.6 210 11:38 13.11.2019
4244 Rain 3 1004 93 9000 4.1 220 11:19 13.11.2019
4245 Drizzle 3 1004 100 9000 3.1 210 10:56 13.11.2019
4246 Drizzle 2 1004 100 9000 3.1 210 10:37 13.11.2019
4247 Rain 2 1003 93 8000 2.6 190 10:19 13.11.2019
4248 Rain 2 1003 93 9000 2.6 190 09:43 13.11.2019
4249 Rain 2 1003 93 9000 2.6 190 09:43 13.11.2019
4250 Rain 2 1003 93 8000 2.6 200 09:21 13.11.2019
4251 Rain 2 1003 93 8000 2.6 200 09:21 13.11.2019
4252 Rain 1 1003 100 8000 2.6 210 08:44 13.11.2019
4253 Rain 1 1003 100 8000 2.6 210 08:26 13.11.2019
4254 Rain 1 1003 100 7000 2.1 200 07:59 13.11.2019
4255 Rain 1 1003 99 8000 1.5 190 07:41 13.11.2019
4256 Rain 1 1003 99 7000 1.5 220 07:19 13.11.2019
4257 Rain 1 1003 99 9000 1.05 204 06:43 13.11.2019
4258 Rain 1 1003 99 8000 1 200 06:19 13.11.2019
4259 Rain 1 1003 99 8000 1 200 06:19 13.11.2019
4260 Rain 1 1003 99 8000 1 200 06:19 13.11.2019
4261 Rain 1 1003 99 8000 1 200 06:19 13.11.2019
4262 Rain 1 1003 99 8000 1 200 05:48 13.11.2019
4263 Rain 1 1003 99 8000 1 200 05:29 13.11.2019
4264 Rain 2 1003 99 10000 2.1 210 04:20 13.11.2019
4265 Snow 2 1003 93 10000 2.1 150 01:58 13.11.2019
4266 Rain 2 1003 93 10000 1.5 230 01:40 13.11.2019
4267 Rain 2 1004 93 10000 3.1 160 00:44 13.11.2019
4268 Rain 2 1004 93 10000 4.6 140 23:59 12.11.2019
4269 Rain 2 1004 93 10000 6.2 140 23:41 12.11.2019
4270 Rain 2 1004 86 10000 5.1 130 23:21 12.11.2019
4271 Rain 3 1004 86 10000 4.6 120 22:43 12.11.2019
4272 Snow 3 1004 93 10000 3.6 150 22:21 12.11.2019
4273 Snow 3 1004 93 10000 3.6 150 21:59 12.11.2019
4274 Snow 3 1004 93 10000 2.6 140 21:40 12.11.2019
4275 Snow 3 1005 93 10000 2.1 140 21:22 12.11.2019
4276 Snow 3 1005 93 10000 2.6 140 20:56 12.11.2019
4277 Snow 3 1005 93 10000 2.6 140 20:37 12.11.2019
4278 Clouds 3 1005 93 10000 1 0 20:19 12.11.2019
4279 Clouds 4 1005 93 10000 2.1 150 19:57 12.11.2019
4280 Clouds 4 1005 93 10000 2.1 150 19:39 12.11.2019
4281 Clouds 4 1005 93 10000 1 160 19:19 12.11.2019
4282 Clouds 4 1005 93 10000 1 160 19:19 12.11.2019
4283 Clouds 4 1005 100 10000 1.5 140 18:58 12.11.2019
4284 Clouds 4 1005 100 10000 1.5 140 18:39 12.11.2019
4285 Clouds 4 1005 93 10000 0.5 140 18:21 12.11.2019
4286 Clouds 4 1005 93 10000 1 140 17:57 12.11.2019
4287 Rain 4 1005 93 10000 1 140 17:39 12.11.2019
4288 Rain 5 1005 86 10000 1 210 17:21 12.11.2019
4289 Rain 5 1005 86 10000 1 210 17:21 12.11.2019
4290 Clouds 5 1006 86 10000 1.5 180 16:57 12.11.2019
4291 Clouds 5 1006 86 10000 1.5 180 16:39 12.11.2019
4292 Clouds 5 1006 86 10000 2.1 170 16:20 12.11.2019
4293 Clouds 5 1006 86 10000 2.6 160 15:41 12.11.2019
4294 Clouds 5 1006 80 10000 1.5 180 15:21 12.11.2019
4295 Clouds 6 1006 80 10000 1.5 200 14:56 12.11.2019
4296 Clouds 5 1006 80 10000 1.5 200 14:37 12.11.2019
4297 Clouds 6 1007 81 10000 2.1 190 14:19 12.11.2019
4298 Clouds 5 1007 80 10000 2.6 160 13:56 12.11.2019
4299 Clouds 5 1007 80 10000 2.6 160 13:37 12.11.2019
4300 Clouds 6 1007 80 10000 2.6 180 13:18 12.11.2019
4301 Clouds 6 1007 75 10000 2.1 210 12:42 12.11.2019
4302 Clouds 6 1007 75 10000 3.1 240 12:19 12.11.2019
4303 Clouds 5 1008 75 10000 3.6 250 11:59 12.11.2019
4304 Clouds 5 1008 75 10000 3.6 250 11:40 12.11.2019
4305 Clouds 5 1009 75 10000 3.6 230 11:21 12.11.2019
4306 Clouds 5 1009 80 10000 3.1 230 10:56 12.11.2019
4307 Clouds 5 1009 80 10000 3.1 230 10:37 12.11.2019
4308 Clouds 5 1009 86 10000 2.6 210 10:19 12.11.2019
4309 Clouds 4 1009 86 10000 2.1 200 09:42 12.11.2019
4310 Clouds 4 1009 86 10000 2.6 210 09:23 12.11.2019
4311 Clouds 3 1009 93 10000 2.6 210 08:57 12.11.2019
4312 Clouds 3 1009 93 10000 2.6 210 08:39 12.11.2019
4313 Clouds 3 1009 93 10000 3.1 200 08:19 12.11.2019
4314 Rain 3 1009 93 10000 3.1 200 07:40 12.11.2019
4315 Rain 3 1009 93 10000 3.1 200 07:40 12.11.2019
4316 Rain 3 1009 93 10000 3.1 220 07:22 12.11.2019
4317 Rain 3 1009 93 10000 3.1 210 06:45 12.11.2019
4318 Rain 3 1008 93 10000 2.1 220 06:23 12.11.2019
4319 Rain 3 1009 93 10000 3.1 190 05:46 12.11.2019
4320 Rain 3 1009 93 10000 3.1 180 04:50 12.11.2019
4321 Rain 3 1009 93 10000 3.1 180 04:50 12.11.2019
4322 Rain 3 1009 93 10000 4.1 220 03:48 12.11.2019
4323 Rain 3 1008 86 10000 4.1 180 01:49 12.11.2019
4324 Rain 3 1008 93 10000 4.1 200 01:22 12.11.2019
4325 Rain 3 1008 93 10000 4.1 200 01:22 12.11.2019
4326 Rain 3 1008 93 10000 4.1 210 00:48 12.11.2019
4327 Rain 2 1009 93 10000 2.1 180 00:29 12.11.2019
4328 Rain 2 1008 93 10000 2.6 250 23:47 11.11.2019
4329 Clouds 2 1008 86 10000 2.6 250 23:24 11.11.2019
4330 Clouds 2 1008 86 10000 3.1 250 22:58 11.11.2019
4331 Clouds 2 1008 86 10000 3.1 250 22:38 11.11.2019
4332 Clouds 2 1008 86 10000 2.6 230 22:19 11.11.2019
4333 Clouds 2 1008 86 10000 2.6 230 21:57 11.11.2019
4334 Clouds 2 1008 93 10000 3.6 220 21:38 11.11.2019
4335 Clouds 2 1008 64 10000 1.5 180 21:20 11.11.2019
4336 Clouds 2 1008 64 10000 0.5 0 20:55 11.11.2019
4337 Clouds 2 1008 64 10000 0.5 0 20:36 11.11.2019
4338 Clouds 2 1007 67 10000 1.5 270 20:18 11.11.2019
4339 Clouds 2 1008 67 10000 2.1 270 19:42 11.11.2019
4340 Clouds 2 1008 67 10000 2.6 280 19:19 11.11.2019
4341 Clouds 1 1008 67 10000 2.6 280 18:57 11.11.2019
4342 Clouds 2 1007 67 10000 2.1 280 18:39 11.11.2019
4343 Clouds 2 1007 67 10000 0.5 0 18:20 11.11.2019
4344 Clouds 2 1007 67 10000 1 0 17:44 11.11.2019
4345 Clouds 2 1007 61 10000 0.5 0 17:26 11.11.2019
4346 Clouds 2 1008 86 10000 2.1 50 16:56 11.11.2019
4347 Clouds 2 1007 61 10000 1.5 120 16:38 11.11.2019
4348 Clouds 2 1007 61 10000 1 0 16:20 11.11.2019
4349 Clouds 2 1007 61 10000 2.1 350 15:41 11.11.2019
4350 Clouds 2 1007 61 10000 1 0 15:20 11.11.2019
4351 Clouds 2 1007 61 10000 1 0 15:20 11.11.2019
4352 Clouds 2 1007 61 10000 1 0 14:55 11.11.2019
4353 Clouds 2 1008 80 10000 2.6 20 14:37 11.11.2019
4354 Clouds 2 1008 80 10000 2.1 100 14:18 11.11.2019
4355 -273 0 0 0 0 0 13:54 11.11.2019
4356 Clouds 2 1008 86 10000 3.1 50 13:36 11.11.2019
4357 Clouds 2 1009 86 10000 3.1 90 13:18 11.11.2019
4358 Clouds 2 1009 86 9000 2.1 110 12:54 11.11.2019
4359 Clouds 2 1009 86 9000 2.1 110 12:36 11.11.2019
4360 Clouds 1 1010 41 8000 2.6 110 12:18 11.11.2019
4361 Clouds 1 1011 100 6000 3.1 110 11:41 11.11.2019
4362 Mist 1 1011 55 4500 2.1 120 11:21 11.11.2019
4363 Mist 0 1012 100 3000 2.1 90 10:44 11.11.2019
4364 Mist 0 1012 92 2000 2.6 140 10:19 11.11.2019
4365 Mist 0 1012 92 2000 2.6 140 09:59 11.11.2019
4366 Mist 0 1013 100 1300 2.1 150 09:41 11.11.2019
4367 Fog 0 1013 100 1000 2.1 140 09:20 11.11.2019
4368 Fog 0 1013 100 600 1.5 50 08:43 11.11.2019
4369 Fog 0 1013 92 500 2.1 50 08:23 11.11.2019
4370 Fog 0 1013 92 500 2.1 50 07:57 11.11.2019
4371 Fog 0 1013 92 500 2.1 50 07:57 11.11.2019
4372 Fog 0 1013 100 700 2.1 30 07:39 11.11.2019
4373 Fog 0 1013 100 700 0.5 0 07:19 11.11.2019
4374 Clouds 0 1013 100 2000 0.5 0 06:56 11.11.2019
4375 Clouds 0 1013 100 2000 0.5 0 06:38 11.11.2019
4376 Clouds 0 1013 100 1400 1.5 140 06:19 11.11.2019
4377 Clouds 0 1013 100 1200 2.6 140 05:48 11.11.2019
4378 Clouds 0 1014 100 750 1.5 120 03:34 11.11.2019
4379 Clouds 0 1015 100 900 1.5 150 02:39 11.11.2019
4380 Clouds 0 1015 100 2300 1.5 30 01:59 11.11.2019
4381 Clouds 0 1015 100 2300 1.5 30 01:36 11.11.2019
4382 Clouds 1 1015 100 4800 0.5 0 00:55 11.11.2019
4383 Clouds 0 1015 91 5000 1 0 00:33 11.11.2019
4384 Clouds 0 1015 91 5000 1 0 23:58 10.11.2019
4385 Clouds 0 1015 91 5000 1 0 23:38 10.11.2019
4386 Clouds 1 1015 91 6000 1 0 23:19 10.11.2019
4387 Clouds 1 1015 91 6000 1 0 23:19 10.11.2019
4388 Clouds 1 1015 91 6000 1 0 22:56 10.11.2019
4389 Clouds 1 1015 91 6000 1.5 140 22:38 10.11.2019
4390 Clouds 1 1015 91 7000 2.1 160 22:19 10.11.2019
4391 Clouds 1 1015 91 7000 2.1 160 22:19 10.11.2019
4392 Clouds 1 1015 91 7000 2.1 160 21:55 10.11.2019
4393 Clouds 1 1015 91 8000 1 0 21:37 10.11.2019
4394 Clouds 1 1015 91 7000 1.5 0 21:19 10.11.2019
4395 Clouds 1 1015 91 6000 1.5 100 20:41 10.11.2019
4396 Clear 1 1015 90 6000 0.5 0 20:22 10.11.2019
4397 Clear 1 1015 90 6000 0.5 0 19:56 10.11.2019
4398 Clear 1 1015 90 6000 0.5 0 19:38 10.11.2019
4399 Clear 1 1015 90 6000 0.5 0 19:38 10.11.2019
4400 Clear 1 1015 90 6000 1.5 140 19:19 10.11.2019
4401 Clear 1 1015 90 6000 1.5 140 18:58 10.11.2019
4402 Clear 1 1015 90 6000 1.5 140 18:58 10.11.2019
4403 Clear 1 1014 90 6000 1.5 150 18:40 10.11.2019
4404 Clear 1 1014 90 6000 1.5 150 18:40 10.11.2019
4405 Clear 1 1014 90 8000 1 0 18:19 10.11.2019
4406 Clear 1 1014 90 8000 1 0 17:57 10.11.2019
4407 Clear 1 1014 90 8000 0.5 0 17:39 10.11.2019
4408 Clear 1 1013 75 8000 1 0 17:20 10.11.2019
4409 Clear 1 1013 75 10000 2.6 80 16:58 10.11.2019
4410 Clear 1 1013 75 10000 2.6 80 16:40 10.11.2019
4411 Clear 2 1013 75 10000 0.5 0 16:21 10.11.2019
4412 Clear 2 1012 75 10000 2.1 40 15:56 10.11.2019
4413 Clear 2 1012 75 10000 2.1 40 15:37 10.11.2019
4414 Mist 2 1012 100 4500 1.5 360 15:18 10.11.2019
4415 Mist 2 1012 100 4000 1.5 40 14:55 10.11.2019
4416 Mist 2 1012 100 4000 1.5 40 14:36 10.11.2019
4417 Mist 2 1011 100 3500 2.6 20 14:18 10.11.2019
4418 Mist 2 1011 61 3000 1.5 20 13:43 10.11.2019
4419 Mist 2 1011 100 3000 2.1 60 13:21 10.11.2019
4420 Mist 2 1011 100 3000 2.1 60 12:59 10.11.2019
4421 Mist 2 1011 62 2000 2.1 30 12:40 10.11.2019
4422 Mist 2 1011 62 1500 2.1 360 12:19 10.11.2019
4423 Clouds 1 1011 62 1000 1 0 11:55 10.11.2019
4424 Clouds 1 1011 62 1000 1 0 11:37 10.11.2019
4425 Clouds 1 1011 73 500 1.5 100 11:18 10.11.2019
4426 Clouds 1 1011 73 500 1.5 100 11:18 10.11.2019
4427 Clouds 1 1011 73 500 1.5 100 11:18 10.11.2019
4428 Clouds 1 1010 92 400 2.6 70 10:42 10.11.2019
4429 Clouds 1 1010 92 400 2.6 70 10:42 10.11.2019
4430 Clouds 0 1010 92 450 1 0 10:21 10.11.2019
4431 Clouds 0 1010 92 550 1.5 50 09:56 10.11.2019
4432 Clouds 0 1010 92 550 1.5 50 09:38 10.11.2019
4433 Clouds -1 1009 100 600 1 0 09:19 10.11.2019
4434 Clouds -1 1009 92 650 1.5 60 08:39 10.11.2019
4435 Clouds -1 1009 92 650 1.5 60 08:39 10.11.2019
4436 Clouds -1 1009 92 650 1.5 60 08:39 10.11.2019
4437 Clear -1 1009 92 450 1 0 08:20 10.11.2019
4438 Clouds -2 1008 100 550 1.5 70 07:45 10.11.2019
4439 Clouds -2 1008 92 550 1.5 100 07:26 10.11.2019
4440 Clouds -1 1008 92 550 1.5 100 06:57 10.11.2019
4441 Clouds -2 1008 92 700 1.5 10 05:57 10.11.2019
4442 Clear -2 1008 100 10000 1 126 03:33 10.11.2019
4443 Clear -2 1008 92 5000 0.5 0 02:28 10.11.2019
4444 Clear -1 1008 92 600 1.01 121 01:37 10.11.2019
4445 Clear -1 1008 100 2000 1.01 121 01:18 10.11.2019
4446 Clear -1 1008 100 450 1.01 121 00:23 10.11.2019
4447 Clear -1 1008 100 650 1.01 121 00:23 10.11.2019
4448 Fog 0 1009 92 10000 2.1 50 23:40 09.11.2019
4449 Clear 0 1008 100 7000 0.5 140 23:19 09.11.2019
4450 Clear 0 1009 100 9000 0.5 130 22:42 09.11.2019
4451 Clear 0 1009 100 3300 1 150 22:22 09.11.2019
4452 Clear 0 1009 100 3300 1 150 21:58 09.11.2019
4453 Clear 1 1009 100 10000 1.5 150 21:40 09.11.2019
4454 Clear 1 1010 93 10000 2.1 140 21:21 09.11.2019
4455 Clear 1 1010 93 10000 2.1 140 20:56 09.11.2019
4456 Clear 1 1010 93 10000 2.6 140 20:38 09.11.2019
4457 Clouds 2 1010 95 9000 2.1 140 20:20 09.11.2019
4458 Clouds 2 1010 95 9000 2.1 140 19:54 09.11.2019
4459 Clouds 2 1010 100 6000 2.1 150 19:36 09.11.2019
4460 Clouds 2 1010 100 10000 2.1 140 19:18 09.11.2019
4461 Clouds 3 1010 95 9000 1.5 130 18:39 09.11.2019
4462 Clouds 3 1010 93 10000 2.1 150 18:19 09.11.2019
4463 Clouds 4 1010 86 10000 1.5 150 17:56 09.11.2019
4464 Clouds 4 1010 86 10000 1.5 150 17:37 09.11.2019
4465 Clouds 5 1010 93 10000 2.1 150 17:18 09.11.2019
4466 Clouds 6 1010 86 10000 2.1 170 16:42 09.11.2019
4467 Clouds 6 1010 86 10000 1.5 180 16:21 09.11.2019
4468 Clouds 6 1010 86 10000 2.1 190 15:55 09.11.2019
4469 Clouds 6 1010 86 10000 2.1 190 15:55 09.11.2019
4470 Clouds 6 1010 86 10000 2.1 190 15:37 09.11.2019
4471 Clouds 7 1010 81 10000 3.1 210 15:19 09.11.2019
4472 Rain 7 1010 80 10000 3.1 210 14:41 09.11.2019
4473 Clouds 6 1011 86 10000 3.6 210 14:21 09.11.2019
4474 Clouds 6 1011 75 10000 3.6 270 13:57 09.11.2019
4475 Rain 6 1011 81 10000 3.1 220 13:37 09.11.2019
4476 Rain 6 1011 80 10000 3.6 240 13:19 09.11.2019
4477 Rain 6 1011 86 10000 4.6 250 12:55 09.11.2019
4478 Rain 6 1011 86 10000 4.6 250 12:37 09.11.2019
4479 Rain 5 1011 80 10000 5.1 230 12:18 09.11.2019
4480 Rain 5 1011 80 10000 5.7 250 11:44 09.11.2019
4481 Clouds 5 1011 86 10000 4.6 250 11:20 09.11.2019
4482 Clouds 4 1011 86 10000 3.6 240 10:42 09.11.2019
4483 Clouds 4 1010 86 10000 4.6 250 10:20 09.11.2019
4484 Snow 4 1010 86 10000 4.1 250 10:00 09.11.2019
4485 Snow 4 1010 86 10000 4.1 250 09:41 09.11.2019
4486 Snow 4 1010 86 10000 4.1 250 09:20 09.11.2019
4487 Rain 4 1010 93 10000 3.1 250 08:45 09.11.2019
4488 Rain 4 1010 93 10000 2.1 270 08:25 09.11.2019
4489 Rain 4 1010 93 10000 2.1 270 07:57 09.11.2019
4490 Clouds 3 1010 86 10000 2.1 270 07:38 09.11.2019
4491 Clouds 4 1009 86 10000 4.1 260 07:19 09.11.2019
4492 Clouds 4 1009 86 10000 5.1 250 06:45 09.11.2019
4493 Clouds 4 1009 86 10000 5.1 250 06:27 09.11.2019
4494 Clouds 4 1008 86 10000 5.1 250 05:40 09.11.2019
4495 Clouds 3 1007 90 10000 7.2 260 04:30 09.11.2019
4496 Clouds 4 1007 86 10000 4.6 260 02:55 09.11.2019
4497 Clouds 4 1007 80 10000 5.1 260 02:36 09.11.2019
4498 Clouds 4 1007 86 10000 4.6 260 01:18 09.11.2019
4499 Clouds 4 1007 86 10000 5.1 250 00:43 09.11.2019
4500 Clouds 4 1007 86 10000 5.1 240 00:25 09.11.2019
4501 Clouds 4 1007 86 10000 5.7 240 23:41 08.11.2019
4502 Rain 4 1007 80 10000 6.7 240 23:22 08.11.2019
4503 Rain 4 1006 86 10000 6.2 250 22:59 08.11.2019
4504 Rain 4 1006 86 10000 6.2 250 22:40 08.11.2019
4505 Rain 4 1005 86 10000 6.7 250 22:21 08.11.2019
4506 Rain 4 1006 80 10000 5.1 240 21:43 08.11.2019
4507 Rain 4 1005 86 10000 5.7 260 21:24 08.11.2019
4508 Rain 4 1005 86 10000 5.7 260 20:59 08.11.2019
4509 Rain 4 1005 86 10000 4.6 260 20:41 08.11.2019
4510 Rain 5 1005 86 10000 6.2 240 20:20 08.11.2019
4511 Rain 5 1005 86 10000 4.6 250 19:56 08.11.2019
4512 Rain 5 1005 86 10000 4.6 250 19:37 08.11.2019
4513 Rain 5 1004 86 10000 6.2 250 19:18 08.11.2019
4514 Rain 5 1004 86 10000 5.7 250 18:55 08.11.2019
4515 Rain 5 1004 86 10000 5.7 250 18:37 08.11.2019
4516 Drizzle 6 1003 86 10000 7.7 250 18:19 08.11.2019
4517 Clouds 6 1003 86 10000 5.1 250 17:55 08.11.2019
4518 Clouds 6 1003 86 10000 5.1 250 17:36 08.11.2019
4519 Clouds 6 1002 93 10000 3.1 270 17:18 08.11.2019
4520 Clouds 6 1002 93 10000 3.1 270 16:57 08.11.2019
4521 Clouds 6 1002 87 10000 4.6 260 16:39 08.11.2019
4522 Clouds 6 1002 93 10000 4.1 250 16:19 08.11.2019
4523 Clouds 6 1002 93 10000 2.1 270 15:56 08.11.2019
4524 Clouds 6 1002 93 10000 2.1 270 15:38 08.11.2019
4525 Clouds 6 1001 93 10000 2.6 250 15:20 08.11.2019
4526 Clouds 6 1001 93 10000 1.5 280 14:55 08.11.2019
4527 Clouds 6 1001 93 10000 1.5 280 14:36 08.11.2019
4528 Clouds 6 1001 93 9000 1.5 300 14:18 08.11.2019
4529 Clouds 6 1001 93 9000 1.5 300 13:55 08.11.2019
4530 Rain 6 1001 100 9000 1 0 13:36 08.11.2019
4531 Rain 6 1001 100 9000 1.5 220 13:18 08.11.2019
4532 Rain 5 1001 100 6000 1.48 297 12:42 08.11.2019
4533 Rain 5 1002 100 2600 0.5 0 12:24 08.11.2019
4534 Rain 5 1002 100 3000 0.5 0 11:57 08.11.2019
4535 Rain 5 1002 100 3000 0.5 0 11:38 08.11.2019
4536 Rain 5 1002 100 2000 0.72 0 11:19 08.11.2019
4537 Fog 5 1001 100 400 1 0 10:56 08.11.2019
4538 Fog 5 1001 100 400 1 0 10:38 08.11.2019
4539 Fog 5 1001 93 550 1 10 10:20 08.11.2019
4540 Fog 5 1001 100 400 1.5 30 09:41 08.11.2019
4541 Fog 5 1001 100 500 2.6 40 09:20 08.11.2019
4542 Fog 5 1001 100 500 2.6 40 09:20 08.11.2019
4543 Mist 5 1002 93 4000 4.6 30 08:59 08.11.2019
4544 Fog 5 1001 100 450 4.1 20 08:37 08.11.2019
4545 Mist 5 1003 100 4500 1 0 08:18 08.11.2019
4546 Mist 4 1002 100 5000 3.1 10 07:41 08.11.2019
4547 Clouds 5 1002 100 10000 2.6 320 07:22 08.11.2019
4548 Clouds 5 1002 86 10000 2.1 330 06:41 08.11.2019
4549 Clouds 4 1002 93 10000 1 0 06:23 08.11.2019
4550 Clouds 4 1003 93 10000 0.5 0 05:55 08.11.2019
4551 Clouds 5 1004 93 10000 0.5 0 05:24 08.11.2019
4552 Clouds 4 1004 100 10000 1 0 03:58 08.11.2019
4553 Clouds 5 1004 93 10000 2.1 30 03:36 08.11.2019
4554 Clouds 5 1005 86 10000 1.5 340 02:52 08.11.2019
4555 Clouds 5 1005 87 10000 2.6 310 01:49 08.11.2019
4556 Clouds 6 1005 87 10000 2.6 310 01:30 08.11.2019
4557 Clouds 6 1006 93 10000 0.5 0 00:37 08.11.2019
4558 Clouds 5 1006 93 10000 1.35 296 00:19 08.11.2019
4559 Clouds 5 1006 93 10000 1 170 23:43 07.11.2019
4560 Clouds 5 1005 93 10000 0.5 0 23:24 07.11.2019
4561 Clouds 6 1005 93 10000 1 0 22:55 07.11.2019
4562 Clouds 6 1005 93 10000 1 0 22:37 07.11.2019
4563 Clouds 6 1005 93 10000 1 110 22:19 07.11.2019
4564 Clouds 6 1005 93 10000 1 170 21:38 07.11.2019
4565 Clouds 6 1005 93 10000 1 300 21:20 07.11.2019
4566 Clouds 6 1005 93 10000 1 210 20:58 07.11.2019
4567 Clouds 6 1005 93 10000 1 210 20:40 07.11.2019
4568 Clouds 6 1005 93 10000 1 210 20:21 07.11.2019
4569 Clouds 6 1005 93 10000 1.5 150 19:57 07.11.2019
4570 Clouds 6 1005 93 10000 1.5 150 19:39 07.11.2019
4571 Clouds 7 1005 93 10000 1 0 19:20 07.11.2019
4572 Clouds 7 1005 93 10000 1 0 19:20 07.11.2019
4573 Clouds 7 1005 93 10000 1 0 18:57 07.11.2019
4574 Clouds 7 1005 87 10000 1.5 150 18:38 07.11.2019
4575 Clouds 7 1005 87 10000 1.5 210 18:19 07.11.2019
4576 Clouds 8 1004 81 10000 1.5 140 17:55 07.11.2019
4577 Clouds 8 1004 87 10000 1 190 17:37 07.11.2019
4578 Clouds 8 1004 87 10000 1 190 17:19 07.11.2019
4579 Clouds 9 1004 75 10000 2.1 160 16:55 07.11.2019
4580 Clouds 9 1004 70 10000 1.5 240 16:37 07.11.2019
4581 Clouds 10 1004 70 10000 1 0 16:18 07.11.2019
4582 Clouds 10 1003 66 10000 1 0 15:40 07.11.2019
4583 Clouds 10 1004 66 10000 0.5 0 15:20 07.11.2019
4584 Clouds 11 1003 61 10000 0.5 0 14:58 07.11.2019
4585 Clouds 11 1003 61 10000 1 0 14:38 07.11.2019
4586 Clouds 11 1003 61 10000 1 0 14:20 07.11.2019
4587 Clouds 11 1003 61 10000 1.5 100 13:55 07.11.2019
4588 Clouds 11 1003 57 10000 1 0 13:37 07.11.2019
4589 Clear 11 1002 61 10000 4.1 80 13:18 07.11.2019
4590 Clear 10 1002 61 10000 3.1 80 12:56 07.11.2019
4591 Clear 10 1002 61 10000 3.6 80 12:38 07.11.2019
4592 Clear 10 1002 66 10000 5.1 100 12:18 07.11.2019
4593 Clear 9 1003 61 10000 5.1 100 11:41 07.11.2019
4594 Clouds 9 1003 61 10000 5.1 100 11:22 07.11.2019
4595 Clouds 8 1003 65 10000 4.1 110 10:42 07.11.2019
4596 Clouds 7 1003 75 10000 2.6 140 10:19 07.11.2019
4597 Clouds 7 1003 75 10000 2.6 140 10:19 07.11.2019
4598 Clouds 6 1003 81 10000 3.1 130 09:56 07.11.2019
4599 Clouds 5 1004 86 10000 2.1 140 09:38 07.11.2019
4600 Clouds 4 1004 86 10000 2.1 140 09:20 07.11.2019
4601 Clouds 4 1004 86 10000 2.1 140 09:20 07.11.2019
4602 Clouds 2 1004 100 10000 1 0 08:45 07.11.2019
4603 Clear 1 1004 100 10000 1 0 08:24 07.11.2019
4604 Clear 2 1004 100 10000 1 0 08:23 07.11.2019
4605 Clear 1 1004 100 10000 1 0 08:23 07.11.2019
4606 Clear 1 1004 89 10000 1 0 07:57 07.11.2019
4607 Clouds 1 1004 100 10000 1 180 07:39 07.11.2019
4608 -273 0 0 0 0 0 07:38 07.11.2019
4609 Clear 1 1004 89 10000 1.5 140 07:38 07.11.2019
4610 Clear 1 1004 89 10000 1.5 140 07:20 07.11.2019
4611 Clear 1 1003 89 10000 2.1 160 06:45 07.11.2019
4612 Clear 2 1004 93 10000 1 220 06:24 07.11.2019
4613 Clear 2 1004 93 10000 1 220 05:49 07.11.2019
4614 Clear 2 1004 89 10000 2.1 160 05:30 07.11.2019
4615 Clouds 3 1004 93 10000 2.6 180 04:51 07.11.2019
4616 Clear 3 1004 93 10000 3.1 150 04:29 07.11.2019
4617 Clear 3 1004 93 10000 3.1 150 04:29 07.11.2019
4618 Clouds 5 1006 86 10000 2.6 210 01:28 07.11.2019
4619 Clouds 6 1006 86 10000 2.6 210 00:32 07.11.2019
4620 Clouds 6 1006 87 10000 4.1 220 23:58 06.11.2019
4621 Clouds 6 1006 87 10000 3.6 210 23:40 06.11.2019
4622 Rain 6 1006 87 10000 3.6 210 23:20 06.11.2019
4623 Rain 6 1006 86 10000 2.6 200 22:40 06.11.2019
4624 Rain 6 1006 86 10000 2.6 200 22:21 06.11.2019
4625 Rain 6 1006 86 10000 3.1 230 21:58 06.11.2019
4626 Rain 6 1006 86 10000 3.1 230 21:58 06.11.2019
4627 Rain 6 1006 87 10000 3.6 230 21:39 06.11.2019
4628 Rain 6 1006 87 10000 3.6 230 21:20 06.11.2019
4629 Rain 6 1006 93 10000 3.6 230 20:57 06.11.2019
4630 Clouds 6 1006 87 10000 3.1 200 20:39 06.11.2019
4631 Clouds 7 1006 87 10000 4.1 210 20:20 06.11.2019
4632 Clouds 7 1006 87 10000 4.1 210 19:58 06.11.2019
4633 Clouds 7 1006 87 10000 2.6 210 19:38 06.11.2019
4634 Rain 7 1006 93 10000 3.6 240 19:19 06.11.2019
4635 Rain 7 1006 93 10000 3.6 240 18:57 06.11.2019
4636 Clouds 7 1006 87 10000 3.1 210 18:38 06.11.2019
4637 Clouds 7 1005 87 10000 3.1 220 18:18 06.11.2019
4638 Clouds 7 1005 81 10000 4.1 220 17:54 06.11.2019
4639 Clouds 7 1005 81 10000 4.1 220 17:36 06.11.2019
4640 Clouds 8 1005 81 10000 3.6 230 17:18 06.11.2019
4641 Clouds 8 1005 75 10000 4.1 250 16:54 06.11.2019
4642 Clouds 8 1005 75 10000 4.1 250 16:36 06.11.2019
4643 Clouds 8 1005 76 10000 4.6 240 16:18 06.11.2019
4644 Clouds 9 1005 70 10000 4.6 240 15:54 06.11.2019
4645 Clouds 9 1005 70 10000 4.6 240 15:36 06.11.2019
4646 Clouds 9 1004 70 10000 4.6 260 15:18 06.11.2019
4647 Clouds 9 1004 75 10000 6.7 250 14:54 06.11.2019
4648 Clouds 9 1004 75 10000 6.7 250 14:36 06.11.2019
4649 Rain 9 1004 75 10000 4.6 270 14:18 06.11.2019
4650 Clouds 9 1004 70 10000 5.1 240 13:38 06.11.2019
4651 Clouds 9 1004 70 10000 6.2 230 13:20 06.11.2019
4652 Clouds 9 1004 70 10000 5.7 230 12:57 06.11.2019
4653 Clouds 8 1004 70 10000 5.7 230 12:39 06.11.2019
4654 Clouds 8 1004 81 10000 4.6 220 12:20 06.11.2019
4655 Clouds 8 1004 81 10000 4.6 220 11:58 06.11.2019
4656 Clouds 8 1005 81 10000 4.6 220 11:37 06.11.2019
4657 Clouds 7 1004 87 10000 4.1 220 11:18 06.11.2019
4658 Clouds 7 1004 87 10000 3.6 220 10:56 06.11.2019
4659 Clouds 7 1004 87 10000 3.6 220 10:38 06.11.2019
4660 Clouds 7 1004 93 10000 4.6 220 10:19 06.11.2019
4661 Clouds 6 1004 87 10000 4.1 220 09:43 06.11.2019
4662 Clouds 5 1003 93 10000 3.6 210 09:22 06.11.2019
4663 Clouds 5 1003 93 10000 4.1 210 08:59 06.11.2019
4664 Clouds 4 1003 93 10000 4.1 210 08:38 06.11.2019
4665 Clouds 3 1003 93 10000 4.1 220 08:20 06.11.2019
4666 Clouds 3 1002 93 10000 1.5 210 07:57 06.11.2019
4667 Clouds 3 1002 93 10000 1.5 210 07:39 06.11.2019
4668 Clouds 3 1002 93 10000 2.1 170 07:19 06.11.2019
4669 Clouds 3 1002 93 10000 3.1 210 06:44 06.11.2019
4670 Clouds 2 1002 100 10000 2.1 240 06:24 06.11.2019
4671 Clouds 2 1001 100 10000 1.5 190 04:32 06.11.2019
4672 Clouds 2 1001 100 10000 1 0 02:20 06.11.2019
4673 Clouds 2 1001 93 10000 1 0 01:37 06.11.2019
4674 Clouds 2 1000 100 10000 2.1 160 00:39 06.11.2019
4675 Clouds 2 1000 93 10000 2.1 190 23:58 05.11.2019
4676 Clouds 2 1000 93 10000 2.1 190 23:38 05.11.2019
4677 Clouds 3 1000 93 10000 2.6 230 23:20 05.11.2019
4678 Clouds 3 1000 93 10000 2.1 210 22:45 05.11.2019
4679 Clouds 4 1000 93 10000 1.5 210 22:20 05.11.2019
4680 Clouds 4 1000 93 10000 1.5 210 21:59 05.11.2019
4681 Clouds 4 1000 93 10000 2.6 170 21:41 05.11.2019
4682 Clouds 4 1000 93 10000 1.5 170 21:21 05.11.2019
4683 Clouds 4 1000 93 10000 1.5 170 20:58 05.11.2019
4684 Clouds 4 999 93 10000 1.5 210 20:39 05.11.2019
4685 Clouds 5 999 100 10000 1 200 20:20 05.11.2019
4686 Clouds 5 999 93 10000 1 0 19:57 05.11.2019
4687 Clouds 5 999 93 10000 1 0 19:38 05.11.2019
4688 Clouds 5 999 100 10000 1 150 19:20 05.11.2019
4689 Clouds 5 999 100 10000 1 150 18:57 05.11.2019
4690 Clouds 6 999 100 10000 1.5 170 18:39 05.11.2019
4691 Clouds 6 999 93 10000 1 140 18:20 05.11.2019
4692 Clouds 6 999 93 10000 1.5 190 17:58 05.11.2019
4693 Clouds 7 999 93 10000 1.5 190 17:38 05.11.2019
4694 Rain 7 999 87 10000 2.1 150 17:18 05.11.2019
4695 Clouds 7 1000 87 10000 3.1 170 16:55 05.11.2019
4696 Rain 8 999 87 10000 2.6 150 16:37 05.11.2019
4697 Clouds 8 1000 81 10000 4.6 190 16:18 05.11.2019
4698 Rain 8 999 87 10000 3.1 170 15:38 05.11.2019
4699 Rain 8 1000 87 10000 4.1 180 15:19 05.11.2019
4700 Clouds 8 1000 87 10000 4.6 190 14:58 05.11.2019
4701 Rain 8 999 87 10000 5.1 170 14:39 05.11.2019
4702 Rain 8 999 87 10000 4.6 170 14:21 05.11.2019
4703 Rain 8 999 87 10000 5.1 170 13:44 05.11.2019
4704 Rain 8 999 87 10000 5.1 180 13:25 05.11.2019
4705 Rain 8 999 87 10000 5.1 180 12:59 05.11.2019
4706 Rain 8 999 87 10000 5.1 180 12:39 05.11.2019
4707 Rain 8 999 87 10000 4.1 160 12:20 05.11.2019
4708 Rain 8 999 87 10000 4.1 160 12:20 05.11.2019
4709 Rain 8 1000 81 10000 4.6 170 11:55 05.11.2019
4710 Rain 8 1000 81 10000 4.6 170 11:37 05.11.2019
4711 Rain 8 1000 81 10000 4.6 180 11:19 05.11.2019
4712 Rain 8 1000 93 10000 4.6 170 10:43 05.11.2019
4713 Rain 7 1000 93 10000 4.1 180 10:24 05.11.2019
4714 Rain 7 1000 93 10000 4.1 180 09:58 05.11.2019
4715 Clouds 7 1000 93 10000 3.1 190 09:40 05.11.2019
4716 Rain 7 1000 93 10000 3.6 160 09:19 05.11.2019
4717 Clouds 7 1000 87 10000 3.1 180 08:55 05.11.2019
4718 Clouds 7 1000 87 10000 3.1 180 08:37 05.11.2019
4719 Clouds 7 1000 87 10000 3.1 190 08:18 05.11.2019
4720 Clouds 7 999 87 10000 3.1 190 07:44 05.11.2019
4721 Rain 7 999 81 10000 4.1 220 07:25 05.11.2019
4722 Rain 7 999 87 10000 3.6 190 07:25 05.11.2019
4723 Rain 7 999 93 10000 3.6 190 06:51 05.11.2019
4724 Rain 7 999 93 10000 3.6 180 06:28 05.11.2019
4725 Rain 8 999 87 10000 4.1 190 05:40 05.11.2019
4726 Rain 8 999 93 10000 3.6 190 05:19 05.11.2019
4727 Rain 8 999 87 10000 3.1 220 04:20 05.11.2019
4728 Rain 8 1000 87 10000 5.7 210 03:29 05.11.2019
4729 Rain 8 999 93 10000 3.1 230 02:42 05.11.2019
4730 Rain 9 1000 81 10000 6.2 260 01:53 05.11.2019
4731 Rain 9 999 76 10000 5.1 260 00:46 05.11.2019
4732 Rain 9 999 81 10000 8.2 240 00:26 05.11.2019
4733 Rain 10 999 71 10000 5.7 230 23:42 04.11.2019
4734 Rain 10 998 76 10000 4.6 230 23:19 04.11.2019
4735 Rain 9 998 76 10000 4.6 230 22:57 04.11.2019
4736 Rain 10 998 76 10000 4.6 230 22:39 04.11.2019
4737 Rain 9 998 76 10000 3.6 190 22:20 04.11.2019
4738 Rain 9 998 81 10000 3.1 180 21:55 04.11.2019
4739 Rain 9 998 81 10000 3.1 180 21:37 04.11.2019
4740 -273 0 0 0 0 0 21:18 04.11.2019
4741 Rain 9 997 81 10000 2.6 190 20:56 04.11.2019
4742 Rain 9 998 81 10000 3.1 190 20:37 04.11.2019
4743 Clouds 9 997 81 10000 3.1 210 20:19 04.11.2019
4744 Clouds 9 997 81 10000 3.1 210 19:57 04.11.2019
4745 Clouds 9 998 81 10000 4.6 220 19:38 04.11.2019
4746 Rain 9 997 76 10000 4.1 240 19:20 04.11.2019
4747 Clouds 9 997 100 10000 1.5 190 18:54 04.11.2019
4748 Clouds 10 997 100 10000 1.5 190 18:36 04.11.2019
4749 Clouds 10 996 87 10000 1.5 210 18:18 04.11.2019
4750 Rain 10 996 93 10000 2.6 190 17:38 04.11.2019
4751 Rain 10 995 81 10000 3.1 240 17:20 04.11.2019
4752 Rain 11 996 81 10000 3.1 230 16:56 04.11.2019
4753 Rain 11 996 81 10000 3.1 230 16:38 04.11.2019
4754 Clouds 11 995 81 10000 2.1 230 16:19 04.11.2019
4755 Clouds 12 995 81 10000 2.1 230 15:54 04.11.2019
4756 Rain 12 995 71 10000 2.1 250 15:36 04.11.2019
4757 Rain 12 995 81 10000 2.1 200 15:18 04.11.2019
4758 Rain 13 995 76 10000 2.1 210 14:41 04.11.2019
4759 Rain 13 994 58 10000 2.6 220 14:21 04.11.2019
4760 Clouds 13 994 62 10000 2.6 180 13:58 04.11.2019
4761 Clouds 13 994 62 10000 2.6 180 13:40 04.11.2019
4762 Clouds 13 994 58 10000 2.6 120 13:21 04.11.2019
4763 Clouds 13 994 58 10000 2.6 120 12:58 04.11.2019
4764 Clouds 13 994 58 10000 2.1 130 12:40 04.11.2019
4765 Clouds 13 995 66 10000 2.1 240 12:21 04.11.2019
4766 Clouds 12 995 66 10000 3.1 200 11:56 04.11.2019
4767 Clouds 12 995 71 10000 4.1 210 11:38 04.11.2019
4768 Clouds 12 995 71 10000 4.1 210 11:19 04.11.2019
4769 Clouds 11 995 66 10000 5.1 230 10:42 04.11.2019
4770 Clouds 11 996 66 10000 5.1 240 10:24 04.11.2019
4771 Clouds 10 996 66 10000 4.6 240 09:47 04.11.2019
4772 Clouds 10 996 66 10000 4.6 240 09:28 04.11.2019
4773 Clouds 9 996 66 10000 4.6 230 08:59 04.11.2019
4774 Clouds 9 996 76 10000 3.1 210 08:41 04.11.2019
4775 Clouds 8 996 81 10000 3.6 220 08:21 04.11.2019
4776 Clouds 7 996 81 10000 4.1 210 07:45 04.11.2019
4777 Clouds 8 996 75 10000 5.1 210 07:25 04.11.2019
4778 Clouds 8 996 75 10000 5.7 220 06:59 04.11.2019
4779 Clouds 8 996 75 10000 5.7 220 06:36 04.11.2019
4780 Clouds 8 996 70 10000 5.7 230 05:59 04.11.2019
4781 Rain 9 996 75 10000 5.7 240 04:50 04.11.2019
4782 Rain 9 996 75 10000 6.7 240 04:25 04.11.2019
4783 Rain 9 995 75 10000 7.7 230 03:23 04.11.2019
4784 Rain 9 994 76 10000 8.2 230 01:23 04.11.2019
4785 Rain 9 994 81 10000 7.2 230 00:54 04.11.2019
4786 Rain 9 993 81 10000 7.2 220 00:21 04.11.2019
4787 Rain 9 993 81 10000 7.2 230 23:58 03.11.2019
4788 Rain 9 993 81 10000 7.2 220 23:58 03.11.2019
4789 Rain 9 993 81 10000 7.2 230 23:37 03.11.2019
4790 Rain 9 993 81 10000 7.2 230 23:37 03.11.2019
4791 Rain 9 993 87 10000 6.2 230 23:18 03.11.2019
4792 Rain 9 993 87 10000 6.2 230 23:18 03.11.2019
4793 Rain 9 993 87 10000 6.2 230 23:18 03.11.2019
4794 Rain 9 993 87 10000 5.1 210 22:56 03.11.2019
4795 Rain 9 993 87 10000 5.1 210 22:38 03.11.2019
4796 Rain 9 992 87 10000 6.2 230 22:18 03.11.2019
4797 Rain 9 992 87 10000 7.2 230 21:42 03.11.2019
4798 Rain 9 992 87 10000 7.2 240 21:21 03.11.2019
4799 Rain 9 992 87 10000 7.2 240 20:58 03.11.2019
4800 Rain 10 991 87 10000 8.2 240 20:38 03.11.2019
4801 Rain 10 991 93 10000 6.7 240 20:19 03.11.2019
4802 Rain 10 990 93 10000 4.6 240 19:57 03.11.2019
4803 Rain 10 990 93 10000 4.6 240 19:38 03.11.2019
4804 Rain 10 990 93 10000 4.6 250 19:20 03.11.2019
4805 Rain 10 988 100 10000 2.1 30 18:57 03.11.2019
4806 Clouds 10 988 100 10000 2.1 30 18:37 03.11.2019
4807 Rain 10 988 93 10000 1.5 30 18:18 03.11.2019
4808 Clouds 10 988 93 10000 1.5 90 17:42 03.11.2019
4809 Clouds 10 987 93 10000 1 0 17:22 03.11.2019
4810 Clouds 10 988 93 10000 1.5 110 16:59 03.11.2019
4811 Clouds 10 988 93 10000 1.5 110 16:41 03.11.2019
4812 Clouds 11 988 87 10000 1.5 130 16:22 03.11.2019
4813 Clouds 11 988 87 10000 1.5 130 15:58 03.11.2019
4814 Clouds 11 988 87 10000 2.6 50 15:40 03.11.2019
4815 Clouds 11 988 87 10000 3.6 70 15:22 03.11.2019
4816 Clouds 11 988 87 10000 3.6 80 14:56 03.11.2019
4817 Clouds 11 988 87 10000 3.6 80 14:37 03.11.2019
4818 Clouds 11 989 93 10000 4.1 70 14:18 03.11.2019
4819 Clouds 11 989 87 10000 3.1 80 13:42 03.11.2019
4820 Clouds 11 990 93 10000 2.6 80 13:20 03.11.2019
4821 Clouds 11 990 93 10000 3.1 80 12:58 03.11.2019
4822 Clouds 11 990 93 10000 3.1 80 12:37 03.11.2019
4823 Clouds 11 990 93 10000 3.1 80 12:37 03.11.2019
4824 Clouds 11 990 87 10000 2.6 70 12:18 03.11.2019
4825 Clouds 10 991 87 10000 1.5 60 11:42 03.11.2019
4826 Clouds 10 992 93 10000 2.6 80 11:22 03.11.2019
4827 Clouds 10 992 93 10000 2.27 107 10:58 03.11.2019
4828 Clouds 10 992 93 10000 2.27 107 10:39 03.11.2019
4829 Clouds 10 991 93 10000 1 0 10:21 03.11.2019
4830 Clouds 10 991 93 10000 1 0 10:21 03.11.2019
4831 Clouds 10 992 93 10000 1.5 120 09:55 03.11.2019
4832 Clouds 9 992 93 10000 1.5 120 09:37 03.11.2019
4833 Clouds 9 992 93 10000 1.5 120 09:37 03.11.2019
4834 Clouds 9 992 93 10000 1 0 09:19 03.11.2019
4835 Clouds 9 992 100 10000 1.5 170 08:39 03.11.2019
4836 Clouds 9 992 93 10000 1.5 140 08:20 03.11.2019
4837 Clouds 9 992 93 10000 1.5 130 07:45 03.11.2019
4838 Clouds 9 992 93 10000 1 140 07:25 03.11.2019
4839 Clouds 9 993 93 10000 1 0 06:49 03.11.2019
4840 Clouds 9 993 93 10000 2.1 170 06:30 03.11.2019
4841 Clouds 9 994 93 10000 1 130 05:39 03.11.2019
4842 Clouds 9 994 93 10000 1.5 280 04:58 03.11.2019
4843 Clouds 9 994 93 10000 1.5 280 04:36 03.11.2019
4844 Clouds 8 995 100 10000 2.1 220 03:31 03.11.2019
4845 Clouds 8 995 93 8000 0.5 0 02:42 03.11.2019
4846 Clouds 8 995 93 1700 0.5 0 02:20 03.11.2019
4847 Clouds 8 995 100 10000 1 0 01:39 03.11.2019
4848 Clouds 8 996 100 10000 1.5 180 01:20 03.11.2019
4849 Clouds 9 996 100 10000 2.6 160 00:45 03.11.2019
4850 Clouds 9 996 100 10000 2.6 190 00:26 03.11.2019
4851 Clouds 9 997 100 10000 2.1 150 23:58 02.11.2019
4852 Clouds 9 997 100 10000 2.1 150 23:38 02.11.2019
4853 Clouds 9 997 100 10000 2.1 140 23:19 02.11.2019
4854 Clouds 9 997 100 10000 2.1 140 22:56 02.11.2019
4855 Clouds 10 998 100 10000 1 0 22:37 02.11.2019
4856 Clouds 10 998 93 10000 2.6 160 22:18 02.11.2019
4857 Clouds 10 998 100 10000 1.5 140 21:56 02.11.2019
4858 Clouds 10 998 100 10000 1.5 140 21:38 02.11.2019
4859 Clouds 10 999 100 10000 1.5 150 21:18 02.11.2019
4860 Clouds 10 999 100 10000 1.5 150 21:18 02.11.2019
4861 Clouds 10 999 100 10000 1.5 150 21:18 02.11.2019
4862 Clouds 10 999 100 10000 1.5 150 20:58 02.11.2019
4863 Clouds 10 999 100 10000 2.1 160 20:39 02.11.2019
4864 Clouds 11 999 100 10000 1.5 180 20:20 02.11.2019
4865 Clouds 11 999 100 10000 2.1 150 19:55 02.11.2019
4866 Clouds 12 999 93 10000 1.5 130 19:36 02.11.2019
4867 Clouds 12 999 93 10000 1.5 130 19:18 02.11.2019
4868 Clouds 12 999 93 10000 1 0 18:42 02.11.2019
4869 Clouds 13 999 71 10000 4.1 180 18:24 02.11.2019
4870 Clouds 13 999 93 10000 0.5 0 17:58 02.11.2019
4871 Clouds 14 999 87 10000 1 140 17:39 02.11.2019
4872 Rain 14 999 82 10000 1.5 150 17:21 02.11.2019
4873 Rain 14 999 76 10000 2.6 160 16:57 02.11.2019
4874 Rain 15 999 76 10000 2.6 160 16:37 02.11.2019
4875 Rain 15 999 82 10000 3.1 210 16:18 02.11.2019
4876 Rain 16 999 63 10000 5.1 230 15:42 02.11.2019
4877 Rain 16 999 59 10000 5.7 240 15:20 02.11.2019
4878 Rain 16 1000 63 10000 4.6 220 14:43 02.11.2019
4879 Rain 16 1000 63 10000 5.1 220 14:24 02.11.2019
4880 Rain 16 1000 63 10000 5.1 220 13:59 02.11.2019
4881 Clouds 15 1000 67 10000 4.6 210 13:39 02.11.2019
4882 Clouds 15 1000 77 10000 3.6 190 13:20 02.11.2019
4883 Clouds 15 1001 72 10000 5.7 210 12:56 02.11.2019
4884 Clouds 14 1001 72 10000 5.7 210 12:37 02.11.2019
4885 Clouds 14 1001 76 10000 3.6 200 12:19 02.11.2019
4886 Clouds 13 1001 82 10000 2.6 180 11:42 02.11.2019
4887 Clouds 13 1001 82 10000 2.6 180 11:42 02.11.2019
4888 Rain 13 1001 87 10000 4.1 170 11:23 02.11.2019
4889 Rain 12 1001 87 10000 4.1 170 10:57 02.11.2019
4890 Rain 12 1001 87 10000 2.6 170 10:39 02.11.2019
4891 Rain 11 1001 87 10000 4.6 170 10:18 02.11.2019
4892 Rain 11 1001 87 10000 3.6 180 09:42 02.11.2019
4893 Rain 11 1001 87 10000 4.6 180 09:22 02.11.2019
4894 Rain 10 1001 93 10000 4.1 170 08:51 02.11.2019
4895 Rain 10 1001 93 10000 3.6 190 08:24 02.11.2019
4896 Rain 10 1001 93 10000 3.6 190 07:58 02.11.2019
4897 Rain 10 1001 87 10000 4.1 200 07:40 02.11.2019
4898 Rain 10 1001 87 10000 4.1 200 07:40 02.11.2019
4899 Rain 10 1001 87 10000 3.6 190 07:22 02.11.2019
4900 Rain 10 1002 93 10000 3.6 230 06:50 02.11.2019
4901 Rain 10 1001 81 10000 4.1 190 06:22 02.11.2019
4902 Rain 9 1002 87 10000 3.1 190 05:44 02.11.2019
4903 Rain 9 1002 93 10000 3.1 170 04:25 02.11.2019
4904 Rain 9 1003 93 10000 2.6 180 03:51 02.11.2019
4905 Rain 9 1003 93 10000 4.1 210 03:30 02.11.2019
4906 Rain 9 1003 100 10000 2.1 230 02:29 02.11.2019
4907 Rain 9 1004 93 10000 2.6 180 01:36 02.11.2019
4908 Rain 9 1004 100 10000 1 0 01:18 02.11.2019
4909 Rain 9 1005 100 9000 2.6 150 00:42 02.11.2019
4910 Rain 9 1005 100 6000 1.5 130 00:21 02.11.2019
4911 Rain 9 1005 100 5000 1 0 23:42 01.11.2019
4912 Rain 9 1006 100 9000 1.5 220 23:20 01.11.2019
4913 Rain 9 1006 100 10000 0.5 0 22:43 01.11.2019
4914 Rain 9 1007 100 10000 0.5 0 22:21 01.11.2019
4915 Rain 9 1007 100 10000 0.5 0 22:21 01.11.2019
4916 Rain 9 1007 93 10000 2.1 130 21:56 01.11.2019
4917 Rain 9 1007 93 10000 2.1 130 21:38 01.11.2019
4918 Rain 9 1007 93 10000 2.1 120 21:19 01.11.2019
4919 Rain 8 1008 93 10000 2.1 150 20:55 01.11.2019
4920 Rain 8 1008 93 10000 2.1 150 20:36 01.11.2019
4921 Rain 8 1008 100 10000 3.1 140 20:18 01.11.2019
4922 Rain 8 1008 100 7000 2.6 130 19:41 01.11.2019
4923 Rain 8 1009 100 10000 1.5 170 19:22 01.11.2019
4924 Rain 8 1009 100 10000 1.5 170 19:22 01.11.2019
4925 Rain 8 1009 100 10000 1.5 170 18:58 01.11.2019
4926 Rain 8 1009 100 8000 1.5 170 18:39 01.11.2019
4927 Rain 8 1009 100 10000 1.5 140 18:18 01.11.2019
4928 Clouds 8 1009 100 10000 1.5 140 17:41 01.11.2019
4929 Clouds 9 1010 93 10000 0.5 0 17:23 01.11.2019
4930 Clouds 9 1010 93 10000 0.5 0 16:59 01.11.2019
4931 Clouds 9 1010 93 10000 1 60 16:37 01.11.2019
4932 Clouds 9 1010 93 10000 1 60 16:18 01.11.2019
4933 Clouds 9 1010 87 10000 1.5 60 15:41 01.11.2019
4934 Clouds 9 1011 93 10000 1.5 60 15:22 01.11.2019
4935 Clouds 9 1011 93 10000 1.5 60 14:58 01.11.2019
4936 Clouds 9 1011 87 10000 2.6 350 14:40 01.11.2019
4937 Clouds 9 1012 87 10000 1.5 40 14:21 01.11.2019
4938 Clouds 9 1012 87 10000 1 0 13:56 01.11.2019
4939 Clouds 9 1012 87 10000 1 0 13:37 01.11.2019
4940 Clouds 9 1013 93 10000 1 0 13:19 01.11.2019
4941 Clouds 8 1013 93 10000 1 0 12:43 01.11.2019
4942 Clouds 8 1013 93 10000 1 0 12:25 01.11.2019
4943 Clouds 7 1014 100 10000 1 0 11:55 01.11.2019
4944 Clouds 7 1014 100 10000 1 0 11:37 01.11.2019
4945 Clouds 6 1015 93 10000 1 0 11:18 01.11.2019
4946 Clouds 6 1015 100 10000 1 0 10:41 01.11.2019
4947 Clouds 5 1015 100 10000 1.5 110 10:21 01.11.2019
4948 Clouds 5 1015 100 10000 1.5 110 09:57 01.11.2019
4949 Clouds 5 1015 100 1800 1 0 09:57 01.11.2019
4950 Clouds 5 1015 100 1800 1 0 09:38 01.11.2019
4951 Clouds 4 1016 93 900 1 0 09:19 01.11.2019
4952 Rain 4 1016 100 1000 1 80 08:42 01.11.2019
4953 Rain 4 1016 100 1100 1.5 100 08:22 01.11.2019
4954 Rain 4 1016 100 1100 1.5 100 08:22 01.11.2019
4955 Rain 4 1016 100 1100 1.5 100 08:22 01.11.2019
4956 Rain 4 1016 100 1000 1.5 100 07:55 01.11.2019
4957 Clouds 4 1016 100 1000 1.5 100 07:37 01.11.2019
4958 Clouds 4 1016 100 1000 1 90 07:18 01.11.2019
4959 Clouds 3 1017 100 1300 1.5 90 06:40 01.11.2019
4960 Clouds 3 1017 100 1600 1.5 80 06:21 01.11.2019
4961 Clouds 3 1017 100 1500 2.1 80 05:43 01.11.2019
4962 Clouds 3 1018 100 1400 2.1 70 03:42 01.11.2019
4963 Clouds 3 1019 100 1400 2.1 90 02:47 01.11.2019
4964 Clouds 3 1019 100 1400 3.1 80 01:28 01.11.2019
4965 Clouds 3 1019 100 1100 3.1 80 00:39 01.11.2019
4966 Clouds 3 1019 100 1500 3.1 70 00:18 01.11.2019
4967 Clouds 4 1019 100 2000 2.6 60 23:42 31.10.2019
4968 Clouds 4 1020 100 1800 2.1 60 23:22 31.10.2019
4969 Clouds 4 1020 100 1800 2.1 60 22:54 31.10.2019
4970 Clouds 4 1020 100 2700 2.1 70 22:36 31.10.2019
4971 Clouds 4 1020 100 3800 2.1 90 22:18 31.10.2019
4972 Clouds 4 1020 100 4400 2.6 90 21:41 31.10.2019
4973 Clouds 4 1020 100 5000 2.6 100 21:20 31.10.2019
4974 Clouds 4 1020 100 5000 2.6 100 20:56 31.10.2019
4975 Clouds 4 1020 93 5000 3.1 100 20:37 31.10.2019
4976 Clouds 4 1020 93 6000 3.1 120 20:19 31.10.2019
4977 Clouds 4 1020 93 6000 3.1 110 19:40 31.10.2019
4978 Clouds 4 1020 93 6000 3.1 110 19:40 31.10.2019
4979 Mist 4 1020 93 5000 2.6 90 19:21 31.10.2019
4980 Mist 4 1020 93 5000 3.1 90 18:56 31.10.2019
4981 Mist 4 1020 93 5000 3.1 90 18:38 31.10.2019
4982 Mist 5 1020 93 5000 2.6 100 18:19 31.10.2019
4983 Mist 5 1020 93 5000 2.6 100 17:41 31.10.2019
4984 Clouds 5 1020 93 6000 2.6 90 17:22 31.10.2019
4985 Clouds 5 1020 93 6000 2.6 90 16:58 31.10.2019
4986 Clouds 5 1020 93 6000 3.6 80 16:40 31.10.2019
4987 Clouds 5 1020 93 6000 4.1 90 16:20 31.10.2019
4988 Clouds 5 1020 93 6000 4.1 90 15:56 31.10.2019
4989 Clouds 5 1020 93 6000 3.6 100 15:37 31.10.2019
4990 Clouds 6 1020 93 6000 3.6 80 15:19 31.10.2019
4991 Clouds 6 1020 93 6000 3.6 80 15:19 31.10.2019
4992 Clouds 6 1020 93 6000 3.6 80 15:19 31.10.2019
4993 Clouds 6 1020 93 6000 3.6 80 15:19 31.10.2019
4994 Clouds 6 1020 93 6000 2.6 90 14:55 31.10.2019
4995 Clouds 6 1020 93 6000 2.6 90 14:37 31.10.2019
4996 Mist 6 1020 93 5000 3.6 70 14:19 31.10.2019
4997 Mist 6 1020 93 5000 3.6 90 13:54 31.10.2019
4998 Mist 5 1020 93 5000 3.6 90 13:36 31.10.2019
4999 Mist 6 1021 93 5000 3.1 90 13:18 31.10.2019
5000 Mist 5 1021 100 4000 4.1 60 12:43 31.10.2019
5001 Mist 5 1021 100 2500 3.1 80 12:23 31.10.2019
5002 Mist 5 1021 100 2500 3.6 90 11:57 31.10.2019
5003 Mist 5 1021 100 2500 3.6 90 11:38 31.10.2019
5004 Mist 4 1021 100 2500 3.1 70 11:18 31.10.2019
5005 Mist 4 1021 100 2500 3.1 70 10:57 31.10.2019
5006 Clouds 4 1022 91 10000 3.6 80 10:38 31.10.2019
5007 Mist 4 1021 93 1600 2.6 120 10:19 31.10.2019
5008 Mist 3 1021 93 2000 3.1 70 09:42 31.10.2019
5009 Mist 3 1021 100 2500 2.6 80 09:18 31.10.2019
5010 Mist 2 1021 100 3400 3.1 100 08:54 31.10.2019
5011 Mist 2 1021 100 3400 3.1 100 08:34 31.10.2019
5012 Mist 2 1021 100 4000 2.6 70 07:58 31.10.2019
5013 Mist 2 1021 100 4000 2.6 70 07:39 31.10.2019
5014 Clouds 2 1021 100 6000 2.6 60 07:21 31.10.2019
5015 Clouds 2 1021 100 6000 2.1 80 06:39 31.10.2019
5016 Clouds 2 1021 93 6000 2.6 70 06:20 31.10.2019
5017 Rain 2 1021 93 6000 2.1 80 04:40 31.10.2019
5018 Rain 3 1022 100 6000 2.6 60 02:46 31.10.2019
5019 Rain 3 1022 100 7000 2.6 50 02:22 31.10.2019
5020 Rain 3 1022 93 6000 2.6 70 00:47 31.10.2019
5021 Rain 4 1022 93 7000 2.6 80 00:24 31.10.2019
5022 Rain 4 1022 93 7000 3.6 70 23:34 30.10.2019
5023 Rain 4 1023 93 7000 2.6 60 22:59 30.10.2019
5024 Rain 4 1023 86 10000 3.1 30 22:39 30.10.2019
5025 Rain 4 1023 93 10000 3.6 70 22:19 30.10.2019
5026 Rain 4 1023 86 10000 3.6 60 21:54 30.10.2019
5027 Rain 4 1023 86 10000 3.6 60 21:36 30.10.2019
5028 Rain 5 1022 86 10000 3.6 80 21:18 30.10.2019
5029 Rain 4 1022 86 10000 3.6 80 21:18 30.10.2019
5030 Rain 5 1022 86 10000 3.6 80 20:57 30.10.2019
5031 Rain 5 1022 86 10000 3.6 80 20:37 30.10.2019
5032 Clouds 5 1022 86 10000 3.6 90 20:19 30.10.2019
5033 Clouds 5 1023 86 10000 3.6 80 19:42 30.10.2019
5034 Rain 5 1024 80 10000 3.6 90 19:24 30.10.2019
5035 Clouds 5 1023 86 10000 4.6 60 18:59 30.10.2019
5036 Clouds 5 1023 86 10000 4.6 80 18:38 30.10.2019
5037 Clouds 5 1023 86 10000 5.1 80 18:19 30.10.2019
5038 Clouds 5 1023 86 10000 4.6 90 17:56 30.10.2019
5039 Clouds 5 1023 86 10000 4.6 90 17:37 30.10.2019
5040 Clouds 5 1023 86 10000 4.6 70 17:18 30.10.2019
5041 Clouds 5 1023 86 10000 4.6 70 17:18 30.10.2019
5042 Clouds 5 1023 86 10000 4.6 70 16:54 30.10.2019
5043 Clouds 5 1023 86 10000 5.7 70 16:36 30.10.2019
5044 Clouds 6 1023 86 10000 5.1 60 16:18 30.10.2019
5045 Clouds 6 1023 86 10000 3.6 70 15:41 30.10.2019
5046 Clouds 6 1023 86 10000 4.6 80 15:21 30.10.2019
5047 Clouds 6 1024 86 10000 5.1 70 14:59 30.10.2019
5048 Clouds 6 1024 86 10000 5.1 70 14:41 30.10.2019
5049 Clouds 6 1024 81 10000 5.1 70 14:22 30.10.2019
5050 Clouds 6 1024 86 10000 5.1 80 13:57 30.10.2019
5051 Clouds 6 1024 86 10000 5.1 80 13:39 30.10.2019
5052 Clouds 6 1024 81 10000 5.1 80 13:19 30.10.2019
5053 Clouds 6 1024 81 10000 5.1 80 12:56 30.10.2019
5054 Clouds 6 1024 81 10000 5.1 80 12:37 30.10.2019
5055 Clouds 6 1024 81 10000 4.6 80 12:18 30.10.2019
5056 Clouds 6 1024 86 10000 4.6 70 11:41 30.10.2019
5057 Clouds 6 1024 93 10000 4.6 90 11:21 30.10.2019
5058 Clouds 6 1024 86 10000 5.7 90 10:45 30.10.2019
5059 Clouds 6 1026 81 10000 5.1 90 10:24 30.10.2019
5060 Clouds 6 1024 93 9000 3.6 90 09:57 30.10.2019
5061 Clouds 5 1024 93 9000 3.6 90 09:39 30.10.2019
5062 Clouds 5 1024 93 8000 3.6 80 09:19 30.10.2019
5063 Clouds 5 1024 93 6000 3.1 70 08:40 30.10.2019
5064 Clouds 5 1024 93 7000 3.6 70 08:22 30.10.2019
5065 Clouds 5 1024 93 6000 2.6 60 07:51 30.10.2019
5066 Clouds 5 1024 93 6000 2.6 60 07:33 30.10.2019
5067 Rain 5 1023 93 8000 3.1 60 06:43 30.10.2019
5068 Rain 5 1023 93 8000 3.1 60 06:43 30.10.2019
5069 Rain 5 1023 93 10000 3.1 60 06:23 30.10.2019
5070 Rain 5 1023 93 10000 3.6 70 05:54 30.10.2019
5071 Rain 5 1023 93 10000 3.6 70 05:35 30.10.2019
5072 Rain 5 1023 93 8000 3.6 50 03:48 30.10.2019
5073 Rain 5 1023 93 10000 3.1 50 03:21 30.10.2019
5074 Rain 5 1023 93 10000 3.1 60 02:39 30.10.2019
5075 Rain 5 1023 93 10000 3.6 60 01:42 30.10.2019
5076 Rain 6 1023 93 7000 3.6 60 00:36 30.10.2019
5077 Rain 6 1023 93 10000 3.1 40 00:18 30.10.2019
5078 Rain 6 1023 93 9000 3.1 60 23:38 29.10.2019
5079 Rain 6 1023 100 8000 2.1 40 23:18 29.10.2019
5080 Rain 6 1023 100 10000 3.1 50 22:41 29.10.2019
5081 Rain 6 1023 93 10000 3.1 50 22:19 29.10.2019
5082 Rain 6 1023 87 10000 2.6 50 21:55 29.10.2019
5083 Rain 6 1023 87 10000 2.6 50 21:36 29.10.2019
5084 Rain 6 1023 93 7000 2.6 60 21:18 29.10.2019
5085 Clouds 6 1023 93 7000 3.1 60 20:42 29.10.2019
5086 Clouds 6 1022 93 8000 2.6 80 20:23 29.10.2019
5087 Clouds 6 1022 93 8000 2.6 80 19:59 29.10.2019
5088 Clouds 6 1022 93 8000 2.6 60 19:40 29.10.2019
5089 Clouds 6 1022 93 8000 2.6 70 19:21 29.10.2019
5090 Clouds 6 1022 93 7000 2.1 100 18:58 29.10.2019
5091 Clouds 6 1022 93 7000 2.1 100 18:40 29.10.2019
5092 Rain 6 1022 93 6000 2.6 60 18:20 29.10.2019
5093 Rain 6 1022 93 6000 2.6 60 17:57 29.10.2019
5094 Rain 6 1022 93 7000 2.1 60 17:39 29.10.2019
5095 Rain 7 1022 93 6000 2.1 80 17:21 29.10.2019
5096 Rain 7 1021 93 7000 2.6 80 16:57 29.10.2019
5097 Rain 7 1021 93 7000 2.6 80 16:38 29.10.2019
5098 Rain 7 1021 93 5000 3.1 80 16:18 29.10.2019
5099 Rain 7 1021 87 6000 3.1 50 15:42 29.10.2019
5100 Rain 7 1021 93 6000 3.1 80 15:22 29.10.2019
5101 Rain 7 1020 100 6000 2.6 60 14:59 29.10.2019
5102 Rain 7 1020 100 6000 2.6 60 14:41 29.10.2019
5103 Rain 7 1020 93 6000 3.1 50 14:23 29.10.2019
5104 Rain 7 1020 93 6000 3.1 50 13:57 29.10.2019
5105 Rain 7 1020 93 6000 3.1 70 13:39 29.10.2019
5106 Rain 7 1020 100 6000 3.1 60 13:21 29.10.2019
5107 Rain 7 1020 100 6000 4.1 40 12:43 29.10.2019
5108 Rain 7 1020 100 6000 3.1 50 12:25 29.10.2019
5109 Drizzle 7 1020 100 5000 4.1 40 11:55 29.10.2019
5110 Drizzle 7 1020 100 5000 4.1 40 11:37 29.10.2019
5111 Rain 7 1019 93 4500 3.6 40 11:18 29.10.2019
5112 Rain 7 1019 100 3000 3.1 40 10:57 29.10.2019
5113 Rain 7 1019 100 3000 3.1 40 10:38 29.10.2019
5114 Rain 7 1019 100 3500 3.1 50 10:19 29.10.2019
5115 Rain 7 1019 100 3000 4.1 40 09:42 29.10.2019
5116 Rain 7 1019 100 2800 4.1 30 09:23 29.10.2019
5117 Rain 7 1019 100 2800 4.1 30 08:57 29.10.2019
5118 Rain 6 1018 100 3000 3.6 20 08:39 29.10.2019
5119 Rain 6 1019 87 10000 3.1 50 08:20 29.10.2019
5120 Rain 6 1017 100 2500 3.6 40 07:48 29.10.2019
5121 Rain 6 1017 100 2500 2.6 20 07:21 29.10.2019
5122 Rain 6 1017 100 4500 2.6 20 06:54 29.10.2019
5123 Rain 6 1017 100 4500 2.6 20 06:31 29.10.2019
5124 Rain 6 1017 100 3400 2.6 10 05:59 29.10.2019
5125 Rain 6 1017 100 3400 2.6 10 05:39 29.10.2019
5126 Rain 6 1017 100 8000 2.6 20 04:52 29.10.2019
5127 Rain 7 1017 100 7000 2.1 20 03:31 29.10.2019
5128 Rain 7 1017 100 9000 2.6 20 01:57 29.10.2019
5129 Rain 7 1018 93 9000 2.6 20 01:36 29.10.2019
5130 Rain 7 1018 100 10000 2.1 30 00:54 29.10.2019
5131 Rain 7 1018 93 10000 2.6 20 00:26 29.10.2019
5132 Rain 7 1018 93 10000 2.6 30 23:40 28.10.2019
5133 Rain 7 1018 93 10000 2.6 20 23:20 28.10.2019
5134 Rain 7 1019 87 10000 2.6 20 22:57 28.10.2019
5135 Rain 8 1019 87 10000 2.6 20 22:36 28.10.2019
5136 Clouds 7 1019 87 10000 2.1 20 22:18 28.10.2019
5137 Clouds 8 1019 87 10000 2.1 40 21:54 28.10.2019
5138 Clouds 8 1019 87 10000 2.1 40 21:54 28.10.2019
5139 Clouds 8 1019 87 10000 2.1 40 21:36 28.10.2019
5140 Clouds 8 1019 87 10000 2.1 50 21:18 28.10.2019
5141 Clouds 7 1019 87 10000 2.1 30 20:42 28.10.2019
5142 Clouds 8 1019 87 10000 2.6 30 20:24 28.10.2019
5143 Clouds 8 1019 87 10000 2.6 30 20:24 28.10.2019
5144 Clouds 8 1019 87 10000 2.6 30 19:58 28.10.2019
5145 Clouds 8 1019 93 10000 3.6 20 19:39 28.10.2019
5146 Clouds 8 1019 93 10000 3.6 20 19:20 28.10.2019
5147 Clouds 8 1019 93 10000 3.6 20 18:58 28.10.2019
5148 Clouds 8 1019 93 10000 3.1 20 18:39 28.10.2019
5149 Rain 8 1019 93 10000 2.1 40 18:21 28.10.2019
5150 Clouds 8 1019 93 10000 2.1 40 18:21 28.10.2019
5151 Rain 8 1019 93 10000 1.5 60 17:56 28.10.2019
5152 Clouds 8 1019 93 10000 1.5 60 17:38 28.10.2019
5153 Clouds 8 1019 87 10000 2.6 30 17:19 28.10.2019
5154 Clouds 8 1020 81 10000 0.5 0 16:57 28.10.2019
5155 Clouds 8 1019 87 10000 3.1 20 16:39 28.10.2019
5156 Clouds 8 1020 93 10000 3.1 20 16:20 28.10.2019
5157 Rain 8 1020 87 10000 3.1 20 15:56 28.10.2019
5158 Rain 8 1020 87 10000 3.1 20 15:38 28.10.2019
5159 Rain 8 1020 87 10000 2.6 20 15:20 28.10.2019
5160 Clouds 8 1020 81 9000 3.1 20 14:56 28.10.2019
5161 Clouds 8 1020 81 9000 3.1 20 14:38 28.10.2019
5162 Clouds 8 1020 87 9000 2.6 10 14:18 28.10.2019
5163 Rain 8 1020 93 8000 2.6 30 13:54 28.10.2019
5164 Rain 8 1020 93 8000 2.6 30 13:36 28.10.2019
5165 Rain 8 1020 93 7000 3.6 10 13:18 28.10.2019
5166 Rain 8 1021 93 6000 3.6 360 12:41 28.10.2019
5167 Rain 8 1021 100 6000 3.6 10 12:20 28.10.2019
5168 Rain 8 1021 100 7000 2.6 20 11:40 28.10.2019
5169 Rain 8 1021 100 7000 3.1 20 11:22 28.10.2019
5170 Rain 8 1021 100 7000 3.1 20 10:58 28.10.2019
5171 Rain 8 1021 93 7000 3.1 10 10:39 28.10.2019
5172 Rain 7 1021 100 7000 3.1 10 10:20 28.10.2019
5173 Rain 7 1021 100 5000 2.6 360 09:57 28.10.2019
5174 Rain 7 1021 100 5000 2.6 360 09:38 28.10.2019
5175 Rain 7 1021 100 7000 3.6 10 09:19 28.10.2019
5176 Rain 7 1021 93 7000 3.1 360 08:56 28.10.2019
5177 Rain 7 1021 93 7000 3.1 360 08:56 28.10.2019
5178 Rain 7 1021 93 7000 3.1 360 08:37 28.10.2019
5179 Rain 7 1021 100 6000 3.6 360 08:18 28.10.2019
5180 Rain 7 1021 93 6000 3.1 350 07:55 28.10.2019
5181 Rain 7 1021 93 6000 3.1 350 07:36 28.10.2019
5182 Rain 7 1021 100 8000 2.6 330 07:18 28.10.2019
5183 Rain 8 1020 100 10000 4.1 360 06:39 28.10.2019
5184 Rain 9 1020 93 10000 5.7 350 05:34 28.10.2019
5185 Rain 11 1020 100 5000 2.1 210 03:45 28.10.2019
5186 Rain 12 1020 93 6000 1.5 270 02:46 28.10.2019
5187 Rain 12 1020 93 10000 1 0 01:52 28.10.2019
5188 Clouds 12 1021 93 10000 0.5 110 00:53 28.10.2019
5189 Clouds 13 1021 87 10000 1.5 310 00:32 28.10.2019
5190 Clouds 13 1021 82 10000 1 0 23:47 27.10.2019
5191 Clouds 13 1021 82 10000 1.5 300 23:23 27.10.2019
5192 Clouds 13 1021 82 10000 1.5 300 23:23 27.10.2019
5193 Clouds 13 1020 76 10000 2.1 300 22:58 27.10.2019
5194 Clouds 13 1020 76 10000 1.5 310 22:58 27.10.2019
5195 Clouds 13 1020 76 10000 2.1 300 22:39 27.10.2019
5196 Clouds 13 1020 76 10000 2.1 260 22:21 27.10.2019
5197 Clouds 13 1020 76 10000 2.1 260 21:57 27.10.2019
5198 Clouds 13 1020 82 10000 2.6 240 21:39 27.10.2019
5199 Clouds 12 1020 82 10000 2.6 230 21:21 27.10.2019
5200 Clouds 12 1020 81 10000 2.6 220 20:56 27.10.2019
5201 Clouds 12 1020 81 10000 2.6 220 20:38 27.10.2019
5202 Clouds 13 1020 81 10000 1.5 200 20:20 27.10.2019
5203 Clouds 13 1020 81 10000 2.1 210 19:55 27.10.2019
5204 Clouds 13 1020 81 10000 2.1 210 19:36 27.10.2019
5205 Clouds 13 1020 82 10000 2.1 240 19:18 27.10.2019
5206 Clouds 14 1020 82 10000 2.6 250 18:55 27.10.2019
5207 Clouds 14 1020 82 10000 2.6 250 18:36 27.10.2019
5208 Clouds 15 1020 76 10000 1.5 250 18:18 27.10.2019
5209 Clouds 16 1020 72 10000 2.6 260 17:40 27.10.2019
5210 Clouds 17 1020 63 10000 1.5 290 17:19 27.10.2019
5211 Clouds 17 1020 63 10000 1.5 290 17:19 27.10.2019
5212 Clouds 17 1020 63 10000 1.5 290 16:58 27.10.2019
5213 Clouds 18 1020 55 10000 3.1 260 16:39 27.10.2019
5214 Clouds 19 1020 55 10000 3.6 280 16:21 27.10.2019
5215 Clouds 19 1020 55 10000 3.6 280 15:56 27.10.2019
5216 Clouds 19 1020 55 10000 3.1 270 15:38 27.10.2019
5217 Clouds 20 1020 49 10000 4.6 290 15:20 27.10.2019
5218 Clouds 19 1020 49 10000 5.1 280 14:43 27.10.2019
5219 Clear 20 1020 46 10000 6.7 260 14:23 27.10.2019
5220 Clear 20 1020 46 10000 6.7 260 13:58 27.10.2019
5221 Clear 20 1020 46 10000 5.7 240 13:40 27.10.2019
5222 Clear 20 1020 46 10000 5.7 250 13:21 27.10.2019
5223 Clear 20 1020 46 10000 5.7 250 12:59 27.10.2019
5224 Clear 20 1021 52 10000 6.2 240 12:41 27.10.2019
5225 Clear 20 1021 52 10000 5.7 240 12:23 27.10.2019
5226 Clear 19 1021 56 10000 5.1 220 11:42 27.10.2019
5227 Clear 19 1021 55 10000 5.7 250 11:24 27.10.2019
5228 Clear 17 1021 59 10000 5.1 220 10:56 27.10.2019
5229 Clear 17 1021 59 10000 5.1 220 10:38 27.10.2019
5230 Clear 16 1021 59 10000 4.1 230 10:19 27.10.2019
5231 Clear 15 1022 67 10000 4.1 220 09:43 27.10.2019
5232 Clear 13 1021 71 10000 4.1 220 09:19 27.10.2019
5233 Clear 12 1021 76 10000 4.6 220 08:57 27.10.2019
5234 Clear 10 1021 76 10000 4.6 220 08:37 27.10.2019
5235 Clear 11 1021 76 10000 4.6 220 08:37 27.10.2019
5236 Clear 9 1021 76 10000 4.6 220 08:19 27.10.2019
5237 Clear 9 1021 76 10000 4.6 220 08:19 27.10.2019
5238 Clear 9 1021 76 10000 5.1 210 07:46 27.10.2019
5239 Clear 9 1021 76 10000 5.1 210 07:46 27.10.2019
5240 Clear 8 1021 100 10000 1 220 07:27 27.10.2019
5241 Clear 8 1020 76 10000 4.6 210 06:55 27.10.2019
5242 Clear 8 1021 81 10000 5.1 220 06:29 27.10.2019
5243 Clear 8 1021 81 10000 5.1 220 05:57 27.10.2019
5244 Clear 7 1021 87 10000 4.1 210 05:57 27.10.2019
5245 Clear 8 1021 87 10000 4.1 210 05:35 27.10.2019
5246 Clear 8 1021 81 10000 1.5 210 04:25 27.10.2019
5247 Clear 8 1021 81 10000 0.5 0 02:41 27.10.2019
5248 Clear 9 1021 87 10000 3.6 220 01:28 27.10.2019
5249 Clear 9 1021 87 10000 4.1 220 00:55 27.10.2019
5250 Clear 9 1021 87 10000 4.1 220 00:36 27.10.2019
5251 Clear 9 1021 81 10000 5.1 210 23:58 26.10.2019
5252 Clear 9 1021 81 10000 5.1 210 23:40 26.10.2019
5253 Clear 10 1021 87 10000 3.6 210 23:21 26.10.2019
5254 Clear 10 1021 87 10000 3.6 210 22:58 26.10.2019
5255 Clear 10 1021 81 10000 3.1 210 22:58 26.10.2019
5256 Clear 10 1021 81 10000 3.1 210 22:39 26.10.2019
5257 Clear 10 1021 87 10000 1 0 22:19 26.10.2019
5258 Clear 10 1021 87 10000 1 0 21:58 26.10.2019
5259 Clear 10 1021 87 10000 1.5 220 21:40 26.10.2019
5260 Clear 11 1021 93 10000 1.5 170 21:19 26.10.2019
5261 Clear 11 1021 81 10000 1.5 200 20:45 26.10.2019
5262 Clear 11 1021 81 10000 1.5 200 20:45 26.10.2019
5263 Clear 12 1021 87 10000 2.1 150 20:20 26.10.2019
5264 Clear 12 1021 87 10000 1.5 160 19:56 26.10.2019
5265 Clear 13 1021 87 10000 1.5 160 19:38 26.10.2019
5266 Clear 14 1021 87 10000 1.5 170 19:19 26.10.2019
5267 Clear 13 1021 87 10000 1.5 170 19:19 26.10.2019
5268 Clear 14 1021 82 10000 2.1 170 18:55 26.10.2019
5269 Clear 14 1021 82 10000 2.1 170 18:37 26.10.2019
5270 Clear 17 1021 72 10000 1.5 170 18:18 26.10.2019
5271 Clear 17 1021 72 10000 1.5 170 18:18 26.10.2019
5272 Clear 18 1020 63 10000 1.5 200 17:39 26.10.2019
5273 Clear 19 1020 60 10000 2.1 210 17:21 26.10.2019
5274 Clear 19 1020 56 10000 2.1 200 16:59 26.10.2019
5275 Clear 19 1020 56 10000 2.1 200 16:41 26.10.2019
5276 Clear 19 1020 56 10000 2.1 200 16:41 26.10.2019
5277 Clear 19 1020 52 10000 1.5 200 16:22 26.10.2019
5278 Clear 19 1021 56 10000 1 0 15:41 26.10.2019
5279 Clear 19 1021 56 10000 0.5 0 15:20 26.10.2019
5280 Clear 19 1021 59 10000 1 0 14:54 26.10.2019
5281 Clear 19 1021 59 10000 1 0 14:36 26.10.2019
5282 Clear 19 1021 55 10000 1 0 14:18 26.10.2019
5283 Clear 19 1021 59 0 0.94 203 13:41 26.10.2019
5284 Clear 17 1022 63 10000 1.5 250 13:21 26.10.2019
5285 Clear 17 1022 72 10000 1.5 210 12:49 26.10.2019
5286 Clear 15 1022 71 8000 2.6 220 12:25 26.10.2019
5287 Clear 12 1023 87 10000 2.1 230 11:56 26.10.2019
5288 Clear 11 1023 87 10000 2.1 230 11:36 26.10.2019
5289 Clear 12 1023 87 10000 2.1 230 11:18 26.10.2019
5290 Clear 9 1023 100 10000 1 0 10:42 26.10.2019
5291 Clear 8 1023 100 10000 2.6 220 10:23 26.10.2019
5292 Clear 7 1023 100 10000 2.1 190 09:48 26.10.2019
5293 Clear 6 1022 100 8000 1 200 09:27 26.10.2019
5294 Clear 6 1022 93 3900 1 190 08:44 26.10.2019
5295 Clear 6 1022 100 1600 3.1 220 08:25 26.10.2019
5296 Clear 6 1022 100 1200 3.1 220 07:56 26.10.2019
5297 Clear 5 1022 100 1200 3.1 220 07:31 26.10.2019
5298 Clear 6 1022 100 900 1 0 06:48 26.10.2019
5299 Clouds 6 1022 100 550 3.1 210 06:29 26.10.2019
5300 Clear 5 1022 93 500 1.5 210 05:21 26.10.2019
5301 Clouds 5 1022 93 450 2.1 180 04:44 26.10.2019
5302 Clear 6 1022 100 1700 0.5 0 03:24 26.10.2019
5303 Clear 6 1023 100 7000 1 0 02:18 26.10.2019
5304 Clear 6 1023 100 9000 1 200 01:42 26.10.2019
5305 Clear 7 1023 100 10000 2.6 160 00:31 26.10.2019
5306 Clear 8 1023 93 10000 1 0 23:47 25.10.2019
5307 Clear 8 1024 100 10000 1 190 23:21 25.10.2019
5308 Clear 8 1024 100 10000 1 190 22:56 25.10.2019
5309 Clear 9 1024 100 10000 0.5 0 22:38 25.10.2019
5310 Clear 9 1024 93 10000 1 160 22:20 25.10.2019
5311 Clear 9 1024 93 10000 1 160 21:55 25.10.2019
5312 Clear 9 1024 93 10000 1 0 21:37 25.10.2019
5313 Clouds 10 1024 100 10000 1.5 40 21:18 25.10.2019
5314 Clouds 10 1024 100 10000 2.1 140 20:42 25.10.2019
5315 Clouds 11 1024 93 10000 2.1 160 20:19 25.10.2019
5316 Clouds 11 1024 87 10000 1.5 140 19:47 25.10.2019
5317 Clouds 12 1024 87 10000 1.5 140 19:27 25.10.2019
5318 Clouds 13 1024 81 10000 1 230 18:55 25.10.2019
5319 Clouds 15 1023 67 10000 1.5 240 18:37 25.10.2019
5320 Clouds 15 1023 67 10000 1.5 240 18:18 25.10.2019
5321 Clouds 16 1023 67 10000 1 0 17:39 25.10.2019
5322 Clouds 17 1023 59 10000 2.1 240 17:18 25.10.2019
5323 Clouds 17 1023 59 10000 2.1 180 16:46 25.10.2019
5324 Clouds 17 1023 55 10000 2.1 180 16:22 25.10.2019
5325 Clouds 18 1023 63 10000 0.5 0 15:56 25.10.2019
5326 Clouds 18 1023 63 10000 0.5 0 15:38 25.10.2019
5327 Clouds 17 1023 59 10000 0.69 285 15:19 25.10.2019
5328 Clouds 17 1024 63 10000 1.5 0 14:42 25.10.2019
5329 Clouds 17 1024 67 10000 2.1 300 14:23 25.10.2019
5330 Clouds 17 1024 67 10000 2.1 300 13:57 25.10.2019
5331 Clouds 16 1024 72 10000 2.1 270 13:38 25.10.2019
5332 Clouds 16 1024 72 10000 2.1 270 13:38 25.10.2019
5333 Clouds 16 1024 77 10000 3.1 240 13:20 25.10.2019
5334 Clouds 15 1024 72 10000 3.1 270 12:43 25.10.2019
5335 Rain 15 1024 76 10000 3.1 240 12:22 25.10.2019
5336 Rain 14 1024 76 10000 3.1 240 11:59 25.10.2019
5337 Rain 13 1024 82 10000 3.1 240 11:38 25.10.2019
5338 Clouds 13 1024 82 10000 3.1 230 11:19 25.10.2019
5339 Clouds 13 1024 87 10000 2.6 220 10:41 25.10.2019
5340 Clouds 13 1023 87 10000 3.6 240 10:23 25.10.2019
5341 Clouds 13 1023 87 10000 3.6 240 09:59 25.10.2019
5342 Clouds 12 1023 87 10000 3.6 210 09:39 25.10.2019
5343 Clouds 12 1023 87 10000 4.1 230 09:20 25.10.2019
5344 Clouds 12 1022 93 10000 3.6 220 08:51 25.10.2019
5345 Clouds 12 1022 93 10000 3.6 220 08:51 25.10.2019
5346 Clouds 12 1022 93 10000 3.6 220 08:33 25.10.2019
5347 Clouds 12 1021 87 10000 2.1 190 07:58 25.10.2019
5348 Clouds 12 1021 87 10000 2.1 190 07:40 25.10.2019
5349 Clouds 12 1021 93 10000 2.6 220 07:22 25.10.2019
5350 Clouds 12 1021 93 10000 3.1 230 06:36 25.10.2019
5351 Clouds 11 1020 93 10000 4.6 230 05:48 25.10.2019
5352 Clouds 12 1020 93 10000 3.6 220 05:28 25.10.2019
5353 Clouds 12 1019 93 10000 2.1 220 04:19 25.10.2019
5354 Clouds 11 1019 100 10000 3.1 220 02:35 25.10.2019
5355 Clouds 11 1018 93 10000 2.6 210 01:52 25.10.2019
5356 Clouds 11 1017 100 8000 3.6 230 00:34 25.10.2019
5357 Clouds 11 1017 100 10000 3.6 230 23:43 24.10.2019
5358 Clouds 11 1017 100 8000 2.1 170 23:24 24.10.2019
5359 Clouds 11 1017 100 8000 2.1 170 22:59 24.10.2019
5360 Clouds 11 1016 100 6000 2.1 150 22:39 24.10.2019
5361 Clouds 11 1016 100 7000 2.1 160 22:19 24.10.2019
5362 Clouds 11 1016 93 10000 2.1 230 21:57 24.10.2019
5363 Clouds 11 1016 93 10000 2.1 230 21:57 24.10.2019
5364 Clouds 12 1016 93 10000 2.1 230 21:38 24.10.2019
5365 Clouds 12 1016 100 10000 3.1 230 21:20 24.10.2019
5366 Clouds 12 1016 100 10000 3.1 230 20:59 24.10.2019
5367 Clouds 12 1016 100 10000 2.6 230 20:39 24.10.2019
5368 Clouds 12 1016 93 10000 2.1 230 20:21 24.10.2019
5369 Clouds 12 1015 93 10000 3.6 240 19:56 24.10.2019
5370 Clouds 12 1015 93 10000 3.6 240 19:37 24.10.2019
5371 Clouds 12 1015 93 10000 2.6 250 19:19 24.10.2019
5372 Clouds 13 1014 93 7000 2.6 260 18:56 24.10.2019
5373 Clouds 13 1014 87 10000 2.6 260 18:38 24.10.2019
5374 Clouds 13 1014 87 10000 1.5 270 18:18 24.10.2019
5375 Clouds 14 1013 87 10000 2.1 280 17:42 24.10.2019
5376 Clouds 14 1013 87 10000 2.1 260 17:20 24.10.2019
5377 Clouds 15 1013 87 10000 2.1 260 16:58 24.10.2019
5378 Clouds 15 1013 82 10000 2.1 250 16:40 24.10.2019
5379 Clouds 15 1012 82 10000 2.1 260 16:22 24.10.2019
5380 Clouds 15 1012 82 10000 2.1 300 15:58 24.10.2019
5381 Clouds 15 1012 82 10000 2.1 300 15:58 24.10.2019
5382 Clouds 15 1012 82 10000 2.1 300 15:40 24.10.2019
5383 Clouds 15 1012 82 10000 2.1 310 15:22 24.10.2019
5384 Clouds 15 1012 82 10000 2.1 310 15:22 24.10.2019
5385 Clouds 15 1012 82 10000 2.1 310 14:58 24.10.2019
5386 Clouds 15 1012 82 10000 2.6 330 14:40 24.10.2019
5387 Clouds 15 1012 82 10000 3.6 320 14:20 24.10.2019
5388 Clouds 15 1012 77 10000 2.6 300 13:42 24.10.2019
5389 Clouds 14 1012 87 10000 1.5 330 13:20 24.10.2019
5390 Clouds 14 1012 100 6000 3.1 280 12:58 24.10.2019
5391 Clouds 13 1012 87 10000 1.5 240 12:40 24.10.2019
5392 Clouds 12 1012 87 10000 2.1 170 12:20 24.10.2019
5393 Clouds 11 1012 93 10000 1.5 190 11:57 24.10.2019
5394 Clouds 11 1012 93 10000 1.5 190 11:39 24.10.2019
5395 Clouds 11 1012 100 10000 2.6 200 11:20 24.10.2019
5396 Clouds 11 1012 100 10000 2.6 200 10:59 24.10.2019
5397 Clouds 11 1012 100 10000 2.1 230 10:41 24.10.2019
5398 Clouds 10 1012 100 10000 2.1 230 10:41 24.10.2019
5399 Clouds 10 1012 100 10000 1.5 300 10:22 24.10.2019
5400 Clear 9 1012 100 10000 1.5 150 09:39 24.10.2019
5401 Rain 9 1012 100 10000 1 0 09:19 24.10.2019
5402 Rain 8 1012 93 10000 2.1 180 08:56 24.10.2019
5403 Rain 8 1012 93 10000 2.1 180 08:38 24.10.2019
5404 Clouds 8 1011 100 10000 1 0 08:18 24.10.2019
5405 Fog 8 1011 100 8000 1.5 160 07:46 24.10.2019
5406 Clouds 8 1011 100 10000 1.5 240 07:23 24.10.2019
5407 Clouds 8 1011 100 7000 2.1 250 06:48 24.10.2019
5408 Clouds 8 1011 100 7000 2.1 250 06:26 24.10.2019
5409 Clouds 8 1010 100 700 0.5 0 05:52 24.10.2019
5410 Clouds 8 1010 100 700 0.5 0 05:30 24.10.2019
5411 Fog 9 1011 100 150 0.5 60 03:51 24.10.2019
5412 Clouds 8 1011 100 550 0.5 0 03:26 24.10.2019
5413 Clouds 9 1011 100 300 0.5 0 02:29 24.10.2019
5414 Clouds 9 1012 100 900 1 0 01:59 24.10.2019
5415 Clouds 9 1012 100 900 1 0 01:30 24.10.2019
5416 Clouds 9 1012 100 600 1.5 210 00:51 24.10.2019
5417 Fog 9 1012 100 400 1.77 165 00:23 24.10.2019
5418 Clouds 9 1012 100 1500 1 0 23:44 23.10.2019
5419 Clouds 9 1013 93 350 1 0 23:25 23.10.2019
5420 Clouds 9 1013 93 350 1 0 22:58 23.10.2019
5421 Clouds 9 1013 100 900 1.5 110 22:39 23.10.2019
5422 Clouds 9 1013 100 900 1.5 110 22:39 23.10.2019
5423 Clouds 9 1013 100 4500 2.6 70 22:19 23.10.2019
5424 Clouds 9 1013 100 4500 2.6 70 21:58 23.10.2019
5425 Clouds 10 1013 100 6000 3.6 100 21:40 23.10.2019
5426 Clouds 10 1013 100 6000 3.6 100 21:40 23.10.2019
5427 Clouds 10 1013 100 6000 3.6 100 21:40 23.10.2019
5428 Clouds 10 1014 100 4700 1.5 50 21:21 23.10.2019
5429 Clouds 10 1014 93 4700 2.6 40 20:59 23.10.2019
5430 Clouds 11 1014 93 4700 2.6 40 20:40 23.10.2019
5431 Clouds 11 1014 100 6000 1.5 30 20:21 23.10.2019
5432 Clouds 11 1014 100 6000 1.5 30 20:21 23.10.2019
5433 Clouds 12 1014 100 6000 1.5 30 19:59 23.10.2019
5434 Mist 12 1014 93 5000 2.1 40 19:41 23.10.2019
5435 Clouds 12 1014 100 6000 2.6 30 19:19 23.10.2019
5436 Clouds 12 1015 93 7000 1 0 18:57 23.10.2019
5437 Clouds 13 1015 93 7000 1 0 18:38 23.10.2019
5438 Clouds 13 1014 87 10000 3.6 20 18:19 23.10.2019
5439 Clouds 13 1014 87 10000 3.6 20 18:19 23.10.2019
5440 Clouds 14 1014 82 10000 3.6 40 17:46 23.10.2019
5441 Clouds 15 1014 77 10000 4.1 20 17:21 23.10.2019
5442 Clouds 15 1014 77 10000 4.1 20 16:59 23.10.2019
5443 Clouds 15 1015 77 10000 4.1 20 16:40 23.10.2019
5444 Clouds 15 1015 77 10000 4.1 20 16:40 23.10.2019
5445 Clouds 15 1015 87 10000 3.6 90 16:20 23.10.2019
5446 Clouds 15 1015 72 10000 3.6 30 15:57 23.10.2019
5447 Clouds 16 1015 72 10000 3.6 30 15:38 23.10.2019
5448 Clear 16 1015 72 10000 3.6 60 15:20 23.10.2019
5449 Clear 15 1016 72 10000 4.1 40 14:56 23.10.2019
5450 Clear 15 1016 72 10000 4.1 40 14:37 23.10.2019
5451 Clear 15 1016 72 10000 3.1 50 14:18 23.10.2019
5452 Clear 14 1016 76 10000 4.1 40 13:42 23.10.2019
5453 Clouds 14 1017 82 10000 3.6 40 13:24 23.10.2019
5454 Clouds 14 1017 82 10000 3.6 40 12:57 23.10.2019
5455 Clouds 13 1017 82 10000 3.1 80 12:38 23.10.2019
5456 Clouds 12 1017 93 7000 3.1 90 12:19 23.10.2019
5457 Clouds 12 1017 87 7000 3.6 70 11:58 23.10.2019
5458 Clouds 11 1018 93 6000 2.6 80 11:39 23.10.2019
5459 Mist 11 1018 93 4000 2.6 60 11:21 23.10.2019
5460 Mist 11 1018 100 2500 2.6 100 10:55 23.10.2019
5461 Mist 11 1018 100 2500 2.6 100 10:37 23.10.2019
5462 Mist 11 1018 100 2000 2.1 130 10:18 23.10.2019
5463 Mist 11 1018 100 2000 2.1 130 10:18 23.10.2019
5464 Mist 10 1018 100 1100 2.1 90 09:40 23.10.2019
5465 Mist 10 1018 100 1400 3.1 110 09:22 23.10.2019
5466 Mist 10 1018 100 1000 2.6 90 08:54 23.10.2019
5467 Mist 10 1018 100 1000 2.6 90 08:36 23.10.2019
5468 Mist 10 1018 100 1200 2.6 100 08:18 23.10.2019
5469 Mist 10 1018 100 1000 2.6 70 07:41 23.10.2019
5470 Mist 10 1018 100 1200 3.1 70 07:19 23.10.2019
5471 Clouds 10 1019 100 1200 3.1 90 06:41 23.10.2019
5472 Clouds 11 1019 100 1000 2.1 80 06:19 23.10.2019
5473 Clouds 11 1019 100 1000 3.1 80 05:19 23.10.2019
5474 Clouds 11 1020 100 3500 2.1 100 03:47 23.10.2019
5475 Clouds 11 1021 100 3300 2.1 110 02:43 23.10.2019
5476 Clouds 11 1021 93 2400 1.5 90 01:40 23.10.2019
5477 Clouds 11 1021 93 2400 1.5 90 01:40 23.10.2019
5478 Clouds 12 1022 93 1800 1 0 01:18 23.10.2019
5479 Clouds 11 1022 93 4100 1 0 00:34 23.10.2019
5480 Clouds 12 1022 93 4600 1.5 70 23:56 22.10.2019
5481 Clouds 12 1022 93 5000 1 120 23:37 22.10.2019
5482 Clouds 11 1022 100 5000 1.5 120 23:18 22.10.2019
5483 Clouds 12 1022 100 5000 2.1 110 22:41 22.10.2019
5484 Clouds 12 1022 100 5000 2.1 110 22:41 22.10.2019
5485 Clouds 12 1022 100 5000 2.1 110 22:41 22.10.2019
5486 Clouds 12 1022 93 5000 2.1 50 22:23 22.10.2019
5487 Clouds 12 1022 100 5000 0.9 130 21:57 22.10.2019
5488 Clouds 12 1022 100 5000 0.99 84 21:39 22.10.2019
5489 Clouds 12 1022 100 5000 1 0 21:19 22.10.2019
5490 Mist 12 1023 93 5000 1.5 100 20:59 22.10.2019
5491 Mist 12 1023 93 5000 1.5 100 20:41 22.10.2019
5492 Mist 12 1023 100 4500 1.5 60 20:23 22.10.2019
5493 Mist 12 1023 100 4100 1.5 80 19:59 22.10.2019
5494 Mist 12 1023 100 4100 1.5 80 19:41 22.10.2019
5495 Mist 12 1023 100 4600 2.1 70 19:23 22.10.2019
5496 Mist 12 1023 93 5000 1 0 18:56 22.10.2019
5497 Mist 13 1023 93 5000 1 0 18:38 22.10.2019
5498 Mist 13 1023 93 3800 1 0 18:20 22.10.2019
5499 Mist 13 1023 93 5000 1.5 20 17:56 22.10.2019
5500 Mist 14 1023 93 5000 1.5 20 17:37 22.10.2019
5501 Mist 14 1023 93 4400 1.5 40 17:18 22.10.2019
5502 Mist 14 1023 93 3900 1 0 16:55 22.10.2019
5503 Mist 14 1023 93 3900 1 0 16:36 22.10.2019
5504 Mist 14 1023 93 4100 2.6 60 16:18 22.10.2019
5505 Mist 14 1023 93 5000 2.1 360 15:42 22.10.2019
5506 Mist 15 1023 93 5000 2.1 330 15:20 22.10.2019
5507 Mist 14 1023 93 5000 1.5 310 14:50 22.10.2019
5508 Mist 14 1024 93 5000 1 0 14:23 22.10.2019
5509 Mist 14 1024 93 5000 1 0 13:59 22.10.2019
5510 Mist 14 1024 93 5000 2.1 330 13:41 22.10.2019
5511 Mist 14 1024 100 5000 1.5 20 13:19 22.10.2019
5512 Mist 13 1024 93 3000 1 0 12:56 22.10.2019
5513 Mist 13 1024 93 2000 1 0 12:38 22.10.2019
5514 Mist 12 1024 100 5000 0.5 0 12:19 22.10.2019
5515 Mist 12 1024 100 3300 0.5 0 11:41 22.10.2019
5516 Mist 11 1023 93 1100 1.5 340 11:22 22.10.2019
5517 Mist 11 1023 93 1100 1.5 340 10:59 22.10.2019
5518 Mist 11 1023 100 1900 1.5 10 10:38 22.10.2019
5519 Mist 11 1023 93 1600 1 0 10:19 22.10.2019
5520 Fog 10 1023 100 700 1 0 09:59 22.10.2019
5521 Mist 10 1023 100 2800 1.05 350 09:41 22.10.2019
5522 Mist 10 1023 100 4800 0.76 349 09:21 22.10.2019
5523 Mist 9 1023 100 3800 1 230 08:57 22.10.2019
5524 Mist 9 1023 100 3800 1 230 08:39 22.10.2019
5525 Fog 8 1023 100 800 2.1 180 08:18 22.10.2019
5526 Fog 8 1023 100 650 0.76 349 07:44 22.10.2019
5527 Fog 8 1023 100 500 2.1 200 07:24 22.10.2019
5528 Clouds 9 1023 100 350 0.5 0 06:44 22.10.2019
5529 Clouds 9 1023 100 400 2.6 220 06:25 22.10.2019
5530 Clouds 9 1023 100 4900 2.1 230 05:40 22.10.2019
5531 Clouds 10 1023 100 6000 2.1 230 04:50 22.10.2019
5532 Clouds 10 1023 93 6000 2.6 230 02:31 22.10.2019
5533 Clouds 11 1023 93 10000 2.1 230 01:39 22.10.2019
5534 Clouds 11 1023 100 10000 3.1 230 01:19 22.10.2019
5535 Clouds 11 1023 100 10000 2.1 230 00:42 22.10.2019
5536 Clouds 11 1022 100 10000 2.6 220 00:24 22.10.2019
5537 Clouds 11 1022 100 10000 2.1 180 23:59 21.10.2019
5538 Clouds 11 1022 100 10000 2.1 180 23:38 21.10.2019
5539 Clouds 11 1022 100 10000 1.5 240 23:19 21.10.2019
5540 Clouds 11 1022 100 10000 1.5 240 22:59 21.10.2019
5541 Clouds 11 1022 100 10000 2.1 230 22:39 21.10.2019
5542 Clouds 11 1022 93 10000 0.5 0 22:20 21.10.2019
5543 Clouds 11 1022 93 10000 0.5 0 21:58 21.10.2019
5544 Clouds 11 1022 93 10000 1.5 250 21:39 21.10.2019
5545 Clouds 12 1021 93 10000 1 0 21:20 21.10.2019
5546 Clouds 12 1021 93 10000 1 0 20:58 21.10.2019
5547 Clouds 12 1021 93 10000 1 340 20:39 21.10.2019
5548 Clouds 12 1021 93 10000 1 0 20:20 21.10.2019
5549 Clouds 12 1021 93 10000 1 0 20:20 21.10.2019
5550 Clouds 13 1021 93 10000 0.5 0 19:57 21.10.2019
5551 Clouds 13 1021 93 10000 0.5 0 19:39 21.10.2019
5552 Clouds 13 1021 87 10000 2.6 20 19:21 21.10.2019
5553 Clouds 14 1021 87 10000 2.6 20 18:55 21.10.2019
5554 Clouds 15 1020 82 10000 2.6 30 18:37 21.10.2019
5555 Clouds 15 1020 82 10000 2.6 10 18:18 21.10.2019
5556 Clouds 16 1020 82 10000 2.6 10 17:55 21.10.2019
5557 Clouds 16 1020 77 10000 2.1 360 17:37 21.10.2019
5558 Clouds 17 1020 77 10000 2.6 320 17:18 21.10.2019
5559 Clouds 17 1020 82 10000 3.1 330 16:55 21.10.2019
5560 Clouds 17 1020 82 10000 3.1 330 16:37 21.10.2019
5561 Clouds 17 1020 77 10000 3.1 330 16:18 21.10.2019
5562 Clouds 17 1020 72 10000 3.1 360 15:42 21.10.2019
5563 Clouds 17 1020 77 10000 2.1 350 15:23 21.10.2019
5564 Clouds 17 1020 77 10000 2.1 350 14:56 21.10.2019
5565 Clouds 16 1020 77 10000 1.5 100 14:37 21.10.2019
5566 Clouds 16 1020 77 10000 2.1 20 14:18 21.10.2019
5567 Clouds 16 1020 77 10000 2.1 340 13:55 21.10.2019
5568 Clouds 16 1020 77 10000 2.1 340 13:37 21.10.2019
5569 Clouds 15 1020 82 10000 1.5 300 13:18 21.10.2019
5570 Clouds 14 1020 82 10000 2.1 0 12:41 21.10.2019
5571 Rain 13 1020 87 10000 1.5 170 12:22 21.10.2019
5572 Rain 13 1020 87 10000 1.5 170 11:55 21.10.2019
5573 Rain 13 1019 93 10000 1.5 170 11:37 21.10.2019
5574 Rain 13 1019 87 10000 1.5 200 11:19 21.10.2019
5575 Rain 13 1018 87 10000 2.6 260 10:55 21.10.2019
5576 Rain 13 1018 87 10000 2.6 260 10:55 21.10.2019
5577 Rain 13 1018 87 10000 2.6 260 10:37 21.10.2019
5578 Mist 12 1018 87 10000 2.1 260 10:18 21.10.2019
5579 Mist 12 1018 87 10000 3.1 250 09:44 21.10.2019
5580 Mist 11 1018 82 10000 2.6 260 09:25 21.10.2019
5581 Fog 11 1017 87 10000 4.6 250 08:43 21.10.2019
5582 Fog 11 1016 87 10000 3.6 250 08:24 21.10.2019
5583 Fog 11 1016 87 10000 3.6 250 07:59 21.10.2019
5584 Fog 11 1016 81 10000 3.6 240 07:38 21.10.2019
5585 Fog 10 1016 81 10000 3.1 220 07:19 21.10.2019
5586 Fog 10 1015 81 10000 2.6 240 06:53 21.10.2019
5587 Fog 11 1015 81 10000 2.6 240 06:35 21.10.2019
5588 Fog 11 1014 67 10000 2.1 290 05:55 21.10.2019
5589 Fog 11 1014 67 10000 2.1 290 05:55 21.10.2019
5590 Clouds 12 1013 55 10000 4.6 170 04:45 21.10.2019
5591 Clouds 12 1012 52 10000 5.1 160 03:26 21.10.2019
5592 Clear 13 1012 93 10000 1 0 02:24 21.10.2019
5593 Clouds 13 1012 48 10000 5.7 170 02:24 21.10.2019
5594 Clouds 14 1012 48 10000 5.7 170 01:59 21.10.2019
5595 Clouds 14 1012 48 10000 5.7 170 01:23 21.10.2019
5596 Clouds 14 1011 48 10000 5.1 160 00:48 21.10.2019
5597 Clouds 14 1011 48 10000 6.2 160 00:26 21.10.2019
5598 Clouds 14 1011 48 10000 4.6 160 23:42 20.10.2019
5599 Clouds 14 1011 52 10000 5.7 160 23:22 20.10.2019
5600 Clouds 14 1011 52 10000 5.7 160 23:22 20.10.2019
5601 Clouds 15 1011 48 10000 6.2 160 22:57 20.10.2019
5602 Clouds 15 1011 48 10000 6.2 160 22:39 20.10.2019
5603 Clouds 15 1010 48 10000 6.2 160 22:19 20.10.2019
5604 Clouds 15 1010 48 10000 6.2 160 21:58 20.10.2019
5605 Clouds 15 1010 45 10000 5.7 170 21:39 20.10.2019
5606 Clouds 15 1010 45 10000 6.2 170 21:21 20.10.2019
5607 Clouds 15 1010 45 10000 6.7 170 20:42 20.10.2019
5608 Clouds 16 1010 45 10000 5.7 170 20:20 20.10.2019
5609 Clouds 15 1010 45 10000 5.7 170 19:57 20.10.2019
5610 Clouds 15 1010 45 10000 5.7 150 19:39 20.10.2019
5611 Clouds 15 1010 45 10000 5.7 150 19:39 20.10.2019
5612 Clouds 16 1010 52 10000 3.6 160 19:20 20.10.2019
5613 Clouds 16 1009 48 10000 3.6 140 18:58 20.10.2019
5614 Clouds 16 1009 48 10000 3.6 140 18:40 20.10.2019
5615 Clouds 17 1009 48 10000 3.6 140 18:20 20.10.2019
5616 Clouds 18 1010 48 10000 4.6 160 17:56 20.10.2019
5617 Clouds 18 1010 48 10000 4.6 160 17:37 20.10.2019
5618 Clouds 18 1010 45 10000 5.1 160 17:18 20.10.2019
5619 Clouds 18 1010 49 10000 5.1 150 16:42 20.10.2019
5620 Clouds 18 1010 49 10000 5.1 150 16:42 20.10.2019
5621 Clouds 18 1010 46 10000 6.2 160 16:23 20.10.2019
5622 Clouds 18 1010 46 10000 6.2 160 15:58 20.10.2019
5623 Clouds 18 1010 46 10000 6.7 160 15:38 20.10.2019
5624 Clear 18 1010 43 10000 3.6 130 15:20 20.10.2019
5625 Clouds 18 1010 43 10000 5.1 150 14:58 20.10.2019
5626 Clouds 18 1010 43 10000 5.1 150 14:38 20.10.2019
5627 Clouds 17 1010 60 10000 1.5 0 14:19 20.10.2019
5628 Clouds 17 1010 60 10000 1.5 0 13:55 20.10.2019
5629 Mist 16 1010 72 10000 2.6 360 13:37 20.10.2019
5630 Mist 16 1010 72 10000 3.1 30 13:18 20.10.2019
5631 Mist 16 1010 72 10000 3.1 30 13:18 20.10.2019
5632 Mist 15 1010 77 10000 2.1 10 12:56 20.10.2019
5633 Mist 14 1010 77 10000 2.1 10 12:38 20.10.2019
5634 Mist 13 1010 77 10000 2.1 10 12:20 20.10.2019
5635 Mist 13 1010 77 10000 2.1 10 11:55 20.10.2019
5636 Mist 12 1010 87 10000 1.5 10 11:37 20.10.2019
5637 Mist 11 1010 100 10000 1.5 30 11:19 20.10.2019
5638 Fog 10 1010 100 10000 1.5 40 10:41 20.10.2019
5639 Fog 9 1010 100 10000 1 0 10:22 20.10.2019
5640 Fog 9 1010 100 6000 1 0 09:58 20.10.2019
5641 Fog 9 1010 100 6000 1 0 09:40 20.10.2019
5642 Fog 8 1010 93 1100 1.5 30 09:21 20.10.2019
5643 Fog 7 1010 100 500 1 0 08:49 20.10.2019
5644 Fog 8 1010 100 450 1 0 08:24 20.10.2019
5645 Fog 8 1011 100 200 3.6 100 08:24 20.10.2019
5646 Fog 7 1010 100 300 1 60 07:50 20.10.2019
5647 Fog 7 1010 100 300 1 60 07:31 20.10.2019
5648 Fog 7 1010 100 450 0.5 0 06:59 20.10.2019
5649 Fog 7 1010 100 450 1.5 160 06:21 20.10.2019
5650 Fog 7 1010 100 450 1.5 220 04:28 20.10.2019
5651 Fog 7 1010 93 400 1 0 03:47 20.10.2019
5652 Mist 8 1010 100 3100 1 150 03:20 20.10.2019
5653 Mist 8 1010 100 650 2.23 40.629 02:43 20.10.2019
5654 Clouds 8 1010 100 4100 2.1 230 01:58 20.10.2019
5655 Clouds 9 1010 93 4300 0.5 0 01:24 20.10.2019
5656 Clouds 9 1010 100 3700 0.5 0 00:58 20.10.2019
5657 Clouds 9 1010 93 6000 1.5 10 00:39 20.10.2019
5658 Clouds 10 1010 100 7000 1.5 40 00:20 20.10.2019
5659 Clouds 10 1010 87 10000 2.6 70 23:42 19.10.2019
5660 Clouds 10 1010 93 10000 2.6 70 23:23 19.10.2019
5661 Clouds 10 1010 87 10000 2.6 90 22:57 19.10.2019
5662 Clouds 10 1010 87 10000 2.6 90 22:39 19.10.2019
5663 Clouds 11 1010 87 10000 3.1 90 22:20 19.10.2019
5664 Clouds 11 1010 87 10000 3.1 110 21:46 19.10.2019
5665 Clouds 11 1010 87 10000 4.1 110 21:24 19.10.2019
5666 Clouds 11 1010 87 10000 4.1 110 20:57 19.10.2019
5667 Clouds 11 1011 81 10000 4.6 100 20:38 19.10.2019
5668 Clouds 12 1011 87 10000 4.1 110 20:20 19.10.2019
5669 Clouds 12 1011 81 10000 3.6 110 19:41 19.10.2019
5670 Clouds 12 1011 81 10000 3.6 110 19:23 19.10.2019
5671 Clouds 13 1011 81 10000 2.6 100 18:43 19.10.2019
5672 Clouds 13 1011 76 10000 3.6 100 18:25 19.10.2019
5673 Clouds 14 1011 76 10000 3.6 100 17:59 19.10.2019
5674 Rain 14 1012 71 10000 4.1 100 17:40 19.10.2019
5675 Rain 14 1012 76 10000 4.6 120 17:21 19.10.2019
5676 Rain 14 1012 76 10000 4.6 120 16:55 19.10.2019
5677 Clouds 14 1012 76 10000 4.6 110 16:37 19.10.2019
5678 Clouds 14 1012 71 10000 3.1 80 16:18 19.10.2019
5679 Clouds 15 1012 71 10000 3.1 80 16:18 19.10.2019
5680 Clouds 14 1013 71 10000 1.5 30 15:40 19.10.2019
5681 Rain 14 1014 76 10000 2.1 350 15:22 19.10.2019
5682 Rain 14 1014 76 10000 1.5 330 14:39 19.10.2019
5683 Rain 14 1014 76 10000 2.6 320 14:20 19.10.2019
5684 Rain 14 1014 76 10000 2.6 320 13:58 19.10.2019
5685 Rain 14 1014 82 10000 2.6 340 13:39 19.10.2019
5686 Rain 14 1014 82 10000 3.6 320 13:19 19.10.2019
5687 Rain 14 1013 72 10000 4.1 320 12:56 19.10.2019
5688 Rain 14 1013 82 10000 4.6 330 12:37 19.10.2019
5689 Clouds 14 1013 82 10000 4.1 320 12:18 19.10.2019
5690 Clear 13 1012 82 10000 3.6 350 11:41 19.10.2019
5691 Clear 13 1012 82 10000 3.6 350 11:41 19.10.2019
5692 Clouds 13 1012 82 10000 2.6 10 11:23 19.10.2019
5693 Clouds 12 1012 76 10000 2.6 360 10:56 19.10.2019
5694 Clouds 12 1011 82 10000 3.6 110 10:38 19.10.2019
5695 Clouds 12 1011 87 10000 2.6 110 10:20 19.10.2019
5696 Clouds 11 1011 87 0 0.5 90 09:43 19.10.2019
5697 Clouds 10 1012 93 10000 2.1 120 09:25 19.10.2019
5698 Clouds 10 1012 93 10000 2.6 130 08:59 19.10.2019
5699 Clouds 10 1012 93 10000 2.6 130 08:59 19.10.2019
5700 Clouds 9 1012 87 0 2.6 110 08:40 19.10.2019
5701 Clouds 9 1012 87 0 2.6 110 08:40 19.10.2019
5702 Clouds 9 1012 100 10000 2.1 140 08:21 19.10.2019
5703 Clouds 9 1013 100 10000 2.1 160 07:44 19.10.2019
5704 Drizzle 9 1012 100 5000 2.1 140 07:44 19.10.2019
5705 Drizzle 10 1013 100 10000 1.5 110 07:25 19.10.2019
5706 Clouds 10 1013 93 8000 2.1 150 06:47 19.10.2019
5707 Clouds 10 1013 87 10000 1.5 130 06:26 19.10.2019
5708 Drizzle 10 1014 87 10000 1 0 05:34 19.10.2019
5709 Rain 10 1014 100 10000 1 0 04:24 19.10.2019
5710 Clouds 10 1014 93 10000 2.6 220 02:49 19.10.2019
5711 Clouds 10 1014 87 10000 1 170 01:54 19.10.2019
5712 Clouds 10 1014 87 10000 1 170 01:33 19.10.2019
5713 Clouds 10 1014 87 10000 0.5 0 00:49 19.10.2019
5714 Clouds 10 1014 87 10000 0.5 0 00:27 19.10.2019
5715 Clouds 10 1014 93 10000 1.5 160 23:56 18.10.2019
5716 Clouds 10 1014 93 10000 1.5 130 23:36 18.10.2019
5717 Clouds 10 1014 93 10000 2.1 160 23:18 18.10.2019
5718 Clouds 10 1014 93 10000 1 0 22:43 18.10.2019
5719 Clouds 10 1014 87 10000 2.6 160 22:21 18.10.2019
5720 Clouds 11 1014 87 10000 2.6 160 21:59 18.10.2019
5721 Clouds 11 1014 93 10000 3.1 160 21:39 18.10.2019
5722 Rain 12 1014 87 10000 2.1 170 21:20 18.10.2019
5723 Rain 13 1015 81 10000 2.1 150 20:59 18.10.2019
5724 Rain 13 1015 81 10000 2.1 150 20:41 18.10.2019
5725 Rain 13 1015 76 10000 1.5 170 20:22 18.10.2019
5726 Rain 14 1015 76 10000 1.5 170 19:58 18.10.2019
5727 Rain 15 1015 71 10000 0.5 0 19:40 18.10.2019
5728 Clear 15 1014 62 10000 3.1 270 19:21 18.10.2019
5729 Clear 15 1014 62 10000 3.1 270 18:58 18.10.2019
5730 Rain 16 1014 67 10000 3.1 280 18:39 18.10.2019
5731 Rain 16 1014 63 10000 4.1 290 18:21 18.10.2019
5732 Clear 17 1013 63 10000 1.5 240 17:40 18.10.2019
5733 Clear 18 1013 59 10000 2.1 250 17:21 18.10.2019
5734 Clear 18 1013 59 10000 2.1 250 16:59 18.10.2019
5735 Clear 18 1013 55 10000 2.1 270 16:38 18.10.2019
5736 Clear 19 1013 52 10000 1.5 260 16:20 18.10.2019
5737 Clear 19 1013 52 10000 1.5 260 15:55 18.10.2019
5738 Clear 19 1013 52 10000 0.5 0 15:36 18.10.2019
5739 Clear 19 1013 52 10000 0.5 0 15:18 18.10.2019
5740 Clear 19 1013 52 10000 0.5 0 14:56 18.10.2019
5741 Clear 19 1013 48 10000 0.5 0 14:38 18.10.2019
5742 Clear 19 1013 52 10000 0.5 0 14:18 18.10.2019
5743 Clear 19 1014 45 10000 2.6 220 13:45 18.10.2019
5744 Clear 19 1014 45 10000 2.6 220 13:26 18.10.2019
5745 Clear 19 1014 52 10000 1.5 260 12:59 18.10.2019
5746 Clear 18 1014 55 10000 3.6 240 12:40 18.10.2019
5747 Clear 18 1014 55 10000 2.1 210 12:22 18.10.2019
5748 Clear 17 1014 55 10000 2.1 210 11:57 18.10.2019
5749 Clear 17 1015 63 10000 2.1 180 11:39 18.10.2019
5750 Rain 15 1015 67 10000 2.1 190 11:20 18.10.2019
5751 Rain 15 1015 76 10000 2.1 190 10:57 18.10.2019
5752 Rain 14 1015 76 10000 2.1 190 10:38 18.10.2019
5753 Clear 13 1015 71 10000 1.5 180 10:19 18.10.2019
5754 Clear 12 1015 71 10000 1.5 180 09:57 18.10.2019
5755 Clear 11 1015 81 10000 2.6 140 09:39 18.10.2019
5756 Clear 11 1016 81 10000 1.5 250 09:18 18.10.2019
5757 Clear 10 1015 81 10000 1.5 200 08:42 18.10.2019
5758 Clear 10 1015 87 10000 2.1 180 08:24 18.10.2019
5759 Clear 10 1015 87 10000 2.6 240 07:51 18.10.2019
5760 Clear 10 1015 87 10000 1.5 220 07:30 18.10.2019
5761 Clouds 10 1015 87 10000 2.1 170 06:48 18.10.2019
5762 Clouds 10 1015 87 10000 2.1 170 06:30 18.10.2019
5763 Clouds 10 1015 81 10000 2.1 160 05:59 18.10.2019
5764 Clouds 10 1015 81 10000 2.1 160 05:41 18.10.2019
5765 Clouds 10 1015 81 10000 3.6 160 05:18 18.10.2019
5766 Rain 11 1016 87 10000 2.1 160 03:35 18.10.2019
5767 Rain 11 1016 76 10000 2.6 150 02:51 18.10.2019
5768 Rain 11 1016 76 10000 2.6 150 02:32 18.10.2019
5769 Clouds 11 1016 87 10000 0.5 0 01:39 18.10.2019
5770 Clouds 11 1016 87 10000 2.1 210 01:20 18.10.2019
5771 Clouds 11 1017 81 10000 3.1 220 00:41 18.10.2019
5772 Clouds 10 1017 81 10000 3.6 230 00:19 18.10.2019
5773 Clouds 10 1016 87 10000 3.6 220 23:40 17.10.2019
5774 Clouds 10 1016 87 10000 2.1 200 23:21 17.10.2019
5775 Clouds 10 1016 87 10000 2.1 200 22:57 17.10.2019
5776 Clouds 10 1016 93 10000 1 0 22:39 17.10.2019
5777 Clouds 10 1016 93 10000 1 0 22:19 17.10.2019
5778 Clouds 10 1016 93 10000 1 0 21:57 17.10.2019
5779 Clouds 11 1016 81 10000 2.6 220 21:39 17.10.2019
5780 Clouds 12 1016 87 10000 1.5 210 21:20 17.10.2019
5781 Clouds 11 1016 87 10000 1.5 210 20:58 17.10.2019
5782 Clouds 11 1015 81 10000 1 250 20:39 17.10.2019
5783 Clouds 12 1015 87 10000 1 180 20:19 17.10.2019
5784 Clouds 13 1015 87 10000 1 180 19:59 17.10.2019
5785 Clouds 13 1015 76 10000 0.5 190 19:39 17.10.2019
5786 Clear 14 1015 71 10000 0.5 0 19:19 17.10.2019
5787 Clear 14 1015 55 10000 1 0 18:58 17.10.2019
5788 Clear 15 1015 55 10000 1 0 18:38 17.10.2019
5789 Clear 17 1015 55 10000 1.5 90 18:19 17.10.2019
5790 Clouds 18 1015 48 10000 3.1 70 17:42 17.10.2019
5791 Clouds 18 1015 45 10000 3.1 70 17:23 17.10.2019
5792 Clouds 19 1015 45 10000 3.1 70 16:57 17.10.2019
5793 Clouds 19 1015 39 10000 3.1 60 16:38 17.10.2019
5794 Clouds 19 1015 37 10000 2.6 60 16:18 17.10.2019
5795 Clouds 19 1015 37 10000 2.6 60 15:56 17.10.2019
5796 Clouds 19 1015 42 10000 2.6 60 15:38 17.10.2019
5797 Clouds 19 1015 42 10000 2.1 50 15:19 17.10.2019
5798 Clouds 19 1015 42 10000 2.1 50 14:54 17.10.2019
5799 Clouds 19 1016 39 10000 1 0 14:36 17.10.2019
5800 Clouds 19 1016 37 10000 1 0 14:18 17.10.2019
5801 Clouds 19 1016 42 10000 1.5 270 13:39 17.10.2019
5802 Clouds 18 1017 39 10000 1.5 220 13:19 17.10.2019
5803 Clouds 17 1017 42 10000 1.5 220 12:55 17.10.2019
5804 Clouds 17 1017 42 10000 1.5 220 12:55 17.10.2019
5805 Clouds 17 1017 42 10000 1.5 220 12:36 17.10.2019
5806 Clouds 16 1017 42 10000 1.5 230 12:18 17.10.2019
5807 -273 0 0 0 0 0 11:41 17.10.2019
5808 Clouds 14 1017 67 10000 2.6 220 11:21 17.10.2019
5809 Clouds 13 1017 62 10000 1.5 170 10:58 17.10.2019
5810 Clouds 12 1017 62 10000 1.5 170 10:39 17.10.2019
5811 Clouds 11 1017 76 10000 3.1 160 10:19 17.10.2019
5812 Clouds 10 1017 81 10000 1 0 09:55 17.10.2019
5813 Clouds 10 1017 76 10000 3.1 160 09:55 17.10.2019
5814 Clouds 10 1017 76 10000 3.1 160 09:55 17.10.2019
5815 Clouds 8 1017 81 10000 1 0 09:37 17.10.2019
5816 Clouds 8 1017 87 10000 1.5 180 09:19 17.10.2019
5817 Clouds 6 1017 87 10000 1.5 200 08:48 17.10.2019
5818 Clouds 5 1017 87 10000 1.5 180 08:27 17.10.2019
5819 Clouds 5 1017 87 10000 1.5 180 07:58 17.10.2019
5820 Clouds 5 1017 93 10000 2.1 220 07:40 17.10.2019
5821 Clouds 5 1016 100 10000 1.5 180 07:20 17.10.2019
5822 Clouds 5 1016 93 10000 2.6 220 06:43 17.10.2019
5823 Clouds 5 1016 93 10000 1 200 06:24 17.10.2019
5824 Clouds 5 1016 93 10000 1 200 05:59 17.10.2019
5825 Clouds 5 1016 93 10000 1 0 05:35 17.10.2019
5826 Clouds 5 1016 93 10000 3.1 220 04:58 17.10.2019
5827 Clouds 5 1016 93 10000 2.6 200 04:31 17.10.2019
5828 Clouds 5 1016 93 10000 2.1 210 03:45 17.10.2019
5829 Clear 6 1016 93 10000 2.1 220 01:56 17.10.2019
5830 Clear 6 1016 93 10000 2.1 220 01:56 17.10.2019
5831 Clear 6 1016 87 10000 1.5 220 00:42 17.10.2019
5832 Clear 6 1016 93 10000 1 200 00:20 17.10.2019
5833 Clear 7 1016 81 10000 1.5 230 23:58 16.10.2019
5834 Clear 7 1016 81 10000 1.5 230 23:39 16.10.2019
5835 Clear 7 1016 81 10000 1.5 0 23:18 16.10.2019
5836 Clear 7 1016 76 10000 2.6 150 22:54 16.10.2019
5837 Clear 8 1016 76 10000 2.6 150 22:36 16.10.2019
5838 Clear 8 1016 76 10000 2.6 150 22:18 16.10.2019
5839 Clear 8 1016 81 10000 2.6 150 21:54 16.10.2019
5840 -273 0 0 0 0 0 21:54 16.10.2019
5841 Clear 8 1016 81 10000 2.6 150 21:36 16.10.2019
5842 Clear 9 1016 87 10000 3.1 170 21:18 16.10.2019
5843 Clear 9 1016 81 10000 3.6 160 20:56 16.10.2019
5844 Clear 9 1016 81 10000 3.6 160 20:37 16.10.2019
5845 Clear 9 1016 81 10000 3.6 160 20:37 16.10.2019
5846 Clear 9 1016 81 10000 2.1 150 20:19 16.10.2019
5847 Clear 10 1016 81 10000 1 170 19:40 16.10.2019
5848 Clear 10 1016 81 10000 1 170 19:40 16.10.2019
5849 Clear 11 1016 76 10000 2.6 140 19:21 16.10.2019
5850 Clear 12 1016 76 10000 2.6 140 18:58 16.10.2019
5851 Clear 13 1016 62 10000 1 130 18:38 16.10.2019
5852 Clear 15 1016 48 10000 1.5 190 18:19 16.10.2019
5853 Clear 15 1016 48 10000 1.5 190 18:19 16.10.2019
5854 Clear 15 1016 44 10000 2.1 200 17:56 16.10.2019
5855 Clear 15 1016 44 10000 2.1 200 17:56 16.10.2019
5856 Clear 16 1016 44 10000 2.1 200 17:37 16.10.2019
5857 Clear 16 1016 38 10000 2.1 240 17:19 16.10.2019
5858 -273 0 0 0 0 0 16:57 16.10.2019
5859 Clear 16 1016 38 10000 3.1 220 16:38 16.10.2019
5860 Clear 16 1016 41 10000 3.6 220 16:20 16.10.2019
5861 Clear 16 1016 47 10000 2.6 220 15:54 16.10.2019
5862 Clear 16 1016 47 10000 2.6 220 15:54 16.10.2019
5863 Clear 16 1016 47 10000 2.6 220 15:54 16.10.2019
5864 Clear 16 1016 47 10000 2.6 220 15:36 16.10.2019
5865 Clouds 16 1017 51 10000 4.1 220 15:18 16.10.2019
5866 -273 0 0 0 0 0 14:55 16.10.2019
5867 Clouds 16 1017 51 10000 4.1 220 14:36 16.10.2019
5868 Clouds 15 1017 50 10000 5.7 230 14:18 16.10.2019
5869 Clouds 15 1017 50 10000 5.7 240 13:42 16.10.2019
5870 Clouds 15 1018 47 10000 7.7 230 13:23 16.10.2019
5871 Clouds 14 1018 54 10000 7.2 230 12:44 16.10.2019
5872 Clouds 14 1017 54 10000 6.7 240 12:20 16.10.2019
5873 Clouds 13 1018 62 10000 6.7 230 11:59 16.10.2019
5874 Clouds 13 1018 62 10000 6.7 230 11:41 16.10.2019
5875 Clouds 12 1018 66 10000 6.2 240 11:18 16.10.2019
5876 Clouds 12 1018 66 10000 6.2 230 10:37 16.10.2019
5877 Clouds 11 1018 76 10000 5.1 210 10:19 16.10.2019
5878 Clouds 11 1018 76 10000 5.1 210 09:54 16.10.2019
5879 Clouds 10 1018 76 10000 5.1 220 09:36 16.10.2019
5880 Clouds 10 1017 87 10000 4.1 220 09:18 16.10.2019
5881 Clouds 9 1017 87 10000 3.6 220 08:42 16.10.2019
5882 Clouds 9 1017 87 10000 4.1 220 08:23 16.10.2019
5883 Clouds 9 1017 81 10000 5.7 230 07:45 16.10.2019
5884 -273 0 0 0 0 0 07:25 16.10.2019
5885 Clouds 9 1016 81 10000 5.1 230 06:58 16.10.2019
5886 Clouds 9 1016 81 10000 5.1 230 06:58 16.10.2019
5887 Clouds 9 1016 81 10000 5.7 230 06:39 16.10.2019
5888 Clouds 10 1016 87 10000 6.2 240 05:48 16.10.2019
5889 Rain 10 1015 81 10000 8.2 230 03:24 16.10.2019
5890 Rain 10 1015 81 10000 8.2 230 02:47 16.10.2019
5891 Rain 11 1014 87 10000 8.2 240 01:19 16.10.2019
5892 Rain 11 1013 81 10000 7.7 240 00:49 16.10.2019
5893 Rain 12 1013 81 10000 9.3 250 00:27 16.10.2019
5894 Rain 12 1012 87 10000 7.7 250 23:41 15.10.2019
5895 Rain 13 1012 87 10000 6.2 250 23:22 15.10.2019
5896 Rain 13 1012 87 10000 6.2 250 22:56 15.10.2019
5897 Rain 14 1012 82 10000 7.2 260 22:38 15.10.2019
5898 Rain 14 1011 82 10000 7.2 250 22:20 15.10.2019
5899 Rain 14 1011 82 10000 7.2 250 21:56 15.10.2019
5900 Rain 14 1011 82 10000 7.7 240 21:56 15.10.2019
5901 Rain 14 1011 82 10000 7.2 250 21:56 15.10.2019
5902 Rain 14 1011 82 10000 7.2 250 21:56 15.10.2019
5903 Rain 14 1010 82 10000 4.6 250 21:38 15.10.2019
5904 Clouds 14 1009 82 10000 4.6 260 21:20 15.10.2019
5905 Clouds 14 1009 82 10000 4.6 260 20:57 15.10.2019
5906 Clouds 15 1009 77 10000 5.7 260 20:39 15.10.2019
5907 Clouds 15 1009 77 10000 5.7 260 20:39 15.10.2019
5908 Clouds 15 1009 77 10000 6.7 250 20:20 15.10.2019
5909 Clouds 15 1009 77 10000 6.7 250 19:58 15.10.2019
5910 Clouds 15 1008 82 10000 7.2 250 19:40 15.10.2019
5911 Clouds 15 1008 77 10000 5.7 250 19:20 15.10.2019
5912 Clouds 15 1007 72 10000 5.7 260 18:47 15.10.2019
5913 Clouds 16 1007 72 10000 5.7 260 18:29 15.10.2019
5914 Clouds 17 1006 67 10000 6.2 280 17:59 15.10.2019
5915 Clouds 18 1005 68 10000 2.6 70 17:40 15.10.2019
5916 Clouds 19 1005 60 10000 3.6 30 17:20 15.10.2019
5917 Clouds 19 1005 60 10000 3.6 30 16:57 15.10.2019
5918 Clouds 19 1006 64 10000 3.6 10 16:38 15.10.2019
5919 Clouds 21 1006 56 10000 1.5 0 16:20 15.10.2019
5920 Clouds 21 1006 36 10000 2.6 150 15:55 15.10.2019
5921 -273 0 0 0 0 0 15:55 15.10.2019
5922 Clouds 21 1006 36 10000 2.6 150 15:36 15.10.2019
5923 Clear 21 1006 36 10000 2.6 160 15:18 15.10.2019
5924 Clear 20 1006 40 10000 2.6 120 14:38 15.10.2019
5925 Clear 21 1007 38 10000 2.1 130 14:20 15.10.2019
5926 Clear 21 1007 38 10000 2.1 130 13:58 15.10.2019
5927 Clear 21 1007 40 10000 3.6 140 13:40 15.10.2019
5928 Clear 21 1008 40 10000 4.6 160 13:19 15.10.2019
5929 Clear 20 1008 43 10000 4.6 100 12:44 15.10.2019
5930 Clear 20 1008 43 10000 4.6 100 12:44 15.10.2019
5931 Clear 17 1008 52 10000 4.1 110 12:22 15.10.2019
5932 Clear 17 1009 55 10000 2.6 100 11:58 15.10.2019
5933 Clear 15 1009 55 10000 2.6 100 11:40 15.10.2019
5934 Clear 15 1009 59 10000 2.1 70 11:19 15.10.2019
5935 Clear 15 1009 59 10000 1 0 10:45 15.10.2019
5936 Fog 12 1009 76 10000 1.5 20 10:23 15.10.2019
5937 Fog 11 1010 76 10000 1 0 09:59 15.10.2019
5938 Fog 11 1010 76 10000 1 0 09:40 15.10.2019
5939 Fog 9 1010 93 10000 1.5 0 09:21 15.10.2019
5940 Fog 8 1010 93 10000 1 150 08:57 15.10.2019
5941 Fog 7 1010 93 10000 2.6 180 08:39 15.10.2019
5942 Fog 7 1010 93 10000 2.6 180 08:18 15.10.2019
5943 Fog 7 1010 93 10000 2.1 160 07:43 15.10.2019
5944 Fog 7 1010 87 10000 2.6 140 07:22 15.10.2019
5945 Fog 7 1010 93 10000 1.5 140 06:55 15.10.2019
5946 Fog 7 1010 93 10000 1.5 140 06:37 15.10.2019
5947 Fog 7 1011 100 10000 2.6 160 05:56 15.10.2019
5948 Fog 7 1011 100 10000 2.6 160 05:36 15.10.2019
5949 Fog 8 1012 100 10000 1 190 04:48 15.10.2019
5950 Fog 8 1012 100 10000 1.5 190 03:59 15.10.2019
5951 Fog 8 1012 100 10000 1.5 190 03:34 15.10.2019
5952 Fog 8 1012 93 10000 2.1 210 03:34 15.10.2019
5953 Fog 9 1012 100 10000 1 0 01:51 15.10.2019
5954 Fog 9 1012 100 10000 1 0 01:31 15.10.2019
5955 Fog 9 1012 93 10000 3.6 210 00:59 15.10.2019
5956 Fog 10 1012 93 10000 2.1 160 00:25 15.10.2019
5957 Fog 10 1012 93 10000 2.1 160 23:58 14.10.2019
5958 Fog 10 1012 100 10000 2.1 160 23:37 14.10.2019
5959 Fog 10 1012 100 10000 2.1 160 23:37 14.10.2019
5960 Fog 11 1013 100 10000 1.5 150 23:18 14.10.2019
5961 Fog 11 1013 93 10000 2.6 220 22:39 14.10.2019
5962 Fog 12 1013 93 10000 1.5 210 22:20 14.10.2019
5963 Fog 12 1013 93 10000 2.1 150 21:58 14.10.2019
5964 Fog 12 1013 93 10000 2.1 150 21:39 14.10.2019
5965 Fog 13 1013 93 10000 2.1 150 21:21 14.10.2019
5966 Fog 13 1013 93 10000 2.1 150 20:57 14.10.2019
5967 Fog 14 1014 100 10000 1.5 160 20:38 14.10.2019
5968 Fog 14 1014 100 10000 1.5 160 20:38 14.10.2019
5969 Fog 14 1014 87 10000 1.5 150 20:19 14.10.2019
5970 Fog 14 1013 93 10000 1 0 19:54 14.10.2019
5971 Clouds 15 1014 87 10000 0.5 0 19:36 14.10.2019
5972 Fog 16 1014 71 10000 1.5 220 19:18 14.10.2019
5973 Clear 18 1014 68 10000 1 0 18:54 14.10.2019
5974 Clear 19 1014 68 10000 1 0 18:36 14.10.2019
5975 Clear 20 1014 56 10000 2.1 90 18:18 14.10.2019
5976 Clear 21 1014 52 10000 3.1 60 17:41 14.10.2019
5977 Clear 22 1014 49 10000 3.1 70 17:22 14.10.2019
5978 Clear 22 1014 49 10000 3.6 70 16:54 14.10.2019
5979 Clear 22 1014 49 10000 3.6 70 16:36 14.10.2019
5980 Clear 22 1015 49 10000 4.1 60 16:18 14.10.2019
5981 Clear 22 1015 52 10000 2.1 70 15:41 14.10.2019
5982 Clear 22 1015 60 10000 2.6 100 15:21 14.10.2019
5983 Clear 22 1015 52 10000 2.6 100 14:44 14.10.2019
5984 Clear 22 1015 52 10000 2.6 100 14:44 14.10.2019
5985 Clear 21 1015 49 10000 3.6 70 14:25 14.10.2019
5986 Clear 21 1016 52 10000 3.1 90 13:58 14.10.2019
5987 Clear 21 1016 52 10000 3.1 90 13:40 14.10.2019
5988 Clear 21 1016 46 10000 4.1 70 13:21 14.10.2019
5989 Clear 20 1016 52 10000 3.1 80 12:42 14.10.2019
5990 Clear 20 1017 56 10000 3.1 40 12:21 14.10.2019
5991 Clear 19 1017 56 10000 3.1 40 11:57 14.10.2019
5992 Clear 18 1017 63 10000 2.1 50 11:39 14.10.2019
5993 Fog 17 1017 67 10000 1.5 40 11:20 14.10.2019
5994 Fog 16 1018 72 10000 1.5 20 10:44 14.10.2019
5995 Fog 15 1018 76 10000 1.5 20 10:23 14.10.2019
5996 Fog 13 1018 82 10000 1.96 111.187 10:00 14.10.2019
5997 Fog 11 1018 82 10000 1.95 102.548 09:41 14.10.2019
5998 Fog 10 1018 93 10000 0.5 140 09:20 14.10.2019
5999 Fog 8 1018 93 10000 0.9 244.578 08:49 14.10.2019
6000 Fog 8 1018 100 10000 0.9 244.578 08:23 14.10.2019
6001 Fog 8 1017 93 10000 1.5 200 07:47 14.10.2019
6002 Fog 8 1017 93 10000 1.5 190 07:25 14.10.2019
6003 Fog 8 1018 93 10000 2.1 210 06:58 14.10.2019
6004 Fog 9 1018 93 9000 2.6 220 06:28 14.10.2019
6005 Fog 9 1018 93 10000 2.1 210 05:56 14.10.2019
6006 Fog 9 1018 87 10000 1 0 05:26 14.10.2019
6007 Fog 9 1018 93 10000 1.5 220 03:50 14.10.2019
6008 Fog 10 1018 93 10000 1.5 220 03:26 14.10.2019
6009 Fog 10 1018 100 10000 0.5 0 02:32 14.10.2019
6010 Fog 11 1018 93 10000 1.5 240 01:21 14.10.2019
6011 Fog 12 1018 87 10000 1 0 00:44 14.10.2019
6012 Fog 12 1018 87 10000 1 0 00:19 14.10.2019
6013 Fog 12 1018 87 10000 1.5 160 23:43 13.10.2019
6014 Fog 12 1018 93 10000 3.1 220 23:20 13.10.2019
6015 Fog 13 1017 93 10000 1.5 160 22:57 13.10.2019
6016 Clear 13 1018 82 10000 3.1 200 22:39 13.10.2019
6017 Clear 13 1018 82 10000 1 0 22:20 13.10.2019
6018 Clear 14 1018 87 10000 1.65 233.116 21:57 13.10.2019
6019 Clear 14 1018 87 10000 1.65 233.116 21:37 13.10.2019
6020 Clear 14 1018 87 10000 1.65 233.116 21:37 13.10.2019
6021 Clouds 14 1017 87 10000 2.6 160 21:18 13.10.2019
6022 Clouds 14 1018 93 10000 2.1 160 20:57 13.10.2019
6023 Clouds 15 1018 93 10000 2.1 160 20:38 13.10.2019
6024 Clouds 16 1018 87 10000 2.1 150 20:19 13.10.2019
6025 Clouds 16 1018 87 10000 2.1 150 19:57 13.10.2019
6026 Clouds 16 1018 87 10000 2.6 150 19:39 13.10.2019
6027 Clear 17 1017 82 10000 1 150 19:21 13.10.2019
6028 Clear 19 1017 64 10000 2.1 320 18:56 13.10.2019
6029 -273 0 0 0 0 0 18:56 13.10.2019
6030 Clear 20 1017 64 10000 2.1 320 18:36 13.10.2019
6031 Clear 20 1017 64 10000 2.1 320 18:36 13.10.2019
6032 Clear 21 1017 56 10000 3.1 320 18:18 13.10.2019
6033 Clouds 22 1017 49 10000 2.1 360 17:55 13.10.2019
6034 Clouds 23 1017 49 10000 2.1 360 17:36 13.10.2019
6035 Clouds 23 1017 53 10000 1.5 360 17:18 13.10.2019
6036 Clouds 23 1017 44 10000 0.5 0 16:41 13.10.2019
6037 Clouds 23 1017 44 10000 2.1 70 16:18 13.10.2019
6038 Clouds 23 1017 44 10000 2.1 70 15:57 13.10.2019
6039 Clouds 23 1017 47 10000 2.1 90 15:38 13.10.2019
6040 Clear 23 1017 47 10000 2.6 70 15:18 13.10.2019
6041 Clear 23 1017 56 10000 3.6 80 14:57 13.10.2019
6042 Clear 23 1017 46 10000 2.1 60 14:38 13.10.2019
6043 Clear 23 1017 46 10000 2.6 40 14:19 13.10.2019
6044 Clear 22 1017 49 10000 3.1 30 13:41 13.10.2019
6045 Clear 22 1018 49 10000 2.1 30 13:23 13.10.2019
6046 Clear 21 1017 49 10000 1.5 90 12:59 13.10.2019
6047 Clear 21 1017 49 10000 1.5 90 12:39 13.10.2019
6048 Clear 20 1018 43 10000 1 0 12:21 13.10.2019
6049 Clear 20 1018 43 10000 1 0 11:59 13.10.2019
6050 Clear 19 1018 49 10000 0.5 0 11:39 13.10.2019
6051 Clear 18 1018 52 10000 1 0 11:20 13.10.2019
6052 Clear 17 1018 52 10000 1 0 10:59 13.10.2019
6053 Clear 16 1019 52 10000 1.5 230 10:39 13.10.2019
6054 Clear 15 1019 67 10000 3.1 220 10:20 13.10.2019
6055 Fog 12 1019 76 10000 2.6 230 09:39 13.10.2019
6056 Fog 11 1019 76 10000 3.6 230 09:21 13.10.2019
6057 Fog 11 1019 76 10000 3.6 230 09:21 13.10.2019
6058 Fog 10 1018 87 10000 2.1 220 08:51 13.10.2019
6059 -273 0 0 0 0 0 08:27 13.10.2019
6060 Fog 9 1018 81 10000 1.5 220 07:55 13.10.2019
6061 Fog 9 1018 81 10000 1.5 220 07:35 13.10.2019
6062 Fog 9 1018 87 10000 2.1 240 06:54 13.10.2019
6063 Fog 9 1018 87 10000 2.1 240 06:54 13.10.2019
6064 Fog 9 1018 81 10000 2.6 230 06:26 13.10.2019
6065 Fog 9 1018 87 10000 3.1 220 05:29 13.10.2019
6066 Fog 10 1018 81 10000 2.6 170 04:35 13.10.2019
6067 Fog 10 1018 87 10000 3.6 210 03:37 13.10.2019
6068 Clouds 11 1018 66 10000 1 0 02:32 13.10.2019
6069 Clouds 12 1018 76 10000 3.1 150 01:47 13.10.2019
6070 Clouds 12 1019 76 10000 1.5 180 01:21 13.10.2019
6071 Clouds 12 1019 76 10000 1.5 180 01:21 13.10.2019
6072 Clouds 12 1019 76 10000 1.5 160 00:43 13.10.2019
6073 Clouds 12 1019 71 10000 3.1 150 00:20 13.10.2019
6074 Clouds 12 1019 82 10000 4.1 160 23:55 12.10.2019
6075 Clouds 12 1019 82 10000 4.1 160 23:36 12.10.2019
6076 Clouds 13 1019 82 10000 2.1 150 23:18 12.10.2019
6077 Clouds 12 1019 87 10000 1.5 190 22:55 12.10.2019
6078 Clouds 12 1019 87 10000 1.5 190 22:36 12.10.2019
6079 Clouds 12 1019 87 10000 2.6 180 22:18 12.10.2019
6080 Clouds 12 1019 87 10000 2.1 160 21:41 12.10.2019
6081 Clouds 12 1018 93 10000 1 0 21:23 12.10.2019
6082 Clouds 13 1018 93 10000 2.1 190 20:56 12.10.2019
6083 Clouds 13 1018 93 10000 2.1 190 20:38 12.10.2019
6084 Clouds 13 1018 87 10000 1 160 20:20 12.10.2019
6085 Clouds 15 1018 93 10000 1.5 190 19:37 12.10.2019
6086 Clouds 16 1018 82 10000 1.5 200 19:19 12.10.2019
6087 -273 0 0 0 0 0 18:54 12.10.2019
6088 Clouds 18 1017 77 10000 2.1 180 18:36 12.10.2019
6089 Clouds 19 1017 68 10000 1.6 215.271 18:18 12.10.2019
6090 Clouds 21 1017 56 10000 1 0 17:42 12.10.2019
6091 Clouds 22 1018 46 10000 2.6 260 17:19 12.10.2019
6092 Clouds 22 1018 43 10000 3.6 240 16:41 12.10.2019
6093 Clouds 22 1018 43 10000 3.6 240 16:41 12.10.2019
6094 Clear 22 1018 46 10000 4.6 240 16:22 12.10.2019
6095 Clear 22 1018 46 10000 4.6 240 15:59 12.10.2019
6096 Clear 22 1018 43 10000 4.1 250 15:40 12.10.2019
6097 Clear 22 1018 46 10000 3.6 250 15:21 12.10.2019
6098 Clouds 22 1018 46 10000 4.1 220 14:41 12.10.2019
6099 Clouds 21 1018 43 10000 2.6 210 14:22 12.10.2019
6100 Clouds 21 1018 43 10000 2.6 210 14:22 12.10.2019
6101 Clouds 21 1018 43 10000 4.1 220 13:53 12.10.2019
6102 Clear 21 1018 43 10000 4.1 220 13:33 12.10.2019
6103 Clear 20 1019 45 10000 3.1 220 12:59 12.10.2019
6104 Clear 19 1019 45 10000 3.1 220 12:39 12.10.2019
6105 Clear 18 1019 45 10000 2.6 220 12:21 12.10.2019
6106 Clear 18 1019 52 10000 3.6 220 11:58 12.10.2019
6107 Clear 16 1019 52 10000 3.6 220 11:38 12.10.2019
6108 Clear 16 1019 59 10000 3.1 220 11:19 12.10.2019
6109 Clear 15 1019 67 10000 3.1 220 10:41 12.10.2019
6110 Clear 13 1019 76 10000 3.1 210 10:23 12.10.2019
6111 -273 0 0 0 0 0 09:58 12.10.2019
6112 Clear 11 1019 81 10000 2.6 210 09:39 12.10.2019
6113 -273 0 0 0 0 0 09:21 12.10.2019
6114 Fog 7 1018 75 10000 3 202.652 08:57 12.10.2019
6115 -273 0 0 0 0 0 08:57 12.10.2019
6116 Fog 7 1018 75 10000 3 202.652 08:57 12.10.2019
6117 Fog 7 1018 75 10000 3 202.652 08:57 12.10.2019
6118 Fog 6 1018 75 10000 3 202.652 08:37 12.10.2019
6119 Fog 5 1018 81 10000 2.6 150 08:18 12.10.2019
6120 Fog 5 1018 87 10000 1 0 07:34 12.10.2019
6121 Fog 5 1018 93 10000 1 0 06:51 12.10.2019
6122 Fog 5 1018 81 10000 2.6 160 05:47 12.10.2019
6123 Fog 6 1018 81 10000 1.5 180 05:22 12.10.2019
6124 Fog 6 1018 87 10000 2.1 200 04:24 12.10.2019
6125 Fog 7 1018 87 10000 1 0 03:30 12.10.2019
6126 Fog 7 1018 81 10000 1.5 240 01:45 12.10.2019
6127 Fog 7 1018 93 10000 1.5 210 01:21 12.10.2019
6128 Fog 7 1018 93 10000 1.5 210 01:21 12.10.2019
6129 Fog 7 1018 87 10000 1 0 00:42 12.10.2019
6130 Fog 8 1018 87 10000 1 220 23:59 11.10.2019
6131 Clouds 8 1018 93 10000 1 0 23:40 11.10.2019
6132 Clouds 8 1018 87 10000 1 180 23:20 11.10.2019
6133 Clouds 9 1018 87 10000 0.5 0 22:41 11.10.2019
6134 Clouds 8 1018 87 10000 0.5 0 22:41 11.10.2019
6135 Clouds 9 1018 87 10000 2.1 180 22:22 11.10.2019
6136 Clouds 9 1018 87 10000 2.1 180 21:58 11.10.2019
6137 Clear 9 1018 76 10000 3.1 190 21:39 11.10.2019
6138 Clouds 9 1018 93 10000 2.1 180 21:21 11.10.2019
6139 Clouds 10 1018 87 10000 2.1 150 20:45 11.10.2019
6140 Clouds 10 1018 87 10000 1.5 150 20:27 11.10.2019
6141 Clouds 10 1018 87 10000 1.5 150 20:27 11.10.2019
6142 Clouds 11 1018 87 10000 1 150 19:59 11.10.2019
6143 Clouds 12 1018 87 10000 1 150 19:39 11.10.2019
6144 Clear 13 1018 87 10000 2.1 170 19:18 11.10.2019
6145 Clear 13 1018 87 10000 2.1 170 19:18 11.10.2019
6146 Clear 13 1018 87 10000 2.1 170 19:18 11.10.2019
6147 Clear 14 1018 82 10000 1 180 18:59 11.10.2019
6148 Clear 16 1018 82 10000 1 180 18:38 11.10.2019
6149 Clear 16 1018 72 10000 1.5 160 18:19 11.10.2019
6150 Clear 17 1018 72 10000 1.5 160 17:59 11.10.2019
6151 Clear 17 1019 51 10000 1 0 17:38 11.10.2019
6152 Clear 17 1019 48 10000 1 0 17:19 11.10.2019
6153 Clear 17 1019 48 10000 1 0 17:19 11.10.2019
6154 Clear 18 1019 48 10000 1 0 16:59 11.10.2019
6155 Clear 18 1019 51 10000 2.1 180 16:39 11.10.2019
6156 Clear 18 1019 51 10000 2.1 180 16:39 11.10.2019
6157 Clear 18 1019 48 10000 1 0 16:19 11.10.2019
6158 Clear 18 1019 48 10000 2.1 0 15:55 11.10.2019
6159 Clear 17 1019 51 10000 2.6 270 15:36 11.10.2019
6160 Clear 17 1020 51 10000 2.6 230 15:18 11.10.2019
6161 Clear 17 1020 51 10000 2.6 230 15:18 11.10.2019
6162 Clear 17 1020 55 10000 2.1 200 14:42 11.10.2019
6163 Clear 17 1020 51 10000 3.1 230 14:23 11.10.2019
6164 Clear 16 1021 51 10000 4.1 210 13:47 11.10.2019
6165 Clear 16 1021 54 10000 4.6 240 13:27 11.10.2019
6166 Clear 16 1021 54 10000 4.6 240 12:58 11.10.2019
6167 Clear 15 1021 54 10000 4.6 190 12:40 11.10.2019
6168 Clear 15 1022 62 10000 3.6 200 12:21 11.10.2019
6169 Clear 14 1022 62 10000 3.6 200 11:59 11.10.2019
6170 Clear 14 1022 66 10000 4.1 160 11:39 11.10.2019
6171 Clear 12 1023 76 10000 2.6 220 11:21 11.10.2019
6172 Clear 11 1023 71 10000 1.5 220 10:56 11.10.2019
6173 Clear 10 1023 71 10000 1.5 220 10:38 11.10.2019
6174 Clear 10 1022 81 10000 2.1 240 10:19 11.10.2019
6175 -273 0 0 0 0 0 09:54 11.10.2019
6176 -273 0 0 0 0 0 09:54 11.10.2019
6177 Fog 8 1022 76 10000 1.5 0 09:36 11.10.2019
6178 Fog 7 1022 81 10000 2.74 208.898 09:18 11.10.2019
6179 Fog 6 1022 81 10000 2.6 170 08:40 11.10.2019
6180 Fog 5 1021 86 10000 2.6 170 08:21 11.10.2019
6181 Fog 5 1021 86 10000 2.6 170 07:59 11.10.2019
6182 Fog 5 1022 93 10000 3.1 190 07:40 11.10.2019
6183 Fog 5 1022 93 10000 0.5 0 07:20 11.10.2019
6184 Fog 5 1022 93 10000 2.1 170 06:44 11.10.2019
6185 Fog 5 1022 93 10000 2.1 200 06:21 11.10.2019
6186 Fog 6 1022 93 10000 2.6 230 05:37 11.10.2019
6187 Fog 6 1022 81 10000 3.1 200 04:59 11.10.2019
6188 Fog 6 1022 87 10000 4.1 200 04:24 11.10.2019
6189 Fog 7 1023 87 10000 3.1 230 02:18 11.10.2019
6190 Fog 8 1023 93 10000 3.6 220 00:43 11.10.2019
6191 Clear 9 1023 87 10000 3.6 220 00:25 11.10.2019
6192 Clear 9 1023 93 10000 3.6 220 23:43 10.10.2019
6193 Clear 9 1023 93 10000 3.1 210 23:21 10.10.2019
6194 Clear 9 1023 93 10000 3.6 220 22:57 10.10.2019
6195 Clear 9 1023 93 10000 3.6 220 22:39 10.10.2019
6196 Clear 9 1022 87 10000 4.1 230 22:20 10.10.2019
6197 Rain 9 1022 93 10000 3.6 210 21:57 10.10.2019
6198 Rain 9 1022 93 10000 3.6 210 21:39 10.10.2019
6199 Rain 10 1022 87 10000 4.1 220 21:20 10.10.2019
6200 Clouds 10 1021 87 10000 3.6 210 20:43 10.10.2019
6201 Clouds 10 1021 93 10000 2.6 200 20:22 10.10.2019
6202 Clouds 10 1021 93 10000 2.6 200 19:59 10.10.2019
6203 Rain 10 1021 87 10000 2.6 220 19:41 10.10.2019
6204 Rain 10 1021 87 10000 2.6 220 19:41 10.10.2019
6205 Rain 10 1020 93 10000 3.1 200 19:21 10.10.2019
6206 Rain 11 1020 93 10000 3.1 200 18:59 10.10.2019
6207 Rain 11 1020 87 10000 2.6 220 18:40 10.10.2019
6208 Rain 11 1020 87 10000 2.6 250 18:20 10.10.2019
6209 Rain 11 1019 87 10000 5.1 240 17:55 10.10.2019
6210 Rain 12 1019 87 10000 5.1 240 17:37 10.10.2019
6211 Rain 12 1019 81 10000 4.6 240 17:18 10.10.2019
6212 Rain 12 1020 87 7000 4.6 260 16:46 10.10.2019
6213 Rain 12 1019 81 10000 5.7 240 16:26 10.10.2019
6214 Rain 12 1019 81 10000 5.7 240 16:26 10.10.2019
6215 Rain 12 1019 81 10000 5.7 250 15:58 10.10.2019
6216 Rain 12 1019 81 10000 5.7 250 15:38 10.10.2019
6217 Rain 12 1019 87 10000 7.2 250 15:19 10.10.2019
6218 Rain 12 1019 81 10000 7.2 250 14:55 10.10.2019
6219 Rain 11 1019 81 10000 7.2 250 14:36 10.10.2019
6220 Rain 11 1019 81 10000 7.7 250 14:18 10.10.2019
6221 Rain 11 1019 81 10000 7.7 250 13:46 10.10.2019
6222 Rain 11 1018 81 10000 7.7 250 13:27 10.10.2019
6223 Rain 11 1018 81 9000 8.7 260 12:58 10.10.2019
6224 Rain 11 1018 81 9000 8.7 260 12:40 10.10.2019
6225 Rain 12 1018 76 10000 6.2 260 12:20 10.10.2019
6226 Rain 12 1018 71 10000 7.7 240 11:58 10.10.2019
6227 Rain 12 1018 71 10000 7.7 240 11:38 10.10.2019
6228 Rain 12 1017 66 10000 9.3 230 11:19 10.10.2019
6229 Rain 12 1017 76 10000 6.7 230 10:45 10.10.2019
6230 Clouds 11 1017 76 10000 6.2 220 10:26 10.10.2019
6231 Clouds 11 1016 81 10000 7.2 230 09:58 10.10.2019
6232 Clouds 11 1016 81 10000 7.2 230 09:39 10.10.2019
6233 Clouds 10 1016 81 10000 6.2 220 09:21 10.10.2019
6234 Clouds 10 1016 81 10000 6.2 220 08:58 10.10.2019
6235 Clouds 9 1016 81 10000 6.7 210 08:38 10.10.2019
6236 Rain 9 1016 87 10000 4.6 210 08:19 10.10.2019
6237 Rain 9 1016 87 10000 5.1 210 07:46 10.10.2019
6238 Rain 9 1015 81 10000 5.1 220 07:23 10.10.2019
6239 Rain 9 1015 87 10000 4.1 220 06:49 10.10.2019
6240 Rain 9 1015 87 10000 4.6 210 06:29 10.10.2019
6241 Rain 9 1016 87 10000 5.7 230 05:39 10.10.2019
6242 Rain 9 1016 87 10000 6.2 220 05:18 10.10.2019
6243 Rain 9 1016 87 10000 4.6 210 04:34 10.10.2019
6244 Rain 9 1015 93 10000 4.1 230 02:29 10.10.2019
6245 Rain 10 1015 87 10000 4.6 250 01:37 10.10.2019
6246 Rain 10 1015 81 10000 4.6 220 01:18 10.10.2019
6247 Clouds 9 1015 76 10000 6.2 230 00:29 10.10.2019
6248 Rain 9 1015 81 10000 6.7 240 23:42 09.10.2019
6249 Rain 9 1015 81 10000 6.2 230 23:24 09.10.2019
6250 Rain 9 1015 87 10000 6.2 230 22:59 09.10.2019
6251 Clouds 9 1015 87 10000 6.2 230 22:41 09.10.2019
6252 Clouds 9 1015 81 10000 6.2 210 22:22 09.10.2019
6253 Clouds 9 1015 81 10000 5.1 220 21:57 09.10.2019
6254 Clouds 9 1015 81 10000 5.1 220 21:38 09.10.2019
6255 Rain 9 1015 81 10000 6.7 220 21:19 09.10.2019
6256 Rain 9 1014 81 10000 7.2 220 20:55 09.10.2019
6257 Rain 9 1014 81 10000 7.2 220 20:37 09.10.2019
6258 Rain 9 1014 81 10000 7.2 230 20:18 09.10.2019
6259 Rain 9 1014 81 10000 7.2 230 20:18 09.10.2019
6260 Rain 9 1014 81 10000 6.7 220 19:44 09.10.2019
6261 Rain 9 1014 81 10000 7.2 220 19:23 09.10.2019
6262 Rain 9 1014 81 10000 7.7 230 18:56 09.10.2019
6263 Rain 10 1014 81 10000 7.7 230 18:37 09.10.2019
6264 Rain 10 1014 81 10000 8.7 230 18:18 09.10.2019
6265 Rain 10 1014 87 10000 8.7 230 17:54 09.10.2019
6266 Rain 10 1014 87 10000 8.7 230 17:36 09.10.2019
6267 Rain 10 1014 87 10000 6.2 210 17:18 09.10.2019
6268 Rain 10 1014 81 10000 6.2 240 16:40 09.10.2019
6269 Rain 10 1014 87 9000 6.7 260 16:21 09.10.2019
6270 Rain 10 1014 87 9000 6.7 260 16:21 09.10.2019
6271 Rain 11 1014 93 7000 3.6 220 15:57 09.10.2019
6272 Rain 11 1014 93 7000 3.6 220 15:57 09.10.2019
6273 Rain 11 1014 93 7000 3.6 220 15:39 09.10.2019
6274 Rain 11 1013 93 10000 3.6 190 15:19 09.10.2019
6275 Rain 11 1013 93 10000 3.1 190 14:56 09.10.2019
6276 Rain 11 1013 93 10000 3.1 190 14:37 09.10.2019
6277 Rain 11 1013 87 10000 3.1 210 14:18 09.10.2019
6278 Rain 11 1013 100 6000 3.1 260 13:39 09.10.2019
6279 Rain 11 1013 87 10000 1.5 250 13:21 09.10.2019
6280 Rain 11 1013 93 10000 3.1 140 12:59 09.10.2019
6281 Rain 11 1013 93 10000 3.1 140 12:40 09.10.2019
6282 Rain 11 1013 93 8000 2.1 180 12:21 09.10.2019
6283 Rain 11 1014 93 10000 2.1 140 11:55 09.10.2019
6284 Rain 11 1014 93 10000 2.1 140 11:36 09.10.2019
6285 Rain 11 1014 93 10000 1 0 11:18 09.10.2019
6286 Rain 11 1014 93 10000 1 0 10:43 09.10.2019
6287 Rain 11 1014 93 10000 1 0 10:43 09.10.2019
6288 Rain 11 1014 93 10000 1 0 10:21 09.10.2019
6289 Rain 11 1014 93 10000 1 0 10:21 09.10.2019
6290 Rain 11 1015 93 9000 2.6 300 09:58 09.10.2019
6291 Rain 11 1015 93 9000 2.6 300 09:40 09.10.2019
6292 Rain 11 1015 93 9000 2.6 300 09:40 09.10.2019
6293 Rain 11 1015 93 9000 2.6 300 09:40 09.10.2019
6294 Rain 11 1014 93 10000 2.6 320 09:18 09.10.2019
6295 Rain 11 1014 93 10000 2.1 300 08:41 09.10.2019
6296 Rain 11 1014 93 10000 1.5 280 08:21 09.10.2019
6297 Rain 11 1014 93 10000 2.1 250 07:58 09.10.2019
6298 Rain 11 1014 93 10000 2.1 250 07:37 09.10.2019
6299 Rain 11 1014 93 9000 3.1 280 07:19 09.10.2019
6300 Rain 11 1014 93 10000 2.1 290 06:51 09.10.2019
6301 Rain 12 1014 93 10000 2.6 310 05:56 09.10.2019
6302 Rain 12 1014 93 10000 2.6 310 05:37 09.10.2019
6303 Rain 13 1013 93 5000 5.1 280 04:25 09.10.2019
6304 Rain 15 1011 82 10000 8.7 260 02:52 09.10.2019
6305 Rain 14 1011 72 10000 3.6 220 01:43 09.10.2019
6306 Rain 14 1011 77 10000 3.1 220 01:20 09.10.2019
6307 Rain 15 1011 77 10000 3.1 210 00:57 09.10.2019
6308 Rain 14 1011 77 10000 3.1 210 00:38 09.10.2019
6309 Clouds 14 1011 72 10000 3.1 250 00:20 09.10.2019
6310 Drizzle 15 1011 77 10000 3.6 250 23:39 08.10.2019
6311 Drizzle 15 1011 72 10000 4.1 230 23:19 08.10.2019
6312 Drizzle 15 1011 67 10000 3.6 250 22:57 08.10.2019
6313 Drizzle 15 1011 67 10000 3.6 250 22:38 08.10.2019
6314 Clouds 15 1011 67 10000 4.1 240 22:19 08.10.2019
6315 Clouds 14 1011 67 10000 4.1 210 21:57 08.10.2019
6316 Clouds 15 1011 67 10000 4.1 210 21:39 08.10.2019
6317 Clouds 14 1012 67 10000 3.6 220 21:19 08.10.2019
6318 Clouds 14 1011 77 10000 3.1 210 20:56 08.10.2019
6319 Clouds 14 1011 77 10000 3.1 210 20:38 08.10.2019
6320 Clouds 14 1012 77 10000 2.6 190 20:20 08.10.2019
6321 Clear 14 1012 77 10000 2.1 210 19:58 08.10.2019
6322 Clear 14 1012 77 10000 2.1 210 19:40 08.10.2019
6323 Rain 15 1012 72 10000 2.6 230 19:21 08.10.2019
6324 Rain 15 1012 63 10000 4.6 230 18:55 08.10.2019
6325 Rain 15 1012 63 10000 4.6 230 18:55 08.10.2019
6326 Clouds 15 1012 63 10000 4.6 230 18:36 08.10.2019
6327 Clouds 15 1012 72 10000 2.6 270 18:18 08.10.2019
6328 Drizzle 15 1011 77 10000 4.1 260 17:40 08.10.2019
6329 Drizzle 15 1012 63 10000 4.6 230 17:21 08.10.2019
6330 Drizzle 15 1012 63 10000 4.6 230 16:58 08.10.2019
6331 Rain 15 1012 59 10000 4.6 250 16:40 08.10.2019
6332 Rain 15 1013 55 10000 5.1 260 16:21 08.10.2019
6333 Drizzle 16 1013 55 10000 3.1 240 15:41 08.10.2019
6334 Drizzle 16 1013 55 10000 3.1 240 15:41 08.10.2019
6335 Rain 15 1013 55 10000 3.1 240 15:22 08.10.2019
6336 Rain 15 1013 55 10000 3.1 240 15:22 08.10.2019
6337 Rain 15 1013 59 10000 7.2 250 14:58 08.10.2019
6338 Drizzle 15 1013 55 10000 5.1 220 14:39 08.10.2019
6339 Drizzle 15 1013 55 10000 5.1 220 14:21 08.10.2019
6340 Drizzle 15 1014 58 10000 5.1 230 13:57 08.10.2019
6341 Clouds 15 1014 58 10000 5.1 230 13:38 08.10.2019
6342 Clouds 14 1014 62 10000 5.1 220 13:19 08.10.2019
6343 Clouds 14 1015 71 10000 4.6 210 12:58 08.10.2019
6344 Clouds 13 1015 71 10000 4.6 210 12:38 08.10.2019
6345 Rain 13 1015 71 10000 4.6 200 12:18 08.10.2019
6346 Clouds 12 1015 66 10000 4.1 210 11:42 08.10.2019
6347 Clear 11 1016 71 10000 4.1 200 11:24 08.10.2019
6348 Clear 11 1016 71 10000 4.1 200 11:24 08.10.2019
6349 Rain 11 1016 71 10000 4.1 200 10:58 08.10.2019
6350 Rain 10 1016 76 10000 4.1 200 10:38 08.10.2019
6351 Rain 10 1016 87 10000 2.6 160 10:20 08.10.2019
6352 Rain 9 1016 87 10000 3.1 210 09:57 08.10.2019
6353 Rain 9 1016 87 10000 3.1 210 09:39 08.10.2019
6354 Rain 8 1016 93 10000 3.6 170 09:19 08.10.2019
6355 Clear 8 1017 81 10000 3.6 200 08:42 08.10.2019
6356 Rain 8 1017 87 10000 3.6 200 08:24 08.10.2019
6357 Fog 7 1016 87 10000 4.1 200 07:45 08.10.2019
6358 Fog 7 1017 87 10000 3.6 190 07:22 08.10.2019
6359 Mist 7 1017 87 10000 3.1 200 06:56 08.10.2019
6360 Mist 7 1017 87 10000 3.6 220 06:34 08.10.2019
6361 Fog 7 1018 93 10000 3.1 220 05:57 08.10.2019
6362 Fog 7 1018 93 10000 3.1 220 05:38 08.10.2019
6363 Fog 7 1018 93 10000 2.6 200 04:42 08.10.2019
6364 Fog 7 1019 93 10000 2.6 200 03:29 08.10.2019
6365 Rain 7 1018 100 10000 2.6 200 02:40 08.10.2019
6366 Mist 7 1019 100 10000 3.1 210 01:49 08.10.2019
6367 Clouds 7 1019 100 10000 3.1 210 01:31 08.10.2019
6368 Clouds 7 1019 100 10000 3.1 210 01:31 08.10.2019
6369 Mist 7 1019 100 10000 0.5 0 00:51 08.10.2019
6370 Fog 7 1019 100 7000 1 160 00:22 08.10.2019
6371 Mist 7 1020 93 4500 2.6 200 23:42 07.10.2019
6372 Fog 7 1020 93 10000 0.5 0 23:21 07.10.2019
6373 Fog 7 1020 93 10000 0.5 0 22:58 07.10.2019
6374 Fog 7 1020 100 250 0.5 190 22:40 07.10.2019
6375 Fog 7 1020 100 750 2.95 149.877 22:21 07.10.2019
6376 Fog 7 1019 93 1200 1.5 140 21:58 07.10.2019
6377 Fog 7 1019 93 1200 1.5 140 21:40 07.10.2019
6378 Fog 8 1019 100 5000 2.6 140 21:20 07.10.2019
6379 Fog 8 1019 93 6000 1.5 130 20:58 07.10.2019
6380 Fog 8 1019 93 6000 1.5 130 20:39 07.10.2019
6381 Fog 8 1019 93 6000 1.5 130 20:39 07.10.2019
6382 Fog 8 1019 100 4800 2.1 140 20:21 07.10.2019
6383 Fog 8 1019 100 10000 1.5 120 19:59 07.10.2019
6384 Fog 9 1019 100 10000 1.5 120 19:41 07.10.2019
6385 Fog 9 1019 100 10000 1.5 120 19:41 07.10.2019
6386 Clouds 9 1019 93 10000 2.1 100 19:20 07.10.2019
6387 Clouds 9 1019 93 10000 1.5 90 18:59 07.10.2019
6388 Clouds 10 1019 93 10000 1.5 90 18:39 07.10.2019
6389 Clouds 10 1019 87 10000 2.1 70 18:19 07.10.2019
6390 -273 0 0 0 0 0 17:54 07.10.2019
6391 Clouds 10 1019 87 10000 1.5 60 17:36 07.10.2019
6392 Clouds 10 1019 87 10000 1.5 40 17:18 07.10.2019
6393 Clouds 10 1019 87 10000 2.1 40 16:43 07.10.2019
6394 Clouds 10 1019 87 10000 2.1 10 16:25 07.10.2019
6395 Clouds 10 1019 87 10000 1.5 350 15:46 07.10.2019
6396 Clouds 10 1019 93 10000 2.6 360 15:26 07.10.2019
6397 Drizzle 10 1019 87 10000 2.6 330 14:58 07.10.2019
6398 Drizzle 10 1019 87 10000 2.6 330 14:58 07.10.2019
6399 Drizzle 10 1019 87 10000 2.6 330 14:40 07.10.2019
6400 Drizzle 10 1019 93 8000 3.6 350 14:22 07.10.2019
6401 Rain 9 1019 93 8000 3.6 330 13:44 07.10.2019
6402 Rain 9 1019 93 7000 3.6 340 13:21 07.10.2019
6403 Rain 9 1019 93 7000 3.6 340 12:57 07.10.2019
6404 Rain 9 1018 93 7000 2.6 350 12:39 07.10.2019
6405 Rain 9 1018 93 6000 2.1 350 12:19 07.10.2019
6406 Rain 9 1018 93 7000 2.1 310 11:58 07.10.2019
6407 Rain 8 1018 93 7000 2.1 310 11:39 07.10.2019
6408 Rain 8 1018 93 6000 3.1 270 11:20 07.10.2019
6409 Rain 8 1017 100 6000 2.1 320 10:42 07.10.2019
6410 Rain 8 1017 93 4000 2.6 350 10:23 07.10.2019
6411 Rain 8 1017 100 4500 4.1 80 09:57 07.10.2019
6412 Rain 8 1017 100 4500 4.1 80 09:38 07.10.2019
6413 Rain 7 1017 100 3500 3.1 80 09:20 07.10.2019
6414 Rain 8 1016 93 4000 4.1 260 08:43 07.10.2019
6415 Rain 8 1015 93 3500 4.1 260 08:20 07.10.2019
6416 Rain 8 1015 93 4500 5.1 260 07:49 07.10.2019
6417 Rain 7 1015 100 4000 5.7 250 07:28 07.10.2019
6418 Rain 8 1014 100 4100 4.6 260 06:58 07.10.2019
6419 Rain 8 1014 100 4100 4.6 260 06:39 07.10.2019
6420 Rain 7 1014 100 10000 5.7 250 06:20 07.10.2019
6421 Rain 8 1013 100 10000 4.1 280 05:27 07.10.2019
6422 Rain 8 1013 93 6000 6.2 270 04:54 07.10.2019
6423 Rain 8 1011 100 7000 5.7 270 03:48 07.10.2019
6424 Rain 8 1011 100 7000 5.7 270 03:48 07.10.2019
6425 Rain 8 1011 100 7000 5.7 270 03:30 07.10.2019
6426 Rain 9 1011 93 10000 4.1 240 02:53 07.10.2019
6427 Rain 9 1010 93 10000 4.6 230 02:19 07.10.2019
6428 Rain 9 1010 100 10000 1.5 220 01:24 07.10.2019
6429 Rain 9 1010 100 10000 1.5 220 00:55 07.10.2019
6430 Rain 9 1010 100 10000 1.5 180 00:36 07.10.2019
6431 Rain 9 1010 100 10000 3.1 220 00:18 07.10.2019
6432 Rain 9 1010 100 10000 3.1 220 23:40 06.10.2019
6433 Rain 9 1010 100 10000 3.6 210 23:21 06.10.2019
6434 Rain 9 1010 100 10000 3.6 210 22:58 06.10.2019
6435 Rain 9 1010 100 10000 2.6 210 22:40 06.10.2019
6436 Rain 9 1010 100 10000 2.1 200 22:21 06.10.2019
6437 Rain 9 1010 93 10000 1.5 180 21:57 06.10.2019
6438 Rain 9 1010 93 10000 1.5 180 21:37 06.10.2019
6439 Rain 9 1010 93 10000 1.5 180 21:37 06.10.2019
6440 Rain 9 1011 100 10000 1 200 21:19 06.10.2019
6441 Rain 9 1011 100 8000 2.1 140 20:57 06.10.2019
6442 Rain 9 1011 100 8000 2.1 140 20:38 06.10.2019
6443 Rain 9 1012 100 6000 2.1 120 20:20 06.10.2019
6444 Rain 9 1012 100 6000 2.1 120 19:57 06.10.2019
6445 Rain 9 1012 93 4300 2.6 110 19:37 06.10.2019
6446 Rain 9 1012 93 4300 2.6 110 19:19 06.10.2019
6447 Rain 9 1012 93 4300 2.6 110 18:56 06.10.2019
6448 Rain 10 1012 93 10000 2.6 120 18:38 06.10.2019
6449 Rain 10 1012 93 10000 2.6 120 18:38 06.10.2019
6450 Rain 10 1013 93 10000 3.1 110 18:19 06.10.2019
6451 Rain 10 1013 93 10000 3.6 110 17:57 06.10.2019
6452 Rain 10 1013 93 10000 3.6 110 17:38 06.10.2019
6453 Rain 10 1013 87 10000 3.1 100 17:18 06.10.2019
6454 Rain 10 1014 87 10000 2.6 90 16:42 06.10.2019
6455 Rain 10 1014 87 10000 2.1 90 16:23 06.10.2019
6456 Rain 11 1015 81 10000 4.1 90 15:54 06.10.2019
6457 Rain 11 1015 81 10000 4.1 90 15:36 06.10.2019
6458 Rain 11 1015 76 10000 5.1 100 15:18 06.10.2019
6459 Rain 11 1015 71 10000 4.6 100 14:42 06.10.2019
6460 Rain 11 1015 71 10000 4.6 100 14:42 06.10.2019
6461 Rain 11 1015 71 10000 4.6 100 14:42 06.10.2019
6462 Rain 11 1015 87 10000 3.1 100 14:24 06.10.2019
6463 Clouds 11 1016 81 10000 2.6 90 13:56 06.10.2019
6464 Clouds 11 1016 81 10000 2.6 90 13:38 06.10.2019
6465 Clouds 11 1016 81 10000 2.1 100 13:19 06.10.2019
6466 Clouds 10 1016 87 10000 2.6 100 12:56 06.10.2019
6467 Clouds 10 1016 87 10000 2.6 100 12:38 06.10.2019
6468 Clouds 10 1017 93 10000 2.1 80 12:20 06.10.2019
6469 Clouds 10 1017 93 10000 2.1 80 11:55 06.10.2019
6470 Clouds 9 1017 87 10000 1.5 80 11:37 06.10.2019
6471 Clouds 8 1017 93 10000 1.5 90 11:18 06.10.2019
6472 Clouds 8 1017 93 10000 2.6 80 10:42 06.10.2019
6473 Clouds 7 1018 100 10000 2.1 100 10:24 06.10.2019
6474 Clouds 6 1018 93 10000 1.5 80 09:56 06.10.2019
6475 Clouds 6 1018 93 10000 1.5 80 09:38 06.10.2019
6476 Clouds 5 1017 100 10000 2.1 70 09:18 06.10.2019
6477 Fog 5 1017 93 8000 1 0 08:40 06.10.2019
6478 Fog 4 1018 93 7000 1 0 08:20 06.10.2019
6479 Fog 4 1017 93 8000 2.1 100 07:44 06.10.2019
6480 Fog 4 1018 100 10000 1.5 120 07:19 06.10.2019
6481 Fog 4 1017 100 10000 1 0 06:20 06.10.2019
6482 Fog 4 1017 100 10000 1.5 110 05:33 06.10.2019
6483 Clouds 4 1018 93 1500 2.1 160 03:41 06.10.2019
6484 Clouds 5 1018 100 1500 1 100 02:42 06.10.2019
6485 Clouds 5 1019 100 10000 1 190 02:21 06.10.2019
6486 Clouds 5 1018 100 1200 2.06 69.561 01:44 06.10.2019
6487 Clouds 5 1018 100 2100 1.5 160 01:26 06.10.2019
6488 Clouds 5 1018 93 10000 1 200 00:52 06.10.2019
6489 Clouds 6 1018 93 10000 1 200 00:26 06.10.2019
6490 Clouds 7 1018 100 10000 2.61 62.699 23:44 05.10.2019
6491 Clouds 8 1018 93 10000 1 210 23:22 05.10.2019
6492 Clouds 8 1018 93 10000 1 210 22:58 05.10.2019
6493 Clouds 8 1018 93 10000 1 0 22:40 05.10.2019
6494 Clouds 8 1018 93 10000 0.5 0 22:20 05.10.2019
6495 Clouds 8 1018 87 10000 1.5 60 21:57 05.10.2019
6496 Clouds 8 1018 87 10000 1.5 60 21:38 05.10.2019
6497 Clouds 8 1018 93 10000 1 80 21:18 05.10.2019
6498 Clouds 8 1018 93 10000 1.5 90 20:56 05.10.2019
6499 Clouds 9 1018 93 10000 1.5 90 20:37 05.10.2019
6500 Clouds 9 1018 81 10000 1.5 50 20:18 05.10.2019
6501 Clouds 9 1018 81 10000 2.1 30 19:38 05.10.2019
6502 Clouds 9 1017 81 10000 2.6 20 19:19 05.10.2019
6503 Clouds 9 1017 76 10000 3.1 350 18:55 05.10.2019
6504 Clouds 10 1017 76 10000 3.1 350 18:37 05.10.2019
6505 Rain 10 1016 76 10000 3.1 360 18:19 05.10.2019
6506 Rain 10 1016 76 10000 4.1 350 17:43 05.10.2019
6507 Rain 10 1016 76 10000 4.1 350 17:25 05.10.2019
6508 Clouds 10 1015 76 10000 6.7 340 16:59 05.10.2019
6509 Clouds 10 1015 76 10000 6.7 340 16:41 05.10.2019
6510 Clouds 10 1014 76 10000 5.1 320 16:21 05.10.2019
6511 Clouds 10 1014 87 10000 3.6 310 15:57 05.10.2019
6512 Clouds 10 1014 87 10000 3.6 310 15:39 05.10.2019
6513 Clouds 10 1014 87 10000 4.1 300 15:21 05.10.2019
6514 Rain 10 1013 93 10000 4.6 310 14:56 05.10.2019
6515 Rain 10 1013 93 10000 4.6 310 14:38 05.10.2019
6516 Rain 10 1012 71 10000 6.7 310 14:19 05.10.2019
6517 Rain 10 1012 93 6000 5.1 340 13:41 05.10.2019
6518 Rain 10 1012 93 4500 8.7 320 13:21 05.10.2019
6519 Rain 10 1011 93 3300 6.7 290 12:46 05.10.2019
6520 Rain 10 1011 93 2700 5.7 300 12:21 05.10.2019
6521 Rain 11 1011 93 10000 7.7 250 11:58 05.10.2019
6522 Rain 10 1011 93 3300 6.7 250 11:37 05.10.2019
6523 Rain 10 1011 93 3300 6.7 250 11:18 05.10.2019
6524 Rain 11 1010 87 10000 7.2 250 10:44 05.10.2019
6525 Rain 11 1010 87 10000 7.7 250 10:25 05.10.2019
6526 Rain 10 1010 93 10000 6.2 240 09:58 05.10.2019
6527 Rain 10 1010 93 10000 6.2 240 09:39 05.10.2019
6528 Rain 10 1009 87 10000 7.2 240 09:20 05.10.2019
6529 Rain 10 1009 87 10000 7.2 240 09:20 05.10.2019
6530 Rain 10 1009 87 10000 8.2 240 08:40 05.10.2019
6531 Rain 10 1009 87 10000 6.7 240 08:20 05.10.2019
6532 Rain 10 1009 87 10000 7.2 240 07:57 05.10.2019
6533 Rain 10 1009 87 10000 7.2 240 07:35 05.10.2019
6534 Rain 10 1009 87 10000 6.7 240 06:59 05.10.2019
6535 Rain 10 1009 87 10000 7.2 240 06:28 05.10.2019
6536 Rain 10 1009 87 10000 7.2 240 06:28 05.10.2019
6537 Rain 10 1009 87 10000 8.7 230 05:51 05.10.2019
6538 Rain 10 1009 81 10000 7.2 230 04:21 05.10.2019
6539 Rain 10 1010 81 10000 8.7 230 03:28 05.10.2019
6540 Rain 10 1010 76 10000 6.7 230 01:42 05.10.2019
6541 Rain 10 1010 81 10000 6.7 230 01:20 05.10.2019
6542 Rain 10 1010 76 10000 6.2 240 00:43 05.10.2019
6543 Rain 10 1010 76 10000 6.2 240 00:25 05.10.2019
6544 Rain 11 1010 81 10000 7.2 240 23:45 04.10.2019
6545 Rain 11 1010 76 10000 6.2 250 23:26 04.10.2019
6546 Rain 11 1010 76 10000 6.2 250 23:26 04.10.2019
6547 Rain 10 1010 76 10000 6.7 250 22:59 04.10.2019
6548 Rain 10 1010 76 10000 6.7 250 22:40 04.10.2019
6549 Rain 10 1010 81 10000 6.7 250 22:22 04.10.2019
6550 Rain 10 1010 81 10000 5.7 250 21:57 04.10.2019
6551 Rain 10 1010 81 10000 5.7 250 21:39 04.10.2019
6552 Rain 11 1010 81 10000 6.2 250 21:20 04.10.2019
6553 Rain 11 1009 87 10000 5.7 240 20:57 04.10.2019
6554 Rain 11 1010 81 10000 6.2 250 20:57 04.10.2019
6555 Rain 11 1009 87 10000 5.7 240 20:39 04.10.2019
6556 Rain 11 1009 81 10000 4.6 260 20:20 04.10.2019
6557 Rain 11 1009 81 10000 6.2 250 19:49 04.10.2019
6558 Rain 10 1009 81 10000 6.2 250 19:30 04.10.2019
6559 Drizzle 11 1009 81 10000 6.2 250 18:59 04.10.2019
6560 Drizzle 11 1009 81 10000 6.2 250 18:39 04.10.2019
6561 Rain 11 1008 81 10000 6.7 250 18:19 04.10.2019
6562 Rain 11 1009 87 10000 3.6 210 17:57 04.10.2019
6563 Rain 11 1009 87 10000 3.6 210 17:38 04.10.2019
6564 Rain 11 1009 93 10000 5.1 220 17:20 04.10.2019
6565 Rain 11 1009 87 10000 4.1 200 16:55 04.10.2019
6566 Clouds 11 1009 87 10000 4.1 200 16:36 04.10.2019
6567 Rain 11 1009 93 10000 4.1 180 16:18 04.10.2019
6568 Rain 11 1009 87 10000 3.1 190 15:55 04.10.2019
6569 Rain 11 1009 87 10000 3.1 190 15:36 04.10.2019
6570 Rain 11 1010 87 10000 3.6 200 15:18 04.10.2019
6571 Rain 11 1010 76 10000 5.7 240 14:42 04.10.2019
6572 Rain 12 1010 66 10000 5.1 260 14:22 04.10.2019
6573 Rain 12 1010 57 10000 4.6 240 13:59 04.10.2019
6574 Rain 12 1010 57 10000 4.6 240 13:40 04.10.2019
6575 Drizzle 11 1011 76 10000 4.6 230 13:19 04.10.2019
6576 Clear 11 1012 66 10000 4.1 190 12:45 04.10.2019
6577 Rain 10 1012 81 10000 4.1 150 12:27 04.10.2019
6578 Rain 10 1012 81 10000 4.1 150 12:27 04.10.2019
6579 Rain 10 1012 81 10000 4.1 150 11:56 04.10.2019
6580 Clouds 10 1012 81 10000 3.6 160 11:56 04.10.2019
6581 Rain 9 1012 81 10000 3.6 160 11:38 04.10.2019
6582 Rain 8 1013 87 10000 1.5 200 11:19 04.10.2019
6583 Rain 7 1013 93 10000 1 0 10:39 04.10.2019
6584 Rain 7 1013 87 10000 1 0 10:20 04.10.2019
6585 Clear 7 1013 93 10000 0.5 0 09:45 04.10.2019
6586 Clear 7 1013 93 10000 0.5 0 09:45 04.10.2019
6587 Clear 6 1013 93 10000 1 0 09:27 04.10.2019
6588 Clear 5 1012 93 10000 1.5 140 08:56 04.10.2019
6589 Clear 5 1012 93 10000 1.5 140 08:38 04.10.2019
6590 Clear 5 1013 100 10000 2.44 155.715 08:19 04.10.2019
6591 Clear 4 1013 100 10000 2.6 150 07:44 04.10.2019
6592 Clear 4 1013 93 10000 2.1 170 07:22 04.10.2019
6593 Clouds 4 1014 93 10000 1.5 170 06:44 04.10.2019
6594 Clouds 4 1014 93 10000 1.5 170 06:44 04.10.2019
6595 Clouds 3 1014 100 10000 2.1 160 06:25 04.10.2019
6596 Clouds 3 1014 100 10000 2.1 160 06:25 04.10.2019
6597 Fog 3 1015 100 10000 1 200 05:42 04.10.2019
6598 Fog 3 1015 100 10000 1.5 140 05:18 04.10.2019
6599 Fog 4 1015 93 10000 1 220 03:48 04.10.2019
6600 Clouds 4 1016 93 10000 1 210 02:54 04.10.2019
6601 Clouds 4 1016 93 10000 2.17 216.337 02:18 04.10.2019
6602 Clouds 4 1017 93 10000 0.5 0 01:42 04.10.2019
6603 Clouds 4 1017 93 10000 2.1 170 01:23 04.10.2019
6604 Clear 4 1018 100 10000 1.5 160 23:59 03.10.2019
6605 Clear 4 1018 93 10000 2.1 200 23:37 03.10.2019
6606 Clear 4 1018 100 10000 1 140 23:18 03.10.2019
6607 Clear 4 1018 100 10000 1 140 23:18 03.10.2019
6608 Clear 4 1018 93 10000 1 0 22:56 03.10.2019
6609 Clear 4 1018 93 10000 1 0 22:38 03.10.2019
6610 Clear 4 1018 93 10000 1 0 22:38 03.10.2019
6611 Clear 4 1018 93 10000 1 140 22:20 03.10.2019
6612 Clear 4 1018 93 10000 1 140 21:56 03.10.2019
6613 Clear 5 1018 93 10000 1 180 21:37 03.10.2019
6614 Clouds 5 1018 100 10000 1.5 160 21:19 03.10.2019
6615 Clouds 5 1018 100 10000 1.5 150 20:56 03.10.2019
6616 Clouds 6 1018 100 10000 1.5 150 20:37 03.10.2019
6617 Clouds 6 1018 100 10000 1.5 150 20:37 03.10.2019
6618 Clouds 7 1018 75 10000 2.19 271.412 20:19 03.10.2019
6619 Clouds 7 1018 87 10000 1.5 190 19:54 03.10.2019
6620 Clouds 9 1018 87 10000 1.5 190 19:36 03.10.2019
6621 Clouds 9 1018 66 10000 1 290 19:18 03.10.2019
6622 Clouds 10 1018 66 10000 2.6 300 18:40 03.10.2019
6623 Clouds 11 1018 61 10000 3.1 300 18:19 03.10.2019
6624 Clouds 11 1018 61 10000 3.1 300 18:19 03.10.2019
6625 Clouds 11 1018 66 10000 3.6 300 17:59 03.10.2019
6626 Clouds 11 1018 66 10000 3.6 300 17:59 03.10.2019
6627 Clouds 11 1018 66 10000 3.6 300 17:41 03.10.2019
6628 Clouds 11 1018 62 10000 3.6 300 17:19 03.10.2019
6629 Clouds 11 1018 61 10000 3.1 280 16:44 03.10.2019
6630 Clouds 11 1018 66 10000 4.1 260 16:26 03.10.2019
6631 Clouds 11 1018 62 10000 4.1 260 15:57 03.10.2019
6632 Clouds 11 1018 62 10000 4.1 260 15:39 03.10.2019
6633 Clouds 11 1019 61 10000 4.1 270 15:21 03.10.2019
6634 Clouds 11 1019 66 10000 5.1 250 14:47 03.10.2019
6635 Clouds 11 1019 61 10000 5.7 240 14:27 03.10.2019
6636 Clouds 11 1019 61 10000 5.7 240 13:59 03.10.2019
6637 Clouds 10 1019 66 10000 5.1 250 13:41 03.10.2019
6638 Clouds 10 1019 70 10000 4.6 280 13:19 03.10.2019
6639 Clouds 10 1019 70 10000 4.6 280 12:57 03.10.2019
6640 Clouds 10 1020 66 10000 5.7 250 12:38 03.10.2019
6641 -273 0 0 0 0 0 12:19 03.10.2019
6642 Clouds 9 1020 71 10000 4.6 270 11:55 03.10.2019
6643 Clouds 9 1020 71 10000 4.6 270 11:36 03.10.2019
6644 Clouds 9 1020 75 10000 5.1 260 11:18 03.10.2019
6645 Clouds 8 1020 81 10000 6.2 260 10:41 03.10.2019
6646 Clouds 8 1020 81 10000 6.2 240 10:19 03.10.2019
6647 Clouds 8 1020 81 10000 6.2 240 09:59 03.10.2019
6648 Clear 7 1020 81 10000 5.1 250 09:40 03.10.2019
6649 Clear 6 1019 87 10000 5.1 250 09:22 03.10.2019
6650 Clear 6 1019 87 10000 5.1 250 08:59 03.10.2019
6651 Clear 6 1019 87 10000 4.1 220 08:40 03.10.2019
6652 Clear 5 1019 93 10000 3.6 250 08:22 03.10.2019
6653 Clear 5 1019 93 10000 4.6 250 07:41 03.10.2019
6654 Clear 5 1018 93 10000 3.6 260 07:20 03.10.2019
6655 Clear 5 1018 87 10000 3.6 260 06:52 03.10.2019
6656 Clear 5 1018 93 10000 3.6 260 06:26 03.10.2019
6657 Clear 6 1018 93 10000 4.1 250 05:47 03.10.2019
6658 Clear 5 1018 93 10000 3.1 230 05:25 03.10.2019
6659 Clear 5 1018 93 10000 3.6 220 04:40 03.10.2019
6660 Clear 5 1018 93 10000 4.6 230 03:36 03.10.2019
6661 Clouds 5 1018 93 10000 3.6 220 03:18 03.10.2019
6662 Clouds 6 1018 87 10000 4.1 240 02:20 03.10.2019
6663 Rain 6 1018 93 10000 3.1 230 01:37 03.10.2019
6664 Rain 6 1018 93 10000 2.6 210 00:52 03.10.2019
6665 Rain 6 1018 93 10000 2.6 210 00:31 03.10.2019
6666 Rain 7 1017 87 10000 3.6 360 23:44 02.10.2019
6667 Rain 7 1017 93 10000 2.6 240 23:24 02.10.2019
6668 Rain 7 1017 93 10000 2.6 240 22:57 02.10.2019
6669 Rain 7 1016 93 10000 4.1 240 22:38 02.10.2019
6670 Rain 8 1016 93 10000 4.6 260 22:18 02.10.2019
6671 Rain 8 1015 100 10000 4.6 250 21:55 02.10.2019
6672 Rain 8 1015 100 10000 4.6 250 21:36 02.10.2019
6673 Rain 8 1014 93 10000 3.1 270 21:18 02.10.2019
6674 Rain 8 1014 93 10000 3.1 270 20:55 02.10.2019
6675 Rain 8 1013 87 10000 2.6 290 20:54 02.10.2019
6676 Rain 8 1013 87 10000 2.6 290 20:54 02.10.2019
6677 Rain 8 1013 87 10000 2.6 290 20:36 02.10.2019
6678 Rain 9 1013 93 10000 4.1 300 20:18 02.10.2019
6679 Rain 9 1012 93 10000 6.2 300 19:43 02.10.2019
6680 Rain 9 1011 93 7000 6.7 310 19:21 02.10.2019
6681 Rain 10 1011 93 7000 6.7 310 18:57 02.10.2019
6682 Rain 10 1010 93 6000 5.7 310 18:39 02.10.2019
6683 Rain 11 1009 93 4500 4.1 320 18:20 02.10.2019
6684 Rain 11 1009 93 4500 4.1 320 17:57 02.10.2019
6685 Rain 12 1009 93 6000 5.1 310 17:38 02.10.2019
6686 Rain 12 1008 87 8000 4.1 270 17:20 02.10.2019
6687 Rain 13 1007 93 9000 4.1 270 16:45 02.10.2019
6688 Rain 14 1007 87 3000 4.1 260 16:22 02.10.2019
6689 Thunderstorm 14 1007 82 10000 4.1 250 15:59 02.10.2019
6690 Rain 15 1007 82 10000 4.6 230 15:41 02.10.2019
6691 Rain 15 1007 82 10000 4.6 230 15:23 02.10.2019
6692 Rain 15 1008 87 10000 6.2 240 14:58 02.10.2019
6693 Rain 15 1007 82 10000 4.1 230 14:40 02.10.2019
6694 Rain 15 1008 72 6000 5.1 230 14:21 02.10.2019
6695 Rain 15 1008 72 10000 4.1 250 13:48 02.10.2019
6696 Rain 15 1008 76 10000 5.7 260 13:29 02.10.2019
6697 Rain 15 1007 72 10000 9.3 250 12:59 02.10.2019
6698 Rain 15 1007 72 10000 6.7 240 12:39 02.10.2019
6699 Rain 15 1007 72 10000 6.7 240 12:21 02.10.2019
6700 Rain 14 1007 76 8000 5.7 240 11:45 02.10.2019
6701 Rain 14 1007 76 10000 6.2 250 11:24 02.10.2019
6702 Rain 14 1007 76 10000 6.2 230 10:55 02.10.2019
6703 Rain 13 1007 82 10000 6.7 240 10:36 02.10.2019
6704 Rain 13 1007 82 10000 6.7 240 10:18 02.10.2019
6705 Clear 13 1006 82 10000 6.2 230 09:39 02.10.2019
6706 Clear 13 1006 82 10000 6.2 230 09:20 02.10.2019
6707 Rain 13 1006 82 10000 5.1 220 08:55 02.10.2019
6708 Rain 13 1006 82 10000 5.7 230 08:36 02.10.2019
6709 Rain 13 1006 82 10000 5.7 230 08:18 02.10.2019
6710 Rain 13 1005 87 10000 5.7 220 07:39 02.10.2019
6711 Rain 13 1005 87 10000 4.1 200 07:21 02.10.2019
6712 Clouds 13 1005 87 10000 4.6 210 06:48 02.10.2019
6713 Rain 13 1005 87 10000 4.6 210 05:56 02.10.2019
6714 Rain 13 1006 87 10000 5.1 210 05:25 02.10.2019
6715 Rain 13 1006 87 10000 4.6 210 04:56 02.10.2019
6716 Rain 14 1006 87 10000 5.1 210 03:53 02.10.2019
6717 Rain 14 1006 82 10000 5.1 220 03:19 02.10.2019
6718 Rain 14 1007 87 10000 4.6 220 02:24 02.10.2019
6719 Rain 14 1007 87 10000 5.7 230 01:52 02.10.2019
6720 Rain 15 1007 93 10000 6.2 200 00:51 02.10.2019
6721 Rain 15 1007 82 10000 5.7 250 00:29 02.10.2019
6722 Rain 15 1007 82 10000 5.7 250 23:54 01.10.2019
6723 Rain 16 1007 87 10000 6.2 220 23:36 01.10.2019
6724 Rain 16 1007 72 10000 4.1 260 23:18 01.10.2019
6725 Rain 16 1007 72 10000 4.1 260 22:57 01.10.2019
6726 Rain 16 1007 77 10000 3.6 240 22:36 01.10.2019
6727 Rain 16 1007 77 10000 3.6 240 22:18 01.10.2019
6728 Rain 16 1007 82 10000 3.6 220 21:42 01.10.2019
6729 Rain 16 1007 82 10000 3.6 220 21:22 01.10.2019
6730 Rain 16 1007 72 10000 3.1 220 20:57 01.10.2019
6731 Rain 16 1007 72 10000 2.6 230 20:38 01.10.2019
6732 Rain 16 1005 87 10000 1.5 210 20:20 01.10.2019
6733 Rain 16 1007 72 10000 2.6 230 20:20 01.10.2019
6734 Rain 16 1006 67 10000<